<?xml version="1.0" encoding="UTF-8" standalone="no" ?>
<gpx xmlns="http://www.topografix.com/GPX/1/1" xmlns:xsi="http://www.w3.org/2001/XMLSchema-instance" xsi:schemaLocation="http://www.topografix.com/GPX/1/1 http://www.topografix.com/GPX/1/1/gpx.xsd" version="1.1" creator="VisuGPX - https://www.visugpx.com">
  <metadata>
    <name>Perrigny-Ermitage-Reculée de Conliège-Guillotine-Voie Verte et ses tunnels.</name>
  </metadata>
  <trk>
    <name><![CDATA[Perrigny-Ermitage-Reculée de Conliège-Guillotine-Voie Verte et ses tunnels._1]]></name>
    <extensions>
      <line xmlns="http://www.topografix.com/GPX/gpx_style/0/2">
        <color>0000FF</color>
        <width>4</width>
      </line>
    </extensions>
    <trkseg>
      <trkpt lat="46.6688" lon="5.5883">
        <ele>350.9</ele>
        <time>2021-10-10T07:53:59Z</time>
      </trkpt>
      <trkpt lat="46.6688" lon="5.58823">
        <ele>352.4</ele>
        <time>2021-10-10T07:54:03Z</time>
      </trkpt>
      <trkpt lat="46.66879" lon="5.58816">
        <ele>355.5</ele>
        <time>2021-10-10T07:54:11Z</time>
      </trkpt>
      <trkpt lat="46.66876" lon="5.58812">
        <ele>355.7</ele>
        <time>2021-10-10T07:56:09Z</time>
      </trkpt>
      <trkpt lat="46.66871" lon="5.58808">
        <ele>354.4</ele>
        <time>2021-10-10T07:56:21Z</time>
      </trkpt>
      <trkpt lat="46.66868" lon="5.58802">
        <ele>354</ele>
        <time>2021-10-10T07:56:26Z</time>
      </trkpt>
      <trkpt lat="46.66863" lon="5.588">
        <ele>353.7</ele>
        <time>2021-10-10T07:56:33Z</time>
      </trkpt>
      <trkpt lat="46.66859" lon="5.58804">
        <ele>353.5</ele>
        <time>2021-10-10T07:56:38Z</time>
      </trkpt>
      <trkpt lat="46.66856" lon="5.58808">
        <ele>353.8</ele>
        <time>2021-10-10T07:56:42Z</time>
      </trkpt>
      <trkpt lat="46.66852" lon="5.58814">
        <ele>354.4</ele>
        <time>2021-10-10T07:56:47Z</time>
      </trkpt>
      <trkpt lat="46.66849" lon="5.58819">
        <ele>354.8</ele>
        <time>2021-10-10T07:56:52Z</time>
      </trkpt>
      <trkpt lat="46.66846" lon="5.58824">
        <ele>355.6</ele>
        <time>2021-10-10T07:56:58Z</time>
      </trkpt>
      <trkpt lat="46.66844" lon="5.58831">
        <ele>356.4</ele>
        <time>2021-10-10T07:57:03Z</time>
      </trkpt>
      <trkpt lat="46.66842" lon="5.58837">
        <ele>357.2</ele>
        <time>2021-10-10T07:57:09Z</time>
      </trkpt>
      <trkpt lat="46.66839" lon="5.58843">
        <ele>358.1</ele>
        <time>2021-10-10T07:57:15Z</time>
      </trkpt>
      <trkpt lat="46.66836" lon="5.58848">
        <ele>358.4</ele>
        <time>2021-10-10T07:57:21Z</time>
      </trkpt>
      <trkpt lat="46.66832" lon="5.58854">
        <ele>358.8</ele>
        <time>2021-10-10T07:57:27Z</time>
      </trkpt>
      <trkpt lat="46.6683" lon="5.5886">
        <ele>359.4</ele>
        <time>2021-10-10T07:57:31Z</time>
      </trkpt>
      <trkpt lat="46.66827" lon="5.58865">
        <ele>360.5</ele>
        <time>2021-10-10T07:57:37Z</time>
      </trkpt>
      <trkpt lat="46.66822" lon="5.58867">
        <ele>361.5</ele>
        <time>2021-10-10T07:57:42Z</time>
      </trkpt>
      <trkpt lat="46.66819" lon="5.58871">
        <ele>362.7</ele>
        <time>2021-10-10T07:57:47Z</time>
      </trkpt>
      <trkpt lat="46.66815" lon="5.58876">
        <ele>364.5</ele>
        <time>2021-10-10T07:57:54Z</time>
      </trkpt>
      <trkpt lat="46.66812" lon="5.58882">
        <ele>365.4</ele>
        <time>2021-10-10T07:58:00Z</time>
      </trkpt>
      <trkpt lat="46.66808" lon="5.58885">
        <ele>362.6</ele>
        <time>2021-10-10T07:58:21Z</time>
      </trkpt>
      <trkpt lat="46.66804" lon="5.58889">
        <ele>361.9</ele>
        <time>2021-10-10T07:58:25Z</time>
      </trkpt>
      <trkpt lat="46.66801" lon="5.58895">
        <ele>361.4</ele>
        <time>2021-10-10T07:58:29Z</time>
      </trkpt>
      <trkpt lat="46.66797" lon="5.58901">
        <ele>361.1</ele>
        <time>2021-10-10T07:58:35Z</time>
      </trkpt>
      <trkpt lat="46.66797" lon="5.58907">
        <ele>360.5</ele>
        <time>2021-10-10T07:58:40Z</time>
      </trkpt>
      <trkpt lat="46.66797" lon="5.58915">
        <ele>360.6</ele>
        <time>2021-10-10T07:58:45Z</time>
      </trkpt>
      <trkpt lat="46.66794" lon="5.58921">
        <ele>361.6</ele>
        <time>2021-10-10T07:58:50Z</time>
      </trkpt>
      <trkpt lat="46.6679" lon="5.58925">
        <ele>362.9</ele>
        <time>2021-10-10T07:58:55Z</time>
      </trkpt>
      <trkpt lat="46.66786" lon="5.58929">
        <ele>364</ele>
        <time>2021-10-10T07:59:00Z</time>
      </trkpt>
      <trkpt lat="46.66782" lon="5.58934">
        <ele>365.7</ele>
        <time>2021-10-10T07:59:07Z</time>
      </trkpt>
      <trkpt lat="46.66778" lon="5.58938">
        <ele>366.7</ele>
        <time>2021-10-10T07:59:14Z</time>
      </trkpt>
      <trkpt lat="46.66774" lon="5.58942">
        <ele>367</ele>
        <time>2021-10-10T07:59:20Z</time>
      </trkpt>
      <trkpt lat="46.66769" lon="5.58946">
        <ele>367.6</ele>
        <time>2021-10-10T07:59:25Z</time>
      </trkpt>
      <trkpt lat="46.66765" lon="5.5895">
        <ele>368.6</ele>
        <time>2021-10-10T07:59:30Z</time>
      </trkpt>
      <trkpt lat="46.6676" lon="5.58952">
        <ele>369.5</ele>
        <time>2021-10-10T07:59:35Z</time>
      </trkpt>
      <trkpt lat="46.66755" lon="5.58953">
        <ele>370.3</ele>
        <time>2021-10-10T07:59:41Z</time>
      </trkpt>
      <trkpt lat="46.66751" lon="5.58957">
        <ele>371.4</ele>
        <time>2021-10-10T07:59:48Z</time>
      </trkpt>
      <trkpt lat="46.66746" lon="5.58959">
        <ele>372.4</ele>
        <time>2021-10-10T07:59:53Z</time>
      </trkpt>
      <trkpt lat="46.66741" lon="5.5896">
        <ele>373.7</ele>
        <time>2021-10-10T07:59:59Z</time>
      </trkpt>
      <trkpt lat="46.66737" lon="5.58962">
        <ele>374.2</ele>
        <time>2021-10-10T08:00:03Z</time>
      </trkpt>
      <trkpt lat="46.66732" lon="5.58964">
        <ele>374.7</ele>
        <time>2021-10-10T08:00:07Z</time>
      </trkpt>
      <trkpt lat="46.66728" lon="5.58966">
        <ele>375</ele>
        <time>2021-10-10T08:00:11Z</time>
      </trkpt>
      <trkpt lat="46.66723" lon="5.58968">
        <ele>375.6</ele>
        <time>2021-10-10T08:00:17Z</time>
      </trkpt>
      <trkpt lat="46.66717" lon="5.58969">
        <ele>376.5</ele>
        <time>2021-10-10T08:00:23Z</time>
      </trkpt>
      <trkpt lat="46.66712" lon="5.58969">
        <ele>377.2</ele>
        <time>2021-10-10T08:00:27Z</time>
      </trkpt>
      <trkpt lat="46.66708" lon="5.58974">
        <ele>378</ele>
        <time>2021-10-10T08:00:33Z</time>
      </trkpt>
      <trkpt lat="46.66704" lon="5.58977">
        <ele>378.6</ele>
        <time>2021-10-10T08:00:39Z</time>
      </trkpt>
      <trkpt lat="46.66703" lon="5.58984">
        <ele>377.6</ele>
        <time>2021-10-10T08:00:50Z</time>
      </trkpt>
      <trkpt lat="46.66702" lon="5.5899">
        <ele>377.3</ele>
        <time>2021-10-10T08:00:57Z</time>
      </trkpt>
      <trkpt lat="46.66701" lon="5.58997">
        <ele>377.5</ele>
        <time>2021-10-10T08:01:02Z</time>
      </trkpt>
      <trkpt lat="46.667" lon="5.59004">
        <ele>377.6</ele>
        <time>2021-10-10T08:01:07Z</time>
      </trkpt>
      <trkpt lat="46.66697" lon="5.59009">
        <ele>377.7</ele>
        <time>2021-10-10T08:01:12Z</time>
      </trkpt>
      <trkpt lat="46.66696" lon="5.59016">
        <ele>378.6</ele>
        <time>2021-10-10T08:01:18Z</time>
      </trkpt>
      <trkpt lat="46.66694" lon="5.59023">
        <ele>378.4</ele>
        <time>2021-10-10T08:01:25Z</time>
      </trkpt>
      <trkpt lat="46.66693" lon="5.5903">
        <ele>378.7</ele>
        <time>2021-10-10T08:01:29Z</time>
      </trkpt>
      <trkpt lat="46.66693" lon="5.59036">
        <ele>379.4</ele>
        <time>2021-10-10T08:01:34Z</time>
      </trkpt>
      <trkpt lat="46.66692" lon="5.59043">
        <ele>380.2</ele>
        <time>2021-10-10T08:01:39Z</time>
      </trkpt>
      <trkpt lat="46.66691" lon="5.5905">
        <ele>380.9</ele>
        <time>2021-10-10T08:01:44Z</time>
      </trkpt>
      <trkpt lat="46.6669" lon="5.59058">
        <ele>382.2</ele>
        <time>2021-10-10T08:01:50Z</time>
      </trkpt>
      <trkpt lat="46.66688" lon="5.59064">
        <ele>383.6</ele>
        <time>2021-10-10T08:01:57Z</time>
      </trkpt>
      <trkpt lat="46.66686" lon="5.59071">
        <ele>384.2</ele>
        <time>2021-10-10T08:02:04Z</time>
      </trkpt>
      <trkpt lat="46.66684" lon="5.59078">
        <ele>384.4</ele>
        <time>2021-10-10T08:02:09Z</time>
      </trkpt>
      <trkpt lat="46.66683" lon="5.59085">
        <ele>384.7</ele>
        <time>2021-10-10T08:02:14Z</time>
      </trkpt>
      <trkpt lat="46.6668" lon="5.59092">
        <ele>385.1</ele>
        <time>2021-10-10T08:02:20Z</time>
      </trkpt>
      <trkpt lat="46.66677" lon="5.59097">
        <ele>385.8</ele>
        <time>2021-10-10T08:02:26Z</time>
      </trkpt>
      <trkpt lat="46.66673" lon="5.59098">
        <ele>386.2</ele>
        <time>2021-10-10T08:02:30Z</time>
      </trkpt>
      <trkpt lat="46.6667" lon="5.59104">
        <ele>387.1</ele>
        <time>2021-10-10T08:02:36Z</time>
      </trkpt>
      <trkpt lat="46.66668" lon="5.5911">
        <ele>387.8</ele>
        <time>2021-10-10T08:02:42Z</time>
      </trkpt>
      <trkpt lat="46.66668" lon="5.59118">
        <ele>388.9</ele>
        <time>2021-10-10T08:02:49Z</time>
      </trkpt>
      <trkpt lat="46.6667" lon="5.59125">
        <ele>390.1</ele>
        <time>2021-10-10T08:02:55Z</time>
      </trkpt>
      <trkpt lat="46.66668" lon="5.59131">
        <ele>391.8</ele>
        <time>2021-10-10T08:03:06Z</time>
      </trkpt>
      <trkpt lat="46.66665" lon="5.59137">
        <ele>392.4</ele>
        <time>2021-10-10T08:03:13Z</time>
      </trkpt>
      <trkpt lat="46.66662" lon="5.59143">
        <ele>392.9</ele>
        <time>2021-10-10T08:03:20Z</time>
      </trkpt>
      <trkpt lat="46.6666" lon="5.59149">
        <ele>394.6</ele>
        <time>2021-10-10T08:03:27Z</time>
      </trkpt>
      <trkpt lat="46.66656" lon="5.59154">
        <ele>396.5</ele>
        <time>2021-10-10T08:03:33Z</time>
      </trkpt>
      <trkpt lat="46.66652" lon="5.59157">
        <ele>398</ele>
        <time>2021-10-10T08:03:40Z</time>
      </trkpt>
      <trkpt lat="46.66648" lon="5.5916">
        <ele>398.9</ele>
        <time>2021-10-10T08:03:47Z</time>
      </trkpt>
      <trkpt lat="46.66644" lon="5.59165">
        <ele>399.5</ele>
        <time>2021-10-10T08:03:55Z</time>
      </trkpt>
      <trkpt lat="46.66642" lon="5.59172">
        <ele>399.7</ele>
        <time>2021-10-10T08:04:01Z</time>
      </trkpt>
      <trkpt lat="46.6664" lon="5.59178">
        <ele>400</ele>
        <time>2021-10-10T08:04:05Z</time>
      </trkpt>
      <trkpt lat="46.66635" lon="5.59181">
        <ele>400</ele>
        <time>2021-10-10T08:04:10Z</time>
      </trkpt>
      <trkpt lat="46.66635" lon="5.59188">
        <ele>400</ele>
        <time>2021-10-10T08:04:14Z</time>
      </trkpt>
      <trkpt lat="46.66635" lon="5.59195">
        <ele>400.3</ele>
        <time>2021-10-10T08:04:17Z</time>
      </trkpt>
      <trkpt lat="46.66634" lon="5.59202">
        <ele>401</ele>
        <time>2021-10-10T08:04:23Z</time>
      </trkpt>
      <trkpt lat="46.66636" lon="5.59209">
        <ele>401.9</ele>
        <time>2021-10-10T08:04:31Z</time>
      </trkpt>
      <trkpt lat="46.66634" lon="5.59215">
        <ele>404.8</ele>
        <time>2021-10-10T08:04:41Z</time>
      </trkpt>
      <trkpt lat="46.66633" lon="5.59222">
        <ele>406.2</ele>
        <time>2021-10-10T08:04:46Z</time>
      </trkpt>
      <trkpt lat="46.6663" lon="5.59227">
        <ele>407.7</ele>
        <time>2021-10-10T08:04:53Z</time>
      </trkpt>
      <trkpt lat="46.66627" lon="5.59232">
        <ele>409.4</ele>
        <time>2021-10-10T08:05:00Z</time>
      </trkpt>
      <trkpt lat="46.66626" lon="5.59239">
        <ele>410</ele>
        <time>2021-10-10T08:05:06Z</time>
      </trkpt>
      <trkpt lat="46.66627" lon="5.59246">
        <ele>410.5</ele>
        <time>2021-10-10T08:05:10Z</time>
      </trkpt>
      <trkpt lat="46.66626" lon="5.59253">
        <ele>411.5</ele>
        <time>2021-10-10T08:05:17Z</time>
      </trkpt>
      <trkpt lat="46.66623" lon="5.5926">
        <ele>411.4</ele>
        <time>2021-10-10T08:05:31Z</time>
      </trkpt>
      <trkpt lat="46.66622" lon="5.59267">
        <ele>412.7</ele>
        <time>2021-10-10T08:05:38Z</time>
      </trkpt>
      <trkpt lat="46.66622" lon="5.59274">
        <ele>414</ele>
        <time>2021-10-10T08:05:43Z</time>
      </trkpt>
      <trkpt lat="46.66625" lon="5.59281">
        <ele>415.1</ele>
        <time>2021-10-10T08:05:48Z</time>
      </trkpt>
      <trkpt lat="46.66628" lon="5.59287">
        <ele>415.7</ele>
        <time>2021-10-10T08:05:52Z</time>
      </trkpt>
      <trkpt lat="46.6663" lon="5.59293">
        <ele>415.9</ele>
        <time>2021-10-10T08:05:59Z</time>
      </trkpt>
      <trkpt lat="46.66631" lon="5.59299">
        <ele>415.8</ele>
        <time>2021-10-10T08:06:05Z</time>
      </trkpt>
      <trkpt lat="46.66632" lon="5.59306">
        <ele>417.2</ele>
        <time>2021-10-10T08:06:16Z</time>
      </trkpt>
      <trkpt lat="46.66632" lon="5.59313">
        <ele>417.9</ele>
        <time>2021-10-10T08:06:21Z</time>
      </trkpt>
      <trkpt lat="46.66635" lon="5.59319">
        <ele>418.7</ele>
        <time>2021-10-10T08:06:28Z</time>
      </trkpt>
      <trkpt lat="46.66637" lon="5.59326">
        <ele>418.9</ele>
        <time>2021-10-10T08:06:33Z</time>
      </trkpt>
      <trkpt lat="46.66636" lon="5.59333">
        <ele>418.6</ele>
        <time>2021-10-10T08:06:39Z</time>
      </trkpt>
      <trkpt lat="46.66634" lon="5.59339">
        <ele>418.1</ele>
        <time>2021-10-10T08:06:43Z</time>
      </trkpt>
      <trkpt lat="46.6663" lon="5.59343">
        <ele>417.6</ele>
        <time>2021-10-10T08:06:47Z</time>
      </trkpt>
      <trkpt lat="46.66627" lon="5.59349">
        <ele>417.6</ele>
        <time>2021-10-10T08:06:52Z</time>
      </trkpt>
      <trkpt lat="46.66625" lon="5.59354">
        <ele>417.3</ele>
        <time>2021-10-10T08:06:58Z</time>
      </trkpt>
      <trkpt lat="46.66621" lon="5.59359">
        <ele>417.6</ele>
        <time>2021-10-10T08:07:04Z</time>
      </trkpt>
      <trkpt lat="46.66619" lon="5.59365">
        <ele>418.2</ele>
        <time>2021-10-10T08:07:09Z</time>
      </trkpt>
      <trkpt lat="46.66617" lon="5.59372">
        <ele>418.6</ele>
        <time>2021-10-10T08:07:14Z</time>
      </trkpt>
      <trkpt lat="46.66617" lon="5.59379">
        <ele>419.1</ele>
        <time>2021-10-10T08:07:19Z</time>
      </trkpt>
      <trkpt lat="46.66619" lon="5.59386">
        <ele>419.3</ele>
        <time>2021-10-10T08:07:24Z</time>
      </trkpt>
      <trkpt lat="46.66621" lon="5.59392">
        <ele>419.2</ele>
        <time>2021-10-10T08:07:34Z</time>
      </trkpt>
      <trkpt lat="46.66623" lon="5.594">
        <ele>419.2</ele>
        <time>2021-10-10T08:07:42Z</time>
      </trkpt>
      <trkpt lat="46.66624" lon="5.59407">
        <ele>420</ele>
        <time>2021-10-10T08:07:47Z</time>
      </trkpt>
      <trkpt lat="46.66625" lon="5.59415">
        <ele>421.4</ele>
        <time>2021-10-10T08:07:52Z</time>
      </trkpt>
      <trkpt lat="46.66627" lon="5.59421">
        <ele>422.6</ele>
        <time>2021-10-10T08:07:58Z</time>
      </trkpt>
      <trkpt lat="46.66625" lon="5.59427">
        <ele>424.3</ele>
        <time>2021-10-10T08:08:06Z</time>
      </trkpt>
      <trkpt lat="46.66625" lon="5.59434">
        <ele>425.4</ele>
        <time>2021-10-10T08:08:14Z</time>
      </trkpt>
      <trkpt lat="46.66628" lon="5.59441">
        <ele>426.3</ele>
        <time>2021-10-10T08:08:19Z</time>
      </trkpt>
      <trkpt lat="46.66632" lon="5.59444">
        <ele>427.3</ele>
        <time>2021-10-10T08:08:24Z</time>
      </trkpt>
      <trkpt lat="46.66635" lon="5.59451">
        <ele>428.2</ele>
        <time>2021-10-10T08:08:29Z</time>
      </trkpt>
      <trkpt lat="46.66636" lon="5.59458">
        <ele>429.4</ele>
        <time>2021-10-10T08:08:34Z</time>
      </trkpt>
      <trkpt lat="46.6664" lon="5.59463">
        <ele>433</ele>
        <time>2021-10-10T08:08:43Z</time>
      </trkpt>
      <trkpt lat="46.66643" lon="5.59469">
        <ele>435.3</ele>
        <time>2021-10-10T08:08:50Z</time>
      </trkpt>
      <trkpt lat="46.66646" lon="5.59475">
        <ele>436.6</ele>
        <time>2021-10-10T08:08:55Z</time>
      </trkpt>
      <trkpt lat="46.66647" lon="5.59483">
        <ele>437.5</ele>
        <time>2021-10-10T08:09:00Z</time>
      </trkpt>
      <trkpt lat="46.6665" lon="5.59489">
        <ele>437.3</ele>
        <time>2021-10-10T08:09:06Z</time>
      </trkpt>
      <trkpt lat="46.66651" lon="5.59496">
        <ele>437.4</ele>
        <time>2021-10-10T08:09:14Z</time>
      </trkpt>
      <trkpt lat="46.66651" lon="5.59503">
        <ele>437.6</ele>
        <time>2021-10-10T08:09:19Z</time>
      </trkpt>
      <trkpt lat="46.66652" lon="5.59509">
        <ele>438.2</ele>
        <time>2021-10-10T08:09:25Z</time>
      </trkpt>
      <trkpt lat="46.66654" lon="5.59516">
        <ele>439.2</ele>
        <time>2021-10-10T08:09:31Z</time>
      </trkpt>
      <trkpt lat="46.66655" lon="5.59522">
        <ele>440.8</ele>
        <time>2021-10-10T08:09:42Z</time>
      </trkpt>
      <trkpt lat="46.66653" lon="5.59529">
        <ele>442.4</ele>
        <time>2021-10-10T08:09:48Z</time>
      </trkpt>
      <trkpt lat="46.6665" lon="5.59534">
        <ele>445.7</ele>
        <time>2021-10-10T08:09:57Z</time>
      </trkpt>
      <trkpt lat="46.66646" lon="5.59539">
        <ele>448.7</ele>
        <time>2021-10-10T08:10:04Z</time>
      </trkpt>
      <trkpt lat="46.66646" lon="5.59546">
        <ele>451.2</ele>
        <time>2021-10-10T08:10:18Z</time>
      </trkpt>
      <trkpt lat="46.66652" lon="5.59548">
        <ele>453.3</ele>
        <time>2021-10-10T08:10:40Z</time>
      </trkpt>
      <trkpt lat="46.66656" lon="5.5955">
        <ele>453.8</ele>
        <time>2021-10-10T08:10:43Z</time>
      </trkpt>
      <trkpt lat="46.6666" lon="5.59555">
        <ele>454.2</ele>
        <time>2021-10-10T08:10:49Z</time>
      </trkpt>
      <trkpt lat="46.66659" lon="5.59562">
        <ele>453.9</ele>
        <time>2021-10-10T08:10:54Z</time>
      </trkpt>
      <trkpt lat="46.66654" lon="5.59562">
        <ele>453.5</ele>
        <time>2021-10-10T08:10:58Z</time>
      </trkpt>
      <trkpt lat="46.66649" lon="5.59563">
        <ele>453.3</ele>
        <time>2021-10-10T08:11:03Z</time>
      </trkpt>
      <trkpt lat="46.66651" lon="5.5957">
        <ele>457.9</ele>
        <time>2021-10-10T08:11:41Z</time>
      </trkpt>
      <trkpt lat="46.66651" lon="5.59577">
        <ele>458.1</ele>
        <time>2021-10-10T08:11:47Z</time>
      </trkpt>
      <trkpt lat="46.66649" lon="5.59582">
        <ele>457.8</ele>
        <time>2021-10-10T08:11:55Z</time>
      </trkpt>
      <trkpt lat="46.66651" lon="5.59588">
        <ele>457.1</ele>
        <time>2021-10-10T08:12:03Z</time>
      </trkpt>
      <trkpt lat="46.66651" lon="5.59595">
        <ele>456.4</ele>
        <time>2021-10-10T08:12:10Z</time>
      </trkpt>
      <trkpt lat="46.66652" lon="5.59603">
        <ele>456.2</ele>
        <time>2021-10-10T08:12:17Z</time>
      </trkpt>
      <trkpt lat="46.66652" lon="5.5961">
        <ele>456.4</ele>
        <time>2021-10-10T08:12:21Z</time>
      </trkpt>
      <trkpt lat="46.66652" lon="5.59617">
        <ele>457</ele>
        <time>2021-10-10T08:12:26Z</time>
      </trkpt>
      <trkpt lat="46.66651" lon="5.59623">
        <ele>457.9</ele>
        <time>2021-10-10T08:12:34Z</time>
      </trkpt>
      <trkpt lat="46.6665" lon="5.5963">
        <ele>457.6</ele>
        <time>2021-10-10T08:12:41Z</time>
      </trkpt>
      <trkpt lat="46.66652" lon="5.59637">
        <ele>456.4</ele>
        <time>2021-10-10T08:12:46Z</time>
      </trkpt>
      <trkpt lat="46.66653" lon="5.59644">
        <ele>454.8</ele>
        <time>2021-10-10T08:12:52Z</time>
      </trkpt>
      <trkpt lat="46.66652" lon="5.59651">
        <ele>452.9</ele>
        <time>2021-10-10T08:13:01Z</time>
      </trkpt>
      <trkpt lat="46.66652" lon="5.59658">
        <ele>451.8</ele>
        <time>2021-10-10T08:13:09Z</time>
      </trkpt>
      <trkpt lat="46.66652" lon="5.59665">
        <ele>451.9</ele>
        <time>2021-10-10T08:13:16Z</time>
      </trkpt>
      <trkpt lat="46.66653" lon="5.59672">
        <ele>452.6</ele>
        <time>2021-10-10T08:13:25Z</time>
      </trkpt>
      <trkpt lat="46.66653" lon="5.59679">
        <ele>453.1</ele>
        <time>2021-10-10T08:13:31Z</time>
      </trkpt>
      <trkpt lat="46.66652" lon="5.59685">
        <ele>453.8</ele>
        <time>2021-10-10T08:13:38Z</time>
      </trkpt>
      <trkpt lat="46.66654" lon="5.59692">
        <ele>454.7</ele>
        <time>2021-10-10T08:13:47Z</time>
      </trkpt>
      <trkpt lat="46.66655" lon="5.59699">
        <ele>453.4</ele>
        <time>2021-10-10T08:13:56Z</time>
      </trkpt>
      <trkpt lat="46.66653" lon="5.59704">
        <ele>453.5</ele>
        <time>2021-10-10T08:14:01Z</time>
      </trkpt>
      <trkpt lat="46.66651" lon="5.59711">
        <ele>454.3</ele>
        <time>2021-10-10T08:14:05Z</time>
      </trkpt>
      <trkpt lat="46.66649" lon="5.59717">
        <ele>456.7</ele>
        <time>2021-10-10T08:14:13Z</time>
      </trkpt>
      <trkpt lat="46.66646" lon="5.59721">
        <ele>457.9</ele>
        <time>2021-10-10T08:14:18Z</time>
      </trkpt>
      <trkpt lat="46.66643" lon="5.59727">
        <ele>459.1</ele>
        <time>2021-10-10T08:14:24Z</time>
      </trkpt>
      <trkpt lat="46.66641" lon="5.59734">
        <ele>460.8</ele>
        <time>2021-10-10T08:14:31Z</time>
      </trkpt>
      <trkpt lat="46.66638" lon="5.59739">
        <ele>463.1</ele>
        <time>2021-10-10T08:14:37Z</time>
      </trkpt>
      <trkpt lat="46.66636" lon="5.59745">
        <ele>465.7</ele>
        <time>2021-10-10T08:14:53Z</time>
      </trkpt>
      <trkpt lat="46.66637" lon="5.59752">
        <ele>465</ele>
        <time>2021-10-10T08:15:01Z</time>
      </trkpt>
      <trkpt lat="46.66636" lon="5.59759">
        <ele>463.3</ele>
        <time>2021-10-10T08:15:09Z</time>
      </trkpt>
      <trkpt lat="46.66635" lon="5.59766">
        <ele>462.8</ele>
        <time>2021-10-10T08:15:15Z</time>
      </trkpt>
      <trkpt lat="46.66632" lon="5.59771">
        <ele>462.8</ele>
        <time>2021-10-10T08:15:21Z</time>
      </trkpt>
      <trkpt lat="46.66629" lon="5.59777">
        <ele>463</ele>
        <time>2021-10-10T08:15:26Z</time>
      </trkpt>
      <trkpt lat="46.66628" lon="5.59783">
        <ele>463.7</ele>
        <time>2021-10-10T08:15:32Z</time>
      </trkpt>
      <trkpt lat="46.66627" lon="5.59791">
        <ele>465</ele>
        <time>2021-10-10T08:15:39Z</time>
      </trkpt>
      <trkpt lat="46.66626" lon="5.59798">
        <ele>466.1</ele>
        <time>2021-10-10T08:15:45Z</time>
      </trkpt>
      <trkpt lat="46.66626" lon="5.59805">
        <ele>466.6</ele>
        <time>2021-10-10T08:15:51Z</time>
      </trkpt>
      <trkpt lat="46.66626" lon="5.59812">
        <ele>467.2</ele>
        <time>2021-10-10T08:15:58Z</time>
      </trkpt>
      <trkpt lat="46.66623" lon="5.59818">
        <ele>468.4</ele>
        <time>2021-10-10T08:16:03Z</time>
      </trkpt>
      <trkpt lat="46.66619" lon="5.59823">
        <ele>471</ele>
        <time>2021-10-10T08:16:09Z</time>
      </trkpt>
      <trkpt lat="46.66616" lon="5.59829">
        <ele>473.9</ele>
        <time>2021-10-10T08:16:15Z</time>
      </trkpt>
      <trkpt lat="46.66613" lon="5.59836">
        <ele>478.2</ele>
        <time>2021-10-10T08:16:31Z</time>
      </trkpt>
      <trkpt lat="46.66611" lon="5.59842">
        <ele>478.7</ele>
        <time>2021-10-10T08:16:36Z</time>
      </trkpt>
      <trkpt lat="46.66608" lon="5.59848">
        <ele>479</ele>
        <time>2021-10-10T08:16:41Z</time>
      </trkpt>
      <trkpt lat="46.66607" lon="5.59854">
        <ele>479.7</ele>
        <time>2021-10-10T08:16:47Z</time>
      </trkpt>
      <trkpt lat="46.66605" lon="5.5986">
        <ele>479.6</ele>
        <time>2021-10-10T08:16:56Z</time>
      </trkpt>
      <trkpt lat="46.66602" lon="5.59866">
        <ele>479.2</ele>
        <time>2021-10-10T08:17:04Z</time>
      </trkpt>
      <trkpt lat="46.66601" lon="5.59873">
        <ele>479.1</ele>
        <time>2021-10-10T08:17:11Z</time>
      </trkpt>
      <trkpt lat="46.66598" lon="5.59878">
        <ele>478.8</ele>
        <time>2021-10-10T08:17:17Z</time>
      </trkpt>
      <trkpt lat="46.66593" lon="5.59882">
        <ele>479.1</ele>
        <time>2021-10-10T08:17:23Z</time>
      </trkpt>
      <trkpt lat="46.6659" lon="5.59888">
        <ele>479.1</ele>
        <time>2021-10-10T08:17:29Z</time>
      </trkpt>
      <trkpt lat="46.66588" lon="5.59895">
        <ele>477.7</ele>
        <time>2021-10-10T08:17:35Z</time>
      </trkpt>
      <trkpt lat="46.66584" lon="5.59897">
        <ele>477.5</ele>
        <time>2021-10-10T08:17:40Z</time>
      </trkpt>
      <trkpt lat="46.66581" lon="5.59903">
        <ele>477.1</ele>
        <time>2021-10-10T08:17:47Z</time>
      </trkpt>
      <trkpt lat="46.66577" lon="5.59908">
        <ele>477</ele>
        <time>2021-10-10T08:17:54Z</time>
      </trkpt>
      <trkpt lat="46.66573" lon="5.59912">
        <ele>477.3</ele>
        <time>2021-10-10T08:18:04Z</time>
      </trkpt>
      <trkpt lat="46.6657" lon="5.59917">
        <ele>478</ele>
        <time>2021-10-10T08:18:13Z</time>
      </trkpt>
      <trkpt lat="46.66564" lon="5.59921">
        <ele>478.4</ele>
        <time>2021-10-10T08:18:16Z</time>
      </trkpt>
      <trkpt lat="46.6656" lon="5.59924">
        <ele>479.5</ele>
        <time>2021-10-10T08:18:21Z</time>
      </trkpt>
      <trkpt lat="46.66557" lon="5.5993">
        <ele>481.2</ele>
        <time>2021-10-10T08:18:28Z</time>
      </trkpt>
      <trkpt lat="46.66554" lon="5.59936">
        <ele>482.5</ele>
        <time>2021-10-10T08:18:39Z</time>
      </trkpt>
      <trkpt lat="46.6655" lon="5.59941">
        <ele>483</ele>
        <time>2021-10-10T08:18:43Z</time>
      </trkpt>
      <trkpt lat="46.66547" lon="5.59947">
        <ele>484</ele>
        <time>2021-10-10T08:18:53Z</time>
      </trkpt>
      <trkpt lat="46.66544" lon="5.59952">
        <ele>484.5</ele>
        <time>2021-10-10T08:18:56Z</time>
      </trkpt>
      <trkpt lat="46.66541" lon="5.59958">
        <ele>485.1</ele>
        <time>2021-10-10T08:19:00Z</time>
      </trkpt>
      <trkpt lat="46.66536" lon="5.59963">
        <ele>485.6</ele>
        <time>2021-10-10T08:19:04Z</time>
      </trkpt>
      <trkpt lat="46.66531" lon="5.59966">
        <ele>485.9</ele>
        <time>2021-10-10T08:19:08Z</time>
      </trkpt>
      <trkpt lat="46.66526" lon="5.59968">
        <ele>486.5</ele>
        <time>2021-10-10T08:19:12Z</time>
      </trkpt>
      <trkpt lat="46.66522" lon="5.59971">
        <ele>487.9</ele>
        <time>2021-10-10T08:19:20Z</time>
      </trkpt>
      <trkpt lat="46.66515" lon="5.59976">
        <ele>490.6</ele>
        <time>2021-10-10T08:19:37Z</time>
      </trkpt>
      <trkpt lat="46.66509" lon="5.59979">
        <ele>491.6</ele>
        <time>2021-10-10T08:19:40Z</time>
      </trkpt>
      <trkpt lat="46.66504" lon="5.59981">
        <ele>493.6</ele>
        <time>2021-10-10T08:19:52Z</time>
      </trkpt>
      <trkpt lat="46.66499" lon="5.59982">
        <ele>494.3</ele>
        <time>2021-10-10T08:19:57Z</time>
      </trkpt>
      <trkpt lat="46.66494" lon="5.59984">
        <ele>494.4</ele>
        <time>2021-10-10T08:20:01Z</time>
      </trkpt>
      <trkpt lat="46.66489" lon="5.59983">
        <ele>494.1</ele>
        <time>2021-10-10T08:20:06Z</time>
      </trkpt>
      <trkpt lat="46.66485" lon="5.59987">
        <ele>492.6</ele>
        <time>2021-10-10T08:20:17Z</time>
      </trkpt>
      <trkpt lat="46.6648" lon="5.59988">
        <ele>492.3</ele>
        <time>2021-10-10T08:20:24Z</time>
      </trkpt>
      <trkpt lat="46.66475" lon="5.5999">
        <ele>492.9</ele>
        <time>2021-10-10T08:20:30Z</time>
      </trkpt>
      <trkpt lat="46.66472" lon="5.59995">
        <ele>493.3</ele>
        <time>2021-10-10T08:20:35Z</time>
      </trkpt>
      <trkpt lat="46.6647" lon="5.60002">
        <ele>493.3</ele>
        <time>2021-10-10T08:20:40Z</time>
      </trkpt>
      <trkpt lat="46.66467" lon="5.60007">
        <ele>493.4</ele>
        <time>2021-10-10T08:20:47Z</time>
      </trkpt>
      <trkpt lat="46.66462" lon="5.60011">
        <ele>493.1</ele>
        <time>2021-10-10T08:20:57Z</time>
      </trkpt>
      <trkpt lat="46.66458" lon="5.60014">
        <ele>492.8</ele>
        <time>2021-10-10T08:21:00Z</time>
      </trkpt>
      <trkpt lat="46.66453" lon="5.60012">
        <ele>493.5</ele>
        <time>2021-10-10T08:21:16Z</time>
      </trkpt>
      <trkpt lat="46.66449" lon="5.60013">
        <ele>495</ele>
        <time>2021-10-10T08:21:22Z</time>
      </trkpt>
      <trkpt lat="46.66444" lon="5.60016">
        <ele>496.2</ele>
        <time>2021-10-10T08:21:27Z</time>
      </trkpt>
      <trkpt lat="46.6644" lon="5.60021">
        <ele>497.3</ele>
        <time>2021-10-10T08:21:33Z</time>
      </trkpt>
      <trkpt lat="46.66437" lon="5.60026">
        <ele>498.2</ele>
        <time>2021-10-10T08:21:38Z</time>
      </trkpt>
      <trkpt lat="46.66433" lon="5.6003">
        <ele>499.2</ele>
        <time>2021-10-10T08:21:44Z</time>
      </trkpt>
      <trkpt lat="46.66429" lon="5.60033">
        <ele>500.2</ele>
        <time>2021-10-10T08:21:49Z</time>
      </trkpt>
      <trkpt lat="46.66424" lon="5.60035">
        <ele>500.2</ele>
        <time>2021-10-10T08:21:57Z</time>
      </trkpt>
      <trkpt lat="46.66419" lon="5.60038">
        <ele>499.5</ele>
        <time>2021-10-10T08:22:04Z</time>
      </trkpt>
      <trkpt lat="46.66415" lon="5.6004">
        <ele>499.2</ele>
        <time>2021-10-10T08:22:08Z</time>
      </trkpt>
      <trkpt lat="46.6641" lon="5.60043">
        <ele>499</ele>
        <time>2021-10-10T08:22:13Z</time>
      </trkpt>
      <trkpt lat="46.66406" lon="5.60047">
        <ele>499.2</ele>
        <time>2021-10-10T08:22:18Z</time>
      </trkpt>
      <trkpt lat="46.66402" lon="5.60052">
        <ele>499.5</ele>
        <time>2021-10-10T08:22:25Z</time>
      </trkpt>
      <trkpt lat="46.66397" lon="5.60054">
        <ele>500.5</ele>
        <time>2021-10-10T08:22:34Z</time>
      </trkpt>
      <trkpt lat="46.66393" lon="5.60053">
        <ele>501.2</ele>
        <time>2021-10-10T08:22:38Z</time>
      </trkpt>
      <trkpt lat="46.66387" lon="5.60053">
        <ele>501.4</ele>
        <time>2021-10-10T08:22:43Z</time>
      </trkpt>
      <trkpt lat="46.66383" lon="5.60055">
        <ele>501.3</ele>
        <time>2021-10-10T08:22:48Z</time>
      </trkpt>
      <trkpt lat="46.66379" lon="5.6006">
        <ele>501.4</ele>
        <time>2021-10-10T08:22:54Z</time>
      </trkpt>
      <trkpt lat="46.66375" lon="5.60062">
        <ele>501.9</ele>
        <time>2021-10-10T08:22:59Z</time>
      </trkpt>
      <trkpt lat="46.6637" lon="5.60064">
        <ele>502.6</ele>
        <time>2021-10-10T08:23:03Z</time>
      </trkpt>
      <trkpt lat="46.66366" lon="5.60066">
        <ele>503.4</ele>
        <time>2021-10-10T08:23:07Z</time>
      </trkpt>
      <trkpt lat="46.66361" lon="5.60069">
        <ele>504.1</ele>
        <time>2021-10-10T08:23:11Z</time>
      </trkpt>
      <trkpt lat="46.66357" lon="5.60072">
        <ele>505</ele>
        <time>2021-10-10T08:23:17Z</time>
      </trkpt>
      <trkpt lat="46.66353" lon="5.60076">
        <ele>505.5</ele>
        <time>2021-10-10T08:23:23Z</time>
      </trkpt>
      <trkpt lat="46.66348" lon="5.60075">
        <ele>505.8</ele>
        <time>2021-10-10T08:23:29Z</time>
      </trkpt>
      <trkpt lat="46.66344" lon="5.60076">
        <ele>506.1</ele>
        <time>2021-10-10T08:23:38Z</time>
      </trkpt>
      <trkpt lat="46.6634" lon="5.6008">
        <ele>506.8</ele>
        <time>2021-10-10T08:23:44Z</time>
      </trkpt>
      <trkpt lat="46.66334" lon="5.60084">
        <ele>508.1</ele>
        <time>2021-10-10T08:23:58Z</time>
      </trkpt>
      <trkpt lat="46.66329" lon="5.60086">
        <ele>508</ele>
        <time>2021-10-10T08:24:02Z</time>
      </trkpt>
      <trkpt lat="46.66325" lon="5.60089">
        <ele>508.2</ele>
        <time>2021-10-10T08:24:07Z</time>
      </trkpt>
      <trkpt lat="46.6632" lon="5.60092">
        <ele>509.3</ele>
        <time>2021-10-10T08:24:14Z</time>
      </trkpt>
      <trkpt lat="46.66316" lon="5.60098">
        <ele>509.8</ele>
        <time>2021-10-10T08:24:18Z</time>
      </trkpt>
      <trkpt lat="46.66311" lon="5.60101">
        <ele>511.2</ele>
        <time>2021-10-10T08:24:24Z</time>
      </trkpt>
      <trkpt lat="46.66306" lon="5.60101">
        <ele>514.2</ele>
        <time>2021-10-10T08:24:33Z</time>
      </trkpt>
      <trkpt lat="46.66301" lon="5.601">
        <ele>517.1</ele>
        <time>2021-10-10T08:24:41Z</time>
      </trkpt>
      <trkpt lat="46.66295" lon="5.60105">
        <ele>518.9</ele>
        <time>2021-10-10T08:24:54Z</time>
      </trkpt>
      <trkpt lat="46.66291" lon="5.6011">
        <ele>519.3</ele>
        <time>2021-10-10T08:24:57Z</time>
      </trkpt>
      <trkpt lat="46.66287" lon="5.60115">
        <ele>519.5</ele>
        <time>2021-10-10T08:25:01Z</time>
      </trkpt>
      <trkpt lat="46.66282" lon="5.60118">
        <ele>519.7</ele>
        <time>2021-10-10T08:25:06Z</time>
      </trkpt>
      <trkpt lat="46.66278" lon="5.60122">
        <ele>520.4</ele>
        <time>2021-10-10T08:25:12Z</time>
      </trkpt>
      <trkpt lat="46.66273" lon="5.60124">
        <ele>522.2</ele>
        <time>2021-10-10T08:25:18Z</time>
      </trkpt>
      <trkpt lat="46.66268" lon="5.60123">
        <ele>524.3</ele>
        <time>2021-10-10T08:25:23Z</time>
      </trkpt>
      <trkpt lat="46.66263" lon="5.60122">
        <ele>526</ele>
        <time>2021-10-10T08:25:28Z</time>
      </trkpt>
      <trkpt lat="46.66258" lon="5.60123">
        <ele>527.2</ele>
        <time>2021-10-10T08:25:35Z</time>
      </trkpt>
      <trkpt lat="46.6625" lon="5.60129">
        <ele>528.9</ele>
        <time>2021-10-10T08:25:52Z</time>
      </trkpt>
      <trkpt lat="46.66245" lon="5.6013">
        <ele>529.8</ele>
        <time>2021-10-10T08:25:55Z</time>
      </trkpt>
      <trkpt lat="46.66241" lon="5.60129">
        <ele>531.2</ele>
        <time>2021-10-10T08:26:00Z</time>
      </trkpt>
      <trkpt lat="46.66236" lon="5.60128">
        <ele>532.4</ele>
        <time>2021-10-10T08:26:08Z</time>
      </trkpt>
      <trkpt lat="46.66231" lon="5.60126">
        <ele>532.7</ele>
        <time>2021-10-10T08:26:14Z</time>
      </trkpt>
      <trkpt lat="46.66226" lon="5.60128">
        <ele>533</ele>
        <time>2021-10-10T08:26:20Z</time>
      </trkpt>
      <trkpt lat="46.66222" lon="5.6013">
        <ele>533.6</ele>
        <time>2021-10-10T08:26:26Z</time>
      </trkpt>
      <trkpt lat="46.66218" lon="5.60133">
        <ele>534.2</ele>
        <time>2021-10-10T08:26:34Z</time>
      </trkpt>
      <trkpt lat="46.66213" lon="5.60132">
        <ele>534.2</ele>
        <time>2021-10-10T08:26:42Z</time>
      </trkpt>
      <trkpt lat="46.66208" lon="5.60134">
        <ele>534.6</ele>
        <time>2021-10-10T08:26:51Z</time>
      </trkpt>
      <trkpt lat="46.66204" lon="5.60137">
        <ele>534.4</ele>
        <time>2021-10-10T08:26:56Z</time>
      </trkpt>
      <trkpt lat="46.66199" lon="5.6014">
        <ele>534.2</ele>
        <time>2021-10-10T08:27:01Z</time>
      </trkpt>
      <trkpt lat="46.66194" lon="5.60142">
        <ele>533.9</ele>
        <time>2021-10-10T08:27:05Z</time>
      </trkpt>
      <trkpt lat="46.6619" lon="5.60144">
        <ele>533.3</ele>
        <time>2021-10-10T08:27:09Z</time>
      </trkpt>
      <trkpt lat="46.66186" lon="5.60147">
        <ele>532.5</ele>
        <time>2021-10-10T08:27:15Z</time>
      </trkpt>
      <trkpt lat="46.66181" lon="5.60149">
        <ele>532.5</ele>
        <time>2021-10-10T08:27:20Z</time>
      </trkpt>
      <trkpt lat="46.66184" lon="5.60143">
        <ele>538</ele>
        <time>2021-10-10T08:28:18Z</time>
      </trkpt>
      <trkpt lat="46.66179" lon="5.60144">
        <ele>539.6</ele>
        <time>2021-10-10T08:29:01Z</time>
      </trkpt>
      <trkpt lat="46.66175" lon="5.60142">
        <ele>539.7</ele>
        <time>2021-10-10T08:29:07Z</time>
      </trkpt>
      <trkpt lat="46.6617" lon="5.60141">
        <ele>539.6</ele>
        <time>2021-10-10T08:29:13Z</time>
      </trkpt>
      <trkpt lat="46.66165" lon="5.6014">
        <ele>538.2</ele>
        <time>2021-10-10T08:29:21Z</time>
      </trkpt>
      <trkpt lat="46.66161" lon="5.60139">
        <ele>537</ele>
        <time>2021-10-10T08:29:26Z</time>
      </trkpt>
      <trkpt lat="46.66156" lon="5.60136">
        <ele>535.4</ele>
        <time>2021-10-10T08:29:32Z</time>
      </trkpt>
      <trkpt lat="46.66152" lon="5.60134">
        <ele>533.7</ele>
        <time>2021-10-10T08:29:37Z</time>
      </trkpt>
      <trkpt lat="46.66146" lon="5.60132">
        <ele>532.5</ele>
        <time>2021-10-10T08:29:41Z</time>
      </trkpt>
      <trkpt lat="46.66141" lon="5.60132">
        <ele>531</ele>
        <time>2021-10-10T08:29:46Z</time>
      </trkpt>
      <trkpt lat="46.66136" lon="5.60131">
        <ele>529.9</ele>
        <time>2021-10-10T08:29:51Z</time>
      </trkpt>
      <trkpt lat="46.66131" lon="5.60132">
        <ele>529.1</ele>
        <time>2021-10-10T08:29:56Z</time>
      </trkpt>
      <trkpt lat="46.66127" lon="5.60134">
        <ele>529</ele>
        <time>2021-10-10T08:30:01Z</time>
      </trkpt>
      <trkpt lat="46.66122" lon="5.60133">
        <ele>529.3</ele>
        <time>2021-10-10T08:30:06Z</time>
      </trkpt>
      <trkpt lat="46.66115" lon="5.60138">
        <ele>528.8</ele>
        <time>2021-10-10T08:30:18Z</time>
      </trkpt>
      <trkpt lat="46.66111" lon="5.60142">
        <ele>528.2</ele>
        <time>2021-10-10T08:30:21Z</time>
      </trkpt>
      <trkpt lat="46.66106" lon="5.60145">
        <ele>527.2</ele>
        <time>2021-10-10T08:30:26Z</time>
      </trkpt>
      <trkpt lat="46.66102" lon="5.60149">
        <ele>525.4</ele>
        <time>2021-10-10T08:30:32Z</time>
      </trkpt>
      <trkpt lat="46.66098" lon="5.60153">
        <ele>522.5</ele>
        <time>2021-10-10T08:30:40Z</time>
      </trkpt>
      <trkpt lat="46.66093" lon="5.60156">
        <ele>519.4</ele>
        <time>2021-10-10T08:30:47Z</time>
      </trkpt>
      <trkpt lat="46.66088" lon="5.60157">
        <ele>518.1</ele>
        <time>2021-10-10T08:30:51Z</time>
      </trkpt>
      <trkpt lat="46.66083" lon="5.60159">
        <ele>516.2</ele>
        <time>2021-10-10T08:30:59Z</time>
      </trkpt>
      <trkpt lat="46.66075" lon="5.6016">
        <ele>516.4</ele>
        <time>2021-10-10T08:31:07Z</time>
      </trkpt>
      <trkpt lat="46.66071" lon="5.60161">
        <ele>516.7</ele>
        <time>2021-10-10T08:31:10Z</time>
      </trkpt>
      <trkpt lat="46.66065" lon="5.60163">
        <ele>517.2</ele>
        <time>2021-10-10T08:31:15Z</time>
      </trkpt>
      <trkpt lat="46.66061" lon="5.60164">
        <ele>517.8</ele>
        <time>2021-10-10T08:31:19Z</time>
      </trkpt>
      <trkpt lat="46.66056" lon="5.60165">
        <ele>518.9</ele>
        <time>2021-10-10T08:31:26Z</time>
      </trkpt>
      <trkpt lat="46.66052" lon="5.60169">
        <ele>519.3</ele>
        <time>2021-10-10T08:31:33Z</time>
      </trkpt>
      <trkpt lat="46.66048" lon="5.60175">
        <ele>518.7</ele>
        <time>2021-10-10T08:31:38Z</time>
      </trkpt>
      <trkpt lat="46.66044" lon="5.60179">
        <ele>517.5</ele>
        <time>2021-10-10T08:31:43Z</time>
      </trkpt>
      <trkpt lat="46.66039" lon="5.60183">
        <ele>516.2</ele>
        <time>2021-10-10T08:31:47Z</time>
      </trkpt>
      <trkpt lat="46.66036" lon="5.60187">
        <ele>514.6</ele>
        <time>2021-10-10T08:31:52Z</time>
      </trkpt>
      <trkpt lat="46.66032" lon="5.60189">
        <ele>513.5</ele>
        <time>2021-10-10T08:31:58Z</time>
      </trkpt>
      <trkpt lat="46.66027" lon="5.60191">
        <ele>512.6</ele>
        <time>2021-10-10T08:32:04Z</time>
      </trkpt>
      <trkpt lat="46.66022" lon="5.60194">
        <ele>512.3</ele>
        <time>2021-10-10T08:32:12Z</time>
      </trkpt>
      <trkpt lat="46.66018" lon="5.60198">
        <ele>512.8</ele>
        <time>2021-10-10T08:32:17Z</time>
      </trkpt>
      <trkpt lat="46.66013" lon="5.60196">
        <ele>513.9</ele>
        <time>2021-10-10T08:32:26Z</time>
      </trkpt>
      <trkpt lat="46.66013" lon="5.60203">
        <ele>511.6</ele>
        <time>2021-10-10T08:32:49Z</time>
      </trkpt>
      <trkpt lat="46.66013" lon="5.6021">
        <ele>510.8</ele>
        <time>2021-10-10T08:32:54Z</time>
      </trkpt>
      <trkpt lat="46.66012" lon="5.60217">
        <ele>509.7</ele>
        <time>2021-10-10T08:33:03Z</time>
      </trkpt>
      <trkpt lat="46.66008" lon="5.60221">
        <ele>509.2</ele>
        <time>2021-10-10T08:33:12Z</time>
      </trkpt>
      <trkpt lat="46.66009" lon="5.60228">
        <ele>508.4</ele>
        <time>2021-10-10T08:33:22Z</time>
      </trkpt>
      <trkpt lat="46.66008" lon="5.60221">
        <ele>505.4</ele>
        <time>2021-10-10T08:33:46Z</time>
      </trkpt>
      <trkpt lat="46.66005" lon="5.60215">
        <ele>505.5</ele>
        <time>2021-10-10T08:33:53Z</time>
      </trkpt>
      <trkpt lat="46.66007" lon="5.60222">
        <ele>510.5</ele>
        <time>2021-10-10T08:35:01Z</time>
      </trkpt>
      <trkpt lat="46.66005" lon="5.60229">
        <ele>510.8</ele>
        <time>2021-10-10T08:35:08Z</time>
      </trkpt>
      <trkpt lat="46.66003" lon="5.60236">
        <ele>511.2</ele>
        <time>2021-10-10T08:35:15Z</time>
      </trkpt>
      <trkpt lat="46.66003" lon="5.60243">
        <ele>511.5</ele>
        <time>2021-10-10T08:35:19Z</time>
      </trkpt>
      <trkpt lat="46.66004" lon="5.6025">
        <ele>511.5</ele>
        <time>2021-10-10T08:35:24Z</time>
      </trkpt>
      <trkpt lat="46.66004" lon="5.60257">
        <ele>511.2</ele>
        <time>2021-10-10T08:35:28Z</time>
      </trkpt>
      <trkpt lat="46.66003" lon="5.60263">
        <ele>509.8</ele>
        <time>2021-10-10T08:35:34Z</time>
      </trkpt>
      <trkpt lat="46.66" lon="5.60258">
        <ele>506.5</ele>
        <time>2021-10-10T08:35:49Z</time>
      </trkpt>
      <trkpt lat="46.66" lon="5.6025">
        <ele>504.3</ele>
        <time>2021-10-10T08:35:56Z</time>
      </trkpt>
      <trkpt lat="46.65998" lon="5.60243">
        <ele>502.4</ele>
        <time>2021-10-10T08:36:03Z</time>
      </trkpt>
      <trkpt lat="46.65997" lon="5.60236">
        <ele>500.4</ele>
        <time>2021-10-10T08:36:09Z</time>
      </trkpt>
      <trkpt lat="46.65995" lon="5.6023">
        <ele>497.6</ele>
        <time>2021-10-10T08:36:16Z</time>
      </trkpt>
      <trkpt lat="46.65998" lon="5.60225">
        <ele>494.6</ele>
        <time>2021-10-10T08:36:40Z</time>
      </trkpt>
      <trkpt lat="46.65998" lon="5.60217">
        <ele>494.7</ele>
        <time>2021-10-10T08:36:45Z</time>
      </trkpt>
      <trkpt lat="46.66002" lon="5.60214">
        <ele>494.8</ele>
        <time>2021-10-10T08:36:57Z</time>
      </trkpt>
      <trkpt lat="46.66001" lon="5.60206">
        <ele>495.1</ele>
        <time>2021-10-10T08:37:03Z</time>
      </trkpt>
      <trkpt lat="46.66004" lon="5.602">
        <ele>495.4</ele>
        <time>2021-10-10T08:37:08Z</time>
      </trkpt>
      <trkpt lat="46.66004" lon="5.60193">
        <ele>495.7</ele>
        <time>2021-10-10T08:37:13Z</time>
      </trkpt>
      <trkpt lat="46.66006" lon="5.60187">
        <ele>498.4</ele>
        <time>2021-10-10T08:37:22Z</time>
      </trkpt>
      <trkpt lat="46.66008" lon="5.60181">
        <ele>499.5</ele>
        <time>2021-10-10T08:37:29Z</time>
      </trkpt>
      <trkpt lat="46.66013" lon="5.6018">
        <ele>500.7</ele>
        <time>2021-10-10T08:37:42Z</time>
      </trkpt>
      <trkpt lat="46.66012" lon="5.60173">
        <ele>499</ele>
        <time>2021-10-10T08:38:10Z</time>
      </trkpt>
      <trkpt lat="46.66017" lon="5.60174">
        <ele>497.7</ele>
        <time>2021-10-10T08:38:40Z</time>
      </trkpt>
      <trkpt lat="46.66012" lon="5.60175">
        <ele>493.4</ele>
        <time>2021-10-10T08:41:28Z</time>
      </trkpt>
      <trkpt lat="46.66008" lon="5.60171">
        <ele>496.3</ele>
        <time>2021-10-10T08:42:10Z</time>
      </trkpt>
      <trkpt lat="46.66012" lon="5.60173">
        <ele>498.6</ele>
        <time>2021-10-10T08:43:19Z</time>
      </trkpt>
      <trkpt lat="46.66009" lon="5.60169">
        <ele>497</ele>
        <time>2021-10-10T08:44:03Z</time>
      </trkpt>
      <trkpt lat="46.66006" lon="5.60176">
        <ele>496.1</ele>
        <time>2021-10-10T08:44:29Z</time>
      </trkpt>
      <trkpt lat="46.66003" lon="5.60183">
        <ele>496.8</ele>
        <time>2021-10-10T08:44:34Z</time>
      </trkpt>
      <trkpt lat="46.65999" lon="5.60183">
        <ele>498.5</ele>
        <time>2021-10-10T08:44:43Z</time>
      </trkpt>
      <trkpt lat="46.65999" lon="5.6019">
        <ele>501.7</ele>
        <time>2021-10-10T08:45:02Z</time>
      </trkpt>
      <trkpt lat="46.66" lon="5.60196">
        <ele>502.7</ele>
        <time>2021-10-10T08:45:17Z</time>
      </trkpt>
      <trkpt lat="46.65997" lon="5.60202">
        <ele>501.7</ele>
        <time>2021-10-10T08:45:26Z</time>
      </trkpt>
      <trkpt lat="46.65994" lon="5.60208">
        <ele>501</ele>
        <time>2021-10-10T08:45:31Z</time>
      </trkpt>
      <trkpt lat="46.65995" lon="5.60215">
        <ele>499</ele>
        <time>2021-10-10T08:45:51Z</time>
      </trkpt>
      <trkpt lat="46.65996" lon="5.60221">
        <ele>498.9</ele>
        <time>2021-10-10T08:45:57Z</time>
      </trkpt>
      <trkpt lat="46.65996" lon="5.60229">
        <ele>498.4</ele>
        <time>2021-10-10T08:46:07Z</time>
      </trkpt>
      <trkpt lat="46.65993" lon="5.60235">
        <ele>495.9</ele>
        <time>2021-10-10T08:46:38Z</time>
      </trkpt>
      <trkpt lat="46.65992" lon="5.60243">
        <ele>495</ele>
        <time>2021-10-10T08:46:44Z</time>
      </trkpt>
      <trkpt lat="46.65994" lon="5.60249">
        <ele>493.3</ele>
        <time>2021-10-10T08:46:49Z</time>
      </trkpt>
      <trkpt lat="46.65997" lon="5.60255">
        <ele>491.2</ele>
        <time>2021-10-10T08:46:54Z</time>
      </trkpt>
      <trkpt lat="46.65999" lon="5.60262">
        <ele>490.3</ele>
        <time>2021-10-10T08:46:59Z</time>
      </trkpt>
      <trkpt lat="46.66" lon="5.60269">
        <ele>489.5</ele>
        <time>2021-10-10T08:47:12Z</time>
      </trkpt>
      <trkpt lat="46.65999" lon="5.60276">
        <ele>488.2</ele>
        <time>2021-10-10T08:47:22Z</time>
      </trkpt>
      <trkpt lat="46.66002" lon="5.60282">
        <ele>487.8</ele>
        <time>2021-10-10T08:47:27Z</time>
      </trkpt>
      <trkpt lat="46.66003" lon="5.60289">
        <ele>487.9</ele>
        <time>2021-10-10T08:47:31Z</time>
      </trkpt>
      <trkpt lat="46.66004" lon="5.60296">
        <ele>488.2</ele>
        <time>2021-10-10T08:47:36Z</time>
      </trkpt>
      <trkpt lat="46.66005" lon="5.60304">
        <ele>488.5</ele>
        <time>2021-10-10T08:47:42Z</time>
      </trkpt>
      <trkpt lat="46.66005" lon="5.60311">
        <ele>489.1</ele>
        <time>2021-10-10T08:47:49Z</time>
      </trkpt>
      <trkpt lat="46.66006" lon="5.60318">
        <ele>491.4</ele>
        <time>2021-10-10T08:47:58Z</time>
      </trkpt>
      <trkpt lat="46.66009" lon="5.60324">
        <ele>491.9</ele>
        <time>2021-10-10T08:48:01Z</time>
      </trkpt>
      <trkpt lat="46.66011" lon="5.60329">
        <ele>492.5</ele>
        <time>2021-10-10T08:48:05Z</time>
      </trkpt>
      <trkpt lat="46.66009" lon="5.60336">
        <ele>494</ele>
        <time>2021-10-10T08:48:11Z</time>
      </trkpt>
      <trkpt lat="46.6601" lon="5.60343">
        <ele>496.7</ele>
        <time>2021-10-10T08:48:18Z</time>
      </trkpt>
      <trkpt lat="46.66012" lon="5.6035">
        <ele>498.5</ele>
        <time>2021-10-10T08:48:24Z</time>
      </trkpt>
      <trkpt lat="46.66013" lon="5.60357">
        <ele>501</ele>
        <time>2021-10-10T08:48:31Z</time>
      </trkpt>
      <trkpt lat="46.66017" lon="5.60363">
        <ele>501.7</ele>
        <time>2021-10-10T08:48:36Z</time>
      </trkpt>
      <trkpt lat="46.66021" lon="5.60366">
        <ele>501.8</ele>
        <time>2021-10-10T08:48:40Z</time>
      </trkpt>
      <trkpt lat="46.66025" lon="5.60371">
        <ele>501.6</ele>
        <time>2021-10-10T08:48:45Z</time>
      </trkpt>
      <trkpt lat="46.66027" lon="5.60377">
        <ele>501.1</ele>
        <time>2021-10-10T08:48:49Z</time>
      </trkpt>
      <trkpt lat="46.66029" lon="5.60383">
        <ele>501.4</ele>
        <time>2021-10-10T08:48:55Z</time>
      </trkpt>
      <trkpt lat="46.66033" lon="5.60387">
        <ele>502</ele>
        <time>2021-10-10T08:49:01Z</time>
      </trkpt>
      <trkpt lat="46.66036" lon="5.60392">
        <ele>502.4</ele>
        <time>2021-10-10T08:49:08Z</time>
      </trkpt>
      <trkpt lat="46.6604" lon="5.60395">
        <ele>502.3</ele>
        <time>2021-10-10T08:49:15Z</time>
      </trkpt>
      <trkpt lat="46.66044" lon="5.604">
        <ele>502.2</ele>
        <time>2021-10-10T08:49:21Z</time>
      </trkpt>
      <trkpt lat="46.66047" lon="5.60405">
        <ele>502.4</ele>
        <time>2021-10-10T08:49:26Z</time>
      </trkpt>
      <trkpt lat="46.6605" lon="5.60411">
        <ele>503.5</ele>
        <time>2021-10-10T08:49:31Z</time>
      </trkpt>
      <trkpt lat="46.66054" lon="5.60414">
        <ele>505</ele>
        <time>2021-10-10T08:49:37Z</time>
      </trkpt>
      <trkpt lat="46.66059" lon="5.60415">
        <ele>506.6</ele>
        <time>2021-10-10T08:49:43Z</time>
      </trkpt>
      <trkpt lat="46.66062" lon="5.60418">
        <ele>509</ele>
        <time>2021-10-10T08:49:53Z</time>
      </trkpt>
      <trkpt lat="46.66065" lon="5.60424">
        <ele>509.6</ele>
        <time>2021-10-10T08:49:58Z</time>
      </trkpt>
      <trkpt lat="46.6607" lon="5.60427">
        <ele>509</ele>
        <time>2021-10-10T08:50:06Z</time>
      </trkpt>
      <trkpt lat="46.66076" lon="5.60429">
        <ele>508.5</ele>
        <time>2021-10-10T08:50:15Z</time>
      </trkpt>
      <trkpt lat="46.66083" lon="5.60427">
        <ele>508.9</ele>
        <time>2021-10-10T08:50:25Z</time>
      </trkpt>
      <trkpt lat="46.66088" lon="5.6043">
        <ele>509.1</ele>
        <time>2021-10-10T08:50:28Z</time>
      </trkpt>
      <trkpt lat="46.66092" lon="5.60434">
        <ele>510</ele>
        <time>2021-10-10T08:50:33Z</time>
      </trkpt>
      <trkpt lat="46.66097" lon="5.60433">
        <ele>510.2</ele>
        <time>2021-10-10T08:50:40Z</time>
      </trkpt>
      <trkpt lat="46.66102" lon="5.60432">
        <ele>510</ele>
        <time>2021-10-10T08:50:47Z</time>
      </trkpt>
      <trkpt lat="46.66107" lon="5.60434">
        <ele>510.1</ele>
        <time>2021-10-10T08:50:53Z</time>
      </trkpt>
      <trkpt lat="46.66111" lon="5.60441">
        <ele>510.4</ele>
        <time>2021-10-10T08:50:57Z</time>
      </trkpt>
      <trkpt lat="46.66115" lon="5.60448">
        <ele>510.4</ele>
        <time>2021-10-10T08:51:01Z</time>
      </trkpt>
      <trkpt lat="46.66117" lon="5.60454">
        <ele>510.7</ele>
        <time>2021-10-10T08:51:04Z</time>
      </trkpt>
      <trkpt lat="46.6612" lon="5.60459">
        <ele>511.4</ele>
        <time>2021-10-10T08:51:12Z</time>
      </trkpt>
      <trkpt lat="46.66123" lon="5.60464">
        <ele>511.8</ele>
        <time>2021-10-10T08:51:21Z</time>
      </trkpt>
      <trkpt lat="46.66128" lon="5.60462">
        <ele>512.2</ele>
        <time>2021-10-10T08:51:29Z</time>
      </trkpt>
      <trkpt lat="46.66133" lon="5.60464">
        <ele>512.8</ele>
        <time>2021-10-10T08:51:35Z</time>
      </trkpt>
      <trkpt lat="46.66137" lon="5.60468">
        <ele>512.8</ele>
        <time>2021-10-10T08:51:41Z</time>
      </trkpt>
      <trkpt lat="46.66142" lon="5.6047">
        <ele>512.1</ele>
        <time>2021-10-10T08:51:47Z</time>
      </trkpt>
      <trkpt lat="46.66147" lon="5.60467">
        <ele>511.3</ele>
        <time>2021-10-10T08:51:52Z</time>
      </trkpt>
      <trkpt lat="46.66149" lon="5.60473">
        <ele>510.7</ele>
        <time>2021-10-10T08:51:59Z</time>
      </trkpt>
      <trkpt lat="46.66153" lon="5.60478">
        <ele>510.7</ele>
        <time>2021-10-10T08:52:08Z</time>
      </trkpt>
      <trkpt lat="46.66148" lon="5.60479">
        <ele>509.6</ele>
        <time>2021-10-10T08:52:19Z</time>
      </trkpt>
      <trkpt lat="46.66147" lon="5.60472">
        <ele>508.7</ele>
        <time>2021-10-10T08:52:26Z</time>
      </trkpt>
      <trkpt lat="46.66153" lon="5.60471">
        <ele>508.2</ele>
        <time>2021-10-10T08:52:31Z</time>
      </trkpt>
      <trkpt lat="46.66158" lon="5.60479">
        <ele>506.8</ele>
        <time>2021-10-10T08:52:52Z</time>
      </trkpt>
      <trkpt lat="46.66161" lon="5.60486">
        <ele>507.1</ele>
        <time>2021-10-10T08:52:58Z</time>
      </trkpt>
      <trkpt lat="46.66163" lon="5.60492">
        <ele>507.7</ele>
        <time>2021-10-10T08:53:04Z</time>
      </trkpt>
      <trkpt lat="46.66164" lon="5.60498">
        <ele>508</ele>
        <time>2021-10-10T08:53:11Z</time>
      </trkpt>
      <trkpt lat="46.66168" lon="5.60504">
        <ele>507.4</ele>
        <time>2021-10-10T08:53:20Z</time>
      </trkpt>
      <trkpt lat="46.66172" lon="5.60505">
        <ele>507.5</ele>
        <time>2021-10-10T08:53:23Z</time>
      </trkpt>
      <trkpt lat="46.66179" lon="5.60505">
        <ele>507.7</ele>
        <time>2021-10-10T08:53:26Z</time>
      </trkpt>
      <trkpt lat="46.66184" lon="5.60508">
        <ele>508</ele>
        <time>2021-10-10T08:53:29Z</time>
      </trkpt>
      <trkpt lat="46.66188" lon="5.60514">
        <ele>508.2</ele>
        <time>2021-10-10T08:53:33Z</time>
      </trkpt>
      <trkpt lat="46.6619" lon="5.6052">
        <ele>509</ele>
        <time>2021-10-10T08:53:38Z</time>
      </trkpt>
      <trkpt lat="46.66196" lon="5.60522">
        <ele>510</ele>
        <time>2021-10-10T08:53:44Z</time>
      </trkpt>
      <trkpt lat="46.662" lon="5.60524">
        <ele>510.7</ele>
        <time>2021-10-10T08:53:49Z</time>
      </trkpt>
      <trkpt lat="46.66203" lon="5.60517">
        <ele>511</ele>
        <time>2021-10-10T08:54:01Z</time>
      </trkpt>
      <trkpt lat="46.66206" lon="5.60523">
        <ele>511.9</ele>
        <time>2021-10-10T08:54:23Z</time>
      </trkpt>
      <trkpt lat="46.66211" lon="5.60524">
        <ele>513.1</ele>
        <time>2021-10-10T08:54:37Z</time>
      </trkpt>
      <trkpt lat="46.66216" lon="5.60528">
        <ele>514.5</ele>
        <time>2021-10-10T08:54:43Z</time>
      </trkpt>
      <trkpt lat="46.66221" lon="5.60529">
        <ele>519.3</ele>
        <time>2021-10-10T08:55:38Z</time>
      </trkpt>
      <trkpt lat="46.66223" lon="5.60534">
        <ele>519.3</ele>
        <time>2021-10-10T08:55:41Z</time>
      </trkpt>
      <trkpt lat="46.66226" lon="5.60541">
        <ele>519</ele>
        <time>2021-10-10T08:55:44Z</time>
      </trkpt>
      <trkpt lat="46.6623" lon="5.60544">
        <ele>518.4</ele>
        <time>2021-10-10T08:55:47Z</time>
      </trkpt>
      <trkpt lat="46.66235" lon="5.60544">
        <ele>517.8</ele>
        <time>2021-10-10T08:55:51Z</time>
      </trkpt>
      <trkpt lat="46.6624" lon="5.60544">
        <ele>517.3</ele>
        <time>2021-10-10T08:55:57Z</time>
      </trkpt>
      <trkpt lat="46.66244" lon="5.6054">
        <ele>517.1</ele>
        <time>2021-10-10T08:56:00Z</time>
      </trkpt>
      <trkpt lat="46.66248" lon="5.60538">
        <ele>517.5</ele>
        <time>2021-10-10T08:56:05Z</time>
      </trkpt>
      <trkpt lat="46.66252" lon="5.60542">
        <ele>518.8</ele>
        <time>2021-10-10T08:56:14Z</time>
      </trkpt>
      <trkpt lat="46.66256" lon="5.60547">
        <ele>520</ele>
        <time>2021-10-10T08:56:19Z</time>
      </trkpt>
      <trkpt lat="46.66259" lon="5.60553">
        <ele>520.8</ele>
        <time>2021-10-10T08:56:25Z</time>
      </trkpt>
      <trkpt lat="46.66262" lon="5.60559">
        <ele>521.2</ele>
        <time>2021-10-10T08:56:29Z</time>
      </trkpt>
      <trkpt lat="46.66265" lon="5.60564">
        <ele>521.7</ele>
        <time>2021-10-10T08:56:32Z</time>
      </trkpt>
      <trkpt lat="46.66269" lon="5.6057">
        <ele>522.6</ele>
        <time>2021-10-10T08:56:36Z</time>
      </trkpt>
      <trkpt lat="46.66273" lon="5.60574">
        <ele>523.4</ele>
        <time>2021-10-10T08:56:41Z</time>
      </trkpt>
      <trkpt lat="46.66277" lon="5.60578">
        <ele>522.1</ele>
        <time>2021-10-10T08:56:48Z</time>
      </trkpt>
      <trkpt lat="46.66282" lon="5.60576">
        <ele>520.3</ele>
        <time>2021-10-10T08:56:59Z</time>
      </trkpt>
      <trkpt lat="46.66287" lon="5.60577">
        <ele>519.5</ele>
        <time>2021-10-10T08:57:05Z</time>
      </trkpt>
      <trkpt lat="46.66292" lon="5.60579">
        <ele>518.9</ele>
        <time>2021-10-10T08:57:10Z</time>
      </trkpt>
      <trkpt lat="46.66296" lon="5.60577">
        <ele>518.2</ele>
        <time>2021-10-10T08:57:15Z</time>
      </trkpt>
      <trkpt lat="46.66301" lon="5.6058">
        <ele>518.2</ele>
        <time>2021-10-10T08:57:21Z</time>
      </trkpt>
      <trkpt lat="46.66305" lon="5.60585">
        <ele>518.6</ele>
        <time>2021-10-10T08:57:26Z</time>
      </trkpt>
      <trkpt lat="46.6631" lon="5.60586">
        <ele>519.5</ele>
        <time>2021-10-10T08:57:31Z</time>
      </trkpt>
      <trkpt lat="46.66314" lon="5.60588">
        <ele>519.3</ele>
        <time>2021-10-10T08:57:40Z</time>
      </trkpt>
      <trkpt lat="46.66319" lon="5.60591">
        <ele>520.3</ele>
        <time>2021-10-10T08:57:46Z</time>
      </trkpt>
      <trkpt lat="46.66322" lon="5.60598">
        <ele>521.4</ele>
        <time>2021-10-10T08:57:53Z</time>
      </trkpt>
      <trkpt lat="46.66325" lon="5.60604">
        <ele>521.8</ele>
        <time>2021-10-10T08:57:56Z</time>
      </trkpt>
      <trkpt lat="46.66329" lon="5.60608">
        <ele>523</ele>
        <time>2021-10-10T08:58:02Z</time>
      </trkpt>
      <trkpt lat="46.66334" lon="5.6061">
        <ele>523.9</ele>
        <time>2021-10-10T08:58:07Z</time>
      </trkpt>
      <trkpt lat="46.66337" lon="5.60615">
        <ele>523.7</ele>
        <time>2021-10-10T08:58:12Z</time>
      </trkpt>
      <trkpt lat="46.66341" lon="5.60618">
        <ele>523.7</ele>
        <time>2021-10-10T08:58:15Z</time>
      </trkpt>
      <trkpt lat="46.66346" lon="5.60617">
        <ele>523.8</ele>
        <time>2021-10-10T08:58:20Z</time>
      </trkpt>
      <trkpt lat="46.66351" lon="5.60617">
        <ele>524.7</ele>
        <time>2021-10-10T08:58:27Z</time>
      </trkpt>
      <trkpt lat="46.66353" lon="5.60623">
        <ele>525.3</ele>
        <time>2021-10-10T08:58:33Z</time>
      </trkpt>
      <trkpt lat="46.66356" lon="5.60629">
        <ele>525.5</ele>
        <time>2021-10-10T08:58:36Z</time>
      </trkpt>
      <trkpt lat="46.66359" lon="5.60635">
        <ele>525.7</ele>
        <time>2021-10-10T08:58:40Z</time>
      </trkpt>
      <trkpt lat="46.66362" lon="5.60641">
        <ele>525.8</ele>
        <time>2021-10-10T08:58:44Z</time>
      </trkpt>
      <trkpt lat="46.66365" lon="5.60647">
        <ele>525.8</ele>
        <time>2021-10-10T08:58:48Z</time>
      </trkpt>
      <trkpt lat="46.66369" lon="5.60644">
        <ele>525.5</ele>
        <time>2021-10-10T08:58:58Z</time>
      </trkpt>
      <trkpt lat="46.66373" lon="5.60649">
        <ele>527.2</ele>
        <time>2021-10-10T08:59:13Z</time>
      </trkpt>
      <trkpt lat="46.66378" lon="5.60652">
        <ele>527.4</ele>
        <time>2021-10-10T08:59:21Z</time>
      </trkpt>
      <trkpt lat="46.66383" lon="5.60657">
        <ele>527.8</ele>
        <time>2021-10-10T08:59:28Z</time>
      </trkpt>
      <trkpt lat="46.66387" lon="5.60662">
        <ele>528.2</ele>
        <time>2021-10-10T08:59:32Z</time>
      </trkpt>
      <trkpt lat="46.66392" lon="5.60661">
        <ele>528.8</ele>
        <time>2021-10-10T08:59:42Z</time>
      </trkpt>
      <trkpt lat="46.66397" lon="5.60664">
        <ele>528.5</ele>
        <time>2021-10-10T08:59:46Z</time>
      </trkpt>
      <trkpt lat="46.66399" lon="5.6067">
        <ele>527.1</ele>
        <time>2021-10-10T08:59:52Z</time>
      </trkpt>
      <trkpt lat="46.66402" lon="5.60676">
        <ele>525.4</ele>
        <time>2021-10-10T08:59:57Z</time>
      </trkpt>
      <trkpt lat="46.66404" lon="5.60682">
        <ele>523.9</ele>
        <time>2021-10-10T09:00:02Z</time>
      </trkpt>
      <trkpt lat="46.66406" lon="5.60689">
        <ele>522.9</ele>
        <time>2021-10-10T09:00:07Z</time>
      </trkpt>
      <trkpt lat="46.66409" lon="5.60695">
        <ele>522.2</ele>
        <time>2021-10-10T09:00:12Z</time>
      </trkpt>
      <trkpt lat="46.66411" lon="5.60701">
        <ele>518.4</ele>
        <time>2021-10-10T09:00:23Z</time>
      </trkpt>
      <trkpt lat="46.66413" lon="5.60708">
        <ele>515.8</ele>
        <time>2021-10-10T09:00:31Z</time>
      </trkpt>
      <trkpt lat="46.66417" lon="5.60712">
        <ele>514.5</ele>
        <time>2021-10-10T09:00:35Z</time>
      </trkpt>
      <trkpt lat="46.66421" lon="5.60717">
        <ele>512.7</ele>
        <time>2021-10-10T09:00:41Z</time>
      </trkpt>
      <trkpt lat="46.66421" lon="5.60725">
        <ele>512.9</ele>
        <time>2021-10-10T09:00:48Z</time>
      </trkpt>
      <trkpt lat="46.66421" lon="5.60732">
        <ele>514.2</ele>
        <time>2021-10-10T09:00:57Z</time>
      </trkpt>
      <trkpt lat="46.66423" lon="5.60738">
        <ele>514.6</ele>
        <time>2021-10-10T09:01:01Z</time>
      </trkpt>
      <trkpt lat="46.66425" lon="5.60744">
        <ele>514.8</ele>
        <time>2021-10-10T09:01:05Z</time>
      </trkpt>
      <trkpt lat="46.66429" lon="5.60747">
        <ele>514.3</ele>
        <time>2021-10-10T09:01:09Z</time>
      </trkpt>
      <trkpt lat="46.66434" lon="5.60746">
        <ele>513.7</ele>
        <time>2021-10-10T09:01:15Z</time>
      </trkpt>
      <trkpt lat="46.66435" lon="5.60753">
        <ele>513.4</ele>
        <time>2021-10-10T09:01:24Z</time>
      </trkpt>
      <trkpt lat="46.66436" lon="5.6076">
        <ele>513.8</ele>
        <time>2021-10-10T09:01:29Z</time>
      </trkpt>
      <trkpt lat="46.66434" lon="5.60766">
        <ele>514.6</ele>
        <time>2021-10-10T09:01:37Z</time>
      </trkpt>
      <trkpt lat="46.66435" lon="5.60774">
        <ele>513.7</ele>
        <time>2021-10-10T09:01:46Z</time>
      </trkpt>
      <trkpt lat="46.66435" lon="5.6078">
        <ele>513.2</ele>
        <time>2021-10-10T09:01:51Z</time>
      </trkpt>
      <trkpt lat="46.66435" lon="5.60788">
        <ele>512.5</ele>
        <time>2021-10-10T09:01:59Z</time>
      </trkpt>
      <trkpt lat="46.66434" lon="5.60794">
        <ele>512.4</ele>
        <time>2021-10-10T09:02:03Z</time>
      </trkpt>
      <trkpt lat="46.66434" lon="5.60802">
        <ele>512.1</ele>
        <time>2021-10-10T09:02:08Z</time>
      </trkpt>
      <trkpt lat="46.66436" lon="5.60809">
        <ele>511.6</ele>
        <time>2021-10-10T09:02:12Z</time>
      </trkpt>
      <trkpt lat="46.66439" lon="5.60816">
        <ele>511.1</ele>
        <time>2021-10-10T09:02:16Z</time>
      </trkpt>
      <trkpt lat="46.66442" lon="5.6082">
        <ele>511.4</ele>
        <time>2021-10-10T09:02:22Z</time>
      </trkpt>
      <trkpt lat="46.66445" lon="5.60826">
        <ele>511.7</ele>
        <time>2021-10-10T09:02:30Z</time>
      </trkpt>
      <trkpt lat="46.66444" lon="5.60833">
        <ele>512</ele>
        <time>2021-10-10T09:02:37Z</time>
      </trkpt>
      <trkpt lat="46.66445" lon="5.6084">
        <ele>512</ele>
        <time>2021-10-10T09:02:44Z</time>
      </trkpt>
      <trkpt lat="46.66449" lon="5.60844">
        <ele>510.7</ele>
        <time>2021-10-10T09:02:59Z</time>
      </trkpt>
      <trkpt lat="46.6645" lon="5.60851">
        <ele>507.1</ele>
        <time>2021-10-10T09:03:16Z</time>
      </trkpt>
      <trkpt lat="46.66455" lon="5.60855">
        <ele>502.8</ele>
        <time>2021-10-10T09:03:33Z</time>
      </trkpt>
      <trkpt lat="46.66457" lon="5.60861">
        <ele>502.4</ele>
        <time>2021-10-10T09:03:36Z</time>
      </trkpt>
      <trkpt lat="46.66459" lon="5.60867">
        <ele>502.2</ele>
        <time>2021-10-10T09:03:40Z</time>
      </trkpt>
      <trkpt lat="46.66463" lon="5.60873">
        <ele>502</ele>
        <time>2021-10-10T09:03:43Z</time>
      </trkpt>
      <trkpt lat="46.66466" lon="5.60879">
        <ele>501.9</ele>
        <time>2021-10-10T09:03:46Z</time>
      </trkpt>
      <trkpt lat="46.6647" lon="5.60885">
        <ele>500.9</ele>
        <time>2021-10-10T09:03:55Z</time>
      </trkpt>
      <trkpt lat="46.66474" lon="5.60889">
        <ele>500.2</ele>
        <time>2021-10-10T09:03:59Z</time>
      </trkpt>
      <trkpt lat="46.66475" lon="5.60897">
        <ele>500.3</ele>
        <time>2021-10-10T09:04:05Z</time>
      </trkpt>
      <trkpt lat="46.66475" lon="5.60904">
        <ele>501.2</ele>
        <time>2021-10-10T09:04:10Z</time>
      </trkpt>
      <trkpt lat="46.66475" lon="5.60912">
        <ele>502.2</ele>
        <time>2021-10-10T09:04:15Z</time>
      </trkpt>
      <trkpt lat="46.66476" lon="5.60918">
        <ele>503.6</ele>
        <time>2021-10-10T09:04:21Z</time>
      </trkpt>
      <trkpt lat="46.66477" lon="5.60926">
        <ele>504.3</ele>
        <time>2021-10-10T09:04:27Z</time>
      </trkpt>
      <trkpt lat="46.66478" lon="5.60933">
        <ele>504.3</ele>
        <time>2021-10-10T09:04:34Z</time>
      </trkpt>
      <trkpt lat="46.66482" lon="5.60937">
        <ele>503.6</ele>
        <time>2021-10-10T09:04:40Z</time>
      </trkpt>
      <trkpt lat="46.66487" lon="5.60937">
        <ele>502.6</ele>
        <time>2021-10-10T09:04:44Z</time>
      </trkpt>
      <trkpt lat="46.66492" lon="5.60938">
        <ele>501.2</ele>
        <time>2021-10-10T09:04:49Z</time>
      </trkpt>
      <trkpt lat="46.66493" lon="5.60944">
        <ele>499.5</ele>
        <time>2021-10-10T09:04:57Z</time>
      </trkpt>
      <trkpt lat="46.66495" lon="5.60951">
        <ele>498</ele>
        <time>2021-10-10T09:05:04Z</time>
      </trkpt>
      <trkpt lat="46.66496" lon="5.60958">
        <ele>497</ele>
        <time>2021-10-10T09:05:08Z</time>
      </trkpt>
      <trkpt lat="46.66498" lon="5.60966">
        <ele>496.1</ele>
        <time>2021-10-10T09:05:11Z</time>
      </trkpt>
      <trkpt lat="46.66501" lon="5.60972">
        <ele>495</ele>
        <time>2021-10-10T09:05:15Z</time>
      </trkpt>
      <trkpt lat="46.66504" lon="5.60979">
        <ele>493.9</ele>
        <time>2021-10-10T09:05:19Z</time>
      </trkpt>
      <trkpt lat="46.66507" lon="5.60985">
        <ele>492.3</ele>
        <time>2021-10-10T09:05:24Z</time>
      </trkpt>
      <trkpt lat="46.66507" lon="5.60994">
        <ele>491</ele>
        <time>2021-10-10T09:05:42Z</time>
      </trkpt>
      <trkpt lat="46.66505" lon="5.61001">
        <ele>491.2</ele>
        <time>2021-10-10T09:05:45Z</time>
      </trkpt>
      <trkpt lat="46.66505" lon="5.61008">
        <ele>491.8</ele>
        <time>2021-10-10T09:05:49Z</time>
      </trkpt>
      <trkpt lat="46.66508" lon="5.61013">
        <ele>492</ele>
        <time>2021-10-10T09:06:04Z</time>
      </trkpt>
      <trkpt lat="46.66509" lon="5.61019">
        <ele>491.6</ele>
        <time>2021-10-10T09:06:08Z</time>
      </trkpt>
      <trkpt lat="46.6651" lon="5.61026">
        <ele>491.8</ele>
        <time>2021-10-10T09:06:12Z</time>
      </trkpt>
      <trkpt lat="46.66511" lon="5.61034">
        <ele>492.3</ele>
        <time>2021-10-10T09:06:16Z</time>
      </trkpt>
      <trkpt lat="46.66513" lon="5.61042">
        <ele>492.6</ele>
        <time>2021-10-10T09:06:20Z</time>
      </trkpt>
      <trkpt lat="46.66514" lon="5.61049">
        <ele>492.7</ele>
        <time>2021-10-10T09:06:23Z</time>
      </trkpt>
      <trkpt lat="46.66516" lon="5.61056">
        <ele>492.7</ele>
        <time>2021-10-10T09:06:26Z</time>
      </trkpt>
      <trkpt lat="46.66519" lon="5.61061">
        <ele>493</ele>
        <time>2021-10-10T09:06:30Z</time>
      </trkpt>
      <trkpt lat="46.66522" lon="5.61067">
        <ele>493.6</ele>
        <time>2021-10-10T09:06:36Z</time>
      </trkpt>
      <trkpt lat="46.66525" lon="5.61073">
        <ele>494.4</ele>
        <time>2021-10-10T09:06:41Z</time>
      </trkpt>
      <trkpt lat="46.6653" lon="5.61073">
        <ele>496.4</ele>
        <time>2021-10-10T09:06:51Z</time>
      </trkpt>
      <trkpt lat="46.66534" lon="5.61068">
        <ele>498.9</ele>
        <time>2021-10-10T09:06:57Z</time>
      </trkpt>
      <trkpt lat="46.66536" lon="5.61074">
        <ele>503</ele>
        <time>2021-10-10T09:07:16Z</time>
      </trkpt>
      <trkpt lat="46.6654" lon="5.6107">
        <ele>503.7</ele>
        <time>2021-10-10T09:07:23Z</time>
      </trkpt>
      <trkpt lat="46.66545" lon="5.61067">
        <ele>505.6</ele>
        <time>2021-10-10T09:07:34Z</time>
      </trkpt>
      <trkpt lat="46.66549" lon="5.61076">
        <ele>508.4</ele>
        <time>2021-10-10T09:07:46Z</time>
      </trkpt>
      <trkpt lat="46.66553" lon="5.61078">
        <ele>509.6</ele>
        <time>2021-10-10T09:07:50Z</time>
      </trkpt>
      <trkpt lat="46.66551" lon="5.61084">
        <ele>510.4</ele>
        <time>2021-10-10T09:08:23Z</time>
      </trkpt>
      <trkpt lat="46.66545" lon="5.61079">
        <ele>512.5</ele>
        <time>2021-10-10T09:08:56Z</time>
      </trkpt>
      <trkpt lat="46.66543" lon="5.61073">
        <ele>514.3</ele>
        <time>2021-10-10T09:08:59Z</time>
      </trkpt>
      <trkpt lat="46.66542" lon="5.61081">
        <ele>517.8</ele>
        <time>2021-10-10T09:09:12Z</time>
      </trkpt>
      <trkpt lat="46.66544" lon="5.61087">
        <ele>518.6</ele>
        <time>2021-10-10T09:09:19Z</time>
      </trkpt>
      <trkpt lat="46.66539" lon="5.61083">
        <ele>520.1</ele>
        <time>2021-10-10T09:09:33Z</time>
      </trkpt>
      <trkpt lat="46.66539" lon="5.6109">
        <ele>521.5</ele>
        <time>2021-10-10T09:09:59Z</time>
      </trkpt>
      <trkpt lat="46.66539" lon="5.61097">
        <ele>521</ele>
        <time>2021-10-10T09:10:06Z</time>
      </trkpt>
      <trkpt lat="46.66541" lon="5.61103">
        <ele>520.8</ele>
        <time>2021-10-10T09:10:13Z</time>
      </trkpt>
      <trkpt lat="46.66536" lon="5.611">
        <ele>520.7</ele>
        <time>2021-10-10T09:10:21Z</time>
      </trkpt>
      <trkpt lat="46.66539" lon="5.61105">
        <ele>518.9</ele>
        <time>2021-10-10T09:10:51Z</time>
      </trkpt>
      <trkpt lat="46.66541" lon="5.61111">
        <ele>518.8</ele>
        <time>2021-10-10T09:10:55Z</time>
      </trkpt>
      <trkpt lat="46.66536" lon="5.61118">
        <ele>522.7</ele>
        <time>2021-10-10T09:11:17Z</time>
      </trkpt>
      <trkpt lat="46.66532" lon="5.61122">
        <ele>524.3</ele>
        <time>2021-10-10T09:11:20Z</time>
      </trkpt>
      <trkpt lat="46.66528" lon="5.61127">
        <ele>526</ele>
        <time>2021-10-10T09:11:25Z</time>
      </trkpt>
      <trkpt lat="46.66524" lon="5.61132">
        <ele>526.8</ele>
        <time>2021-10-10T09:11:33Z</time>
      </trkpt>
      <trkpt lat="46.66522" lon="5.61138">
        <ele>526.7</ele>
        <time>2021-10-10T09:11:40Z</time>
      </trkpt>
      <trkpt lat="46.66522" lon="5.61146">
        <ele>526.9</ele>
        <time>2021-10-10T09:11:46Z</time>
      </trkpt>
      <trkpt lat="46.6652" lon="5.61153">
        <ele>526.8</ele>
        <time>2021-10-10T09:11:51Z</time>
      </trkpt>
      <trkpt lat="46.66519" lon="5.61159">
        <ele>526.8</ele>
        <time>2021-10-10T09:11:56Z</time>
      </trkpt>
      <trkpt lat="46.66519" lon="5.61166">
        <ele>526.8</ele>
        <time>2021-10-10T09:12:02Z</time>
      </trkpt>
      <trkpt lat="46.66518" lon="5.61173">
        <ele>526.8</ele>
        <time>2021-10-10T09:12:07Z</time>
      </trkpt>
      <trkpt lat="46.66514" lon="5.61177">
        <ele>526.8</ele>
        <time>2021-10-10T09:12:13Z</time>
      </trkpt>
      <trkpt lat="46.66512" lon="5.61184">
        <ele>527.2</ele>
        <time>2021-10-10T09:12:19Z</time>
      </trkpt>
      <trkpt lat="46.6651" lon="5.6119">
        <ele>527.1</ele>
        <time>2021-10-10T09:12:23Z</time>
      </trkpt>
      <trkpt lat="46.6651" lon="5.61197">
        <ele>525.9</ele>
        <time>2021-10-10T09:12:29Z</time>
      </trkpt>
      <trkpt lat="46.66509" lon="5.61203">
        <ele>524.6</ele>
        <time>2021-10-10T09:12:35Z</time>
      </trkpt>
      <trkpt lat="46.66508" lon="5.6121">
        <ele>524.3</ele>
        <time>2021-10-10T09:12:41Z</time>
      </trkpt>
      <trkpt lat="46.66503" lon="5.61211">
        <ele>524.2</ele>
        <time>2021-10-10T09:12:59Z</time>
      </trkpt>
      <trkpt lat="46.66502" lon="5.61217">
        <ele>526.7</ele>
        <time>2021-10-10T09:13:19Z</time>
      </trkpt>
      <trkpt lat="46.665" lon="5.61223">
        <ele>528.8</ele>
        <time>2021-10-10T09:13:46Z</time>
      </trkpt>
      <trkpt lat="46.66497" lon="5.61229">
        <ele>528.6</ele>
        <time>2021-10-10T09:13:52Z</time>
      </trkpt>
      <trkpt lat="46.66496" lon="5.61236">
        <ele>527.3</ele>
        <time>2021-10-10T09:14:07Z</time>
      </trkpt>
      <trkpt lat="46.66497" lon="5.61243">
        <ele>527.4</ele>
        <time>2021-10-10T09:14:12Z</time>
      </trkpt>
      <trkpt lat="46.66497" lon="5.61236">
        <ele>526.2</ele>
        <time>2021-10-10T09:14:18Z</time>
      </trkpt>
      <trkpt lat="46.66492" lon="5.61234">
        <ele>524.9</ele>
        <time>2021-10-10T09:14:33Z</time>
      </trkpt>
      <trkpt lat="46.66488" lon="5.6123">
        <ele>525</ele>
        <time>2021-10-10T09:14:53Z</time>
      </trkpt>
      <trkpt lat="46.66483" lon="5.61227">
        <ele>520.4</ele>
        <time>2021-10-10T09:15:34Z</time>
      </trkpt>
      <trkpt lat="46.66478" lon="5.61227">
        <ele>519.9</ele>
        <time>2021-10-10T09:15:42Z</time>
      </trkpt>
      <trkpt lat="46.66474" lon="5.61231">
        <ele>521.1</ele>
        <time>2021-10-10T09:15:51Z</time>
      </trkpt>
      <trkpt lat="46.66472" lon="5.61238">
        <ele>525.8</ele>
        <time>2021-10-10T09:16:50Z</time>
      </trkpt>
      <trkpt lat="46.66471" lon="5.61245">
        <ele>528.3</ele>
        <time>2021-10-10T09:16:56Z</time>
      </trkpt>
      <trkpt lat="46.66466" lon="5.61246">
        <ele>530</ele>
        <time>2021-10-10T09:17:00Z</time>
      </trkpt>
      <trkpt lat="46.66461" lon="5.61245">
        <ele>531.4</ele>
        <time>2021-10-10T09:17:04Z</time>
      </trkpt>
      <trkpt lat="46.66456" lon="5.61246">
        <ele>532.1</ele>
        <time>2021-10-10T09:17:10Z</time>
      </trkpt>
      <trkpt lat="46.66454" lon="5.61252">
        <ele>532.1</ele>
        <time>2021-10-10T09:17:21Z</time>
      </trkpt>
      <trkpt lat="46.66453" lon="5.61259">
        <ele>532</ele>
        <time>2021-10-10T09:17:29Z</time>
      </trkpt>
      <trkpt lat="46.66453" lon="5.61266">
        <ele>531.7</ele>
        <time>2021-10-10T09:17:33Z</time>
      </trkpt>
      <trkpt lat="46.66453" lon="5.61274">
        <ele>530.7</ele>
        <time>2021-10-10T09:17:40Z</time>
      </trkpt>
      <trkpt lat="46.66452" lon="5.61281">
        <ele>529.8</ele>
        <time>2021-10-10T09:17:47Z</time>
      </trkpt>
      <trkpt lat="46.66448" lon="5.61287">
        <ele>529.9</ele>
        <time>2021-10-10T09:17:52Z</time>
      </trkpt>
      <trkpt lat="46.66445" lon="5.61293">
        <ele>530.2</ele>
        <time>2021-10-10T09:18:00Z</time>
      </trkpt>
      <trkpt lat="46.66442" lon="5.61298">
        <ele>527.9</ele>
        <time>2021-10-10T09:18:10Z</time>
      </trkpt>
      <trkpt lat="46.66439" lon="5.61304">
        <ele>527.6</ele>
        <time>2021-10-10T09:18:17Z</time>
      </trkpt>
      <trkpt lat="46.66435" lon="5.61309">
        <ele>527.6</ele>
        <time>2021-10-10T09:18:24Z</time>
      </trkpt>
      <trkpt lat="46.66433" lon="5.61315">
        <ele>527.5</ele>
        <time>2021-10-10T09:18:29Z</time>
      </trkpt>
      <trkpt lat="46.6643" lon="5.61321">
        <ele>527.5</ele>
        <time>2021-10-10T09:18:36Z</time>
      </trkpt>
      <trkpt lat="46.66426" lon="5.61325">
        <ele>527.4</ele>
        <time>2021-10-10T09:18:42Z</time>
      </trkpt>
      <trkpt lat="46.66421" lon="5.61328">
        <ele>527.5</ele>
        <time>2021-10-10T09:18:47Z</time>
      </trkpt>
      <trkpt lat="46.66417" lon="5.61331">
        <ele>527.7</ele>
        <time>2021-10-10T09:18:53Z</time>
      </trkpt>
      <trkpt lat="46.66411" lon="5.61329">
        <ele>527.1</ele>
        <time>2021-10-10T09:19:15Z</time>
      </trkpt>
      <trkpt lat="46.66406" lon="5.61329">
        <ele>526.3</ele>
        <time>2021-10-10T09:19:18Z</time>
      </trkpt>
      <trkpt lat="46.66401" lon="5.61331">
        <ele>525.2</ele>
        <time>2021-10-10T09:19:23Z</time>
      </trkpt>
      <trkpt lat="46.66398" lon="5.61336">
        <ele>524.4</ele>
        <time>2021-10-10T09:19:31Z</time>
      </trkpt>
      <trkpt lat="46.66394" lon="5.61339">
        <ele>523.5</ele>
        <time>2021-10-10T09:19:38Z</time>
      </trkpt>
      <trkpt lat="46.66389" lon="5.6134">
        <ele>522.7</ele>
        <time>2021-10-10T09:19:47Z</time>
      </trkpt>
      <trkpt lat="46.66385" lon="5.61344">
        <ele>520.8</ele>
        <time>2021-10-10T09:19:56Z</time>
      </trkpt>
      <trkpt lat="46.66382" lon="5.61349">
        <ele>519.4</ele>
        <time>2021-10-10T09:20:03Z</time>
      </trkpt>
      <trkpt lat="46.66377" lon="5.61351">
        <ele>519</ele>
        <time>2021-10-10T09:20:06Z</time>
      </trkpt>
      <trkpt lat="46.66373" lon="5.61352">
        <ele>518.3</ele>
        <time>2021-10-10T09:20:10Z</time>
      </trkpt>
      <trkpt lat="46.66368" lon="5.61355">
        <ele>517.3</ele>
        <time>2021-10-10T09:20:16Z</time>
      </trkpt>
      <trkpt lat="46.66364" lon="5.6136">
        <ele>516.4</ele>
        <time>2021-10-10T09:20:23Z</time>
      </trkpt>
      <trkpt lat="46.6636" lon="5.61363">
        <ele>515.5</ele>
        <time>2021-10-10T09:20:30Z</time>
      </trkpt>
      <trkpt lat="46.66358" lon="5.61369">
        <ele>516.3</ele>
        <time>2021-10-10T09:20:39Z</time>
      </trkpt>
      <trkpt lat="46.66352" lon="5.61371">
        <ele>517.3</ele>
        <time>2021-10-10T09:20:46Z</time>
      </trkpt>
      <trkpt lat="46.66348" lon="5.61372">
        <ele>518.1</ele>
        <time>2021-10-10T09:20:50Z</time>
      </trkpt>
      <trkpt lat="46.66343" lon="5.6137">
        <ele>519.5</ele>
        <time>2021-10-10T09:21:05Z</time>
      </trkpt>
      <trkpt lat="46.66338" lon="5.61373">
        <ele>518.7</ele>
        <time>2021-10-10T09:21:13Z</time>
      </trkpt>
      <trkpt lat="46.66334" lon="5.61376">
        <ele>516.5</ele>
        <time>2021-10-10T09:21:27Z</time>
      </trkpt>
      <trkpt lat="46.66329" lon="5.61377">
        <ele>515.9</ele>
        <time>2021-10-10T09:21:32Z</time>
      </trkpt>
      <trkpt lat="46.66324" lon="5.61374">
        <ele>515.3</ele>
        <time>2021-10-10T09:21:38Z</time>
      </trkpt>
      <trkpt lat="46.66319" lon="5.61371">
        <ele>515</ele>
        <time>2021-10-10T09:21:41Z</time>
      </trkpt>
      <trkpt lat="46.66315" lon="5.61367">
        <ele>514.7</ele>
        <time>2021-10-10T09:21:45Z</time>
      </trkpt>
      <trkpt lat="46.66311" lon="5.61366">
        <ele>514.4</ele>
        <time>2021-10-10T09:21:54Z</time>
      </trkpt>
      <trkpt lat="46.66306" lon="5.61369">
        <ele>514</ele>
        <time>2021-10-10T09:22:00Z</time>
      </trkpt>
      <trkpt lat="46.66301" lon="5.61372">
        <ele>513.3</ele>
        <time>2021-10-10T09:22:08Z</time>
      </trkpt>
      <trkpt lat="46.66296" lon="5.61372">
        <ele>512.6</ele>
        <time>2021-10-10T09:22:13Z</time>
      </trkpt>
      <trkpt lat="46.66291" lon="5.61371">
        <ele>511.7</ele>
        <time>2021-10-10T09:22:26Z</time>
      </trkpt>
      <trkpt lat="46.66292" lon="5.61364">
        <ele>511.8</ele>
        <time>2021-10-10T09:22:29Z</time>
      </trkpt>
      <trkpt lat="46.66288" lon="5.61365">
        <ele>508.8</ele>
        <time>2021-10-10T09:22:43Z</time>
      </trkpt>
      <trkpt lat="46.66283" lon="5.61365">
        <ele>504.9</ele>
        <time>2021-10-10T09:23:09Z</time>
      </trkpt>
      <trkpt lat="46.66279" lon="5.61369">
        <ele>505.7</ele>
        <time>2021-10-10T09:23:18Z</time>
      </trkpt>
      <trkpt lat="46.66274" lon="5.61367">
        <ele>506.2</ele>
        <time>2021-10-10T09:23:25Z</time>
      </trkpt>
      <trkpt lat="46.66269" lon="5.61366">
        <ele>506.4</ele>
        <time>2021-10-10T09:23:30Z</time>
      </trkpt>
      <trkpt lat="46.66264" lon="5.61369">
        <ele>508.9</ele>
        <time>2021-10-10T09:23:41Z</time>
      </trkpt>
      <trkpt lat="46.66259" lon="5.61369">
        <ele>511.7</ele>
        <time>2021-10-10T09:23:46Z</time>
      </trkpt>
      <trkpt lat="46.66255" lon="5.61365">
        <ele>514.6</ele>
        <time>2021-10-10T09:23:51Z</time>
      </trkpt>
      <trkpt lat="46.66253" lon="5.61359">
        <ele>516.2</ele>
        <time>2021-10-10T09:23:55Z</time>
      </trkpt>
      <trkpt lat="46.66249" lon="5.61354">
        <ele>517.5</ele>
        <time>2021-10-10T09:24:02Z</time>
      </trkpt>
      <trkpt lat="46.66244" lon="5.6135">
        <ele>517.8</ele>
        <time>2021-10-10T09:24:07Z</time>
      </trkpt>
      <trkpt lat="46.66239" lon="5.61349">
        <ele>517.7</ele>
        <time>2021-10-10T09:24:13Z</time>
      </trkpt>
      <trkpt lat="46.66235" lon="5.61348">
        <ele>516.6</ele>
        <time>2021-10-10T09:24:25Z</time>
      </trkpt>
      <trkpt lat="46.66231" lon="5.61342">
        <ele>515.5</ele>
        <time>2021-10-10T09:24:39Z</time>
      </trkpt>
      <trkpt lat="46.66226" lon="5.61339">
        <ele>514.3</ele>
        <time>2021-10-10T09:24:49Z</time>
      </trkpt>
      <trkpt lat="46.66221" lon="5.61341">
        <ele>513.6</ele>
        <time>2021-10-10T09:25:11Z</time>
      </trkpt>
      <trkpt lat="46.66218" lon="5.61336">
        <ele>512.8</ele>
        <time>2021-10-10T09:25:20Z</time>
      </trkpt>
      <trkpt lat="46.66218" lon="5.61329">
        <ele>512.2</ele>
        <time>2021-10-10T09:25:28Z</time>
      </trkpt>
      <trkpt lat="46.66213" lon="5.6133">
        <ele>511.7</ele>
        <time>2021-10-10T09:26:10Z</time>
      </trkpt>
      <trkpt lat="46.66209" lon="5.61335">
        <ele>511.3</ele>
        <time>2021-10-10T09:26:16Z</time>
      </trkpt>
      <trkpt lat="46.66204" lon="5.61335">
        <ele>510.9</ele>
        <time>2021-10-10T09:26:21Z</time>
      </trkpt>
      <trkpt lat="46.66199" lon="5.61333">
        <ele>510.6</ele>
        <time>2021-10-10T09:26:27Z</time>
      </trkpt>
      <trkpt lat="46.66195" lon="5.61331">
        <ele>510.2</ele>
        <time>2021-10-10T09:26:37Z</time>
      </trkpt>
      <trkpt lat="46.6619" lon="5.61331">
        <ele>509.7</ele>
        <time>2021-10-10T09:26:55Z</time>
      </trkpt>
      <trkpt lat="46.66186" lon="5.6133">
        <ele>509</ele>
        <time>2021-10-10T09:27:03Z</time>
      </trkpt>
      <trkpt lat="46.66181" lon="5.6133">
        <ele>508.5</ele>
        <time>2021-10-10T09:27:11Z</time>
      </trkpt>
      <trkpt lat="46.66177" lon="5.61333">
        <ele>508.6</ele>
        <time>2021-10-10T09:27:16Z</time>
      </trkpt>
      <trkpt lat="46.66172" lon="5.6133">
        <ele>509.3</ele>
        <time>2021-10-10T09:27:28Z</time>
      </trkpt>
      <trkpt lat="46.66167" lon="5.61328">
        <ele>509.3</ele>
        <time>2021-10-10T09:27:36Z</time>
      </trkpt>
      <trkpt lat="46.66163" lon="5.61329">
        <ele>509.2</ele>
        <time>2021-10-10T09:27:43Z</time>
      </trkpt>
      <trkpt lat="46.66157" lon="5.61331">
        <ele>509.1</ele>
        <time>2021-10-10T09:27:48Z</time>
      </trkpt>
      <trkpt lat="46.66152" lon="5.61335">
        <ele>508.9</ele>
        <time>2021-10-10T09:27:55Z</time>
      </trkpt>
      <trkpt lat="46.66147" lon="5.61336">
        <ele>508.7</ele>
        <time>2021-10-10T09:28:02Z</time>
      </trkpt>
      <trkpt lat="46.66144" lon="5.61332">
        <ele>508.3</ele>
        <time>2021-10-10T09:28:08Z</time>
      </trkpt>
      <trkpt lat="46.6614" lon="5.61328">
        <ele>508</ele>
        <time>2021-10-10T09:28:14Z</time>
      </trkpt>
      <trkpt lat="46.66135" lon="5.61325">
        <ele>507.3</ele>
        <time>2021-10-10T09:28:23Z</time>
      </trkpt>
      <trkpt lat="46.66132" lon="5.6132">
        <ele>506.9</ele>
        <time>2021-10-10T09:28:28Z</time>
      </trkpt>
      <trkpt lat="46.66128" lon="5.61316">
        <ele>507.6</ele>
        <time>2021-10-10T09:28:41Z</time>
      </trkpt>
      <trkpt lat="46.66123" lon="5.61315">
        <ele>506.7</ele>
        <time>2021-10-10T09:28:48Z</time>
      </trkpt>
      <trkpt lat="46.66118" lon="5.61312">
        <ele>506.5</ele>
        <time>2021-10-10T09:28:52Z</time>
      </trkpt>
      <trkpt lat="46.66115" lon="5.61308">
        <ele>507.8</ele>
        <time>2021-10-10T09:29:02Z</time>
      </trkpt>
      <trkpt lat="46.66118" lon="5.61301">
        <ele>510.2</ele>
        <time>2021-10-10T09:29:15Z</time>
      </trkpt>
      <trkpt lat="46.66122" lon="5.61297">
        <ele>511</ele>
        <time>2021-10-10T09:29:19Z</time>
      </trkpt>
      <trkpt lat="46.66126" lon="5.61293">
        <ele>511.7</ele>
        <time>2021-10-10T09:29:24Z</time>
      </trkpt>
      <trkpt lat="46.66128" lon="5.61286">
        <ele>512.2</ele>
        <time>2021-10-10T09:29:29Z</time>
      </trkpt>
      <trkpt lat="46.66131" lon="5.61281">
        <ele>512.6</ele>
        <time>2021-10-10T09:29:34Z</time>
      </trkpt>
      <trkpt lat="46.66134" lon="5.61276">
        <ele>513.4</ele>
        <time>2021-10-10T09:29:41Z</time>
      </trkpt>
      <trkpt lat="46.66135" lon="5.61269">
        <ele>513.7</ele>
        <time>2021-10-10T09:29:49Z</time>
      </trkpt>
      <trkpt lat="46.66136" lon="5.61261">
        <ele>513.3</ele>
        <time>2021-10-10T09:30:00Z</time>
      </trkpt>
      <trkpt lat="46.66134" lon="5.61253">
        <ele>513.4</ele>
        <time>2021-10-10T09:30:06Z</time>
      </trkpt>
      <trkpt lat="46.66131" lon="5.61248">
        <ele>512.9</ele>
        <time>2021-10-10T09:30:11Z</time>
      </trkpt>
      <trkpt lat="46.66127" lon="5.61242">
        <ele>511.8</ele>
        <time>2021-10-10T09:30:20Z</time>
      </trkpt>
      <trkpt lat="46.66122" lon="5.61235">
        <ele>510.4</ele>
        <time>2021-10-10T09:30:37Z</time>
      </trkpt>
      <trkpt lat="46.66118" lon="5.61231">
        <ele>510.7</ele>
        <time>2021-10-10T09:30:43Z</time>
      </trkpt>
      <trkpt lat="46.66113" lon="5.6123">
        <ele>511.1</ele>
        <time>2021-10-10T09:30:49Z</time>
      </trkpt>
      <trkpt lat="46.66108" lon="5.61232">
        <ele>511.4</ele>
        <time>2021-10-10T09:30:54Z</time>
      </trkpt>
      <trkpt lat="46.66104" lon="5.61233">
        <ele>511.9</ele>
        <time>2021-10-10T09:31:01Z</time>
      </trkpt>
      <trkpt lat="46.661" lon="5.61239">
        <ele>511.5</ele>
        <time>2021-10-10T09:31:09Z</time>
      </trkpt>
      <trkpt lat="46.66095" lon="5.61241">
        <ele>511</ele>
        <time>2021-10-10T09:31:17Z</time>
      </trkpt>
      <trkpt lat="46.6609" lon="5.61242">
        <ele>511</ele>
        <time>2021-10-10T09:31:24Z</time>
      </trkpt>
      <trkpt lat="46.66086" lon="5.61238">
        <ele>510.3</ele>
        <time>2021-10-10T09:31:33Z</time>
      </trkpt>
      <trkpt lat="46.66083" lon="5.61233">
        <ele>509.3</ele>
        <time>2021-10-10T09:31:41Z</time>
      </trkpt>
      <trkpt lat="46.66079" lon="5.6123">
        <ele>509.7</ele>
        <time>2021-10-10T09:32:42Z</time>
      </trkpt>
      <trkpt lat="46.66076" lon="5.61235">
        <ele>509.5</ele>
        <time>2021-10-10T09:32:47Z</time>
      </trkpt>
      <trkpt lat="46.66071" lon="5.61232">
        <ele>508.2</ele>
        <time>2021-10-10T09:33:01Z</time>
      </trkpt>
      <trkpt lat="46.66065" lon="5.61229">
        <ele>506.8</ele>
        <time>2021-10-10T09:33:10Z</time>
      </trkpt>
      <trkpt lat="46.66061" lon="5.61225">
        <ele>506</ele>
        <time>2021-10-10T09:33:15Z</time>
      </trkpt>
      <trkpt lat="46.66058" lon="5.6122">
        <ele>505.7</ele>
        <time>2021-10-10T09:33:22Z</time>
      </trkpt>
      <trkpt lat="46.66053" lon="5.61218">
        <ele>506.8</ele>
        <time>2021-10-10T09:33:30Z</time>
      </trkpt>
      <trkpt lat="46.66049" lon="5.61217">
        <ele>507.1</ele>
        <time>2021-10-10T09:33:36Z</time>
      </trkpt>
      <trkpt lat="46.66044" lon="5.61215">
        <ele>506.9</ele>
        <time>2021-10-10T09:33:43Z</time>
      </trkpt>
      <trkpt lat="46.6604" lon="5.61212">
        <ele>506.3</ele>
        <time>2021-10-10T09:33:51Z</time>
      </trkpt>
      <trkpt lat="46.66035" lon="5.6121">
        <ele>505.2</ele>
        <time>2021-10-10T09:33:58Z</time>
      </trkpt>
      <trkpt lat="46.6603" lon="5.61211">
        <ele>504.1</ele>
        <time>2021-10-10T09:34:04Z</time>
      </trkpt>
      <trkpt lat="46.66025" lon="5.6121">
        <ele>504</ele>
        <time>2021-10-10T09:34:09Z</time>
      </trkpt>
      <trkpt lat="46.66021" lon="5.61207">
        <ele>505</ele>
        <time>2021-10-10T09:34:14Z</time>
      </trkpt>
      <trkpt lat="46.66016" lon="5.61206">
        <ele>506.1</ele>
        <time>2021-10-10T09:34:18Z</time>
      </trkpt>
      <trkpt lat="46.66011" lon="5.61205">
        <ele>506.9</ele>
        <time>2021-10-10T09:34:24Z</time>
      </trkpt>
      <trkpt lat="46.66006" lon="5.61205">
        <ele>507.9</ele>
        <time>2021-10-10T09:34:31Z</time>
      </trkpt>
      <trkpt lat="46.66001" lon="5.61205">
        <ele>507.8</ele>
        <time>2021-10-10T09:34:38Z</time>
      </trkpt>
      <trkpt lat="46.65998" lon="5.61211">
        <ele>506.5</ele>
        <time>2021-10-10T09:34:44Z</time>
      </trkpt>
      <trkpt lat="46.65993" lon="5.61211">
        <ele>504.9</ele>
        <time>2021-10-10T09:34:51Z</time>
      </trkpt>
      <trkpt lat="46.65989" lon="5.61211">
        <ele>503.7</ele>
        <time>2021-10-10T09:34:58Z</time>
      </trkpt>
      <trkpt lat="46.65984" lon="5.6121">
        <ele>503.1</ele>
        <time>2021-10-10T09:35:04Z</time>
      </trkpt>
      <trkpt lat="46.6598" lon="5.61207">
        <ele>503.3</ele>
        <time>2021-10-10T09:35:13Z</time>
      </trkpt>
      <trkpt lat="46.65975" lon="5.61205">
        <ele>503.3</ele>
        <time>2021-10-10T09:35:22Z</time>
      </trkpt>
      <trkpt lat="46.65971" lon="5.61201">
        <ele>502.8</ele>
        <time>2021-10-10T09:35:28Z</time>
      </trkpt>
      <trkpt lat="46.65966" lon="5.612">
        <ele>501.7</ele>
        <time>2021-10-10T09:35:34Z</time>
      </trkpt>
      <trkpt lat="46.65962" lon="5.61204">
        <ele>500.6</ele>
        <time>2021-10-10T09:35:42Z</time>
      </trkpt>
      <trkpt lat="46.65957" lon="5.61205">
        <ele>500</ele>
        <time>2021-10-10T09:35:46Z</time>
      </trkpt>
      <trkpt lat="46.65953" lon="5.61205">
        <ele>500.2</ele>
        <time>2021-10-10T09:35:53Z</time>
      </trkpt>
      <trkpt lat="46.65948" lon="5.61205">
        <ele>501.4</ele>
        <time>2021-10-10T09:36:01Z</time>
      </trkpt>
      <trkpt lat="46.65943" lon="5.61204">
        <ele>502.3</ele>
        <time>2021-10-10T09:36:07Z</time>
      </trkpt>
      <trkpt lat="46.65938" lon="5.61206">
        <ele>503.9</ele>
        <time>2021-10-10T09:36:16Z</time>
      </trkpt>
      <trkpt lat="46.65934" lon="5.61206">
        <ele>504.1</ele>
        <time>2021-10-10T09:36:21Z</time>
      </trkpt>
      <trkpt lat="46.65926" lon="5.61208">
        <ele>504</ele>
        <time>2021-10-10T09:36:38Z</time>
      </trkpt>
      <trkpt lat="46.65922" lon="5.6121">
        <ele>503.6</ele>
        <time>2021-10-10T09:36:42Z</time>
      </trkpt>
      <trkpt lat="46.65917" lon="5.61209">
        <ele>502.9</ele>
        <time>2021-10-10T09:36:48Z</time>
      </trkpt>
      <trkpt lat="46.65913" lon="5.61215">
        <ele>501.5</ele>
        <time>2021-10-10T09:37:00Z</time>
      </trkpt>
      <trkpt lat="46.65908" lon="5.61214">
        <ele>501.1</ele>
        <time>2021-10-10T09:37:07Z</time>
      </trkpt>
      <trkpt lat="46.65903" lon="5.61214">
        <ele>500.7</ele>
        <time>2021-10-10T09:37:12Z</time>
      </trkpt>
      <trkpt lat="46.65898" lon="5.61215">
        <ele>500.9</ele>
        <time>2021-10-10T09:37:17Z</time>
      </trkpt>
      <trkpt lat="46.65894" lon="5.61213">
        <ele>501.5</ele>
        <time>2021-10-10T09:37:21Z</time>
      </trkpt>
      <trkpt lat="46.65888" lon="5.61209">
        <ele>503</ele>
        <time>2021-10-10T09:37:27Z</time>
      </trkpt>
      <trkpt lat="46.65884" lon="5.61205">
        <ele>504.4</ele>
        <time>2021-10-10T09:37:31Z</time>
      </trkpt>
      <trkpt lat="46.6588" lon="5.61203">
        <ele>506.5</ele>
        <time>2021-10-10T09:37:37Z</time>
      </trkpt>
      <trkpt lat="46.65874" lon="5.61201">
        <ele>507.8</ele>
        <time>2021-10-10T09:37:43Z</time>
      </trkpt>
      <trkpt lat="46.6587" lon="5.61198">
        <ele>508.5</ele>
        <time>2021-10-10T09:37:51Z</time>
      </trkpt>
      <trkpt lat="46.65864" lon="5.61196">
        <ele>508.4</ele>
        <time>2021-10-10T09:37:59Z</time>
      </trkpt>
      <trkpt lat="46.6586" lon="5.61195">
        <ele>509.2</ele>
        <time>2021-10-10T09:38:04Z</time>
      </trkpt>
      <trkpt lat="46.65855" lon="5.61195">
        <ele>510.4</ele>
        <time>2021-10-10T09:38:10Z</time>
      </trkpt>
      <trkpt lat="46.6585" lon="5.61196">
        <ele>511</ele>
        <time>2021-10-10T09:38:17Z</time>
      </trkpt>
      <trkpt lat="46.65846" lon="5.61197">
        <ele>510.9</ele>
        <time>2021-10-10T09:38:26Z</time>
      </trkpt>
      <trkpt lat="46.65841" lon="5.61195">
        <ele>510.3</ele>
        <time>2021-10-10T09:38:37Z</time>
      </trkpt>
      <trkpt lat="46.65835" lon="5.61194">
        <ele>509.9</ele>
        <time>2021-10-10T09:38:43Z</time>
      </trkpt>
      <trkpt lat="46.6583" lon="5.61192">
        <ele>509.4</ele>
        <time>2021-10-10T09:38:47Z</time>
      </trkpt>
      <trkpt lat="46.65825" lon="5.61191">
        <ele>508.7</ele>
        <time>2021-10-10T09:38:51Z</time>
      </trkpt>
      <trkpt lat="46.6582" lon="5.61189">
        <ele>507.9</ele>
        <time>2021-10-10T09:38:57Z</time>
      </trkpt>
      <trkpt lat="46.65815" lon="5.61189">
        <ele>507.4</ele>
        <time>2021-10-10T09:39:02Z</time>
      </trkpt>
      <trkpt lat="46.6581" lon="5.61189">
        <ele>507.2</ele>
        <time>2021-10-10T09:39:06Z</time>
      </trkpt>
      <trkpt lat="46.65806" lon="5.61193">
        <ele>507.5</ele>
        <time>2021-10-10T09:39:12Z</time>
      </trkpt>
      <trkpt lat="46.658" lon="5.61192">
        <ele>510.3</ele>
        <time>2021-10-10T09:39:23Z</time>
      </trkpt>
      <trkpt lat="46.65796" lon="5.6119">
        <ele>510.8</ele>
        <time>2021-10-10T09:39:27Z</time>
      </trkpt>
      <trkpt lat="46.6579" lon="5.6119">
        <ele>511.2</ele>
        <time>2021-10-10T09:39:34Z</time>
      </trkpt>
      <trkpt lat="46.65786" lon="5.61193">
        <ele>511.7</ele>
        <time>2021-10-10T09:39:41Z</time>
      </trkpt>
      <trkpt lat="46.65781" lon="5.61195">
        <ele>511.4</ele>
        <time>2021-10-10T09:39:48Z</time>
      </trkpt>
      <trkpt lat="46.65778" lon="5.612">
        <ele>511</ele>
        <time>2021-10-10T09:39:55Z</time>
      </trkpt>
      <trkpt lat="46.65774" lon="5.61203">
        <ele>510.9</ele>
        <time>2021-10-10T09:40:00Z</time>
      </trkpt>
      <trkpt lat="46.65768" lon="5.61211">
        <ele>513</ele>
        <time>2021-10-10T09:40:38Z</time>
      </trkpt>
      <trkpt lat="46.65764" lon="5.61215">
        <ele>514.1</ele>
        <time>2021-10-10T09:40:42Z</time>
      </trkpt>
      <trkpt lat="46.65759" lon="5.61219">
        <ele>514.8</ele>
        <time>2021-10-10T09:40:47Z</time>
      </trkpt>
      <trkpt lat="46.65754" lon="5.61222">
        <ele>515.3</ele>
        <time>2021-10-10T09:40:53Z</time>
      </trkpt>
      <trkpt lat="46.6575" lon="5.61225">
        <ele>516.5</ele>
        <time>2021-10-10T09:41:02Z</time>
      </trkpt>
      <trkpt lat="46.65746" lon="5.61227">
        <ele>517.4</ele>
        <time>2021-10-10T09:41:12Z</time>
      </trkpt>
      <trkpt lat="46.65738" lon="5.61222">
        <ele>516.5</ele>
        <time>2021-10-10T09:42:02Z</time>
      </trkpt>
      <trkpt lat="46.65735" lon="5.61217">
        <ele>515.8</ele>
        <time>2021-10-10T09:42:06Z</time>
      </trkpt>
      <trkpt lat="46.65735" lon="5.61224">
        <ele>517.8</ele>
        <time>2021-10-10T09:43:02Z</time>
      </trkpt>
      <trkpt lat="46.6573" lon="5.6122">
        <ele>519.2</ele>
        <time>2021-10-10T09:43:48Z</time>
      </trkpt>
      <trkpt lat="46.65733" lon="5.61225">
        <ele>520.1</ele>
        <time>2021-10-10T09:46:25Z</time>
      </trkpt>
      <trkpt lat="46.65735" lon="5.61218">
        <ele>521</ele>
        <time>2021-10-10T09:49:08Z</time>
      </trkpt>
      <trkpt lat="46.65733" lon="5.6121">
        <ele>522.6</ele>
        <time>2021-10-10T09:49:39Z</time>
      </trkpt>
      <trkpt lat="46.65734" lon="5.61219">
        <ele>520.7</ele>
        <time>2021-10-10T09:49:58Z</time>
      </trkpt>
      <trkpt lat="46.65735" lon="5.61226">
        <ele>521.3</ele>
        <time>2021-10-10T09:50:03Z</time>
      </trkpt>
      <trkpt lat="46.65729" lon="5.6123">
        <ele>519.3</ele>
        <time>2021-10-10T09:51:06Z</time>
      </trkpt>
      <trkpt lat="46.65725" lon="5.61234">
        <ele>519.1</ele>
        <time>2021-10-10T09:51:11Z</time>
      </trkpt>
      <trkpt lat="46.65721" lon="5.61237">
        <ele>519.1</ele>
        <time>2021-10-10T09:51:16Z</time>
      </trkpt>
      <trkpt lat="46.65716" lon="5.61239">
        <ele>519.1</ele>
        <time>2021-10-10T09:51:21Z</time>
      </trkpt>
      <trkpt lat="46.65711" lon="5.61242">
        <ele>519.1</ele>
        <time>2021-10-10T09:51:26Z</time>
      </trkpt>
      <trkpt lat="46.65707" lon="5.61245">
        <ele>518.9</ele>
        <time>2021-10-10T09:51:31Z</time>
      </trkpt>
      <trkpt lat="46.65702" lon="5.61246">
        <ele>518.7</ele>
        <time>2021-10-10T09:51:37Z</time>
      </trkpt>
      <trkpt lat="46.65698" lon="5.6125">
        <ele>518.6</ele>
        <time>2021-10-10T09:51:46Z</time>
      </trkpt>
      <trkpt lat="46.65694" lon="5.61255">
        <ele>518.2</ele>
        <time>2021-10-10T09:51:55Z</time>
      </trkpt>
      <trkpt lat="46.65691" lon="5.6126">
        <ele>518</ele>
        <time>2021-10-10T09:51:59Z</time>
      </trkpt>
      <trkpt lat="46.65688" lon="5.61265">
        <ele>517.7</ele>
        <time>2021-10-10T09:52:04Z</time>
      </trkpt>
      <trkpt lat="46.65684" lon="5.61269">
        <ele>517.5</ele>
        <time>2021-10-10T09:52:11Z</time>
      </trkpt>
      <trkpt lat="46.6568" lon="5.61275">
        <ele>517</ele>
        <time>2021-10-10T09:52:18Z</time>
      </trkpt>
      <trkpt lat="46.65678" lon="5.61281">
        <ele>516.3</ele>
        <time>2021-10-10T09:52:24Z</time>
      </trkpt>
      <trkpt lat="46.65675" lon="5.61285">
        <ele>516.4</ele>
        <time>2021-10-10T09:52:30Z</time>
      </trkpt>
      <trkpt lat="46.65671" lon="5.61289">
        <ele>516.8</ele>
        <time>2021-10-10T09:52:35Z</time>
      </trkpt>
      <trkpt lat="46.65666" lon="5.61293">
        <ele>516.8</ele>
        <time>2021-10-10T09:52:41Z</time>
      </trkpt>
      <trkpt lat="46.65661" lon="5.61295">
        <ele>515.7</ele>
        <time>2021-10-10T09:52:52Z</time>
      </trkpt>
      <trkpt lat="46.65657" lon="5.61297">
        <ele>515.2</ele>
        <time>2021-10-10T09:52:59Z</time>
      </trkpt>
      <trkpt lat="46.65651" lon="5.61298">
        <ele>515.1</ele>
        <time>2021-10-10T09:53:16Z</time>
      </trkpt>
      <trkpt lat="46.65646" lon="5.61299">
        <ele>515.1</ele>
        <time>2021-10-10T09:53:19Z</time>
      </trkpt>
      <trkpt lat="46.65643" lon="5.61303">
        <ele>515.4</ele>
        <time>2021-10-10T09:53:25Z</time>
      </trkpt>
      <trkpt lat="46.65644" lon="5.6131">
        <ele>515.1</ele>
        <time>2021-10-10T09:53:36Z</time>
      </trkpt>
      <trkpt lat="46.65646" lon="5.61317">
        <ele>514.2</ele>
        <time>2021-10-10T09:53:42Z</time>
      </trkpt>
      <trkpt lat="46.65647" lon="5.61324">
        <ele>513.2</ele>
        <time>2021-10-10T09:53:46Z</time>
      </trkpt>
      <trkpt lat="46.65645" lon="5.6133">
        <ele>512.2</ele>
        <time>2021-10-10T09:53:53Z</time>
      </trkpt>
      <trkpt lat="46.65642" lon="5.61337">
        <ele>513.1</ele>
        <time>2021-10-10T09:54:02Z</time>
      </trkpt>
      <trkpt lat="46.65637" lon="5.61337">
        <ele>514.1</ele>
        <time>2021-10-10T09:54:09Z</time>
      </trkpt>
      <trkpt lat="46.65633" lon="5.6134">
        <ele>514.9</ele>
        <time>2021-10-10T09:54:13Z</time>
      </trkpt>
      <trkpt lat="46.65629" lon="5.61346">
        <ele>516.2</ele>
        <time>2021-10-10T09:54:19Z</time>
      </trkpt>
      <trkpt lat="46.65626" lon="5.6135">
        <ele>517.8</ele>
        <time>2021-10-10T09:54:25Z</time>
      </trkpt>
      <trkpt lat="46.65623" lon="5.61355">
        <ele>518.6</ele>
        <time>2021-10-10T09:54:31Z</time>
      </trkpt>
      <trkpt lat="46.65624" lon="5.61361">
        <ele>517.9</ele>
        <time>2021-10-10T09:54:40Z</time>
      </trkpt>
      <trkpt lat="46.65628" lon="5.61366">
        <ele>517.2</ele>
        <time>2021-10-10T09:54:45Z</time>
      </trkpt>
      <trkpt lat="46.65632" lon="5.6137">
        <ele>516.8</ele>
        <time>2021-10-10T09:54:50Z</time>
      </trkpt>
      <trkpt lat="46.65632" lon="5.61378">
        <ele>517.4</ele>
        <time>2021-10-10T09:54:56Z</time>
      </trkpt>
      <trkpt lat="46.65631" lon="5.61384">
        <ele>518.9</ele>
        <time>2021-10-10T09:55:01Z</time>
      </trkpt>
      <trkpt lat="46.6563" lon="5.61391">
        <ele>521.9</ele>
        <time>2021-10-10T09:55:11Z</time>
      </trkpt>
      <trkpt lat="46.65627" lon="5.61396">
        <ele>522.9</ele>
        <time>2021-10-10T09:55:29Z</time>
      </trkpt>
      <trkpt lat="46.65624" lon="5.61402">
        <ele>522.6</ele>
        <time>2021-10-10T09:55:35Z</time>
      </trkpt>
      <trkpt lat="46.65622" lon="5.61409">
        <ele>522.2</ele>
        <time>2021-10-10T09:55:41Z</time>
      </trkpt>
      <trkpt lat="46.6562" lon="5.61415">
        <ele>522</ele>
        <time>2021-10-10T09:55:52Z</time>
      </trkpt>
      <trkpt lat="46.65619" lon="5.61422">
        <ele>522</ele>
        <time>2021-10-10T09:56:00Z</time>
      </trkpt>
      <trkpt lat="46.65618" lon="5.61429">
        <ele>521.9</ele>
        <time>2021-10-10T09:56:05Z</time>
      </trkpt>
      <trkpt lat="46.65616" lon="5.61435">
        <ele>521.8</ele>
        <time>2021-10-10T09:56:09Z</time>
      </trkpt>
      <trkpt lat="46.65614" lon="5.61442">
        <ele>522</ele>
        <time>2021-10-10T09:56:16Z</time>
      </trkpt>
      <trkpt lat="46.65613" lon="5.61449">
        <ele>522.2</ele>
        <time>2021-10-10T09:56:23Z</time>
      </trkpt>
      <trkpt lat="46.65613" lon="5.61456">
        <ele>522.6</ele>
        <time>2021-10-10T09:56:34Z</time>
      </trkpt>
      <trkpt lat="46.65614" lon="5.61463">
        <ele>522.9</ele>
        <time>2021-10-10T09:56:38Z</time>
      </trkpt>
      <trkpt lat="46.65614" lon="5.6147">
        <ele>523.2</ele>
        <time>2021-10-10T09:56:47Z</time>
      </trkpt>
      <trkpt lat="46.65612" lon="5.61477">
        <ele>523.4</ele>
        <time>2021-10-10T09:56:52Z</time>
      </trkpt>
      <trkpt lat="46.65611" lon="5.61487">
        <ele>523.6</ele>
        <time>2021-10-10T09:57:09Z</time>
      </trkpt>
      <trkpt lat="46.65605" lon="5.61497">
        <ele>522.3</ele>
        <time>2021-10-10T09:57:28Z</time>
      </trkpt>
      <trkpt lat="46.656" lon="5.61502">
        <ele>521.8</ele>
        <time>2021-10-10T09:57:31Z</time>
      </trkpt>
      <trkpt lat="46.65596" lon="5.61505">
        <ele>521.3</ele>
        <time>2021-10-10T09:57:35Z</time>
      </trkpt>
      <trkpt lat="46.65592" lon="5.61508">
        <ele>520.7</ele>
        <time>2021-10-10T09:57:42Z</time>
      </trkpt>
      <trkpt lat="46.65594" lon="5.61501">
        <ele>519.8</ele>
        <time>2021-10-10T09:57:54Z</time>
      </trkpt>
      <trkpt lat="46.65596" lon="5.61495">
        <ele>519.6</ele>
        <time>2021-10-10T09:57:59Z</time>
      </trkpt>
      <trkpt lat="46.65598" lon="5.61501">
        <ele>513.7</ele>
        <time>2021-10-10T09:58:56Z</time>
      </trkpt>
      <trkpt lat="46.65599" lon="5.61494">
        <ele>510.1</ele>
        <time>2021-10-10T09:59:52Z</time>
      </trkpt>
      <trkpt lat="46.656" lon="5.61487">
        <ele>509.5</ele>
        <time>2021-10-10T09:59:57Z</time>
      </trkpt>
      <trkpt lat="46.65598" lon="5.6148">
        <ele>509.6</ele>
        <time>2021-10-10T10:00:05Z</time>
      </trkpt>
      <trkpt lat="46.65594" lon="5.61477">
        <ele>510</ele>
        <time>2021-10-10T10:00:10Z</time>
      </trkpt>
      <trkpt lat="46.6559" lon="5.61472">
        <ele>510.7</ele>
        <time>2021-10-10T10:00:15Z</time>
      </trkpt>
      <trkpt lat="46.65587" lon="5.61466">
        <ele>510.3</ele>
        <time>2021-10-10T10:00:30Z</time>
      </trkpt>
      <trkpt lat="46.65584" lon="5.61472">
        <ele>509</ele>
        <time>2021-10-10T10:00:45Z</time>
      </trkpt>
      <trkpt lat="46.65583" lon="5.61479">
        <ele>507.9</ele>
        <time>2021-10-10T10:00:54Z</time>
      </trkpt>
      <trkpt lat="46.65581" lon="5.61488">
        <ele>506.9</ele>
        <time>2021-10-10T10:01:14Z</time>
      </trkpt>
      <trkpt lat="46.65576" lon="5.61491">
        <ele>506.8</ele>
        <time>2021-10-10T10:01:18Z</time>
      </trkpt>
      <trkpt lat="46.65572" lon="5.61493">
        <ele>507</ele>
        <time>2021-10-10T10:01:24Z</time>
      </trkpt>
      <trkpt lat="46.65568" lon="5.61488">
        <ele>506</ele>
        <time>2021-10-10T10:01:34Z</time>
      </trkpt>
      <trkpt lat="46.65562" lon="5.61482">
        <ele>503.8</ele>
        <time>2021-10-10T10:01:55Z</time>
      </trkpt>
      <trkpt lat="46.65558" lon="5.61478">
        <ele>504</ele>
        <time>2021-10-10T10:02:02Z</time>
      </trkpt>
      <trkpt lat="46.65554" lon="5.61483">
        <ele>505.6</ele>
        <time>2021-10-10T10:02:46Z</time>
      </trkpt>
      <trkpt lat="46.65549" lon="5.61482">
        <ele>507</ele>
        <time>2021-10-10T10:02:55Z</time>
      </trkpt>
      <trkpt lat="46.65547" lon="5.61476">
        <ele>505.7</ele>
        <time>2021-10-10T10:03:06Z</time>
      </trkpt>
      <trkpt lat="46.65542" lon="5.61473">
        <ele>505.1</ele>
        <time>2021-10-10T10:03:13Z</time>
      </trkpt>
      <trkpt lat="46.65538" lon="5.61469">
        <ele>504.6</ele>
        <time>2021-10-10T10:03:18Z</time>
      </trkpt>
      <trkpt lat="46.65534" lon="5.61466">
        <ele>503.9</ele>
        <time>2021-10-10T10:03:23Z</time>
      </trkpt>
      <trkpt lat="46.6553" lon="5.61463">
        <ele>502.9</ele>
        <time>2021-10-10T10:03:31Z</time>
      </trkpt>
      <trkpt lat="46.65525" lon="5.61461">
        <ele>502.5</ele>
        <time>2021-10-10T10:03:49Z</time>
      </trkpt>
      <trkpt lat="46.65521" lon="5.61458">
        <ele>502.9</ele>
        <time>2021-10-10T10:04:00Z</time>
      </trkpt>
      <trkpt lat="46.65516" lon="5.61454">
        <ele>502.5</ele>
        <time>2021-10-10T10:04:09Z</time>
      </trkpt>
      <trkpt lat="46.65513" lon="5.61449">
        <ele>501.9</ele>
        <time>2021-10-10T10:04:15Z</time>
      </trkpt>
      <trkpt lat="46.6551" lon="5.61443">
        <ele>501.4</ele>
        <time>2021-10-10T10:04:20Z</time>
      </trkpt>
      <trkpt lat="46.65506" lon="5.61441">
        <ele>500.7</ele>
        <time>2021-10-10T10:04:27Z</time>
      </trkpt>
      <trkpt lat="46.65502" lon="5.61436">
        <ele>500.2</ele>
        <time>2021-10-10T10:04:33Z</time>
      </trkpt>
      <trkpt lat="46.65499" lon="5.61432">
        <ele>499.1</ele>
        <time>2021-10-10T10:04:41Z</time>
      </trkpt>
      <trkpt lat="46.65496" lon="5.61426">
        <ele>497.5</ele>
        <time>2021-10-10T10:04:56Z</time>
      </trkpt>
      <trkpt lat="46.65498" lon="5.61419">
        <ele>495.4</ele>
        <time>2021-10-10T10:05:12Z</time>
      </trkpt>
      <trkpt lat="46.65502" lon="5.61415">
        <ele>494.6</ele>
        <time>2021-10-10T10:05:18Z</time>
      </trkpt>
      <trkpt lat="46.65498" lon="5.6141">
        <ele>494.4</ele>
        <time>2021-10-10T10:05:27Z</time>
      </trkpt>
      <trkpt lat="46.65495" lon="5.61404">
        <ele>495</ele>
        <time>2021-10-10T10:05:43Z</time>
      </trkpt>
      <trkpt lat="46.65492" lon="5.61398">
        <ele>495.1</ele>
        <time>2021-10-10T10:05:46Z</time>
      </trkpt>
      <trkpt lat="46.65495" lon="5.61403">
        <ele>492.2</ele>
        <time>2021-10-10T10:06:00Z</time>
      </trkpt>
      <trkpt lat="46.65492" lon="5.61397">
        <ele>489.2</ele>
        <time>2021-10-10T10:06:20Z</time>
      </trkpt>
      <trkpt lat="46.65488" lon="5.61392">
        <ele>488.2</ele>
        <time>2021-10-10T10:06:26Z</time>
      </trkpt>
      <trkpt lat="46.65487" lon="5.61385">
        <ele>488.5</ele>
        <time>2021-10-10T10:06:31Z</time>
      </trkpt>
      <trkpt lat="46.65483" lon="5.61378">
        <ele>488.6</ele>
        <time>2021-10-10T10:06:38Z</time>
      </trkpt>
      <trkpt lat="46.65481" lon="5.61373">
        <ele>489</ele>
        <time>2021-10-10T10:06:45Z</time>
      </trkpt>
      <trkpt lat="46.65477" lon="5.61369">
        <ele>490.9</ele>
        <time>2021-10-10T10:06:55Z</time>
      </trkpt>
      <trkpt lat="46.65478" lon="5.61363">
        <ele>492.9</ele>
        <time>2021-10-10T10:07:05Z</time>
      </trkpt>
      <trkpt lat="46.65475" lon="5.61355">
        <ele>494.3</ele>
        <time>2021-10-10T10:07:12Z</time>
      </trkpt>
      <trkpt lat="46.65473" lon="5.61349">
        <ele>496.5</ele>
        <time>2021-10-10T10:07:19Z</time>
      </trkpt>
      <trkpt lat="46.65472" lon="5.61343">
        <ele>497.9</ele>
        <time>2021-10-10T10:07:25Z</time>
      </trkpt>
      <trkpt lat="46.6547" lon="5.61336">
        <ele>497.5</ele>
        <time>2021-10-10T10:07:30Z</time>
      </trkpt>
      <trkpt lat="46.65468" lon="5.61329">
        <ele>494.6</ele>
        <time>2021-10-10T10:07:41Z</time>
      </trkpt>
      <trkpt lat="46.65466" lon="5.61323">
        <ele>491.8</ele>
        <time>2021-10-10T10:07:48Z</time>
      </trkpt>
      <trkpt lat="46.6547" lon="5.61319">
        <ele>490.1</ele>
        <time>2021-10-10T10:07:54Z</time>
      </trkpt>
      <trkpt lat="46.65475" lon="5.61318">
        <ele>489</ele>
        <time>2021-10-10T10:08:00Z</time>
      </trkpt>
      <trkpt lat="46.6548" lon="5.61318">
        <ele>488.2</ele>
        <time>2021-10-10T10:08:05Z</time>
      </trkpt>
      <trkpt lat="46.65484" lon="5.61319">
        <ele>487.9</ele>
        <time>2021-10-10T10:08:09Z</time>
      </trkpt>
      <trkpt lat="46.65488" lon="5.61322">
        <ele>486.9</ele>
        <time>2021-10-10T10:08:18Z</time>
      </trkpt>
      <trkpt lat="46.65491" lon="5.61329">
        <ele>484.2</ele>
        <time>2021-10-10T10:08:34Z</time>
      </trkpt>
      <trkpt lat="46.65495" lon="5.61332">
        <ele>483</ele>
        <time>2021-10-10T10:08:39Z</time>
      </trkpt>
      <trkpt lat="46.65499" lon="5.61336">
        <ele>481.4</ele>
        <time>2021-10-10T10:08:46Z</time>
      </trkpt>
      <trkpt lat="46.65495" lon="5.61339">
        <ele>478.8</ele>
        <time>2021-10-10T10:09:01Z</time>
      </trkpt>
      <trkpt lat="46.6549" lon="5.61336">
        <ele>477.6</ele>
        <time>2021-10-10T10:09:12Z</time>
      </trkpt>
      <trkpt lat="46.65487" lon="5.6133">
        <ele>476.9</ele>
        <time>2021-10-10T10:09:16Z</time>
      </trkpt>
      <trkpt lat="46.65485" lon="5.61323">
        <ele>475.5</ele>
        <time>2021-10-10T10:09:22Z</time>
      </trkpt>
      <trkpt lat="46.65487" lon="5.61317">
        <ele>473.7</ele>
        <time>2021-10-10T10:09:30Z</time>
      </trkpt>
      <trkpt lat="46.65485" lon="5.6131">
        <ele>472.7</ele>
        <time>2021-10-10T10:09:35Z</time>
      </trkpt>
      <trkpt lat="46.65482" lon="5.61305">
        <ele>471.9</ele>
        <time>2021-10-10T10:09:40Z</time>
      </trkpt>
      <trkpt lat="46.65478" lon="5.613">
        <ele>471</ele>
        <time>2021-10-10T10:09:47Z</time>
      </trkpt>
      <trkpt lat="46.65474" lon="5.61296">
        <ele>470.8</ele>
        <time>2021-10-10T10:09:52Z</time>
      </trkpt>
      <trkpt lat="46.65469" lon="5.61293">
        <ele>470.7</ele>
        <time>2021-10-10T10:09:57Z</time>
      </trkpt>
      <trkpt lat="46.65466" lon="5.61289">
        <ele>469.7</ele>
        <time>2021-10-10T10:10:07Z</time>
      </trkpt>
      <trkpt lat="46.65462" lon="5.61283">
        <ele>469.2</ele>
        <time>2021-10-10T10:10:11Z</time>
      </trkpt>
      <trkpt lat="46.65458" lon="5.61281">
        <ele>468.8</ele>
        <time>2021-10-10T10:10:14Z</time>
      </trkpt>
      <trkpt lat="46.65453" lon="5.61279">
        <ele>468.2</ele>
        <time>2021-10-10T10:10:19Z</time>
      </trkpt>
      <trkpt lat="46.6545" lon="5.61274">
        <ele>466.9</ele>
        <time>2021-10-10T10:10:29Z</time>
      </trkpt>
      <trkpt lat="46.65447" lon="5.61268">
        <ele>465.3</ele>
        <time>2021-10-10T10:10:38Z</time>
      </trkpt>
      <trkpt lat="46.65444" lon="5.61261">
        <ele>464.7</ele>
        <time>2021-10-10T10:10:42Z</time>
      </trkpt>
      <trkpt lat="46.6544" lon="5.61255">
        <ele>464.2</ele>
        <time>2021-10-10T10:10:46Z</time>
      </trkpt>
      <trkpt lat="46.65439" lon="5.61248">
        <ele>463.6</ele>
        <time>2021-10-10T10:10:53Z</time>
      </trkpt>
      <trkpt lat="46.65435" lon="5.61244">
        <ele>462.8</ele>
        <time>2021-10-10T10:10:59Z</time>
      </trkpt>
      <trkpt lat="46.65432" lon="5.61238">
        <ele>462.7</ele>
        <time>2021-10-10T10:11:03Z</time>
      </trkpt>
      <trkpt lat="46.65429" lon="5.61231">
        <ele>462.8</ele>
        <time>2021-10-10T10:11:07Z</time>
      </trkpt>
      <trkpt lat="46.65424" lon="5.61227">
        <ele>462.9</ele>
        <time>2021-10-10T10:11:11Z</time>
      </trkpt>
      <trkpt lat="46.65421" lon="5.61221">
        <ele>463.5</ele>
        <time>2021-10-10T10:11:17Z</time>
      </trkpt>
      <trkpt lat="46.65421" lon="5.61214">
        <ele>464.3</ele>
        <time>2021-10-10T10:11:22Z</time>
      </trkpt>
      <trkpt lat="46.6542" lon="5.61208">
        <ele>464.7</ele>
        <time>2021-10-10T10:11:27Z</time>
      </trkpt>
      <trkpt lat="46.65419" lon="5.61201">
        <ele>464.7</ele>
        <time>2021-10-10T10:11:35Z</time>
      </trkpt>
      <trkpt lat="46.65416" lon="5.61195">
        <ele>464.2</ele>
        <time>2021-10-10T10:11:42Z</time>
      </trkpt>
      <trkpt lat="46.65412" lon="5.61192">
        <ele>464.2</ele>
        <time>2021-10-10T10:11:46Z</time>
      </trkpt>
      <trkpt lat="46.65409" lon="5.61186">
        <ele>465.7</ele>
        <time>2021-10-10T10:11:55Z</time>
      </trkpt>
      <trkpt lat="46.65407" lon="5.6118">
        <ele>467.6</ele>
        <time>2021-10-10T10:12:02Z</time>
      </trkpt>
      <trkpt lat="46.65407" lon="5.61173">
        <ele>469.2</ele>
        <time>2021-10-10T10:12:09Z</time>
      </trkpt>
      <trkpt lat="46.65406" lon="5.61166">
        <ele>471.2</ele>
        <time>2021-10-10T10:12:18Z</time>
      </trkpt>
      <trkpt lat="46.65403" lon="5.6116">
        <ele>472.1</ele>
        <time>2021-10-10T10:12:27Z</time>
      </trkpt>
      <trkpt lat="46.65401" lon="5.61154">
        <ele>472.8</ele>
        <time>2021-10-10T10:12:34Z</time>
      </trkpt>
      <trkpt lat="46.65398" lon="5.61147">
        <ele>473.5</ele>
        <time>2021-10-10T10:12:39Z</time>
      </trkpt>
      <trkpt lat="46.65398" lon="5.61139">
        <ele>474.5</ele>
        <time>2021-10-10T10:12:50Z</time>
      </trkpt>
      <trkpt lat="46.65397" lon="5.61132">
        <ele>474.9</ele>
        <time>2021-10-10T10:12:54Z</time>
      </trkpt>
      <trkpt lat="46.65395" lon="5.61126">
        <ele>475</ele>
        <time>2021-10-10T10:13:04Z</time>
      </trkpt>
      <trkpt lat="46.65393" lon="5.6112">
        <ele>475</ele>
        <time>2021-10-10T10:13:08Z</time>
      </trkpt>
      <trkpt lat="46.65393" lon="5.61112">
        <ele>475.7</ele>
        <time>2021-10-10T10:13:12Z</time>
      </trkpt>
      <trkpt lat="46.65394" lon="5.61105">
        <ele>477.2</ele>
        <time>2021-10-10T10:13:18Z</time>
      </trkpt>
      <trkpt lat="46.6539" lon="5.61099">
        <ele>478.2</ele>
        <time>2021-10-10T10:13:24Z</time>
      </trkpt>
      <trkpt lat="46.6539" lon="5.61093">
        <ele>478.8</ele>
        <time>2021-10-10T10:13:30Z</time>
      </trkpt>
      <trkpt lat="46.65393" lon="5.61087">
        <ele>479.1</ele>
        <time>2021-10-10T10:13:39Z</time>
      </trkpt>
      <trkpt lat="46.65395" lon="5.6108">
        <ele>479.7</ele>
        <time>2021-10-10T10:13:45Z</time>
      </trkpt>
      <trkpt lat="46.65392" lon="5.61074">
        <ele>480.2</ele>
        <time>2021-10-10T10:13:50Z</time>
      </trkpt>
      <trkpt lat="46.65389" lon="5.61069">
        <ele>480.5</ele>
        <time>2021-10-10T10:13:56Z</time>
      </trkpt>
      <trkpt lat="46.65385" lon="5.61066">
        <ele>480.5</ele>
        <time>2021-10-10T10:14:02Z</time>
      </trkpt>
      <trkpt lat="46.65381" lon="5.61062">
        <ele>480.6</ele>
        <time>2021-10-10T10:14:07Z</time>
      </trkpt>
      <trkpt lat="46.65379" lon="5.61055">
        <ele>481.1</ele>
        <time>2021-10-10T10:14:16Z</time>
      </trkpt>
      <trkpt lat="46.65376" lon="5.6105">
        <ele>481.4</ele>
        <time>2021-10-10T10:14:25Z</time>
      </trkpt>
      <trkpt lat="46.65373" lon="5.61044">
        <ele>481.6</ele>
        <time>2021-10-10T10:14:30Z</time>
      </trkpt>
      <trkpt lat="46.65371" lon="5.61038">
        <ele>481.5</ele>
        <time>2021-10-10T10:14:40Z</time>
      </trkpt>
      <trkpt lat="46.65374" lon="5.61033">
        <ele>479.3</ele>
        <time>2021-10-10T10:15:40Z</time>
      </trkpt>
      <trkpt lat="46.65369" lon="5.61029">
        <ele>478.8</ele>
        <time>2021-10-10T10:15:52Z</time>
      </trkpt>
      <trkpt lat="46.65364" lon="5.61026">
        <ele>478</ele>
        <time>2021-10-10T10:15:57Z</time>
      </trkpt>
      <trkpt lat="46.6536" lon="5.61023">
        <ele>477.3</ele>
        <time>2021-10-10T10:16:03Z</time>
      </trkpt>
      <trkpt lat="46.65356" lon="5.61018">
        <ele>476.9</ele>
        <time>2021-10-10T10:16:15Z</time>
      </trkpt>
      <trkpt lat="46.65352" lon="5.61014">
        <ele>476.7</ele>
        <time>2021-10-10T10:16:25Z</time>
      </trkpt>
      <trkpt lat="46.65349" lon="5.61009">
        <ele>476.8</ele>
        <time>2021-10-10T10:16:33Z</time>
      </trkpt>
      <trkpt lat="46.65346" lon="5.61004">
        <ele>476.9</ele>
        <time>2021-10-10T10:16:39Z</time>
      </trkpt>
      <trkpt lat="46.65343" lon="5.60998">
        <ele>477.1</ele>
        <time>2021-10-10T10:16:45Z</time>
      </trkpt>
      <trkpt lat="46.65342" lon="5.60991">
        <ele>477.5</ele>
        <time>2021-10-10T10:16:53Z</time>
      </trkpt>
      <trkpt lat="46.65339" lon="5.60987">
        <ele>478.1</ele>
        <time>2021-10-10T10:17:03Z</time>
      </trkpt>
      <trkpt lat="46.65338" lon="5.6098">
        <ele>478.4</ele>
        <time>2021-10-10T10:17:12Z</time>
      </trkpt>
      <trkpt lat="46.65334" lon="5.60973">
        <ele>478.7</ele>
        <time>2021-10-10T10:17:19Z</time>
      </trkpt>
      <trkpt lat="46.65332" lon="5.60965">
        <ele>479</ele>
        <time>2021-10-10T10:17:22Z</time>
      </trkpt>
      <trkpt lat="46.65332" lon="5.60958">
        <ele>479.1</ele>
        <time>2021-10-10T10:17:28Z</time>
      </trkpt>
      <trkpt lat="46.6533" lon="5.60949">
        <ele>478.4</ele>
        <time>2021-10-10T10:17:46Z</time>
      </trkpt>
      <trkpt lat="46.65327" lon="5.60938">
        <ele>478.3</ele>
        <time>2021-10-10T10:17:49Z</time>
      </trkpt>
      <trkpt lat="46.65325" lon="5.60932">
        <ele>478.4</ele>
        <time>2021-10-10T10:17:52Z</time>
      </trkpt>
      <trkpt lat="46.65323" lon="5.60926">
        <ele>479.3</ele>
        <time>2021-10-10T10:17:58Z</time>
      </trkpt>
      <trkpt lat="46.6532" lon="5.6092">
        <ele>479.9</ele>
        <time>2021-10-10T10:18:05Z</time>
      </trkpt>
      <trkpt lat="46.65317" lon="5.60914">
        <ele>479.9</ele>
        <time>2021-10-10T10:18:11Z</time>
      </trkpt>
      <trkpt lat="46.65314" lon="5.6091">
        <ele>480.2</ele>
        <time>2021-10-10T10:18:17Z</time>
      </trkpt>
      <trkpt lat="46.65309" lon="5.60906">
        <ele>480.7</ele>
        <time>2021-10-10T10:18:22Z</time>
      </trkpt>
      <trkpt lat="46.65306" lon="5.60899">
        <ele>482.8</ele>
        <time>2021-10-10T10:18:29Z</time>
      </trkpt>
      <trkpt lat="46.65304" lon="5.60893">
        <ele>484.1</ele>
        <time>2021-10-10T10:18:34Z</time>
      </trkpt>
      <trkpt lat="46.65301" lon="5.60887">
        <ele>485.1</ele>
        <time>2021-10-10T10:18:39Z</time>
      </trkpt>
      <trkpt lat="46.65298" lon="5.6088">
        <ele>486</ele>
        <time>2021-10-10T10:18:44Z</time>
      </trkpt>
      <trkpt lat="46.65295" lon="5.60875">
        <ele>487.3</ele>
        <time>2021-10-10T10:18:53Z</time>
      </trkpt>
      <trkpt lat="46.65291" lon="5.6087">
        <ele>488.5</ele>
        <time>2021-10-10T10:18:57Z</time>
      </trkpt>
      <trkpt lat="46.65289" lon="5.60863">
        <ele>490</ele>
        <time>2021-10-10T10:19:04Z</time>
      </trkpt>
      <trkpt lat="46.65287" lon="5.60857">
        <ele>491</ele>
        <time>2021-10-10T10:19:09Z</time>
      </trkpt>
      <trkpt lat="46.65283" lon="5.60852">
        <ele>492.1</ele>
        <time>2021-10-10T10:19:15Z</time>
      </trkpt>
      <trkpt lat="46.65282" lon="5.60844">
        <ele>493.6</ele>
        <time>2021-10-10T10:19:23Z</time>
      </trkpt>
      <trkpt lat="46.65282" lon="5.60837">
        <ele>494.8</ele>
        <time>2021-10-10T10:19:31Z</time>
      </trkpt>
      <trkpt lat="46.65279" lon="5.60831">
        <ele>495</ele>
        <time>2021-10-10T10:19:37Z</time>
      </trkpt>
      <trkpt lat="46.65276" lon="5.60825">
        <ele>495.2</ele>
        <time>2021-10-10T10:19:42Z</time>
      </trkpt>
      <trkpt lat="46.65272" lon="5.60819">
        <ele>495.3</ele>
        <time>2021-10-10T10:19:45Z</time>
      </trkpt>
      <trkpt lat="46.65269" lon="5.60812">
        <ele>495.8</ele>
        <time>2021-10-10T10:19:49Z</time>
      </trkpt>
      <trkpt lat="46.65266" lon="5.60805">
        <ele>497.3</ele>
        <time>2021-10-10T10:19:53Z</time>
      </trkpt>
      <trkpt lat="46.65263" lon="5.60799">
        <ele>498.9</ele>
        <time>2021-10-10T10:19:58Z</time>
      </trkpt>
      <trkpt lat="46.6526" lon="5.60795">
        <ele>500.2</ele>
        <time>2021-10-10T10:20:03Z</time>
      </trkpt>
      <trkpt lat="46.65257" lon="5.6079">
        <ele>502.2</ele>
        <time>2021-10-10T10:20:09Z</time>
      </trkpt>
      <trkpt lat="46.65253" lon="5.60785">
        <ele>504.9</ele>
        <time>2021-10-10T10:20:18Z</time>
      </trkpt>
      <trkpt lat="46.65252" lon="5.60776">
        <ele>508.3</ele>
        <time>2021-10-10T10:20:33Z</time>
      </trkpt>
      <trkpt lat="46.6525" lon="5.6077">
        <ele>508.8</ele>
        <time>2021-10-10T10:20:38Z</time>
      </trkpt>
      <trkpt lat="46.65245" lon="5.60767">
        <ele>509.8</ele>
        <time>2021-10-10T10:20:49Z</time>
      </trkpt>
      <trkpt lat="46.6524" lon="5.60767">
        <ele>510.3</ele>
        <time>2021-10-10T10:20:55Z</time>
      </trkpt>
      <trkpt lat="46.65236" lon="5.60768">
        <ele>510.8</ele>
        <time>2021-10-10T10:21:03Z</time>
      </trkpt>
      <trkpt lat="46.65231" lon="5.60766">
        <ele>510.8</ele>
        <time>2021-10-10T10:21:09Z</time>
      </trkpt>
      <trkpt lat="46.6523" lon="5.6076">
        <ele>510.4</ele>
        <time>2021-10-10T10:21:18Z</time>
      </trkpt>
      <trkpt lat="46.65227" lon="5.60755">
        <ele>510.1</ele>
        <time>2021-10-10T10:21:24Z</time>
      </trkpt>
      <trkpt lat="46.65225" lon="5.60749">
        <ele>510.4</ele>
        <time>2021-10-10T10:21:29Z</time>
      </trkpt>
      <trkpt lat="46.65225" lon="5.60741">
        <ele>511.1</ele>
        <time>2021-10-10T10:21:34Z</time>
      </trkpt>
      <trkpt lat="46.65225" lon="5.60735">
        <ele>512.2</ele>
        <time>2021-10-10T10:21:39Z</time>
      </trkpt>
      <trkpt lat="46.65224" lon="5.60727">
        <ele>513.5</ele>
        <time>2021-10-10T10:21:49Z</time>
      </trkpt>
      <trkpt lat="46.65223" lon="5.60721">
        <ele>514.6</ele>
        <time>2021-10-10T10:21:54Z</time>
      </trkpt>
      <trkpt lat="46.65223" lon="5.60714">
        <ele>515.7</ele>
        <time>2021-10-10T10:21:59Z</time>
      </trkpt>
      <trkpt lat="46.65225" lon="5.60708">
        <ele>517.1</ele>
        <time>2021-10-10T10:22:08Z</time>
      </trkpt>
      <trkpt lat="46.65228" lon="5.60702">
        <ele>517.7</ele>
        <time>2021-10-10T10:22:13Z</time>
      </trkpt>
      <trkpt lat="46.65231" lon="5.60696">
        <ele>518.1</ele>
        <time>2021-10-10T10:22:17Z</time>
      </trkpt>
      <trkpt lat="46.65234" lon="5.6069">
        <ele>518.3</ele>
        <time>2021-10-10T10:22:25Z</time>
      </trkpt>
      <trkpt lat="46.65233" lon="5.60683">
        <ele>517.7</ele>
        <time>2021-10-10T10:22:40Z</time>
      </trkpt>
      <trkpt lat="46.65229" lon="5.60688">
        <ele>518.2</ele>
        <time>2021-10-10T10:23:16Z</time>
      </trkpt>
      <trkpt lat="46.65225" lon="5.60689">
        <ele>518.2</ele>
        <time>2021-10-10T10:23:24Z</time>
      </trkpt>
      <trkpt lat="46.6522" lon="5.6069">
        <ele>518.1</ele>
        <time>2021-10-10T10:23:30Z</time>
      </trkpt>
      <trkpt lat="46.65215" lon="5.60689">
        <ele>517.6</ele>
        <time>2021-10-10T10:23:42Z</time>
      </trkpt>
      <trkpt lat="46.6521" lon="5.60687">
        <ele>517.3</ele>
        <time>2021-10-10T10:23:46Z</time>
      </trkpt>
      <trkpt lat="46.65206" lon="5.60685">
        <ele>517</ele>
        <time>2021-10-10T10:23:51Z</time>
      </trkpt>
      <trkpt lat="46.65201" lon="5.60685">
        <ele>517.1</ele>
        <time>2021-10-10T10:23:59Z</time>
      </trkpt>
      <trkpt lat="46.65196" lon="5.60685">
        <ele>517.1</ele>
        <time>2021-10-10T10:24:06Z</time>
      </trkpt>
      <trkpt lat="46.65191" lon="5.60687">
        <ele>517.1</ele>
        <time>2021-10-10T10:24:15Z</time>
      </trkpt>
      <trkpt lat="46.65187" lon="5.60692">
        <ele>517.2</ele>
        <time>2021-10-10T10:24:19Z</time>
      </trkpt>
      <trkpt lat="46.65185" lon="5.60699">
        <ele>517.2</ele>
        <time>2021-10-10T10:24:23Z</time>
      </trkpt>
      <trkpt lat="46.65182" lon="5.60704">
        <ele>517.2</ele>
        <time>2021-10-10T10:24:29Z</time>
      </trkpt>
      <trkpt lat="46.65179" lon="5.6071">
        <ele>517.1</ele>
        <time>2021-10-10T10:24:35Z</time>
      </trkpt>
      <trkpt lat="46.65176" lon="5.60716">
        <ele>517</ele>
        <time>2021-10-10T10:24:39Z</time>
      </trkpt>
      <trkpt lat="46.65173" lon="5.60721">
        <ele>516.9</ele>
        <time>2021-10-10T10:24:44Z</time>
      </trkpt>
      <trkpt lat="46.65171" lon="5.60727">
        <ele>516.4</ele>
        <time>2021-10-10T10:24:49Z</time>
      </trkpt>
      <trkpt lat="46.65167" lon="5.60732">
        <ele>516.3</ele>
        <time>2021-10-10T10:24:53Z</time>
      </trkpt>
      <trkpt lat="46.65163" lon="5.60733">
        <ele>516.7</ele>
        <time>2021-10-10T10:24:57Z</time>
      </trkpt>
      <trkpt lat="46.65158" lon="5.60733">
        <ele>517.1</ele>
        <time>2021-10-10T10:25:02Z</time>
      </trkpt>
      <trkpt lat="46.65154" lon="5.6073">
        <ele>517.1</ele>
        <time>2021-10-10T10:25:10Z</time>
      </trkpt>
      <trkpt lat="46.65149" lon="5.60727">
        <ele>516.9</ele>
        <time>2021-10-10T10:25:16Z</time>
      </trkpt>
      <trkpt lat="46.65144" lon="5.60729">
        <ele>516.9</ele>
        <time>2021-10-10T10:25:23Z</time>
      </trkpt>
      <trkpt lat="46.65139" lon="5.60732">
        <ele>516.7</ele>
        <time>2021-10-10T10:25:28Z</time>
      </trkpt>
      <trkpt lat="46.65134" lon="5.60734">
        <ele>516.2</ele>
        <time>2021-10-10T10:25:34Z</time>
      </trkpt>
      <trkpt lat="46.6513" lon="5.60738">
        <ele>515.8</ele>
        <time>2021-10-10T10:25:39Z</time>
      </trkpt>
      <trkpt lat="46.65126" lon="5.60743">
        <ele>515.4</ele>
        <time>2021-10-10T10:25:46Z</time>
      </trkpt>
      <trkpt lat="46.65122" lon="5.60745">
        <ele>515.2</ele>
        <time>2021-10-10T10:25:52Z</time>
      </trkpt>
      <trkpt lat="46.65116" lon="5.60748">
        <ele>514.9</ele>
        <time>2021-10-10T10:25:58Z</time>
      </trkpt>
      <trkpt lat="46.65112" lon="5.60752">
        <ele>514.4</ele>
        <time>2021-10-10T10:26:03Z</time>
      </trkpt>
      <trkpt lat="46.65108" lon="5.60753">
        <ele>514.4</ele>
        <time>2021-10-10T10:26:10Z</time>
      </trkpt>
      <trkpt lat="46.65103" lon="5.60753">
        <ele>514.7</ele>
        <time>2021-10-10T10:26:14Z</time>
      </trkpt>
      <trkpt lat="46.65097" lon="5.60755">
        <ele>514.9</ele>
        <time>2021-10-10T10:26:17Z</time>
      </trkpt>
      <trkpt lat="46.65092" lon="5.60757">
        <ele>515.4</ele>
        <time>2021-10-10T10:26:20Z</time>
      </trkpt>
      <trkpt lat="46.65087" lon="5.60757">
        <ele>516.3</ele>
        <time>2021-10-10T10:26:27Z</time>
      </trkpt>
      <trkpt lat="46.65082" lon="5.60758">
        <ele>516.7</ele>
        <time>2021-10-10T10:26:32Z</time>
      </trkpt>
      <trkpt lat="46.65077" lon="5.60759">
        <ele>517.1</ele>
        <time>2021-10-10T10:26:37Z</time>
      </trkpt>
      <trkpt lat="46.65072" lon="5.60762">
        <ele>517.6</ele>
        <time>2021-10-10T10:26:42Z</time>
      </trkpt>
      <trkpt lat="46.65067" lon="5.60764">
        <ele>518.6</ele>
        <time>2021-10-10T10:26:48Z</time>
      </trkpt>
      <trkpt lat="46.65063" lon="5.60766">
        <ele>519.3</ele>
        <time>2021-10-10T10:26:52Z</time>
      </trkpt>
      <trkpt lat="46.65058" lon="5.60766">
        <ele>519.8</ele>
        <time>2021-10-10T10:26:56Z</time>
      </trkpt>
      <trkpt lat="46.65053" lon="5.60767">
        <ele>520.2</ele>
        <time>2021-10-10T10:27:00Z</time>
      </trkpt>
      <trkpt lat="46.65045" lon="5.6077">
        <ele>520.2</ele>
        <time>2021-10-10T10:27:18Z</time>
      </trkpt>
      <trkpt lat="46.6504" lon="5.60772">
        <ele>519.5</ele>
        <time>2021-10-10T10:27:21Z</time>
      </trkpt>
      <trkpt lat="46.65033" lon="5.60775">
        <ele>517.8</ele>
        <time>2021-10-10T10:27:32Z</time>
      </trkpt>
      <trkpt lat="46.65028" lon="5.60778">
        <ele>517.3</ele>
        <time>2021-10-10T10:27:35Z</time>
      </trkpt>
      <trkpt lat="46.65024" lon="5.60781">
        <ele>515.9</ele>
        <time>2021-10-10T10:27:43Z</time>
      </trkpt>
      <trkpt lat="46.65021" lon="5.60787">
        <ele>515</ele>
        <time>2021-10-10T10:27:50Z</time>
      </trkpt>
      <trkpt lat="46.65017" lon="5.60793">
        <ele>514.4</ele>
        <time>2021-10-10T10:27:53Z</time>
      </trkpt>
      <trkpt lat="46.65011" lon="5.60799">
        <ele>513.5</ele>
        <time>2021-10-10T10:27:59Z</time>
      </trkpt>
      <trkpt lat="46.65006" lon="5.60802">
        <ele>512.9</ele>
        <time>2021-10-10T10:28:02Z</time>
      </trkpt>
      <trkpt lat="46.65001" lon="5.60805">
        <ele>512</ele>
        <time>2021-10-10T10:28:06Z</time>
      </trkpt>
      <trkpt lat="46.64996" lon="5.60803">
        <ele>510.7</ele>
        <time>2021-10-10T10:28:12Z</time>
      </trkpt>
      <trkpt lat="46.64992" lon="5.60798">
        <ele>510</ele>
        <time>2021-10-10T10:28:18Z</time>
      </trkpt>
      <trkpt lat="46.64989" lon="5.60791">
        <ele>510.1</ele>
        <time>2021-10-10T10:28:30Z</time>
      </trkpt>
      <trkpt lat="46.64984" lon="5.6079">
        <ele>511.2</ele>
        <time>2021-10-10T10:28:37Z</time>
      </trkpt>
      <trkpt lat="46.6498" lon="5.60793">
        <ele>511.4</ele>
        <time>2021-10-10T10:28:45Z</time>
      </trkpt>
      <trkpt lat="46.64976" lon="5.60801">
        <ele>510.7</ele>
        <time>2021-10-10T10:28:59Z</time>
      </trkpt>
      <trkpt lat="46.64972" lon="5.60805">
        <ele>510.3</ele>
        <time>2021-10-10T10:29:02Z</time>
      </trkpt>
      <trkpt lat="46.64968" lon="5.60808">
        <ele>510</ele>
        <time>2021-10-10T10:29:06Z</time>
      </trkpt>
      <trkpt lat="46.64963" lon="5.60809">
        <ele>509.9</ele>
        <time>2021-10-10T10:29:09Z</time>
      </trkpt>
      <trkpt lat="46.64959" lon="5.6081">
        <ele>509.9</ele>
        <time>2021-10-10T10:29:12Z</time>
      </trkpt>
      <trkpt lat="46.64953" lon="5.60812">
        <ele>509.7</ele>
        <time>2021-10-10T10:29:17Z</time>
      </trkpt>
      <trkpt lat="46.64949" lon="5.60815">
        <ele>509.5</ele>
        <time>2021-10-10T10:29:22Z</time>
      </trkpt>
      <trkpt lat="46.64944" lon="5.60819">
        <ele>509.4</ele>
        <time>2021-10-10T10:29:28Z</time>
      </trkpt>
      <trkpt lat="46.6494" lon="5.60823">
        <ele>509.1</ele>
        <time>2021-10-10T10:29:32Z</time>
      </trkpt>
      <trkpt lat="46.64935" lon="5.60826">
        <ele>508.5</ele>
        <time>2021-10-10T10:29:37Z</time>
      </trkpt>
      <trkpt lat="46.6493" lon="5.60827">
        <ele>507.5</ele>
        <time>2021-10-10T10:29:42Z</time>
      </trkpt>
      <trkpt lat="46.64926" lon="5.60831">
        <ele>506.7</ele>
        <time>2021-10-10T10:29:47Z</time>
      </trkpt>
      <trkpt lat="46.64921" lon="5.60835">
        <ele>506.4</ele>
        <time>2021-10-10T10:29:51Z</time>
      </trkpt>
      <trkpt lat="46.64918" lon="5.6084">
        <ele>507</ele>
        <time>2021-10-10T10:29:55Z</time>
      </trkpt>
      <trkpt lat="46.64916" lon="5.60846">
        <ele>508.1</ele>
        <time>2021-10-10T10:29:58Z</time>
      </trkpt>
      <trkpt lat="46.64914" lon="5.60853">
        <ele>509.5</ele>
        <time>2021-10-10T10:30:01Z</time>
      </trkpt>
      <trkpt lat="46.64912" lon="5.60859">
        <ele>511.4</ele>
        <time>2021-10-10T10:30:07Z</time>
      </trkpt>
      <trkpt lat="46.64908" lon="5.60857">
        <ele>512.2</ele>
        <time>2021-10-10T10:30:14Z</time>
      </trkpt>
      <trkpt lat="46.64903" lon="5.60859">
        <ele>512.2</ele>
        <time>2021-10-10T10:30:22Z</time>
      </trkpt>
      <trkpt lat="46.64897" lon="5.60861">
        <ele>512.7</ele>
        <time>2021-10-10T10:30:26Z</time>
      </trkpt>
      <trkpt lat="46.64892" lon="5.60863">
        <ele>513.7</ele>
        <time>2021-10-10T10:30:29Z</time>
      </trkpt>
      <trkpt lat="46.64887" lon="5.60866">
        <ele>515.7</ele>
        <time>2021-10-10T10:30:32Z</time>
      </trkpt>
      <trkpt lat="46.64883" lon="5.60869">
        <ele>517.3</ele>
        <time>2021-10-10T10:30:36Z</time>
      </trkpt>
      <trkpt lat="46.64879" lon="5.60873">
        <ele>518</ele>
        <time>2021-10-10T10:30:40Z</time>
      </trkpt>
      <trkpt lat="46.64874" lon="5.60877">
        <ele>518</ele>
        <time>2021-10-10T10:30:45Z</time>
      </trkpt>
      <trkpt lat="46.64869" lon="5.6088">
        <ele>517.6</ele>
        <time>2021-10-10T10:30:50Z</time>
      </trkpt>
      <trkpt lat="46.64864" lon="5.60883">
        <ele>517.2</ele>
        <time>2021-10-10T10:30:57Z</time>
      </trkpt>
      <trkpt lat="46.64861" lon="5.60888">
        <ele>517.8</ele>
        <time>2021-10-10T10:31:02Z</time>
      </trkpt>
      <trkpt lat="46.64857" lon="5.60892">
        <ele>519</ele>
        <time>2021-10-10T10:31:07Z</time>
      </trkpt>
      <trkpt lat="46.64854" lon="5.60898">
        <ele>522.3</ele>
        <time>2021-10-10T10:31:14Z</time>
      </trkpt>
      <trkpt lat="46.64849" lon="5.60902">
        <ele>524.2</ele>
        <time>2021-10-10T10:31:20Z</time>
      </trkpt>
      <trkpt lat="46.64845" lon="5.60903">
        <ele>524.5</ele>
        <time>2021-10-10T10:31:24Z</time>
      </trkpt>
      <trkpt lat="46.64841" lon="5.60909">
        <ele>524.8</ele>
        <time>2021-10-10T10:31:29Z</time>
      </trkpt>
      <trkpt lat="46.64836" lon="5.60913">
        <ele>524.7</ele>
        <time>2021-10-10T10:31:34Z</time>
      </trkpt>
      <trkpt lat="46.64832" lon="5.60917">
        <ele>524.5</ele>
        <time>2021-10-10T10:31:41Z</time>
      </trkpt>
      <trkpt lat="46.64828" lon="5.60921">
        <ele>524.5</ele>
        <time>2021-10-10T10:31:45Z</time>
      </trkpt>
      <trkpt lat="46.64824" lon="5.60926">
        <ele>524.6</ele>
        <time>2021-10-10T10:31:48Z</time>
      </trkpt>
      <trkpt lat="46.64821" lon="5.6093">
        <ele>524.7</ele>
        <time>2021-10-10T10:31:52Z</time>
      </trkpt>
      <trkpt lat="46.64817" lon="5.60934">
        <ele>525</ele>
        <time>2021-10-10T10:31:56Z</time>
      </trkpt>
      <trkpt lat="46.64813" lon="5.60939">
        <ele>525</ele>
        <time>2021-10-10T10:32:00Z</time>
      </trkpt>
      <trkpt lat="46.64809" lon="5.60943">
        <ele>524.8</ele>
        <time>2021-10-10T10:32:04Z</time>
      </trkpt>
      <trkpt lat="46.64804" lon="5.60945">
        <ele>524.6</ele>
        <time>2021-10-10T10:32:09Z</time>
      </trkpt>
      <trkpt lat="46.64799" lon="5.60947">
        <ele>524.3</ele>
        <time>2021-10-10T10:32:13Z</time>
      </trkpt>
      <trkpt lat="46.64795" lon="5.60949">
        <ele>524</ele>
        <time>2021-10-10T10:32:18Z</time>
      </trkpt>
      <trkpt lat="46.6479" lon="5.60953">
        <ele>523.1</ele>
        <time>2021-10-10T10:32:24Z</time>
      </trkpt>
      <trkpt lat="46.64785" lon="5.60957">
        <ele>522.1</ele>
        <time>2021-10-10T10:32:28Z</time>
      </trkpt>
      <trkpt lat="46.64781" lon="5.60961">
        <ele>521.5</ele>
        <time>2021-10-10T10:32:33Z</time>
      </trkpt>
      <trkpt lat="46.64777" lon="5.60965">
        <ele>522.2</ele>
        <time>2021-10-10T10:32:41Z</time>
      </trkpt>
      <trkpt lat="46.64773" lon="5.60966">
        <ele>523</ele>
        <time>2021-10-10T10:32:46Z</time>
      </trkpt>
      <trkpt lat="46.64767" lon="5.60965">
        <ele>524.2</ele>
        <time>2021-10-10T10:32:51Z</time>
      </trkpt>
      <trkpt lat="46.64763" lon="5.60966">
        <ele>525.3</ele>
        <time>2021-10-10T10:32:56Z</time>
      </trkpt>
      <trkpt lat="46.64759" lon="5.6097">
        <ele>527.4</ele>
        <time>2021-10-10T10:33:03Z</time>
      </trkpt>
      <trkpt lat="46.64755" lon="5.60976">
        <ele>528.6</ele>
        <time>2021-10-10T10:33:07Z</time>
      </trkpt>
      <trkpt lat="46.64751" lon="5.60981">
        <ele>529.5</ele>
        <time>2021-10-10T10:33:11Z</time>
      </trkpt>
      <trkpt lat="46.64747" lon="5.60986">
        <ele>530.5</ele>
        <time>2021-10-10T10:33:14Z</time>
      </trkpt>
      <trkpt lat="46.64744" lon="5.60991">
        <ele>531.7</ele>
        <time>2021-10-10T10:33:18Z</time>
      </trkpt>
      <trkpt lat="46.64739" lon="5.60995">
        <ele>532.6</ele>
        <time>2021-10-10T10:33:23Z</time>
      </trkpt>
      <trkpt lat="46.64735" lon="5.60999">
        <ele>532.9</ele>
        <time>2021-10-10T10:33:27Z</time>
      </trkpt>
      <trkpt lat="46.64731" lon="5.61004">
        <ele>532.9</ele>
        <time>2021-10-10T10:33:31Z</time>
      </trkpt>
      <trkpt lat="46.64727" lon="5.61007">
        <ele>532.8</ele>
        <time>2021-10-10T10:33:36Z</time>
      </trkpt>
      <trkpt lat="46.64721" lon="5.61008">
        <ele>532.9</ele>
        <time>2021-10-10T10:33:44Z</time>
      </trkpt>
      <trkpt lat="46.64716" lon="5.6101">
        <ele>532.8</ele>
        <time>2021-10-10T10:33:47Z</time>
      </trkpt>
      <trkpt lat="46.64711" lon="5.61011">
        <ele>532.6</ele>
        <time>2021-10-10T10:33:50Z</time>
      </trkpt>
      <trkpt lat="46.64706" lon="5.61011">
        <ele>532.5</ele>
        <time>2021-10-10T10:33:53Z</time>
      </trkpt>
      <trkpt lat="46.64701" lon="5.61015">
        <ele>532.1</ele>
        <time>2021-10-10T10:33:57Z</time>
      </trkpt>
      <trkpt lat="46.64698" lon="5.6102">
        <ele>531.6</ele>
        <time>2021-10-10T10:34:02Z</time>
      </trkpt>
      <trkpt lat="46.64694" lon="5.61023">
        <ele>531.3</ele>
        <time>2021-10-10T10:34:10Z</time>
      </trkpt>
      <trkpt lat="46.64689" lon="5.61024">
        <ele>531.6</ele>
        <time>2021-10-10T10:34:14Z</time>
      </trkpt>
      <trkpt lat="46.64684" lon="5.61025">
        <ele>531.5</ele>
        <time>2021-10-10T10:34:19Z</time>
      </trkpt>
      <trkpt lat="46.64679" lon="5.61025">
        <ele>531.5</ele>
        <time>2021-10-10T10:34:23Z</time>
      </trkpt>
      <trkpt lat="46.64674" lon="5.61025">
        <ele>531.5</ele>
        <time>2021-10-10T10:34:27Z</time>
      </trkpt>
      <trkpt lat="46.64669" lon="5.61026">
        <ele>531.4</ele>
        <time>2021-10-10T10:34:31Z</time>
      </trkpt>
      <trkpt lat="46.64665" lon="5.61029">
        <ele>532.1</ele>
        <time>2021-10-10T10:34:36Z</time>
      </trkpt>
      <trkpt lat="46.64661" lon="5.61026">
        <ele>532.8</ele>
        <time>2021-10-10T10:34:42Z</time>
      </trkpt>
      <trkpt lat="46.64656" lon="5.61023">
        <ele>532.9</ele>
        <time>2021-10-10T10:34:45Z</time>
      </trkpt>
      <trkpt lat="46.64652" lon="5.61028">
        <ele>531.1</ele>
        <time>2021-10-10T10:34:51Z</time>
      </trkpt>
      <trkpt lat="46.64647" lon="5.61032">
        <ele>529.5</ele>
        <time>2021-10-10T10:34:55Z</time>
      </trkpt>
      <trkpt lat="46.64643" lon="5.61035">
        <ele>527.7</ele>
        <time>2021-10-10T10:34:59Z</time>
      </trkpt>
      <trkpt lat="46.64638" lon="5.61038">
        <ele>524.9</ele>
        <time>2021-10-10T10:35:04Z</time>
      </trkpt>
      <trkpt lat="46.64634" lon="5.61042">
        <ele>521.7</ele>
        <time>2021-10-10T10:35:09Z</time>
      </trkpt>
      <trkpt lat="46.6463" lon="5.61048">
        <ele>519.6</ele>
        <time>2021-10-10T10:35:15Z</time>
      </trkpt>
      <trkpt lat="46.64628" lon="5.61054">
        <ele>519.8</ele>
        <time>2021-10-10T10:35:19Z</time>
      </trkpt>
      <trkpt lat="46.64626" lon="5.61061">
        <ele>519.6</ele>
        <time>2021-10-10T10:35:25Z</time>
      </trkpt>
      <trkpt lat="46.64622" lon="5.61067">
        <ele>520.4</ele>
        <time>2021-10-10T10:35:29Z</time>
      </trkpt>
      <trkpt lat="46.64619" lon="5.61073">
        <ele>520.8</ele>
        <time>2021-10-10T10:35:33Z</time>
      </trkpt>
      <trkpt lat="46.64615" lon="5.61076">
        <ele>520.5</ele>
        <time>2021-10-10T10:35:38Z</time>
      </trkpt>
      <trkpt lat="46.6461" lon="5.61078">
        <ele>521</ele>
        <time>2021-10-10T10:35:42Z</time>
      </trkpt>
      <trkpt lat="46.64606" lon="5.61083">
        <ele>522.1</ele>
        <time>2021-10-10T10:35:46Z</time>
      </trkpt>
      <trkpt lat="46.64602" lon="5.61089">
        <ele>523.8</ele>
        <time>2021-10-10T10:35:50Z</time>
      </trkpt>
      <trkpt lat="46.64599" lon="5.61093">
        <ele>525.8</ele>
        <time>2021-10-10T10:35:55Z</time>
      </trkpt>
      <trkpt lat="46.64594" lon="5.61092">
        <ele>527.7</ele>
        <time>2021-10-10T10:36:01Z</time>
      </trkpt>
      <trkpt lat="46.64589" lon="5.6109">
        <ele>529.9</ele>
        <time>2021-10-10T10:36:13Z</time>
      </trkpt>
      <trkpt lat="46.64584" lon="5.61091">
        <ele>530.1</ele>
        <time>2021-10-10T10:36:18Z</time>
      </trkpt>
      <trkpt lat="46.64579" lon="5.61094">
        <ele>530</ele>
        <time>2021-10-10T10:36:22Z</time>
      </trkpt>
      <trkpt lat="46.64575" lon="5.61096">
        <ele>529.4</ele>
        <time>2021-10-10T10:36:26Z</time>
      </trkpt>
      <trkpt lat="46.6457" lon="5.61096">
        <ele>528.3</ele>
        <time>2021-10-10T10:36:32Z</time>
      </trkpt>
      <trkpt lat="46.64565" lon="5.61096">
        <ele>527.2</ele>
        <time>2021-10-10T10:36:37Z</time>
      </trkpt>
      <trkpt lat="46.6456" lon="5.61097">
        <ele>525.6</ele>
        <time>2021-10-10T10:36:42Z</time>
      </trkpt>
      <trkpt lat="46.64556" lon="5.61101">
        <ele>524.3</ele>
        <time>2021-10-10T10:36:47Z</time>
      </trkpt>
      <trkpt lat="46.64551" lon="5.61102">
        <ele>523.3</ele>
        <time>2021-10-10T10:36:53Z</time>
      </trkpt>
      <trkpt lat="46.64547" lon="5.61101">
        <ele>522.8</ele>
        <time>2021-10-10T10:36:59Z</time>
      </trkpt>
      <trkpt lat="46.64542" lon="5.61105">
        <ele>523.7</ele>
        <time>2021-10-10T10:37:06Z</time>
      </trkpt>
      <trkpt lat="46.64536" lon="5.61109">
        <ele>524.8</ele>
        <time>2021-10-10T10:37:18Z</time>
      </trkpt>
      <trkpt lat="46.64531" lon="5.61109">
        <ele>525.8</ele>
        <time>2021-10-10T10:37:22Z</time>
      </trkpt>
      <trkpt lat="46.64526" lon="5.61108">
        <ele>527</ele>
        <time>2021-10-10T10:37:27Z</time>
      </trkpt>
      <trkpt lat="46.64521" lon="5.61108">
        <ele>528.1</ele>
        <time>2021-10-10T10:37:32Z</time>
      </trkpt>
      <trkpt lat="46.64516" lon="5.61108">
        <ele>529.1</ele>
        <time>2021-10-10T10:37:37Z</time>
      </trkpt>
      <trkpt lat="46.64512" lon="5.61106">
        <ele>530.5</ele>
        <time>2021-10-10T10:37:43Z</time>
      </trkpt>
      <trkpt lat="46.64508" lon="5.61109">
        <ele>531.5</ele>
        <time>2021-10-10T10:37:47Z</time>
      </trkpt>
      <trkpt lat="46.64503" lon="5.61112">
        <ele>532.3</ele>
        <time>2021-10-10T10:37:51Z</time>
      </trkpt>
      <trkpt lat="46.64499" lon="5.61112">
        <ele>532.8</ele>
        <time>2021-10-10T10:37:54Z</time>
      </trkpt>
      <trkpt lat="46.64494" lon="5.61113">
        <ele>533.4</ele>
        <time>2021-10-10T10:37:57Z</time>
      </trkpt>
      <trkpt lat="46.64489" lon="5.61113">
        <ele>533.9</ele>
        <time>2021-10-10T10:38:00Z</time>
      </trkpt>
      <trkpt lat="46.64484" lon="5.61113">
        <ele>533.9</ele>
        <time>2021-10-10T10:38:06Z</time>
      </trkpt>
      <trkpt lat="46.64479" lon="5.61113">
        <ele>534.1</ele>
        <time>2021-10-10T10:38:10Z</time>
      </trkpt>
      <trkpt lat="46.64473" lon="5.61115">
        <ele>534.2</ele>
        <time>2021-10-10T10:38:15Z</time>
      </trkpt>
      <trkpt lat="46.64468" lon="5.61116">
        <ele>533.9</ele>
        <time>2021-10-10T10:38:19Z</time>
      </trkpt>
      <trkpt lat="46.64464" lon="5.61114">
        <ele>533.5</ele>
        <time>2021-10-10T10:38:23Z</time>
      </trkpt>
      <trkpt lat="46.64459" lon="5.61113">
        <ele>533.3</ele>
        <time>2021-10-10T10:38:29Z</time>
      </trkpt>
      <trkpt lat="46.64454" lon="5.61112">
        <ele>533.5</ele>
        <time>2021-10-10T10:38:37Z</time>
      </trkpt>
      <trkpt lat="46.6445" lon="5.61111">
        <ele>533.3</ele>
        <time>2021-10-10T10:38:43Z</time>
      </trkpt>
      <trkpt lat="46.64445" lon="5.61108">
        <ele>532.1</ele>
        <time>2021-10-10T10:38:49Z</time>
      </trkpt>
      <trkpt lat="46.64446" lon="5.61102">
        <ele>533.2</ele>
        <time>2021-10-10T10:38:58Z</time>
      </trkpt>
      <trkpt lat="46.64441" lon="5.61103">
        <ele>532.1</ele>
        <time>2021-10-10T10:39:22Z</time>
      </trkpt>
      <trkpt lat="46.64445" lon="5.61106">
        <ele>536.1</ele>
        <time>2021-10-10T10:39:50Z</time>
      </trkpt>
      <trkpt lat="46.6445" lon="5.61106">
        <ele>539.9</ele>
        <time>2021-10-10T10:39:58Z</time>
      </trkpt>
      <trkpt lat="46.64455" lon="5.61106">
        <ele>543</ele>
        <time>2021-10-10T10:40:07Z</time>
      </trkpt>
      <trkpt lat="46.64451" lon="5.61104">
        <ele>546.2</ele>
        <time>2021-10-10T10:40:16Z</time>
      </trkpt>
      <trkpt lat="46.64447" lon="5.61099">
        <ele>548.3</ele>
        <time>2021-10-10T10:40:33Z</time>
      </trkpt>
      <trkpt lat="46.64447" lon="5.61092">
        <ele>548.4</ele>
        <time>2021-10-10T10:40:39Z</time>
      </trkpt>
      <trkpt lat="46.6445" lon="5.61088">
        <ele>548.9</ele>
        <time>2021-10-10T10:40:46Z</time>
      </trkpt>
      <trkpt lat="46.64448" lon="5.61093">
        <ele>548.4</ele>
        <time>2021-10-10T10:41:00Z</time>
      </trkpt>
      <trkpt lat="46.64445" lon="5.61099">
        <ele>549.4</ele>
        <time>2021-10-10T10:41:33Z</time>
      </trkpt>
      <trkpt lat="46.64442" lon="5.61104">
        <ele>535.3</ele>
        <time>2021-10-10T11:16:36Z</time>
      </trkpt>
      <trkpt lat="46.6444" lon="5.61114">
        <ele>537</ele>
        <time>2021-10-10T11:17:50Z</time>
      </trkpt>
      <trkpt lat="46.64441" lon="5.6112">
        <ele>541.4</ele>
        <time>2021-10-10T11:18:02Z</time>
      </trkpt>
      <trkpt lat="46.64443" lon="5.61114">
        <ele>542.6</ele>
        <time>2021-10-10T11:18:32Z</time>
      </trkpt>
      <trkpt lat="46.64445" lon="5.61108">
        <ele>542.5</ele>
        <time>2021-10-10T11:18:36Z</time>
      </trkpt>
      <trkpt lat="46.64442" lon="5.61103">
        <ele>542.3</ele>
        <time>2021-10-10T11:18:52Z</time>
      </trkpt>
      <trkpt lat="46.64439" lon="5.61098">
        <ele>541.5</ele>
        <time>2021-10-10T11:18:56Z</time>
      </trkpt>
      <trkpt lat="46.64439" lon="5.61105">
        <ele>537.8</ele>
        <time>2021-10-10T11:19:04Z</time>
      </trkpt>
      <trkpt lat="46.64443" lon="5.61104">
        <ele>532.9</ele>
        <time>2021-10-10T11:19:11Z</time>
      </trkpt>
      <trkpt lat="46.6444" lon="5.61108">
        <ele>531.9</ele>
        <time>2021-10-10T11:19:19Z</time>
      </trkpt>
      <trkpt lat="46.64435" lon="5.61111">
        <ele>532.4</ele>
        <time>2021-10-10T11:19:27Z</time>
      </trkpt>
      <trkpt lat="46.64433" lon="5.61118">
        <ele>531.8</ele>
        <time>2021-10-10T11:19:35Z</time>
      </trkpt>
      <trkpt lat="46.64429" lon="5.61114">
        <ele>531.6</ele>
        <time>2021-10-10T11:19:52Z</time>
      </trkpt>
      <trkpt lat="46.64426" lon="5.61109">
        <ele>531.5</ele>
        <time>2021-10-10T11:20:01Z</time>
      </trkpt>
      <trkpt lat="46.64423" lon="5.61115">
        <ele>531</ele>
        <time>2021-10-10T11:20:10Z</time>
      </trkpt>
      <trkpt lat="46.64418" lon="5.61117">
        <ele>530.6</ele>
        <time>2021-10-10T11:20:16Z</time>
      </trkpt>
      <trkpt lat="46.64413" lon="5.61116">
        <ele>530.2</ele>
        <time>2021-10-10T11:20:20Z</time>
      </trkpt>
      <trkpt lat="46.64409" lon="5.61114">
        <ele>530.5</ele>
        <time>2021-10-10T11:20:26Z</time>
      </trkpt>
      <trkpt lat="46.64404" lon="5.61113">
        <ele>532.1</ele>
        <time>2021-10-10T11:20:36Z</time>
      </trkpt>
      <trkpt lat="46.64399" lon="5.61113">
        <ele>531.7</ele>
        <time>2021-10-10T11:20:42Z</time>
      </trkpt>
      <trkpt lat="46.64394" lon="5.61114">
        <ele>531.4</ele>
        <time>2021-10-10T11:20:46Z</time>
      </trkpt>
      <trkpt lat="46.64389" lon="5.61113">
        <ele>531.4</ele>
        <time>2021-10-10T11:20:50Z</time>
      </trkpt>
      <trkpt lat="46.64385" lon="5.61112">
        <ele>531.2</ele>
        <time>2021-10-10T11:20:57Z</time>
      </trkpt>
      <trkpt lat="46.6438" lon="5.61112">
        <ele>529.1</ele>
        <time>2021-10-10T11:21:05Z</time>
      </trkpt>
      <trkpt lat="46.64375" lon="5.61114">
        <ele>527.6</ele>
        <time>2021-10-10T11:21:09Z</time>
      </trkpt>
      <trkpt lat="46.6437" lon="5.61115">
        <ele>525</ele>
        <time>2021-10-10T11:21:17Z</time>
      </trkpt>
      <trkpt lat="46.64365" lon="5.61114">
        <ele>524.2</ele>
        <time>2021-10-10T11:21:23Z</time>
      </trkpt>
      <trkpt lat="46.6436" lon="5.61114">
        <ele>523.6</ele>
        <time>2021-10-10T11:21:27Z</time>
      </trkpt>
      <trkpt lat="46.64354" lon="5.61115">
        <ele>523.5</ele>
        <time>2021-10-10T11:21:30Z</time>
      </trkpt>
      <trkpt lat="46.64349" lon="5.61117">
        <ele>524.2</ele>
        <time>2021-10-10T11:21:33Z</time>
      </trkpt>
      <trkpt lat="46.64344" lon="5.61117">
        <ele>525.5</ele>
        <time>2021-10-10T11:21:37Z</time>
      </trkpt>
      <trkpt lat="46.64339" lon="5.61116">
        <ele>527.3</ele>
        <time>2021-10-10T11:21:41Z</time>
      </trkpt>
      <trkpt lat="46.64334" lon="5.61117">
        <ele>528.9</ele>
        <time>2021-10-10T11:21:45Z</time>
      </trkpt>
      <trkpt lat="46.64329" lon="5.61118">
        <ele>529.8</ele>
        <time>2021-10-10T11:21:52Z</time>
      </trkpt>
      <trkpt lat="46.64324" lon="5.61119">
        <ele>530.9</ele>
        <time>2021-10-10T11:21:56Z</time>
      </trkpt>
      <trkpt lat="46.64318" lon="5.6112">
        <ele>531.7</ele>
        <time>2021-10-10T11:22:00Z</time>
      </trkpt>
      <trkpt lat="46.64312" lon="5.61122">
        <ele>532.5</ele>
        <time>2021-10-10T11:22:03Z</time>
      </trkpt>
      <trkpt lat="46.64306" lon="5.61124">
        <ele>533.3</ele>
        <time>2021-10-10T11:22:06Z</time>
      </trkpt>
      <trkpt lat="46.64301" lon="5.61124">
        <ele>534.1</ele>
        <time>2021-10-10T11:22:10Z</time>
      </trkpt>
      <trkpt lat="46.64296" lon="5.61124">
        <ele>534.8</ele>
        <time>2021-10-10T11:22:16Z</time>
      </trkpt>
      <trkpt lat="46.64292" lon="5.61122">
        <ele>535.2</ele>
        <time>2021-10-10T11:22:23Z</time>
      </trkpt>
      <trkpt lat="46.64287" lon="5.61119">
        <ele>534.1</ele>
        <time>2021-10-10T11:22:30Z</time>
      </trkpt>
      <trkpt lat="46.64283" lon="5.61119">
        <ele>533.7</ele>
        <time>2021-10-10T11:22:34Z</time>
      </trkpt>
      <trkpt lat="46.64278" lon="5.61119">
        <ele>533.3</ele>
        <time>2021-10-10T11:22:38Z</time>
      </trkpt>
      <trkpt lat="46.64273" lon="5.61118">
        <ele>533</ele>
        <time>2021-10-10T11:22:43Z</time>
      </trkpt>
      <trkpt lat="46.64267" lon="5.61118">
        <ele>532.7</ele>
        <time>2021-10-10T11:22:48Z</time>
      </trkpt>
      <trkpt lat="46.64262" lon="5.61117">
        <ele>532.9</ele>
        <time>2021-10-10T11:22:53Z</time>
      </trkpt>
      <trkpt lat="46.64257" lon="5.61116">
        <ele>533.1</ele>
        <time>2021-10-10T11:22:58Z</time>
      </trkpt>
      <trkpt lat="46.64252" lon="5.61116">
        <ele>532.6</ele>
        <time>2021-10-10T11:23:05Z</time>
      </trkpt>
      <trkpt lat="46.64248" lon="5.61113">
        <ele>530.7</ele>
        <time>2021-10-10T11:23:15Z</time>
      </trkpt>
      <trkpt lat="46.64243" lon="5.61111">
        <ele>530.2</ele>
        <time>2021-10-10T11:23:21Z</time>
      </trkpt>
      <trkpt lat="46.64238" lon="5.6111">
        <ele>529.1</ele>
        <time>2021-10-10T11:23:26Z</time>
      </trkpt>
      <trkpt lat="46.64233" lon="5.61109">
        <ele>527.7</ele>
        <time>2021-10-10T11:23:32Z</time>
      </trkpt>
      <trkpt lat="46.64229" lon="5.6111">
        <ele>526.9</ele>
        <time>2021-10-10T11:23:35Z</time>
      </trkpt>
      <trkpt lat="46.64224" lon="5.61111">
        <ele>526.4</ele>
        <time>2021-10-10T11:23:39Z</time>
      </trkpt>
      <trkpt lat="46.64219" lon="5.61111">
        <ele>525.9</ele>
        <time>2021-10-10T11:23:43Z</time>
      </trkpt>
      <trkpt lat="46.64215" lon="5.6111">
        <ele>525.6</ele>
        <time>2021-10-10T11:23:48Z</time>
      </trkpt>
      <trkpt lat="46.64209" lon="5.61112">
        <ele>525.7</ele>
        <time>2021-10-10T11:23:52Z</time>
      </trkpt>
      <trkpt lat="46.64204" lon="5.61114">
        <ele>525.8</ele>
        <time>2021-10-10T11:23:56Z</time>
      </trkpt>
      <trkpt lat="46.64198" lon="5.61113">
        <ele>525.5</ele>
        <time>2021-10-10T11:24:00Z</time>
      </trkpt>
      <trkpt lat="46.64193" lon="5.61114">
        <ele>525.4</ele>
        <time>2021-10-10T11:24:03Z</time>
      </trkpt>
      <trkpt lat="46.64188" lon="5.61116">
        <ele>525.8</ele>
        <time>2021-10-10T11:24:06Z</time>
      </trkpt>
      <trkpt lat="46.64183" lon="5.61116">
        <ele>526.6</ele>
        <time>2021-10-10T11:24:09Z</time>
      </trkpt>
      <trkpt lat="46.64178" lon="5.61117">
        <ele>528.1</ele>
        <time>2021-10-10T11:24:13Z</time>
      </trkpt>
      <trkpt lat="46.64172" lon="5.61117">
        <ele>529.9</ele>
        <time>2021-10-10T11:24:17Z</time>
      </trkpt>
      <trkpt lat="46.64168" lon="5.61116">
        <ele>532.3</ele>
        <time>2021-10-10T11:24:23Z</time>
      </trkpt>
      <trkpt lat="46.64163" lon="5.61113">
        <ele>533.7</ele>
        <time>2021-10-10T11:24:29Z</time>
      </trkpt>
      <trkpt lat="46.64158" lon="5.61114">
        <ele>534.2</ele>
        <time>2021-10-10T11:24:33Z</time>
      </trkpt>
      <trkpt lat="46.64153" lon="5.61113">
        <ele>534.6</ele>
        <time>2021-10-10T11:24:38Z</time>
      </trkpt>
      <trkpt lat="46.64149" lon="5.61115">
        <ele>534.8</ele>
        <time>2021-10-10T11:24:42Z</time>
      </trkpt>
      <trkpt lat="46.64144" lon="5.61114">
        <ele>534.9</ele>
        <time>2021-10-10T11:24:47Z</time>
      </trkpt>
      <trkpt lat="46.6414" lon="5.6111">
        <ele>546.6</ele>
        <time>2021-10-10T11:26:28Z</time>
      </trkpt>
      <trkpt lat="46.64135" lon="5.61109">
        <ele>548.4</ele>
        <time>2021-10-10T11:26:38Z</time>
      </trkpt>
      <trkpt lat="46.6413" lon="5.61109">
        <ele>547.2</ele>
        <time>2021-10-10T11:26:44Z</time>
      </trkpt>
      <trkpt lat="46.64126" lon="5.61111">
        <ele>545.7</ele>
        <time>2021-10-10T11:26:49Z</time>
      </trkpt>
      <trkpt lat="46.6412" lon="5.61114">
        <ele>544.8</ele>
        <time>2021-10-10T11:26:53Z</time>
      </trkpt>
      <trkpt lat="46.64115" lon="5.61117">
        <ele>543.9</ele>
        <time>2021-10-10T11:26:57Z</time>
      </trkpt>
      <trkpt lat="46.6411" lon="5.61119">
        <ele>543</ele>
        <time>2021-10-10T11:27:01Z</time>
      </trkpt>
      <trkpt lat="46.64105" lon="5.61118">
        <ele>542.5</ele>
        <time>2021-10-10T11:27:05Z</time>
      </trkpt>
      <trkpt lat="46.64099" lon="5.61119">
        <ele>541.9</ele>
        <time>2021-10-10T11:27:09Z</time>
      </trkpt>
      <trkpt lat="46.64094" lon="5.6112">
        <ele>541.7</ele>
        <time>2021-10-10T11:27:12Z</time>
      </trkpt>
      <trkpt lat="46.64089" lon="5.61119">
        <ele>541.3</ele>
        <time>2021-10-10T11:27:16Z</time>
      </trkpt>
      <trkpt lat="46.64085" lon="5.61118">
        <ele>540.8</ele>
        <time>2021-10-10T11:27:21Z</time>
      </trkpt>
      <trkpt lat="46.6408" lon="5.61117">
        <ele>540.4</ele>
        <time>2021-10-10T11:27:27Z</time>
      </trkpt>
      <trkpt lat="46.64075" lon="5.61117">
        <ele>540.5</ele>
        <time>2021-10-10T11:27:35Z</time>
      </trkpt>
      <trkpt lat="46.6407" lon="5.61117">
        <ele>540.1</ele>
        <time>2021-10-10T11:27:39Z</time>
      </trkpt>
      <trkpt lat="46.64065" lon="5.61114">
        <ele>539.9</ele>
        <time>2021-10-10T11:27:43Z</time>
      </trkpt>
      <trkpt lat="46.64059" lon="5.61115">
        <ele>539.1</ele>
        <time>2021-10-10T11:27:49Z</time>
      </trkpt>
      <trkpt lat="46.64054" lon="5.61114">
        <ele>538.6</ele>
        <time>2021-10-10T11:27:54Z</time>
      </trkpt>
      <trkpt lat="46.64049" lon="5.61113">
        <ele>538.4</ele>
        <time>2021-10-10T11:27:59Z</time>
      </trkpt>
      <trkpt lat="46.64044" lon="5.61113">
        <ele>538.1</ele>
        <time>2021-10-10T11:28:04Z</time>
      </trkpt>
      <trkpt lat="46.6404" lon="5.61109">
        <ele>537.8</ele>
        <time>2021-10-10T11:28:11Z</time>
      </trkpt>
      <trkpt lat="46.64035" lon="5.61107">
        <ele>539.1</ele>
        <time>2021-10-10T11:28:20Z</time>
      </trkpt>
      <trkpt lat="46.64031" lon="5.61111">
        <ele>538.4</ele>
        <time>2021-10-10T11:28:26Z</time>
      </trkpt>
      <trkpt lat="46.64027" lon="5.61114">
        <ele>537.2</ele>
        <time>2021-10-10T11:28:31Z</time>
      </trkpt>
      <trkpt lat="46.64023" lon="5.61115">
        <ele>534.8</ele>
        <time>2021-10-10T11:28:45Z</time>
      </trkpt>
      <trkpt lat="46.64017" lon="5.61115">
        <ele>534.9</ele>
        <time>2021-10-10T11:28:49Z</time>
      </trkpt>
      <trkpt lat="46.64011" lon="5.61115">
        <ele>535.1</ele>
        <time>2021-10-10T11:28:52Z</time>
      </trkpt>
      <trkpt lat="46.64005" lon="5.61115">
        <ele>535.1</ele>
        <time>2021-10-10T11:28:55Z</time>
      </trkpt>
      <trkpt lat="46.63999" lon="5.61112">
        <ele>535.1</ele>
        <time>2021-10-10T11:28:59Z</time>
      </trkpt>
      <trkpt lat="46.63994" lon="5.6111">
        <ele>536.1</ele>
        <time>2021-10-10T11:29:06Z</time>
      </trkpt>
      <trkpt lat="46.6399" lon="5.61111">
        <ele>537.5</ele>
        <time>2021-10-10T11:29:11Z</time>
      </trkpt>
      <trkpt lat="46.63985" lon="5.6111">
        <ele>538</ele>
        <time>2021-10-10T11:29:14Z</time>
      </trkpt>
      <trkpt lat="46.6398" lon="5.61111">
        <ele>538.3</ele>
        <time>2021-10-10T11:29:17Z</time>
      </trkpt>
      <trkpt lat="46.63975" lon="5.61108">
        <ele>538.8</ele>
        <time>2021-10-10T11:29:22Z</time>
      </trkpt>
      <trkpt lat="46.6397" lon="5.61107">
        <ele>538.8</ele>
        <time>2021-10-10T11:29:28Z</time>
      </trkpt>
      <trkpt lat="46.63966" lon="5.61109">
        <ele>538.5</ele>
        <time>2021-10-10T11:29:35Z</time>
      </trkpt>
      <trkpt lat="46.63961" lon="5.61111">
        <ele>535.1</ele>
        <time>2021-10-10T11:29:42Z</time>
      </trkpt>
      <trkpt lat="46.63956" lon="5.61109">
        <ele>532.4</ele>
        <time>2021-10-10T11:29:48Z</time>
      </trkpt>
      <trkpt lat="46.63951" lon="5.61107">
        <ele>531.5</ele>
        <time>2021-10-10T11:29:53Z</time>
      </trkpt>
      <trkpt lat="46.63946" lon="5.61108">
        <ele>532</ele>
        <time>2021-10-10T11:29:57Z</time>
      </trkpt>
      <trkpt lat="46.6394" lon="5.61108">
        <ele>532.8</ele>
        <time>2021-10-10T11:30:00Z</time>
      </trkpt>
      <trkpt lat="46.63936" lon="5.61108">
        <ele>533.7</ele>
        <time>2021-10-10T11:30:03Z</time>
      </trkpt>
      <trkpt lat="46.6393" lon="5.61108">
        <ele>535.1</ele>
        <time>2021-10-10T11:30:07Z</time>
      </trkpt>
      <trkpt lat="46.63924" lon="5.61107">
        <ele>536.6</ele>
        <time>2021-10-10T11:30:12Z</time>
      </trkpt>
      <trkpt lat="46.6392" lon="5.61108">
        <ele>537.8</ele>
        <time>2021-10-10T11:30:19Z</time>
      </trkpt>
      <trkpt lat="46.63915" lon="5.61111">
        <ele>538.5</ele>
        <time>2021-10-10T11:30:24Z</time>
      </trkpt>
      <trkpt lat="46.6391" lon="5.61112">
        <ele>539.8</ele>
        <time>2021-10-10T11:30:29Z</time>
      </trkpt>
      <trkpt lat="46.63905" lon="5.61111">
        <ele>540.9</ele>
        <time>2021-10-10T11:30:33Z</time>
      </trkpt>
      <trkpt lat="46.639" lon="5.6111">
        <ele>542.2</ele>
        <time>2021-10-10T11:30:37Z</time>
      </trkpt>
      <trkpt lat="46.63895" lon="5.61112">
        <ele>543.1</ele>
        <time>2021-10-10T11:30:41Z</time>
      </trkpt>
      <trkpt lat="46.6389" lon="5.61112">
        <ele>544.5</ele>
        <time>2021-10-10T11:30:46Z</time>
      </trkpt>
      <trkpt lat="46.63885" lon="5.61113">
        <ele>545.7</ele>
        <time>2021-10-10T11:30:50Z</time>
      </trkpt>
      <trkpt lat="46.6388" lon="5.61113">
        <ele>546.8</ele>
        <time>2021-10-10T11:30:54Z</time>
      </trkpt>
      <trkpt lat="46.63875" lon="5.61113">
        <ele>547.9</ele>
        <time>2021-10-10T11:30:58Z</time>
      </trkpt>
      <trkpt lat="46.63869" lon="5.61113">
        <ele>548.7</ele>
        <time>2021-10-10T11:31:02Z</time>
      </trkpt>
      <trkpt lat="46.63864" lon="5.61113">
        <ele>549.5</ele>
        <time>2021-10-10T11:31:06Z</time>
      </trkpt>
      <trkpt lat="46.63859" lon="5.61114">
        <ele>548.9</ele>
        <time>2021-10-10T11:31:17Z</time>
      </trkpt>
      <trkpt lat="46.63855" lon="5.61113">
        <ele>548.2</ele>
        <time>2021-10-10T11:31:23Z</time>
      </trkpt>
      <trkpt lat="46.6385" lon="5.61111">
        <ele>547.7</ele>
        <time>2021-10-10T11:31:29Z</time>
      </trkpt>
      <trkpt lat="46.63845" lon="5.61112">
        <ele>547.4</ele>
        <time>2021-10-10T11:31:34Z</time>
      </trkpt>
      <trkpt lat="46.6384" lon="5.61111">
        <ele>547.1</ele>
        <time>2021-10-10T11:31:38Z</time>
      </trkpt>
      <trkpt lat="46.63835" lon="5.6111">
        <ele>547.2</ele>
        <time>2021-10-10T11:31:43Z</time>
      </trkpt>
      <trkpt lat="46.63831" lon="5.6111">
        <ele>547.4</ele>
        <time>2021-10-10T11:31:47Z</time>
      </trkpt>
      <trkpt lat="46.63825" lon="5.61109">
        <ele>547.2</ele>
        <time>2021-10-10T11:31:51Z</time>
      </trkpt>
      <trkpt lat="46.6382" lon="5.6111">
        <ele>546.9</ele>
        <time>2021-10-10T11:31:56Z</time>
      </trkpt>
      <trkpt lat="46.63815" lon="5.61111">
        <ele>546.2</ele>
        <time>2021-10-10T11:32:01Z</time>
      </trkpt>
      <trkpt lat="46.6381" lon="5.61111">
        <ele>545.6</ele>
        <time>2021-10-10T11:32:06Z</time>
      </trkpt>
      <trkpt lat="46.63805" lon="5.6111">
        <ele>545.5</ele>
        <time>2021-10-10T11:32:12Z</time>
      </trkpt>
      <trkpt lat="46.638" lon="5.61109">
        <ele>545.8</ele>
        <time>2021-10-10T11:32:19Z</time>
      </trkpt>
      <trkpt lat="46.63795" lon="5.6111">
        <ele>545.8</ele>
        <time>2021-10-10T11:32:26Z</time>
      </trkpt>
      <trkpt lat="46.6379" lon="5.61109">
        <ele>546.2</ele>
        <time>2021-10-10T11:32:31Z</time>
      </trkpt>
      <trkpt lat="46.63785" lon="5.61108">
        <ele>546.5</ele>
        <time>2021-10-10T11:32:35Z</time>
      </trkpt>
      <trkpt lat="46.6378" lon="5.61106">
        <ele>546.6</ele>
        <time>2021-10-10T11:32:39Z</time>
      </trkpt>
      <trkpt lat="46.63775" lon="5.61104">
        <ele>546.8</ele>
        <time>2021-10-10T11:32:44Z</time>
      </trkpt>
      <trkpt lat="46.63769" lon="5.61104">
        <ele>547.1</ele>
        <time>2021-10-10T11:32:48Z</time>
      </trkpt>
      <trkpt lat="46.63764" lon="5.61105">
        <ele>547.2</ele>
        <time>2021-10-10T11:32:52Z</time>
      </trkpt>
      <trkpt lat="46.63759" lon="5.61105">
        <ele>547</ele>
        <time>2021-10-10T11:32:56Z</time>
      </trkpt>
      <trkpt lat="46.63754" lon="5.61107">
        <ele>546.7</ele>
        <time>2021-10-10T11:33:01Z</time>
      </trkpt>
      <trkpt lat="46.63749" lon="5.61108">
        <ele>546.4</ele>
        <time>2021-10-10T11:33:06Z</time>
      </trkpt>
      <trkpt lat="46.63744" lon="5.61108">
        <ele>545.6</ele>
        <time>2021-10-10T11:33:12Z</time>
      </trkpt>
      <trkpt lat="46.63739" lon="5.61109">
        <ele>545.4</ele>
        <time>2021-10-10T11:33:19Z</time>
      </trkpt>
      <trkpt lat="46.63736" lon="5.61115">
        <ele>540.7</ele>
        <time>2021-10-10T11:33:39Z</time>
      </trkpt>
      <trkpt lat="46.63737" lon="5.61122">
        <ele>539.6</ele>
        <time>2021-10-10T11:33:42Z</time>
      </trkpt>
      <trkpt lat="46.63739" lon="5.61129">
        <ele>538.3</ele>
        <time>2021-10-10T11:33:45Z</time>
      </trkpt>
      <trkpt lat="46.6374" lon="5.61137">
        <ele>536.5</ele>
        <time>2021-10-10T11:33:50Z</time>
      </trkpt>
      <trkpt lat="46.63742" lon="5.61143">
        <ele>535.2</ele>
        <time>2021-10-10T11:33:55Z</time>
      </trkpt>
      <trkpt lat="46.63742" lon="5.6115">
        <ele>534.3</ele>
        <time>2021-10-10T11:34:00Z</time>
      </trkpt>
      <trkpt lat="46.63743" lon="5.61157">
        <ele>533.7</ele>
        <time>2021-10-10T11:34:04Z</time>
      </trkpt>
      <trkpt lat="46.63742" lon="5.61163">
        <ele>533.3</ele>
        <time>2021-10-10T11:34:10Z</time>
      </trkpt>
      <trkpt lat="46.63741" lon="5.6117">
        <ele>532.8</ele>
        <time>2021-10-10T11:34:17Z</time>
      </trkpt>
      <trkpt lat="46.63741" lon="5.61178">
        <ele>532.7</ele>
        <time>2021-10-10T11:34:22Z</time>
      </trkpt>
      <trkpt lat="46.6374" lon="5.61184">
        <ele>533.1</ele>
        <time>2021-10-10T11:34:27Z</time>
      </trkpt>
      <trkpt lat="46.63739" lon="5.61192">
        <ele>533.7</ele>
        <time>2021-10-10T11:34:34Z</time>
      </trkpt>
      <trkpt lat="46.63739" lon="5.61198">
        <ele>533.9</ele>
        <time>2021-10-10T11:34:39Z</time>
      </trkpt>
      <trkpt lat="46.63741" lon="5.61205">
        <ele>534.1</ele>
        <time>2021-10-10T11:34:44Z</time>
      </trkpt>
      <trkpt lat="46.63742" lon="5.61211">
        <ele>534.3</ele>
        <time>2021-10-10T11:34:48Z</time>
      </trkpt>
      <trkpt lat="46.63742" lon="5.61219">
        <ele>534.8</ele>
        <time>2021-10-10T11:34:53Z</time>
      </trkpt>
      <trkpt lat="46.63742" lon="5.61227">
        <ele>535.3</ele>
        <time>2021-10-10T11:34:58Z</time>
      </trkpt>
      <trkpt lat="46.6374" lon="5.61234">
        <ele>535.3</ele>
        <time>2021-10-10T11:35:03Z</time>
      </trkpt>
      <trkpt lat="46.6374" lon="5.61241">
        <ele>534.5</ele>
        <time>2021-10-10T11:35:08Z</time>
      </trkpt>
      <trkpt lat="46.63742" lon="5.61248">
        <ele>533.6</ele>
        <time>2021-10-10T11:35:14Z</time>
      </trkpt>
      <trkpt lat="46.63743" lon="5.61254">
        <ele>532.3</ele>
        <time>2021-10-10T11:35:19Z</time>
      </trkpt>
      <trkpt lat="46.63744" lon="5.61261">
        <ele>531.5</ele>
        <time>2021-10-10T11:35:25Z</time>
      </trkpt>
      <trkpt lat="46.63741" lon="5.61266">
        <ele>530.6</ele>
        <time>2021-10-10T11:35:33Z</time>
      </trkpt>
      <trkpt lat="46.63736" lon="5.61268">
        <ele>529.7</ele>
        <time>2021-10-10T11:35:39Z</time>
      </trkpt>
      <trkpt lat="46.63731" lon="5.61269">
        <ele>529.1</ele>
        <time>2021-10-10T11:35:45Z</time>
      </trkpt>
      <trkpt lat="46.63727" lon="5.61271">
        <ele>527.7</ele>
        <time>2021-10-10T11:36:04Z</time>
      </trkpt>
      <trkpt lat="46.63723" lon="5.61268">
        <ele>528.1</ele>
        <time>2021-10-10T11:36:09Z</time>
      </trkpt>
      <trkpt lat="46.63728" lon="5.6127">
        <ele>528.9</ele>
        <time>2021-10-10T11:36:55Z</time>
      </trkpt>
      <trkpt lat="46.63735" lon="5.61268">
        <ele>528.8</ele>
        <time>2021-10-10T11:37:28Z</time>
      </trkpt>
      <trkpt lat="46.6374" lon="5.61266">
        <ele>528.3</ele>
        <time>2021-10-10T11:37:32Z</time>
      </trkpt>
      <trkpt lat="46.63745" lon="5.61267">
        <ele>528.7</ele>
        <time>2021-10-10T11:37:38Z</time>
      </trkpt>
      <trkpt lat="46.63748" lon="5.61273">
        <ele>530.1</ele>
        <time>2021-10-10T11:37:44Z</time>
      </trkpt>
      <trkpt lat="46.63751" lon="5.61279">
        <ele>531.3</ele>
        <time>2021-10-10T11:37:49Z</time>
      </trkpt>
      <trkpt lat="46.63755" lon="5.61284">
        <ele>532</ele>
        <time>2021-10-10T11:37:53Z</time>
      </trkpt>
      <trkpt lat="46.6376" lon="5.61287">
        <ele>532.3</ele>
        <time>2021-10-10T11:37:57Z</time>
      </trkpt>
      <trkpt lat="46.63764" lon="5.6129">
        <ele>532.2</ele>
        <time>2021-10-10T11:38:01Z</time>
      </trkpt>
      <trkpt lat="46.63769" lon="5.61294">
        <ele>532.4</ele>
        <time>2021-10-10T11:38:07Z</time>
      </trkpt>
      <trkpt lat="46.63773" lon="5.61295">
        <ele>533</ele>
        <time>2021-10-10T11:38:14Z</time>
      </trkpt>
      <trkpt lat="46.63779" lon="5.61296">
        <ele>533</ele>
        <time>2021-10-10T11:38:27Z</time>
      </trkpt>
      <trkpt lat="46.63782" lon="5.61301">
        <ele>533.8</ele>
        <time>2021-10-10T11:38:42Z</time>
      </trkpt>
      <trkpt lat="46.63787" lon="5.61304">
        <ele>534.6</ele>
        <time>2021-10-10T11:38:47Z</time>
      </trkpt>
      <trkpt lat="46.63791" lon="5.61304">
        <ele>535.1</ele>
        <time>2021-10-10T11:38:55Z</time>
      </trkpt>
      <trkpt lat="46.63796" lon="5.61303">
        <ele>534.3</ele>
        <time>2021-10-10T11:39:02Z</time>
      </trkpt>
      <trkpt lat="46.63801" lon="5.61301">
        <ele>532.7</ele>
        <time>2021-10-10T11:39:07Z</time>
      </trkpt>
      <trkpt lat="46.63805" lon="5.61301">
        <ele>531.4</ele>
        <time>2021-10-10T11:39:12Z</time>
      </trkpt>
      <trkpt lat="46.6381" lon="5.61302">
        <ele>530.2</ele>
        <time>2021-10-10T11:39:17Z</time>
      </trkpt>
      <trkpt lat="46.63815" lon="5.61303">
        <ele>529.3</ele>
        <time>2021-10-10T11:39:23Z</time>
      </trkpt>
      <trkpt lat="46.6382" lon="5.61304">
        <ele>529.3</ele>
        <time>2021-10-10T11:39:27Z</time>
      </trkpt>
      <trkpt lat="46.63826" lon="5.61306">
        <ele>529.1</ele>
        <time>2021-10-10T11:39:32Z</time>
      </trkpt>
      <trkpt lat="46.6383" lon="5.61307">
        <ele>529.1</ele>
        <time>2021-10-10T11:39:35Z</time>
      </trkpt>
      <trkpt lat="46.63836" lon="5.61308">
        <ele>529.3</ele>
        <time>2021-10-10T11:39:41Z</time>
      </trkpt>
      <trkpt lat="46.6384" lon="5.61307">
        <ele>529.7</ele>
        <time>2021-10-10T11:39:44Z</time>
      </trkpt>
      <trkpt lat="46.63845" lon="5.61307">
        <ele>530.3</ele>
        <time>2021-10-10T11:39:47Z</time>
      </trkpt>
      <trkpt lat="46.6385" lon="5.61306">
        <ele>531.7</ele>
        <time>2021-10-10T11:39:52Z</time>
      </trkpt>
      <trkpt lat="46.63855" lon="5.61306">
        <ele>533.5</ele>
        <time>2021-10-10T11:39:59Z</time>
      </trkpt>
      <trkpt lat="46.6386" lon="5.61304">
        <ele>535</ele>
        <time>2021-10-10T11:40:06Z</time>
      </trkpt>
      <trkpt lat="46.63865" lon="5.61303">
        <ele>536</ele>
        <time>2021-10-10T11:40:11Z</time>
      </trkpt>
      <trkpt lat="46.6387" lon="5.61301">
        <ele>537.3</ele>
        <time>2021-10-10T11:40:16Z</time>
      </trkpt>
      <trkpt lat="46.63875" lon="5.61302">
        <ele>539.1</ele>
        <time>2021-10-10T11:40:22Z</time>
      </trkpt>
      <trkpt lat="46.63879" lon="5.61306">
        <ele>541.3</ele>
        <time>2021-10-10T11:40:29Z</time>
      </trkpt>
      <trkpt lat="46.63882" lon="5.61312">
        <ele>542.2</ele>
        <time>2021-10-10T11:40:35Z</time>
      </trkpt>
      <trkpt lat="46.63887" lon="5.61314">
        <ele>542.2</ele>
        <time>2021-10-10T11:40:39Z</time>
      </trkpt>
      <trkpt lat="46.63892" lon="5.61315">
        <ele>541.8</ele>
        <time>2021-10-10T11:40:42Z</time>
      </trkpt>
      <trkpt lat="46.63897" lon="5.61315">
        <ele>541.4</ele>
        <time>2021-10-10T11:40:46Z</time>
      </trkpt>
      <trkpt lat="46.63902" lon="5.61316">
        <ele>541.1</ele>
        <time>2021-10-10T11:40:50Z</time>
      </trkpt>
      <trkpt lat="46.63907" lon="5.61315">
        <ele>540.5</ele>
        <time>2021-10-10T11:40:55Z</time>
      </trkpt>
      <trkpt lat="46.63912" lon="5.61317">
        <ele>539.7</ele>
        <time>2021-10-10T11:41:04Z</time>
      </trkpt>
      <trkpt lat="46.63916" lon="5.61319">
        <ele>538.6</ele>
        <time>2021-10-10T11:41:11Z</time>
      </trkpt>
      <trkpt lat="46.63922" lon="5.61319">
        <ele>538</ele>
        <time>2021-10-10T11:41:17Z</time>
      </trkpt>
      <trkpt lat="46.63927" lon="5.61319">
        <ele>537.6</ele>
        <time>2021-10-10T11:41:25Z</time>
      </trkpt>
      <trkpt lat="46.63932" lon="5.6132">
        <ele>537.1</ele>
        <time>2021-10-10T11:41:31Z</time>
      </trkpt>
      <trkpt lat="46.63937" lon="5.61323">
        <ele>536.7</ele>
        <time>2021-10-10T11:41:36Z</time>
      </trkpt>
      <trkpt lat="46.63942" lon="5.61325">
        <ele>536</ele>
        <time>2021-10-10T11:41:40Z</time>
      </trkpt>
      <trkpt lat="46.63948" lon="5.61326">
        <ele>535.5</ele>
        <time>2021-10-10T11:41:44Z</time>
      </trkpt>
      <trkpt lat="46.63953" lon="5.61327">
        <ele>535.4</ele>
        <time>2021-10-10T11:41:48Z</time>
      </trkpt>
      <trkpt lat="46.63957" lon="5.6133">
        <ele>535.6</ele>
        <time>2021-10-10T11:41:51Z</time>
      </trkpt>
      <trkpt lat="46.63962" lon="5.6133">
        <ele>536.1</ele>
        <time>2021-10-10T11:41:55Z</time>
      </trkpt>
      <trkpt lat="46.63968" lon="5.6133">
        <ele>537</ele>
        <time>2021-10-10T11:41:59Z</time>
      </trkpt>
      <trkpt lat="46.63972" lon="5.61332">
        <ele>538.7</ele>
        <time>2021-10-10T11:42:05Z</time>
      </trkpt>
      <trkpt lat="46.63977" lon="5.61335">
        <ele>540.3</ele>
        <time>2021-10-10T11:42:12Z</time>
      </trkpt>
      <trkpt lat="46.63981" lon="5.61337">
        <ele>540.5</ele>
        <time>2021-10-10T11:42:16Z</time>
      </trkpt>
      <trkpt lat="46.63987" lon="5.61338">
        <ele>540.6</ele>
        <time>2021-10-10T11:42:20Z</time>
      </trkpt>
      <trkpt lat="46.63993" lon="5.61339">
        <ele>540.5</ele>
        <time>2021-10-10T11:42:24Z</time>
      </trkpt>
      <trkpt lat="46.63998" lon="5.61342">
        <ele>540.3</ele>
        <time>2021-10-10T11:42:27Z</time>
      </trkpt>
      <trkpt lat="46.64004" lon="5.61344">
        <ele>539.9</ele>
        <time>2021-10-10T11:42:31Z</time>
      </trkpt>
      <trkpt lat="46.64009" lon="5.61345">
        <ele>539.6</ele>
        <time>2021-10-10T11:42:36Z</time>
      </trkpt>
      <trkpt lat="46.64014" lon="5.61346">
        <ele>538.8</ele>
        <time>2021-10-10T11:42:42Z</time>
      </trkpt>
      <trkpt lat="46.64019" lon="5.61346">
        <ele>537.6</ele>
        <time>2021-10-10T11:42:47Z</time>
      </trkpt>
      <trkpt lat="46.64024" lon="5.61347">
        <ele>536.2</ele>
        <time>2021-10-10T11:42:52Z</time>
      </trkpt>
      <trkpt lat="46.64022" lon="5.6134">
        <ele>534</ele>
        <time>2021-10-10T11:43:02Z</time>
      </trkpt>
      <trkpt lat="46.64025" lon="5.61346">
        <ele>533.5</ele>
        <time>2021-10-10T11:43:16Z</time>
      </trkpt>
      <trkpt lat="46.64029" lon="5.61351">
        <ele>534</ele>
        <time>2021-10-10T11:43:20Z</time>
      </trkpt>
      <trkpt lat="46.64033" lon="5.61356">
        <ele>534.5</ele>
        <time>2021-10-10T11:43:24Z</time>
      </trkpt>
      <trkpt lat="46.64038" lon="5.61357">
        <ele>534.6</ele>
        <time>2021-10-10T11:43:28Z</time>
      </trkpt>
      <trkpt lat="46.64042" lon="5.61357">
        <ele>534.4</ele>
        <time>2021-10-10T11:43:32Z</time>
      </trkpt>
      <trkpt lat="46.64047" lon="5.61358">
        <ele>533.8</ele>
        <time>2021-10-10T11:43:40Z</time>
      </trkpt>
      <trkpt lat="46.6405" lon="5.61364">
        <ele>532.9</ele>
        <time>2021-10-10T11:44:06Z</time>
      </trkpt>
      <trkpt lat="46.64054" lon="5.61367">
        <ele>532.1</ele>
        <time>2021-10-10T11:44:13Z</time>
      </trkpt>
      <trkpt lat="46.64058" lon="5.61372">
        <ele>531</ele>
        <time>2021-10-10T11:44:20Z</time>
      </trkpt>
      <trkpt lat="46.64064" lon="5.61375">
        <ele>530.6</ele>
        <time>2021-10-10T11:44:25Z</time>
      </trkpt>
      <trkpt lat="46.64068" lon="5.61379">
        <ele>530.7</ele>
        <time>2021-10-10T11:44:29Z</time>
      </trkpt>
      <trkpt lat="46.64072" lon="5.61384">
        <ele>531.5</ele>
        <time>2021-10-10T11:44:34Z</time>
      </trkpt>
      <trkpt lat="46.64076" lon="5.61388">
        <ele>531.7</ele>
        <time>2021-10-10T11:44:38Z</time>
      </trkpt>
      <trkpt lat="46.64079" lon="5.61394">
        <ele>531.9</ele>
        <time>2021-10-10T11:44:43Z</time>
      </trkpt>
      <trkpt lat="46.64082" lon="5.61399">
        <ele>532.1</ele>
        <time>2021-10-10T11:44:48Z</time>
      </trkpt>
      <trkpt lat="46.64086" lon="5.61403">
        <ele>532.2</ele>
        <time>2021-10-10T11:44:52Z</time>
      </trkpt>
      <trkpt lat="46.64091" lon="5.61406">
        <ele>532.3</ele>
        <time>2021-10-10T11:44:56Z</time>
      </trkpt>
      <trkpt lat="46.64096" lon="5.61409">
        <ele>532.5</ele>
        <time>2021-10-10T11:45:01Z</time>
      </trkpt>
      <trkpt lat="46.641" lon="5.61413">
        <ele>532.5</ele>
        <time>2021-10-10T11:45:06Z</time>
      </trkpt>
      <trkpt lat="46.64105" lon="5.61416">
        <ele>532.5</ele>
        <time>2021-10-10T11:45:12Z</time>
      </trkpt>
      <trkpt lat="46.64109" lon="5.61419">
        <ele>532.5</ele>
        <time>2021-10-10T11:45:18Z</time>
      </trkpt>
      <trkpt lat="46.64114" lon="5.61421">
        <ele>532.5</ele>
        <time>2021-10-10T11:45:22Z</time>
      </trkpt>
      <trkpt lat="46.64119" lon="5.61422">
        <ele>532.4</ele>
        <time>2021-10-10T11:45:26Z</time>
      </trkpt>
      <trkpt lat="46.64123" lon="5.61424">
        <ele>532</ele>
        <time>2021-10-10T11:45:31Z</time>
      </trkpt>
      <trkpt lat="46.64129" lon="5.61426">
        <ele>531.9</ele>
        <time>2021-10-10T11:45:37Z</time>
      </trkpt>
      <trkpt lat="46.64134" lon="5.61427">
        <ele>530.7</ele>
        <time>2021-10-10T11:45:43Z</time>
      </trkpt>
      <trkpt lat="46.64139" lon="5.61427">
        <ele>529.6</ele>
        <time>2021-10-10T11:45:47Z</time>
      </trkpt>
      <trkpt lat="46.64144" lon="5.61427">
        <ele>528.7</ele>
        <time>2021-10-10T11:45:51Z</time>
      </trkpt>
      <trkpt lat="46.64149" lon="5.61428">
        <ele>528.3</ele>
        <time>2021-10-10T11:45:55Z</time>
      </trkpt>
      <trkpt lat="46.64154" lon="5.61429">
        <ele>527.4</ele>
        <time>2021-10-10T11:46:00Z</time>
      </trkpt>
      <trkpt lat="46.64159" lon="5.6143">
        <ele>526.6</ele>
        <time>2021-10-10T11:46:05Z</time>
      </trkpt>
      <trkpt lat="46.64164" lon="5.6143">
        <ele>525.9</ele>
        <time>2021-10-10T11:46:09Z</time>
      </trkpt>
      <trkpt lat="46.64169" lon="5.61429">
        <ele>525.5</ele>
        <time>2021-10-10T11:46:12Z</time>
      </trkpt>
      <trkpt lat="46.64174" lon="5.61428">
        <ele>525.3</ele>
        <time>2021-10-10T11:46:15Z</time>
      </trkpt>
      <trkpt lat="46.64179" lon="5.61426">
        <ele>525.2</ele>
        <time>2021-10-10T11:46:18Z</time>
      </trkpt>
      <trkpt lat="46.64184" lon="5.61425">
        <ele>525.2</ele>
        <time>2021-10-10T11:46:21Z</time>
      </trkpt>
      <trkpt lat="46.64189" lon="5.61423">
        <ele>525.2</ele>
        <time>2021-10-10T11:46:25Z</time>
      </trkpt>
      <trkpt lat="46.64194" lon="5.61423">
        <ele>525.3</ele>
        <time>2021-10-10T11:46:30Z</time>
      </trkpt>
      <trkpt lat="46.64198" lon="5.61425">
        <ele>525.4</ele>
        <time>2021-10-10T11:46:36Z</time>
      </trkpt>
      <trkpt lat="46.64202" lon="5.61429">
        <ele>525.2</ele>
        <time>2021-10-10T11:46:41Z</time>
      </trkpt>
      <trkpt lat="46.64207" lon="5.61431">
        <ele>524.9</ele>
        <time>2021-10-10T11:46:45Z</time>
      </trkpt>
      <trkpt lat="46.6421" lon="5.61437">
        <ele>524.3</ele>
        <time>2021-10-10T11:46:50Z</time>
      </trkpt>
      <trkpt lat="46.64213" lon="5.61443">
        <ele>523.9</ele>
        <time>2021-10-10T11:46:56Z</time>
      </trkpt>
      <trkpt lat="46.64217" lon="5.61448">
        <ele>523.8</ele>
        <time>2021-10-10T11:47:03Z</time>
      </trkpt>
      <trkpt lat="46.64222" lon="5.61451">
        <ele>523.3</ele>
        <time>2021-10-10T11:47:07Z</time>
      </trkpt>
      <trkpt lat="46.64226" lon="5.61453">
        <ele>523</ele>
        <time>2021-10-10T11:47:11Z</time>
      </trkpt>
      <trkpt lat="46.6423" lon="5.61458">
        <ele>523.3</ele>
        <time>2021-10-10T11:47:16Z</time>
      </trkpt>
      <trkpt lat="46.64235" lon="5.61462">
        <ele>523.5</ele>
        <time>2021-10-10T11:47:22Z</time>
      </trkpt>
      <trkpt lat="46.6424" lon="5.61467">
        <ele>523.7</ele>
        <time>2021-10-10T11:47:26Z</time>
      </trkpt>
      <trkpt lat="46.64244" lon="5.61471">
        <ele>523.7</ele>
        <time>2021-10-10T11:47:31Z</time>
      </trkpt>
      <trkpt lat="46.64248" lon="5.61474">
        <ele>523.8</ele>
        <time>2021-10-10T11:47:36Z</time>
      </trkpt>
      <trkpt lat="46.64251" lon="5.6148">
        <ele>521.9</ele>
        <time>2021-10-10T11:47:44Z</time>
      </trkpt>
      <trkpt lat="46.64256" lon="5.61485">
        <ele>520.3</ele>
        <time>2021-10-10T11:47:49Z</time>
      </trkpt>
      <trkpt lat="46.6426" lon="5.61489">
        <ele>518.9</ele>
        <time>2021-10-10T11:47:54Z</time>
      </trkpt>
      <trkpt lat="46.64264" lon="5.61493">
        <ele>519</ele>
        <time>2021-10-10T11:48:00Z</time>
      </trkpt>
      <trkpt lat="46.64268" lon="5.61498">
        <ele>519.2</ele>
        <time>2021-10-10T11:48:04Z</time>
      </trkpt>
      <trkpt lat="46.64273" lon="5.61501">
        <ele>519.6</ele>
        <time>2021-10-10T11:48:07Z</time>
      </trkpt>
      <trkpt lat="46.64277" lon="5.61505">
        <ele>520</ele>
        <time>2021-10-10T11:48:10Z</time>
      </trkpt>
      <trkpt lat="46.64281" lon="5.61508">
        <ele>520.8</ele>
        <time>2021-10-10T11:48:14Z</time>
      </trkpt>
      <trkpt lat="46.64285" lon="5.61512">
        <ele>521.8</ele>
        <time>2021-10-10T11:48:19Z</time>
      </trkpt>
      <trkpt lat="46.64288" lon="5.61517">
        <ele>522.4</ele>
        <time>2021-10-10T11:48:24Z</time>
      </trkpt>
      <trkpt lat="46.64292" lon="5.61522">
        <ele>522.6</ele>
        <time>2021-10-10T11:48:29Z</time>
      </trkpt>
      <trkpt lat="46.64293" lon="5.6153">
        <ele>522.2</ele>
        <time>2021-10-10T11:48:34Z</time>
      </trkpt>
      <trkpt lat="46.64295" lon="5.61538">
        <ele>522.4</ele>
        <time>2021-10-10T11:48:38Z</time>
      </trkpt>
      <trkpt lat="46.64297" lon="5.61544">
        <ele>522.8</ele>
        <time>2021-10-10T11:48:41Z</time>
      </trkpt>
      <trkpt lat="46.64299" lon="5.61551">
        <ele>523.4</ele>
        <time>2021-10-10T11:48:45Z</time>
      </trkpt>
      <trkpt lat="46.64302" lon="5.61557">
        <ele>524</ele>
        <time>2021-10-10T11:48:49Z</time>
      </trkpt>
      <trkpt lat="46.64302" lon="5.61564">
        <ele>524.1</ele>
        <time>2021-10-10T11:48:54Z</time>
      </trkpt>
      <trkpt lat="46.64301" lon="5.61571">
        <ele>523.7</ele>
        <time>2021-10-10T11:49:00Z</time>
      </trkpt>
      <trkpt lat="46.64298" lon="5.61576">
        <ele>523.9</ele>
        <time>2021-10-10T11:49:03Z</time>
      </trkpt>
      <trkpt lat="46.64294" lon="5.61582">
        <ele>524.4</ele>
        <time>2021-10-10T11:49:06Z</time>
      </trkpt>
      <trkpt lat="46.64291" lon="5.61587">
        <ele>524.6</ele>
        <time>2021-10-10T11:49:09Z</time>
      </trkpt>
      <trkpt lat="46.64289" lon="5.61594">
        <ele>524.9</ele>
        <time>2021-10-10T11:49:14Z</time>
      </trkpt>
      <trkpt lat="46.64286" lon="5.61599">
        <ele>525.1</ele>
        <time>2021-10-10T11:49:18Z</time>
      </trkpt>
      <trkpt lat="46.64283" lon="5.61605">
        <ele>525.2</ele>
        <time>2021-10-10T11:49:23Z</time>
      </trkpt>
      <trkpt lat="46.6428" lon="5.61611">
        <ele>525.6</ele>
        <time>2021-10-10T11:49:28Z</time>
      </trkpt>
      <trkpt lat="46.64277" lon="5.61617">
        <ele>526.2</ele>
        <time>2021-10-10T11:49:33Z</time>
      </trkpt>
      <trkpt lat="46.64274" lon="5.61623">
        <ele>526.3</ele>
        <time>2021-10-10T11:49:37Z</time>
      </trkpt>
      <trkpt lat="46.64272" lon="5.6163">
        <ele>526.9</ele>
        <time>2021-10-10T11:49:41Z</time>
      </trkpt>
      <trkpt lat="46.64269" lon="5.61636">
        <ele>527.3</ele>
        <time>2021-10-10T11:49:46Z</time>
      </trkpt>
      <trkpt lat="46.64267" lon="5.61643">
        <ele>527.7</ele>
        <time>2021-10-10T11:49:51Z</time>
      </trkpt>
      <trkpt lat="46.64264" lon="5.61649">
        <ele>528</ele>
        <time>2021-10-10T11:49:55Z</time>
      </trkpt>
      <trkpt lat="46.6426" lon="5.61655">
        <ele>528.2</ele>
        <time>2021-10-10T11:49:59Z</time>
      </trkpt>
      <trkpt lat="46.64257" lon="5.6166">
        <ele>528.1</ele>
        <time>2021-10-10T11:50:03Z</time>
      </trkpt>
      <trkpt lat="46.64255" lon="5.61666">
        <ele>528.1</ele>
        <time>2021-10-10T11:50:07Z</time>
      </trkpt>
      <trkpt lat="46.64253" lon="5.61673">
        <ele>528.1</ele>
        <time>2021-10-10T11:50:12Z</time>
      </trkpt>
      <trkpt lat="46.64251" lon="5.61681">
        <ele>527.4</ele>
        <time>2021-10-10T11:50:18Z</time>
      </trkpt>
      <trkpt lat="46.64249" lon="5.61687">
        <ele>526.6</ele>
        <time>2021-10-10T11:50:23Z</time>
      </trkpt>
      <trkpt lat="46.64246" lon="5.61693">
        <ele>525.5</ele>
        <time>2021-10-10T11:50:29Z</time>
      </trkpt>
      <trkpt lat="46.64243" lon="5.617">
        <ele>524.8</ele>
        <time>2021-10-10T11:50:34Z</time>
      </trkpt>
      <trkpt lat="46.64241" lon="5.61707">
        <ele>523.9</ele>
        <time>2021-10-10T11:50:39Z</time>
      </trkpt>
      <trkpt lat="46.6424" lon="5.61713">
        <ele>523.2</ele>
        <time>2021-10-10T11:50:43Z</time>
      </trkpt>
      <trkpt lat="46.64237" lon="5.61719">
        <ele>522.6</ele>
        <time>2021-10-10T11:50:46Z</time>
      </trkpt>
      <trkpt lat="46.64234" lon="5.61724">
        <ele>522</ele>
        <time>2021-10-10T11:50:49Z</time>
      </trkpt>
      <trkpt lat="46.6423" lon="5.61729">
        <ele>521.8</ele>
        <time>2021-10-10T11:50:53Z</time>
      </trkpt>
      <trkpt lat="46.64227" lon="5.61734">
        <ele>521.8</ele>
        <time>2021-10-10T11:50:56Z</time>
      </trkpt>
      <trkpt lat="46.64224" lon="5.6174">
        <ele>522.1</ele>
        <time>2021-10-10T11:51:00Z</time>
      </trkpt>
      <trkpt lat="46.64222" lon="5.61747">
        <ele>521.9</ele>
        <time>2021-10-10T11:51:05Z</time>
      </trkpt>
      <trkpt lat="46.6422" lon="5.61753">
        <ele>522</ele>
        <time>2021-10-10T11:51:09Z</time>
      </trkpt>
      <trkpt lat="46.64217" lon="5.61759">
        <ele>522.1</ele>
        <time>2021-10-10T11:51:14Z</time>
      </trkpt>
      <trkpt lat="46.64214" lon="5.61765">
        <ele>522.1</ele>
        <time>2021-10-10T11:51:18Z</time>
      </trkpt>
      <trkpt lat="46.64211" lon="5.61771">
        <ele>522.2</ele>
        <time>2021-10-10T11:51:23Z</time>
      </trkpt>
      <trkpt lat="46.6421" lon="5.61777">
        <ele>522.3</ele>
        <time>2021-10-10T11:51:27Z</time>
      </trkpt>
      <trkpt lat="46.64207" lon="5.61784">
        <ele>522.7</ele>
        <time>2021-10-10T11:51:32Z</time>
      </trkpt>
      <trkpt lat="46.64205" lon="5.61791">
        <ele>522.6</ele>
        <time>2021-10-10T11:51:37Z</time>
      </trkpt>
      <trkpt lat="46.64203" lon="5.61798">
        <ele>522.8</ele>
        <time>2021-10-10T11:51:42Z</time>
      </trkpt>
      <trkpt lat="46.64201" lon="5.61804">
        <ele>522.7</ele>
        <time>2021-10-10T11:51:46Z</time>
      </trkpt>
      <trkpt lat="46.64199" lon="5.6181">
        <ele>523</ele>
        <time>2021-10-10T11:51:51Z</time>
      </trkpt>
      <trkpt lat="46.64196" lon="5.61816">
        <ele>523</ele>
        <time>2021-10-10T11:51:56Z</time>
      </trkpt>
      <trkpt lat="46.64194" lon="5.61822">
        <ele>523.5</ele>
        <time>2021-10-10T11:52:01Z</time>
      </trkpt>
      <trkpt lat="46.6419" lon="5.61827">
        <ele>524.2</ele>
        <time>2021-10-10T11:52:05Z</time>
      </trkpt>
      <trkpt lat="46.64187" lon="5.61832">
        <ele>524.6</ele>
        <time>2021-10-10T11:52:08Z</time>
      </trkpt>
      <trkpt lat="46.64183" lon="5.61836">
        <ele>524.9</ele>
        <time>2021-10-10T11:52:11Z</time>
      </trkpt>
      <trkpt lat="46.64179" lon="5.61842">
        <ele>525.4</ele>
        <time>2021-10-10T11:52:15Z</time>
      </trkpt>
      <trkpt lat="46.64175" lon="5.61846">
        <ele>525.7</ele>
        <time>2021-10-10T11:52:20Z</time>
      </trkpt>
      <trkpt lat="46.64169" lon="5.61847">
        <ele>525.5</ele>
        <time>2021-10-10T11:52:26Z</time>
      </trkpt>
      <trkpt lat="46.64165" lon="5.61846">
        <ele>525.5</ele>
        <time>2021-10-10T11:52:30Z</time>
      </trkpt>
      <trkpt lat="46.6416" lon="5.61847">
        <ele>522.9</ele>
        <time>2021-10-10T11:53:31Z</time>
      </trkpt>
      <trkpt lat="46.64156" lon="5.61844">
        <ele>523</ele>
        <time>2021-10-10T11:53:53Z</time>
      </trkpt>
      <trkpt lat="46.64154" lon="5.61838">
        <ele>523.6</ele>
        <time>2021-10-10T11:53:59Z</time>
      </trkpt>
      <trkpt lat="46.6415" lon="5.61831">
        <ele>523.9</ele>
        <time>2021-10-10T11:54:04Z</time>
      </trkpt>
      <trkpt lat="46.64149" lon="5.61825">
        <ele>524.5</ele>
        <time>2021-10-10T11:54:09Z</time>
      </trkpt>
      <trkpt lat="46.64147" lon="5.61818">
        <ele>525.2</ele>
        <time>2021-10-10T11:54:14Z</time>
      </trkpt>
      <trkpt lat="46.64146" lon="5.61811">
        <ele>525.4</ele>
        <time>2021-10-10T11:54:21Z</time>
      </trkpt>
      <trkpt lat="46.64145" lon="5.61804">
        <ele>525.6</ele>
        <time>2021-10-10T11:54:26Z</time>
      </trkpt>
      <trkpt lat="46.64143" lon="5.61798">
        <ele>525.5</ele>
        <time>2021-10-10T11:54:31Z</time>
      </trkpt>
      <trkpt lat="46.64141" lon="5.61791">
        <ele>525</ele>
        <time>2021-10-10T11:54:37Z</time>
      </trkpt>
      <trkpt lat="46.64139" lon="5.61786">
        <ele>524.1</ele>
        <time>2021-10-10T11:54:42Z</time>
      </trkpt>
      <trkpt lat="46.64136" lon="5.6178">
        <ele>523.4</ele>
        <time>2021-10-10T11:54:47Z</time>
      </trkpt>
      <trkpt lat="46.64133" lon="5.61774">
        <ele>522.7</ele>
        <time>2021-10-10T11:54:52Z</time>
      </trkpt>
      <trkpt lat="46.6413" lon="5.61768">
        <ele>522</ele>
        <time>2021-10-10T11:54:57Z</time>
      </trkpt>
      <trkpt lat="46.64127" lon="5.61762">
        <ele>521</ele>
        <time>2021-10-10T11:55:02Z</time>
      </trkpt>
      <trkpt lat="46.64125" lon="5.61756">
        <ele>520.6</ele>
        <time>2021-10-10T11:55:07Z</time>
      </trkpt>
      <trkpt lat="46.64122" lon="5.6175">
        <ele>520.4</ele>
        <time>2021-10-10T11:55:12Z</time>
      </trkpt>
      <trkpt lat="46.64118" lon="5.61745">
        <ele>520.7</ele>
        <time>2021-10-10T11:55:17Z</time>
      </trkpt>
      <trkpt lat="46.64114" lon="5.6174">
        <ele>521.4</ele>
        <time>2021-10-10T11:55:22Z</time>
      </trkpt>
      <trkpt lat="46.64111" lon="5.61734">
        <ele>521.9</ele>
        <time>2021-10-10T11:55:28Z</time>
      </trkpt>
      <trkpt lat="46.64108" lon="5.61728">
        <ele>522</ele>
        <time>2021-10-10T11:55:33Z</time>
      </trkpt>
      <trkpt lat="46.64106" lon="5.61722">
        <ele>521.6</ele>
        <time>2021-10-10T11:55:37Z</time>
      </trkpt>
      <trkpt lat="46.64104" lon="5.61715">
        <ele>521.2</ele>
        <time>2021-10-10T11:55:42Z</time>
      </trkpt>
      <trkpt lat="46.64101" lon="5.61709">
        <ele>520.8</ele>
        <time>2021-10-10T11:55:48Z</time>
      </trkpt>
      <trkpt lat="46.64097" lon="5.61705">
        <ele>520.5</ele>
        <time>2021-10-10T11:55:54Z</time>
      </trkpt>
      <trkpt lat="46.64095" lon="5.61699">
        <ele>520.5</ele>
        <time>2021-10-10T11:55:59Z</time>
      </trkpt>
      <trkpt lat="46.64092" lon="5.61692">
        <ele>520.9</ele>
        <time>2021-10-10T11:56:05Z</time>
      </trkpt>
      <trkpt lat="46.64089" lon="5.61686">
        <ele>521.3</ele>
        <time>2021-10-10T11:56:11Z</time>
      </trkpt>
      <trkpt lat="46.64087" lon="5.6168">
        <ele>520.7</ele>
        <time>2021-10-10T11:56:16Z</time>
      </trkpt>
      <trkpt lat="46.64084" lon="5.61674">
        <ele>519.1</ele>
        <time>2021-10-10T11:56:22Z</time>
      </trkpt>
      <trkpt lat="46.64081" lon="5.61669">
        <ele>517.8</ele>
        <time>2021-10-10T11:56:27Z</time>
      </trkpt>
      <trkpt lat="46.64077" lon="5.61665">
        <ele>517</ele>
        <time>2021-10-10T11:56:32Z</time>
      </trkpt>
      <trkpt lat="46.64075" lon="5.6166">
        <ele>515.8</ele>
        <time>2021-10-10T11:56:38Z</time>
      </trkpt>
      <trkpt lat="46.6407" lon="5.6165">
        <ele>514.7</ele>
        <time>2021-10-10T11:57:02Z</time>
      </trkpt>
      <trkpt lat="46.64066" lon="5.61645">
        <ele>514.6</ele>
        <time>2021-10-10T11:57:06Z</time>
      </trkpt>
      <trkpt lat="46.64065" lon="5.61638">
        <ele>514.3</ele>
        <time>2021-10-10T11:57:14Z</time>
      </trkpt>
      <trkpt lat="46.64062" lon="5.61634">
        <ele>514.1</ele>
        <time>2021-10-10T11:57:26Z</time>
      </trkpt>
      <trkpt lat="46.64057" lon="5.61631">
        <ele>514</ele>
        <time>2021-10-10T11:57:52Z</time>
      </trkpt>
      <trkpt lat="46.64055" lon="5.61625">
        <ele>513.3</ele>
        <time>2021-10-10T11:57:57Z</time>
      </trkpt>
      <trkpt lat="46.6405" lon="5.61621">
        <ele>512.6</ele>
        <time>2021-10-10T11:58:01Z</time>
      </trkpt>
      <trkpt lat="46.64046" lon="5.61617">
        <ele>511.3</ele>
        <time>2021-10-10T11:58:06Z</time>
      </trkpt>
      <trkpt lat="46.64042" lon="5.61612">
        <ele>509.5</ele>
        <time>2021-10-10T11:58:12Z</time>
      </trkpt>
      <trkpt lat="46.6404" lon="5.61606">
        <ele>508.1</ele>
        <time>2021-10-10T11:58:16Z</time>
      </trkpt>
      <trkpt lat="46.64034" lon="5.61602">
        <ele>506.8</ele>
        <time>2021-10-10T11:58:20Z</time>
      </trkpt>
      <trkpt lat="46.6403" lon="5.616">
        <ele>505.9</ele>
        <time>2021-10-10T11:58:24Z</time>
      </trkpt>
      <trkpt lat="46.64026" lon="5.61595">
        <ele>505.1</ele>
        <time>2021-10-10T11:58:29Z</time>
      </trkpt>
      <trkpt lat="46.64023" lon="5.61589">
        <ele>503.8</ele>
        <time>2021-10-10T11:58:34Z</time>
      </trkpt>
      <trkpt lat="46.64018" lon="5.61585">
        <ele>502.1</ele>
        <time>2021-10-10T11:58:39Z</time>
      </trkpt>
      <trkpt lat="46.64016" lon="5.61579">
        <ele>500</ele>
        <time>2021-10-10T11:58:44Z</time>
      </trkpt>
      <trkpt lat="46.64014" lon="5.61573">
        <ele>497.7</ele>
        <time>2021-10-10T11:58:48Z</time>
      </trkpt>
      <trkpt lat="46.6401" lon="5.61572">
        <ele>496.3</ele>
        <time>2021-10-10T11:58:51Z</time>
      </trkpt>
      <trkpt lat="46.64004" lon="5.61569">
        <ele>494.9</ele>
        <time>2021-10-10T11:58:55Z</time>
      </trkpt>
      <trkpt lat="46.64" lon="5.61566">
        <ele>493.6</ele>
        <time>2021-10-10T11:59:01Z</time>
      </trkpt>
      <trkpt lat="46.63995" lon="5.61562">
        <ele>492.8</ele>
        <time>2021-10-10T11:59:07Z</time>
      </trkpt>
      <trkpt lat="46.6399" lon="5.6156">
        <ele>492.5</ele>
        <time>2021-10-10T11:59:11Z</time>
      </trkpt>
      <trkpt lat="46.63985" lon="5.61557">
        <ele>492.4</ele>
        <time>2021-10-10T11:59:15Z</time>
      </trkpt>
      <trkpt lat="46.6398" lon="5.61554">
        <ele>492.3</ele>
        <time>2021-10-10T11:59:19Z</time>
      </trkpt>
      <trkpt lat="46.63976" lon="5.6155">
        <ele>492.7</ele>
        <time>2021-10-10T11:59:24Z</time>
      </trkpt>
      <trkpt lat="46.63971" lon="5.61548">
        <ele>493.8</ele>
        <time>2021-10-10T11:59:30Z</time>
      </trkpt>
      <trkpt lat="46.63966" lon="5.61548">
        <ele>495.2</ele>
        <time>2021-10-10T11:59:35Z</time>
      </trkpt>
      <trkpt lat="46.63961" lon="5.61548">
        <ele>497.6</ele>
        <time>2021-10-10T11:59:43Z</time>
      </trkpt>
      <trkpt lat="46.63957" lon="5.61546">
        <ele>498.2</ele>
        <time>2021-10-10T11:59:49Z</time>
      </trkpt>
      <trkpt lat="46.63953" lon="5.61542">
        <ele>498.5</ele>
        <time>2021-10-10T11:59:54Z</time>
      </trkpt>
      <trkpt lat="46.6395" lon="5.61536">
        <ele>498.5</ele>
        <time>2021-10-10T11:59:59Z</time>
      </trkpt>
      <trkpt lat="46.63946" lon="5.6153">
        <ele>497.8</ele>
        <time>2021-10-10T12:00:04Z</time>
      </trkpt>
      <trkpt lat="46.63942" lon="5.61528">
        <ele>497.7</ele>
        <time>2021-10-10T12:00:08Z</time>
      </trkpt>
      <trkpt lat="46.63937" lon="5.61526">
        <ele>497.6</ele>
        <time>2021-10-10T12:00:12Z</time>
      </trkpt>
      <trkpt lat="46.63933" lon="5.61525">
        <ele>497.8</ele>
        <time>2021-10-10T12:00:19Z</time>
      </trkpt>
      <trkpt lat="46.63929" lon="5.61518">
        <ele>498.8</ele>
        <time>2021-10-10T12:00:32Z</time>
      </trkpt>
      <trkpt lat="46.63925" lon="5.61514">
        <ele>498.3</ele>
        <time>2021-10-10T12:00:37Z</time>
      </trkpt>
      <trkpt lat="46.63921" lon="5.6151">
        <ele>497.9</ele>
        <time>2021-10-10T12:00:42Z</time>
      </trkpt>
      <trkpt lat="46.63916" lon="5.61506">
        <ele>497.9</ele>
        <time>2021-10-10T12:00:47Z</time>
      </trkpt>
      <trkpt lat="46.63912" lon="5.61503">
        <ele>498.4</ele>
        <time>2021-10-10T12:00:52Z</time>
      </trkpt>
      <trkpt lat="46.63907" lon="5.61499">
        <ele>498.8</ele>
        <time>2021-10-10T12:00:57Z</time>
      </trkpt>
      <trkpt lat="46.63904" lon="5.61495">
        <ele>498.7</ele>
        <time>2021-10-10T12:01:01Z</time>
      </trkpt>
      <trkpt lat="46.639" lon="5.6149">
        <ele>498.2</ele>
        <time>2021-10-10T12:01:06Z</time>
      </trkpt>
      <trkpt lat="46.63895" lon="5.61486">
        <ele>497.5</ele>
        <time>2021-10-10T12:01:11Z</time>
      </trkpt>
      <trkpt lat="46.63891" lon="5.61484">
        <ele>496.9</ele>
        <time>2021-10-10T12:01:15Z</time>
      </trkpt>
      <trkpt lat="46.63886" lon="5.61481">
        <ele>496.4</ele>
        <time>2021-10-10T12:01:20Z</time>
      </trkpt>
      <trkpt lat="46.63882" lon="5.61478">
        <ele>496.6</ele>
        <time>2021-10-10T12:01:25Z</time>
      </trkpt>
      <trkpt lat="46.63877" lon="5.61474">
        <ele>497.1</ele>
        <time>2021-10-10T12:01:31Z</time>
      </trkpt>
      <trkpt lat="46.63871" lon="5.61473">
        <ele>497.3</ele>
        <time>2021-10-10T12:01:34Z</time>
      </trkpt>
      <trkpt lat="46.63858" lon="5.61422">
        <ele>498</ele>
        <time>2021-10-10T12:02:04Z</time>
      </trkpt>
      <trkpt lat="46.63851" lon="5.61421">
        <ele>492.3</ele>
        <time>2021-10-10T12:02:07Z</time>
      </trkpt>
      <trkpt lat="46.63844" lon="5.61421">
        <ele>490.2</ele>
        <time>2021-10-10T12:02:10Z</time>
      </trkpt>
      <trkpt lat="46.63839" lon="5.6142">
        <ele>490.4</ele>
        <time>2021-10-10T12:02:15Z</time>
      </trkpt>
      <trkpt lat="46.63834" lon="5.61418">
        <ele>492</ele>
        <time>2021-10-10T12:02:20Z</time>
      </trkpt>
      <trkpt lat="46.63831" lon="5.61413">
        <ele>494.4</ele>
        <time>2021-10-10T12:02:25Z</time>
      </trkpt>
      <trkpt lat="46.63827" lon="5.61409">
        <ele>496.9</ele>
        <time>2021-10-10T12:02:30Z</time>
      </trkpt>
      <trkpt lat="46.63823" lon="5.61406">
        <ele>498.1</ele>
        <time>2021-10-10T12:02:35Z</time>
      </trkpt>
      <trkpt lat="46.6382" lon="5.614">
        <ele>498.9</ele>
        <time>2021-10-10T12:02:40Z</time>
      </trkpt>
      <trkpt lat="46.63815" lon="5.61395">
        <ele>498.8</ele>
        <time>2021-10-10T12:02:45Z</time>
      </trkpt>
      <trkpt lat="46.63812" lon="5.61389">
        <ele>498.5</ele>
        <time>2021-10-10T12:02:50Z</time>
      </trkpt>
      <trkpt lat="46.63808" lon="5.61383">
        <ele>498.1</ele>
        <time>2021-10-10T12:02:55Z</time>
      </trkpt>
      <trkpt lat="46.63804" lon="5.61379">
        <ele>497.7</ele>
        <time>2021-10-10T12:02:59Z</time>
      </trkpt>
      <trkpt lat="46.63799" lon="5.61375">
        <ele>498.2</ele>
        <time>2021-10-10T12:03:04Z</time>
      </trkpt>
      <trkpt lat="46.63796" lon="5.6137">
        <ele>499</ele>
        <time>2021-10-10T12:03:09Z</time>
      </trkpt>
      <trkpt lat="46.63793" lon="5.61363">
        <ele>499.4</ele>
        <time>2021-10-10T12:03:13Z</time>
      </trkpt>
      <trkpt lat="46.6379" lon="5.61358">
        <ele>499.9</ele>
        <time>2021-10-10T12:03:18Z</time>
      </trkpt>
      <trkpt lat="46.63786" lon="5.61354">
        <ele>500.2</ele>
        <time>2021-10-10T12:03:22Z</time>
      </trkpt>
      <trkpt lat="46.63782" lon="5.61349">
        <ele>500.6</ele>
        <time>2021-10-10T12:03:27Z</time>
      </trkpt>
      <trkpt lat="46.63778" lon="5.61344">
        <ele>500.8</ele>
        <time>2021-10-10T12:03:32Z</time>
      </trkpt>
      <trkpt lat="46.63774" lon="5.6134">
        <ele>501.1</ele>
        <time>2021-10-10T12:03:36Z</time>
      </trkpt>
      <trkpt lat="46.63771" lon="5.61335">
        <ele>501.8</ele>
        <time>2021-10-10T12:03:41Z</time>
      </trkpt>
      <trkpt lat="46.63768" lon="5.61329">
        <ele>502.7</ele>
        <time>2021-10-10T12:03:47Z</time>
      </trkpt>
      <trkpt lat="46.63763" lon="5.61328">
        <ele>503.6</ele>
        <time>2021-10-10T12:03:54Z</time>
      </trkpt>
      <trkpt lat="46.63759" lon="5.61331">
        <ele>503.7</ele>
        <time>2021-10-10T12:03:59Z</time>
      </trkpt>
      <trkpt lat="46.63756" lon="5.61336">
        <ele>504.6</ele>
        <time>2021-10-10T12:04:09Z</time>
      </trkpt>
      <trkpt lat="46.6376" lon="5.61334">
        <ele>505.5</ele>
        <time>2021-10-10T12:04:17Z</time>
      </trkpt>
      <trkpt lat="46.63756" lon="5.61333">
        <ele>504.3</ele>
        <time>2021-10-10T12:05:24Z</time>
      </trkpt>
      <trkpt lat="46.6375" lon="5.61338">
        <ele>505.3</ele>
        <time>2021-10-10T12:05:27Z</time>
      </trkpt>
      <trkpt lat="46.63747" lon="5.61334">
        <ele>505.7</ele>
        <time>2021-10-10T12:05:34Z</time>
      </trkpt>
      <trkpt lat="46.63748" lon="5.61327">
        <ele>502</ele>
        <time>2021-10-10T12:05:44Z</time>
      </trkpt>
      <trkpt lat="46.63753" lon="5.61327">
        <ele>494.7</ele>
        <time>2021-10-10T12:06:18Z</time>
      </trkpt>
      <trkpt lat="46.63758" lon="5.61327">
        <ele>493.9</ele>
        <time>2021-10-10T12:06:24Z</time>
      </trkpt>
      <trkpt lat="46.6376" lon="5.61332">
        <ele>493.9</ele>
        <time>2021-10-10T12:06:31Z</time>
      </trkpt>
      <trkpt lat="46.63765" lon="5.61333">
        <ele>493.8</ele>
        <time>2021-10-10T12:06:36Z</time>
      </trkpt>
      <trkpt lat="46.63767" lon="5.61326">
        <ele>493.1</ele>
        <time>2021-10-10T12:06:56Z</time>
      </trkpt>
      <trkpt lat="46.63762" lon="5.61325">
        <ele>491.9</ele>
        <time>2021-10-10T12:07:08Z</time>
      </trkpt>
      <trkpt lat="46.63706" lon="5.61137">
        <ele>516</ele>
        <time>2021-10-10T12:09:50Z</time>
      </trkpt>
      <trkpt lat="46.63709" lon="5.61132">
        <ele>513.1</ele>
        <time>2021-10-10T12:09:53Z</time>
      </trkpt>
      <trkpt lat="46.63713" lon="5.61126">
        <ele>511</ele>
        <time>2021-10-10T12:09:56Z</time>
      </trkpt>
      <trkpt lat="46.63715" lon="5.61119">
        <ele>510.1</ele>
        <time>2021-10-10T12:10:01Z</time>
      </trkpt>
      <trkpt lat="46.63713" lon="5.61113">
        <ele>511.4</ele>
        <time>2021-10-10T12:10:04Z</time>
      </trkpt>
      <trkpt lat="46.63709" lon="5.61108">
        <ele>512.3</ele>
        <time>2021-10-10T12:10:08Z</time>
      </trkpt>
      <trkpt lat="46.63713" lon="5.61102">
        <ele>512.3</ele>
        <time>2021-10-10T12:10:14Z</time>
      </trkpt>
      <trkpt lat="46.63816" lon="5.60788">
        <ele>531.9</ele>
        <time>2021-10-10T12:13:46Z</time>
      </trkpt>
      <trkpt lat="46.63819" lon="5.60794">
        <ele>531.6</ele>
        <time>2021-10-10T12:13:49Z</time>
      </trkpt>
      <trkpt lat="46.63823" lon="5.60792">
        <ele>526.8</ele>
        <time>2021-10-10T12:14:01Z</time>
      </trkpt>
      <trkpt lat="46.63818" lon="5.60791">
        <ele>527.9</ele>
        <time>2021-10-10T12:14:11Z</time>
      </trkpt>
      <trkpt lat="46.63813" lon="5.60797">
        <ele>526</ele>
        <time>2021-10-10T12:14:18Z</time>
      </trkpt>
      <trkpt lat="46.63816" lon="5.60791">
        <ele>522.5</ele>
        <time>2021-10-10T12:14:44Z</time>
      </trkpt>
      <trkpt lat="46.63822" lon="5.60787">
        <ele>521</ele>
        <time>2021-10-10T12:14:47Z</time>
      </trkpt>
      <trkpt lat="46.63832" lon="5.6078">
        <ele>517.9</ele>
        <time>2021-10-10T12:14:50Z</time>
      </trkpt>
      <trkpt lat="46.63837" lon="5.60775">
        <ele>515.2</ele>
        <time>2021-10-10T12:14:53Z</time>
      </trkpt>
      <trkpt lat="46.63841" lon="5.60771">
        <ele>512.2</ele>
        <time>2021-10-10T12:14:57Z</time>
      </trkpt>
      <trkpt lat="46.63843" lon="5.60765">
        <ele>510.3</ele>
        <time>2021-10-10T12:15:01Z</time>
      </trkpt>
      <trkpt lat="46.63846" lon="5.60759">
        <ele>509.2</ele>
        <time>2021-10-10T12:15:06Z</time>
      </trkpt>
      <trkpt lat="46.6385" lon="5.60756">
        <ele>508.4</ele>
        <time>2021-10-10T12:15:10Z</time>
      </trkpt>
      <trkpt lat="46.63854" lon="5.60752">
        <ele>507.6</ele>
        <time>2021-10-10T12:15:14Z</time>
      </trkpt>
      <trkpt lat="46.63858" lon="5.60746">
        <ele>507</ele>
        <time>2021-10-10T12:15:17Z</time>
      </trkpt>
      <trkpt lat="46.63863" lon="5.60743">
        <ele>505.9</ele>
        <time>2021-10-10T12:15:21Z</time>
      </trkpt>
      <trkpt lat="46.63867" lon="5.60742">
        <ele>504.6</ele>
        <time>2021-10-10T12:15:25Z</time>
      </trkpt>
      <trkpt lat="46.63872" lon="5.60742">
        <ele>503.5</ele>
        <time>2021-10-10T12:15:29Z</time>
      </trkpt>
      <trkpt lat="46.63876" lon="5.6074">
        <ele>502.6</ele>
        <time>2021-10-10T12:15:33Z</time>
      </trkpt>
      <trkpt lat="46.63881" lon="5.60737">
        <ele>501.9</ele>
        <time>2021-10-10T12:15:37Z</time>
      </trkpt>
      <trkpt lat="46.63887" lon="5.60735">
        <ele>501.4</ele>
        <time>2021-10-10T12:15:41Z</time>
      </trkpt>
      <trkpt lat="46.63891" lon="5.60735">
        <ele>500.8</ele>
        <time>2021-10-10T12:15:44Z</time>
      </trkpt>
      <trkpt lat="46.63896" lon="5.60738">
        <ele>499.2</ele>
        <time>2021-10-10T12:15:53Z</time>
      </trkpt>
      <trkpt lat="46.639" lon="5.6074">
        <ele>497.3</ele>
        <time>2021-10-10T12:16:13Z</time>
      </trkpt>
      <trkpt lat="46.63905" lon="5.60738">
        <ele>496.8</ele>
        <time>2021-10-10T12:16:19Z</time>
      </trkpt>
      <trkpt lat="46.6391" lon="5.60736">
        <ele>495.7</ele>
        <time>2021-10-10T12:16:24Z</time>
      </trkpt>
      <trkpt lat="46.63915" lon="5.60732">
        <ele>494.8</ele>
        <time>2021-10-10T12:16:28Z</time>
      </trkpt>
      <trkpt lat="46.6392" lon="5.60732">
        <ele>494.3</ele>
        <time>2021-10-10T12:16:59Z</time>
      </trkpt>
      <trkpt lat="46.63925" lon="5.6073">
        <ele>493.8</ele>
        <time>2021-10-10T12:17:04Z</time>
      </trkpt>
      <trkpt lat="46.63929" lon="5.60725">
        <ele>494.3</ele>
        <time>2021-10-10T12:17:09Z</time>
      </trkpt>
      <trkpt lat="46.63933" lon="5.60725">
        <ele>494.8</ele>
        <time>2021-10-10T12:17:13Z</time>
      </trkpt>
      <trkpt lat="46.63938" lon="5.60726">
        <ele>495.5</ele>
        <time>2021-10-10T12:17:17Z</time>
      </trkpt>
      <trkpt lat="46.63943" lon="5.60727">
        <ele>495.7</ele>
        <time>2021-10-10T12:17:21Z</time>
      </trkpt>
      <trkpt lat="46.63948" lon="5.60728">
        <ele>495.8</ele>
        <time>2021-10-10T12:17:25Z</time>
      </trkpt>
      <trkpt lat="46.63953" lon="5.60731">
        <ele>496</ele>
        <time>2021-10-10T12:17:29Z</time>
      </trkpt>
      <trkpt lat="46.63957" lon="5.60731">
        <ele>496.3</ele>
        <time>2021-10-10T12:17:33Z</time>
      </trkpt>
      <trkpt lat="46.63962" lon="5.60727">
        <ele>496.3</ele>
        <time>2021-10-10T12:17:38Z</time>
      </trkpt>
      <trkpt lat="46.63966" lon="5.60722">
        <ele>496.6</ele>
        <time>2021-10-10T12:17:43Z</time>
      </trkpt>
      <trkpt lat="46.63971" lon="5.60719">
        <ele>496.9</ele>
        <time>2021-10-10T12:17:48Z</time>
      </trkpt>
      <trkpt lat="46.63976" lon="5.60716">
        <ele>497.1</ele>
        <time>2021-10-10T12:17:53Z</time>
      </trkpt>
      <trkpt lat="46.63981" lon="5.60714">
        <ele>497.1</ele>
        <time>2021-10-10T12:17:58Z</time>
      </trkpt>
      <trkpt lat="46.63986" lon="5.60715">
        <ele>497</ele>
        <time>2021-10-10T12:18:03Z</time>
      </trkpt>
      <trkpt lat="46.63991" lon="5.60717">
        <ele>496.7</ele>
        <time>2021-10-10T12:18:07Z</time>
      </trkpt>
      <trkpt lat="46.63996" lon="5.60718">
        <ele>497</ele>
        <time>2021-10-10T12:18:12Z</time>
      </trkpt>
      <trkpt lat="46.64001" lon="5.60718">
        <ele>497.3</ele>
        <time>2021-10-10T12:18:16Z</time>
      </trkpt>
      <trkpt lat="46.64005" lon="5.60718">
        <ele>497.4</ele>
        <time>2021-10-10T12:18:20Z</time>
      </trkpt>
      <trkpt lat="46.6401" lon="5.60719">
        <ele>497.1</ele>
        <time>2021-10-10T12:18:25Z</time>
      </trkpt>
      <trkpt lat="46.64016" lon="5.6072">
        <ele>496.5</ele>
        <time>2021-10-10T12:18:30Z</time>
      </trkpt>
      <trkpt lat="46.6402" lon="5.60723">
        <ele>495.9</ele>
        <time>2021-10-10T12:18:34Z</time>
      </trkpt>
      <trkpt lat="46.64025" lon="5.60725">
        <ele>495.3</ele>
        <time>2021-10-10T12:18:38Z</time>
      </trkpt>
      <trkpt lat="46.6403" lon="5.60721">
        <ele>494.8</ele>
        <time>2021-10-10T12:18:42Z</time>
      </trkpt>
      <trkpt lat="46.64035" lon="5.60719">
        <ele>494.4</ele>
        <time>2021-10-10T12:18:46Z</time>
      </trkpt>
      <trkpt lat="46.6404" lon="5.60718">
        <ele>494.2</ele>
        <time>2021-10-10T12:18:50Z</time>
      </trkpt>
      <trkpt lat="46.64045" lon="5.60716">
        <ele>494.1</ele>
        <time>2021-10-10T12:18:54Z</time>
      </trkpt>
      <trkpt lat="46.64051" lon="5.60716">
        <ele>494</ele>
        <time>2021-10-10T12:18:58Z</time>
      </trkpt>
      <trkpt lat="46.64055" lon="5.60715">
        <ele>494</ele>
        <time>2021-10-10T12:19:03Z</time>
      </trkpt>
      <trkpt lat="46.6406" lon="5.60714">
        <ele>494.1</ele>
        <time>2021-10-10T12:19:08Z</time>
      </trkpt>
      <trkpt lat="46.64066" lon="5.60714">
        <ele>493.9</ele>
        <time>2021-10-10T12:19:13Z</time>
      </trkpt>
      <trkpt lat="46.6407" lon="5.60712">
        <ele>493.8</ele>
        <time>2021-10-10T12:19:17Z</time>
      </trkpt>
      <trkpt lat="46.64075" lon="5.60711">
        <ele>494.3</ele>
        <time>2021-10-10T12:19:21Z</time>
      </trkpt>
      <trkpt lat="46.6408" lon="5.60712">
        <ele>495</ele>
        <time>2021-10-10T12:19:26Z</time>
      </trkpt>
      <trkpt lat="46.64085" lon="5.60712">
        <ele>495.9</ele>
        <time>2021-10-10T12:19:33Z</time>
      </trkpt>
      <trkpt lat="46.64091" lon="5.60715">
        <ele>495.7</ele>
        <time>2021-10-10T12:19:38Z</time>
      </trkpt>
      <trkpt lat="46.64095" lon="5.60716">
        <ele>495.2</ele>
        <time>2021-10-10T12:19:41Z</time>
      </trkpt>
      <trkpt lat="46.64101" lon="5.60718">
        <ele>494.4</ele>
        <time>2021-10-10T12:19:45Z</time>
      </trkpt>
      <trkpt lat="46.64106" lon="5.60719">
        <ele>493.2</ele>
        <time>2021-10-10T12:19:51Z</time>
      </trkpt>
      <trkpt lat="46.64111" lon="5.60719">
        <ele>492.6</ele>
        <time>2021-10-10T12:19:55Z</time>
      </trkpt>
      <trkpt lat="46.64116" lon="5.60717">
        <ele>492.4</ele>
        <time>2021-10-10T12:19:59Z</time>
      </trkpt>
      <trkpt lat="46.6412" lon="5.60716">
        <ele>492.9</ele>
        <time>2021-10-10T12:20:03Z</time>
      </trkpt>
      <trkpt lat="46.64125" lon="5.60717">
        <ele>493.3</ele>
        <time>2021-10-10T12:20:07Z</time>
      </trkpt>
      <trkpt lat="46.6413" lon="5.60718">
        <ele>493.4</ele>
        <time>2021-10-10T12:20:11Z</time>
      </trkpt>
      <trkpt lat="46.64135" lon="5.60718">
        <ele>493.1</ele>
        <time>2021-10-10T12:20:15Z</time>
      </trkpt>
      <trkpt lat="46.64141" lon="5.60717">
        <ele>493.8</ele>
        <time>2021-10-10T12:20:20Z</time>
      </trkpt>
      <trkpt lat="46.64146" lon="5.60717">
        <ele>493.9</ele>
        <time>2021-10-10T12:20:24Z</time>
      </trkpt>
      <trkpt lat="46.6415" lon="5.60718">
        <ele>493.6</ele>
        <time>2021-10-10T12:20:28Z</time>
      </trkpt>
      <trkpt lat="46.64156" lon="5.60719">
        <ele>492.9</ele>
        <time>2021-10-10T12:20:33Z</time>
      </trkpt>
      <trkpt lat="46.64161" lon="5.60718">
        <ele>492.1</ele>
        <time>2021-10-10T12:20:38Z</time>
      </trkpt>
      <trkpt lat="46.64166" lon="5.60717">
        <ele>491.7</ele>
        <time>2021-10-10T12:20:43Z</time>
      </trkpt>
      <trkpt lat="46.64171" lon="5.6072">
        <ele>491.3</ele>
        <time>2021-10-10T12:20:48Z</time>
      </trkpt>
      <trkpt lat="46.64176" lon="5.60723">
        <ele>490.7</ele>
        <time>2021-10-10T12:20:53Z</time>
      </trkpt>
      <trkpt lat="46.64181" lon="5.60724">
        <ele>489.8</ele>
        <time>2021-10-10T12:20:58Z</time>
      </trkpt>
      <trkpt lat="46.64186" lon="5.60724">
        <ele>489.1</ele>
        <time>2021-10-10T12:21:02Z</time>
      </trkpt>
      <trkpt lat="46.64191" lon="5.60721">
        <ele>488.7</ele>
        <time>2021-10-10T12:21:07Z</time>
      </trkpt>
      <trkpt lat="46.64195" lon="5.60719">
        <ele>488.9</ele>
        <time>2021-10-10T12:21:11Z</time>
      </trkpt>
      <trkpt lat="46.642" lon="5.60716">
        <ele>488.8</ele>
        <time>2021-10-10T12:21:16Z</time>
      </trkpt>
      <trkpt lat="46.64205" lon="5.60715">
        <ele>488.9</ele>
        <time>2021-10-10T12:21:22Z</time>
      </trkpt>
      <trkpt lat="46.64211" lon="5.60715">
        <ele>489</ele>
        <time>2021-10-10T12:21:27Z</time>
      </trkpt>
      <trkpt lat="46.64216" lon="5.60717">
        <ele>488.4</ele>
        <time>2021-10-10T12:21:31Z</time>
      </trkpt>
      <trkpt lat="46.64221" lon="5.60718">
        <ele>487.6</ele>
        <time>2021-10-10T12:21:35Z</time>
      </trkpt>
      <trkpt lat="46.64225" lon="5.6072">
        <ele>487.2</ele>
        <time>2021-10-10T12:21:38Z</time>
      </trkpt>
      <trkpt lat="46.6423" lon="5.60723">
        <ele>486.8</ele>
        <time>2021-10-10T12:21:42Z</time>
      </trkpt>
      <trkpt lat="46.64235" lon="5.60727">
        <ele>486.5</ele>
        <time>2021-10-10T12:21:45Z</time>
      </trkpt>
      <trkpt lat="46.6424" lon="5.60728">
        <ele>486.2</ele>
        <time>2021-10-10T12:21:49Z</time>
      </trkpt>
      <trkpt lat="46.64245" lon="5.60727">
        <ele>486.1</ele>
        <time>2021-10-10T12:21:53Z</time>
      </trkpt>
      <trkpt lat="46.64251" lon="5.60723">
        <ele>486.4</ele>
        <time>2021-10-10T12:21:57Z</time>
      </trkpt>
      <trkpt lat="46.64255" lon="5.60722">
        <ele>486.9</ele>
        <time>2021-10-10T12:22:01Z</time>
      </trkpt>
      <trkpt lat="46.6426" lon="5.6072">
        <ele>487.1</ele>
        <time>2021-10-10T12:22:05Z</time>
      </trkpt>
      <trkpt lat="46.64266" lon="5.60721">
        <ele>487.5</ele>
        <time>2021-10-10T12:22:10Z</time>
      </trkpt>
      <trkpt lat="46.6427" lon="5.60723">
        <ele>487.3</ele>
        <time>2021-10-10T12:22:15Z</time>
      </trkpt>
      <trkpt lat="46.64275" lon="5.60723">
        <ele>486.8</ele>
        <time>2021-10-10T12:22:21Z</time>
      </trkpt>
      <trkpt lat="46.6428" lon="5.60724">
        <ele>486.6</ele>
        <time>2021-10-10T12:22:26Z</time>
      </trkpt>
      <trkpt lat="46.64285" lon="5.60724">
        <ele>486.6</ele>
        <time>2021-10-10T12:22:31Z</time>
      </trkpt>
      <trkpt lat="46.6429" lon="5.60726">
        <ele>486.6</ele>
        <time>2021-10-10T12:22:35Z</time>
      </trkpt>
      <trkpt lat="46.64296" lon="5.60725">
        <ele>486.7</ele>
        <time>2021-10-10T12:22:39Z</time>
      </trkpt>
      <trkpt lat="46.643" lon="5.60723">
        <ele>487.9</ele>
        <time>2021-10-10T12:22:45Z</time>
      </trkpt>
      <trkpt lat="46.64305" lon="5.60719">
        <ele>488.9</ele>
        <time>2021-10-10T12:22:49Z</time>
      </trkpt>
      <trkpt lat="46.6431" lon="5.60719">
        <ele>489.5</ele>
        <time>2021-10-10T12:22:53Z</time>
      </trkpt>
      <trkpt lat="46.64316" lon="5.6072">
        <ele>489.9</ele>
        <time>2021-10-10T12:22:58Z</time>
      </trkpt>
      <trkpt lat="46.64321" lon="5.6072">
        <ele>489.8</ele>
        <time>2021-10-10T12:23:03Z</time>
      </trkpt>
      <trkpt lat="46.64324" lon="5.60724">
        <ele>489.2</ele>
        <time>2021-10-10T12:23:07Z</time>
      </trkpt>
      <trkpt lat="46.64329" lon="5.60727">
        <ele>488.4</ele>
        <time>2021-10-10T12:23:11Z</time>
      </trkpt>
      <trkpt lat="46.64333" lon="5.60727">
        <ele>487.9</ele>
        <time>2021-10-10T12:23:14Z</time>
      </trkpt>
      <trkpt lat="46.64339" lon="5.60728">
        <ele>487.3</ele>
        <time>2021-10-10T12:23:17Z</time>
      </trkpt>
      <trkpt lat="46.64344" lon="5.60727">
        <ele>487.2</ele>
        <time>2021-10-10T12:23:21Z</time>
      </trkpt>
      <trkpt lat="46.64348" lon="5.60726">
        <ele>487.3</ele>
        <time>2021-10-10T12:23:25Z</time>
      </trkpt>
      <trkpt lat="46.64354" lon="5.60726">
        <ele>487.4</ele>
        <time>2021-10-10T12:23:30Z</time>
      </trkpt>
      <trkpt lat="46.64358" lon="5.60725">
        <ele>487.3</ele>
        <time>2021-10-10T12:23:35Z</time>
      </trkpt>
      <trkpt lat="46.64363" lon="5.60724">
        <ele>487.6</ele>
        <time>2021-10-10T12:23:40Z</time>
      </trkpt>
      <trkpt lat="46.64368" lon="5.60726">
        <ele>487.8</ele>
        <time>2021-10-10T12:23:45Z</time>
      </trkpt>
      <trkpt lat="46.64373" lon="5.60726">
        <ele>487.6</ele>
        <time>2021-10-10T12:23:51Z</time>
      </trkpt>
      <trkpt lat="46.64378" lon="5.60725">
        <ele>486.8</ele>
        <time>2021-10-10T12:23:56Z</time>
      </trkpt>
      <trkpt lat="46.64382" lon="5.60725">
        <ele>486.4</ele>
        <time>2021-10-10T12:24:00Z</time>
      </trkpt>
      <trkpt lat="46.64388" lon="5.60724">
        <ele>486.1</ele>
        <time>2021-10-10T12:24:05Z</time>
      </trkpt>
      <trkpt lat="46.64392" lon="5.60724">
        <ele>486.4</ele>
        <time>2021-10-10T12:24:09Z</time>
      </trkpt>
      <trkpt lat="46.64398" lon="5.60725">
        <ele>486.9</ele>
        <time>2021-10-10T12:24:13Z</time>
      </trkpt>
      <trkpt lat="46.64403" lon="5.60724">
        <ele>487</ele>
        <time>2021-10-10T12:24:17Z</time>
      </trkpt>
      <trkpt lat="46.64408" lon="5.60724">
        <ele>487.1</ele>
        <time>2021-10-10T12:24:22Z</time>
      </trkpt>
      <trkpt lat="46.64413" lon="5.60722">
        <ele>487.2</ele>
        <time>2021-10-10T12:24:28Z</time>
      </trkpt>
      <trkpt lat="46.64418" lon="5.60723">
        <ele>487.1</ele>
        <time>2021-10-10T12:24:33Z</time>
      </trkpt>
      <trkpt lat="46.64423" lon="5.60723">
        <ele>487</ele>
        <time>2021-10-10T12:24:38Z</time>
      </trkpt>
      <trkpt lat="46.64428" lon="5.60725">
        <ele>487.1</ele>
        <time>2021-10-10T12:24:44Z</time>
      </trkpt>
      <trkpt lat="46.64433" lon="5.60729">
        <ele>487.2</ele>
        <time>2021-10-10T12:24:48Z</time>
      </trkpt>
      <trkpt lat="46.64438" lon="5.60728">
        <ele>487.2</ele>
        <time>2021-10-10T12:24:53Z</time>
      </trkpt>
      <trkpt lat="46.64443" lon="5.60725">
        <ele>487.4</ele>
        <time>2021-10-10T12:24:58Z</time>
      </trkpt>
      <trkpt lat="46.64449" lon="5.60724">
        <ele>487.4</ele>
        <time>2021-10-10T12:25:02Z</time>
      </trkpt>
      <trkpt lat="46.64454" lon="5.60725">
        <ele>487</ele>
        <time>2021-10-10T12:25:06Z</time>
      </trkpt>
      <trkpt lat="46.64459" lon="5.60727">
        <ele>486.4</ele>
        <time>2021-10-10T12:25:10Z</time>
      </trkpt>
      <trkpt lat="46.64464" lon="5.60729">
        <ele>485.6</ele>
        <time>2021-10-10T12:25:13Z</time>
      </trkpt>
      <trkpt lat="46.6447" lon="5.6073">
        <ele>484.9</ele>
        <time>2021-10-10T12:25:16Z</time>
      </trkpt>
      <trkpt lat="46.64475" lon="5.60731">
        <ele>484.2</ele>
        <time>2021-10-10T12:25:21Z</time>
      </trkpt>
      <trkpt lat="46.64479" lon="5.60734">
        <ele>483.4</ele>
        <time>2021-10-10T12:25:26Z</time>
      </trkpt>
      <trkpt lat="46.64484" lon="5.60736">
        <ele>482.8</ele>
        <time>2021-10-10T12:25:31Z</time>
      </trkpt>
      <trkpt lat="46.64489" lon="5.6074">
        <ele>482.3</ele>
        <time>2021-10-10T12:25:35Z</time>
      </trkpt>
      <trkpt lat="46.64491" lon="5.60746">
        <ele>481.2</ele>
        <time>2021-10-10T12:25:42Z</time>
      </trkpt>
      <trkpt lat="46.64495" lon="5.6075">
        <ele>479.9</ele>
        <time>2021-10-10T12:25:47Z</time>
      </trkpt>
      <trkpt lat="46.645" lon="5.60749">
        <ele>478.8</ele>
        <time>2021-10-10T12:25:53Z</time>
      </trkpt>
      <trkpt lat="46.64504" lon="5.60744">
        <ele>478.7</ele>
        <time>2021-10-10T12:25:57Z</time>
      </trkpt>
      <trkpt lat="46.64509" lon="5.60743">
        <ele>478.9</ele>
        <time>2021-10-10T12:26:01Z</time>
      </trkpt>
      <trkpt lat="46.64514" lon="5.60744">
        <ele>479.1</ele>
        <time>2021-10-10T12:26:04Z</time>
      </trkpt>
      <trkpt lat="46.64519" lon="5.60745">
        <ele>479.4</ele>
        <time>2021-10-10T12:26:07Z</time>
      </trkpt>
      <trkpt lat="46.64523" lon="5.60751">
        <ele>479.5</ele>
        <time>2021-10-10T12:26:11Z</time>
      </trkpt>
      <trkpt lat="46.64527" lon="5.60755">
        <ele>479.6</ele>
        <time>2021-10-10T12:26:17Z</time>
      </trkpt>
      <trkpt lat="46.64532" lon="5.60757">
        <ele>479.3</ele>
        <time>2021-10-10T12:26:23Z</time>
      </trkpt>
      <trkpt lat="46.64538" lon="5.60759">
        <ele>478.8</ele>
        <time>2021-10-10T12:26:27Z</time>
      </trkpt>
      <trkpt lat="46.64544" lon="5.6076">
        <ele>478.4</ele>
        <time>2021-10-10T12:26:30Z</time>
      </trkpt>
      <trkpt lat="46.64549" lon="5.6076">
        <ele>478.1</ele>
        <time>2021-10-10T12:26:33Z</time>
      </trkpt>
      <trkpt lat="46.64554" lon="5.6076">
        <ele>477.6</ele>
        <time>2021-10-10T12:26:36Z</time>
      </trkpt>
      <trkpt lat="46.64559" lon="5.60761">
        <ele>477.2</ele>
        <time>2021-10-10T12:26:39Z</time>
      </trkpt>
      <trkpt lat="46.64564" lon="5.60763">
        <ele>476.6</ele>
        <time>2021-10-10T12:26:43Z</time>
      </trkpt>
      <trkpt lat="46.64569" lon="5.60763">
        <ele>475.9</ele>
        <time>2021-10-10T12:26:47Z</time>
      </trkpt>
      <trkpt lat="46.64574" lon="5.60763">
        <ele>475.3</ele>
        <time>2021-10-10T12:26:50Z</time>
      </trkpt>
      <trkpt lat="46.64579" lon="5.60762">
        <ele>474.9</ele>
        <time>2021-10-10T12:26:53Z</time>
      </trkpt>
      <trkpt lat="46.64584" lon="5.60762">
        <ele>474.6</ele>
        <time>2021-10-10T12:26:57Z</time>
      </trkpt>
      <trkpt lat="46.64589" lon="5.60766">
        <ele>474.1</ele>
        <time>2021-10-10T12:27:02Z</time>
      </trkpt>
      <trkpt lat="46.64592" lon="5.6077">
        <ele>473.4</ele>
        <time>2021-10-10T12:27:06Z</time>
      </trkpt>
      <trkpt lat="46.64596" lon="5.60774">
        <ele>473.3</ele>
        <time>2021-10-10T12:27:12Z</time>
      </trkpt>
      <trkpt lat="46.64602" lon="5.60776">
        <ele>474.2</ele>
        <time>2021-10-10T12:27:18Z</time>
      </trkpt>
      <trkpt lat="46.64606" lon="5.60777">
        <ele>474.7</ele>
        <time>2021-10-10T12:27:21Z</time>
      </trkpt>
      <trkpt lat="46.64611" lon="5.6078">
        <ele>474.7</ele>
        <time>2021-10-10T12:27:24Z</time>
      </trkpt>
      <trkpt lat="46.64615" lon="5.60784">
        <ele>474.2</ele>
        <time>2021-10-10T12:27:27Z</time>
      </trkpt>
      <trkpt lat="46.64621" lon="5.60787">
        <ele>473.3</ele>
        <time>2021-10-10T12:27:31Z</time>
      </trkpt>
      <trkpt lat="46.64625" lon="5.60789">
        <ele>471.7</ele>
        <time>2021-10-10T12:27:36Z</time>
      </trkpt>
      <trkpt lat="46.6463" lon="5.60792">
        <ele>470</ele>
        <time>2021-10-10T12:27:41Z</time>
      </trkpt>
      <trkpt lat="46.64634" lon="5.60793">
        <ele>468.6</ele>
        <time>2021-10-10T12:27:46Z</time>
      </trkpt>
      <trkpt lat="46.64639" lon="5.60792">
        <ele>468.1</ele>
        <time>2021-10-10T12:27:49Z</time>
      </trkpt>
      <trkpt lat="46.64644" lon="5.60791">
        <ele>467.8</ele>
        <time>2021-10-10T12:27:52Z</time>
      </trkpt>
      <trkpt lat="46.6465" lon="5.6079">
        <ele>467.4</ele>
        <time>2021-10-10T12:27:56Z</time>
      </trkpt>
      <trkpt lat="46.64655" lon="5.6079">
        <ele>467</ele>
        <time>2021-10-10T12:28:01Z</time>
      </trkpt>
      <trkpt lat="46.6466" lon="5.60791">
        <ele>466.4</ele>
        <time>2021-10-10T12:28:06Z</time>
      </trkpt>
      <trkpt lat="46.64666" lon="5.60791">
        <ele>465.5</ele>
        <time>2021-10-10T12:28:11Z</time>
      </trkpt>
      <trkpt lat="46.6467" lon="5.60789">
        <ele>465.1</ele>
        <time>2021-10-10T12:28:16Z</time>
      </trkpt>
      <trkpt lat="46.64675" lon="5.60789">
        <ele>465.3</ele>
        <time>2021-10-10T12:28:22Z</time>
      </trkpt>
      <trkpt lat="46.64681" lon="5.60788">
        <ele>465.6</ele>
        <time>2021-10-10T12:28:27Z</time>
      </trkpt>
      <trkpt lat="46.64686" lon="5.60786">
        <ele>465.6</ele>
        <time>2021-10-10T12:28:31Z</time>
      </trkpt>
      <trkpt lat="46.6469" lon="5.60784">
        <ele>465.7</ele>
        <time>2021-10-10T12:28:34Z</time>
      </trkpt>
      <trkpt lat="46.64695" lon="5.60782">
        <ele>465.9</ele>
        <time>2021-10-10T12:28:37Z</time>
      </trkpt>
      <trkpt lat="46.64701" lon="5.60781">
        <ele>466.3</ele>
        <time>2021-10-10T12:28:41Z</time>
      </trkpt>
      <trkpt lat="46.64706" lon="5.60782">
        <ele>467</ele>
        <time>2021-10-10T12:28:46Z</time>
      </trkpt>
      <trkpt lat="46.6471" lon="5.60782">
        <ele>465.8</ele>
        <time>2021-10-10T12:28:59Z</time>
      </trkpt>
      <trkpt lat="46.64714" lon="5.60781">
        <ele>465.5</ele>
        <time>2021-10-10T12:29:04Z</time>
      </trkpt>
      <trkpt lat="46.64718" lon="5.60776">
        <ele>466.5</ele>
        <time>2021-10-10T12:29:09Z</time>
      </trkpt>
      <trkpt lat="46.64724" lon="5.60774">
        <ele>467.2</ele>
        <time>2021-10-10T12:29:14Z</time>
      </trkpt>
      <trkpt lat="46.64728" lon="5.60771">
        <ele>468</ele>
        <time>2021-10-10T12:29:19Z</time>
      </trkpt>
      <trkpt lat="46.64731" lon="5.60767">
        <ele>469.4</ele>
        <time>2021-10-10T12:29:26Z</time>
      </trkpt>
      <trkpt lat="46.64734" lon="5.60761">
        <ele>471.2</ele>
        <time>2021-10-10T12:29:32Z</time>
      </trkpt>
      <trkpt lat="46.64738" lon="5.60758">
        <ele>472.4</ele>
        <time>2021-10-10T12:29:36Z</time>
      </trkpt>
      <trkpt lat="46.64743" lon="5.60756">
        <ele>474.8</ele>
        <time>2021-10-10T12:29:42Z</time>
      </trkpt>
      <trkpt lat="46.64746" lon="5.6075">
        <ele>476.1</ele>
        <time>2021-10-10T12:29:46Z</time>
      </trkpt>
      <trkpt lat="46.64849" lon="5.60722">
        <ele>483.6</ele>
        <time>2021-10-10T12:31:14Z</time>
      </trkpt>
      <trkpt lat="46.64852" lon="5.60716">
        <ele>468</ele>
        <time>2021-10-10T12:31:26Z</time>
      </trkpt>
      <trkpt lat="46.64856" lon="5.60712">
        <ele>466.4</ele>
        <time>2021-10-10T12:31:30Z</time>
      </trkpt>
      <trkpt lat="46.6486" lon="5.60708">
        <ele>465.9</ele>
        <time>2021-10-10T12:31:36Z</time>
      </trkpt>
      <trkpt lat="46.64866" lon="5.60705">
        <ele>467</ele>
        <time>2021-10-10T12:31:42Z</time>
      </trkpt>
      <trkpt lat="46.64871" lon="5.60704">
        <ele>467.3</ele>
        <time>2021-10-10T12:31:46Z</time>
      </trkpt>
      <trkpt lat="46.64876" lon="5.60701">
        <ele>467.9</ele>
        <time>2021-10-10T12:31:52Z</time>
      </trkpt>
      <trkpt lat="46.64882" lon="5.60701">
        <ele>468.2</ele>
        <time>2021-10-10T12:31:56Z</time>
      </trkpt>
      <trkpt lat="46.64886" lon="5.60701">
        <ele>467.3</ele>
        <time>2021-10-10T12:32:03Z</time>
      </trkpt>
      <trkpt lat="46.64891" lon="5.60698">
        <ele>466.8</ele>
        <time>2021-10-10T12:32:07Z</time>
      </trkpt>
      <trkpt lat="46.64895" lon="5.60694">
        <ele>466.9</ele>
        <time>2021-10-10T12:32:11Z</time>
      </trkpt>
      <trkpt lat="46.64899" lon="5.60691">
        <ele>467.2</ele>
        <time>2021-10-10T12:32:15Z</time>
      </trkpt>
      <trkpt lat="46.64904" lon="5.60687">
        <ele>467.5</ele>
        <time>2021-10-10T12:32:19Z</time>
      </trkpt>
      <trkpt lat="46.64909" lon="5.60685">
        <ele>467.4</ele>
        <time>2021-10-10T12:32:23Z</time>
      </trkpt>
      <trkpt lat="46.64914" lon="5.60685">
        <ele>466.9</ele>
        <time>2021-10-10T12:32:28Z</time>
      </trkpt>
      <trkpt lat="46.64919" lon="5.60684">
        <ele>466.3</ele>
        <time>2021-10-10T12:32:32Z</time>
      </trkpt>
      <trkpt lat="46.64923" lon="5.60681">
        <ele>465.7</ele>
        <time>2021-10-10T12:32:36Z</time>
      </trkpt>
      <trkpt lat="46.64928" lon="5.6068">
        <ele>465.4</ele>
        <time>2021-10-10T12:32:41Z</time>
      </trkpt>
      <trkpt lat="46.64933" lon="5.60678">
        <ele>465.1</ele>
        <time>2021-10-10T12:32:45Z</time>
      </trkpt>
      <trkpt lat="46.64938" lon="5.60676">
        <ele>464.7</ele>
        <time>2021-10-10T12:32:49Z</time>
      </trkpt>
      <trkpt lat="46.64943" lon="5.60673">
        <ele>464.4</ele>
        <time>2021-10-10T12:32:53Z</time>
      </trkpt>
      <trkpt lat="46.64948" lon="5.60671">
        <ele>463.6</ele>
        <time>2021-10-10T12:32:58Z</time>
      </trkpt>
      <trkpt lat="46.64953" lon="5.60669">
        <ele>462.9</ele>
        <time>2021-10-10T12:33:04Z</time>
      </trkpt>
      <trkpt lat="46.64957" lon="5.60667">
        <ele>462.4</ele>
        <time>2021-10-10T12:33:09Z</time>
      </trkpt>
      <trkpt lat="46.64962" lon="5.60665">
        <ele>462.1</ele>
        <time>2021-10-10T12:33:13Z</time>
      </trkpt>
      <trkpt lat="46.64967" lon="5.60663">
        <ele>461.6</ele>
        <time>2021-10-10T12:33:17Z</time>
      </trkpt>
      <trkpt lat="46.64972" lon="5.60661">
        <ele>461.1</ele>
        <time>2021-10-10T12:33:21Z</time>
      </trkpt>
      <trkpt lat="46.64977" lon="5.6066">
        <ele>460.6</ele>
        <time>2021-10-10T12:33:25Z</time>
      </trkpt>
      <trkpt lat="46.64981" lon="5.60657">
        <ele>460.3</ele>
        <time>2021-10-10T12:33:29Z</time>
      </trkpt>
      <trkpt lat="46.64986" lon="5.60657">
        <ele>459.9</ele>
        <time>2021-10-10T12:33:34Z</time>
      </trkpt>
      <trkpt lat="46.64991" lon="5.6066">
        <ele>459.1</ele>
        <time>2021-10-10T12:33:38Z</time>
      </trkpt>
      <trkpt lat="46.64996" lon="5.60659">
        <ele>458.2</ele>
        <time>2021-10-10T12:33:43Z</time>
      </trkpt>
      <trkpt lat="46.65" lon="5.60656">
        <ele>457.3</ele>
        <time>2021-10-10T12:33:49Z</time>
      </trkpt>
      <trkpt lat="46.65005" lon="5.60652">
        <ele>457.3</ele>
        <time>2021-10-10T12:33:53Z</time>
      </trkpt>
      <trkpt lat="46.65009" lon="5.60649">
        <ele>457.2</ele>
        <time>2021-10-10T12:33:56Z</time>
      </trkpt>
      <trkpt lat="46.65013" lon="5.60644">
        <ele>457.4</ele>
        <time>2021-10-10T12:34:00Z</time>
      </trkpt>
      <trkpt lat="46.65018" lon="5.6064">
        <ele>457.3</ele>
        <time>2021-10-10T12:34:04Z</time>
      </trkpt>
      <trkpt lat="46.65023" lon="5.60639">
        <ele>457.3</ele>
        <time>2021-10-10T12:34:08Z</time>
      </trkpt>
      <trkpt lat="46.65028" lon="5.60638">
        <ele>457.1</ele>
        <time>2021-10-10T12:34:13Z</time>
      </trkpt>
      <trkpt lat="46.65033" lon="5.60639">
        <ele>456.9</ele>
        <time>2021-10-10T12:34:17Z</time>
      </trkpt>
      <trkpt lat="46.65038" lon="5.60638">
        <ele>456.8</ele>
        <time>2021-10-10T12:34:22Z</time>
      </trkpt>
      <trkpt lat="46.65042" lon="5.60636">
        <ele>456.9</ele>
        <time>2021-10-10T12:34:26Z</time>
      </trkpt>
      <trkpt lat="46.65047" lon="5.60635">
        <ele>457.2</ele>
        <time>2021-10-10T12:34:31Z</time>
      </trkpt>
      <trkpt lat="46.65053" lon="5.60633">
        <ele>457.7</ele>
        <time>2021-10-10T12:34:36Z</time>
      </trkpt>
      <trkpt lat="46.65057" lon="5.60632">
        <ele>458</ele>
        <time>2021-10-10T12:34:40Z</time>
      </trkpt>
      <trkpt lat="46.65062" lon="5.6063">
        <ele>458.5</ele>
        <time>2021-10-10T12:34:45Z</time>
      </trkpt>
      <trkpt lat="46.65067" lon="5.60628">
        <ele>459.5</ele>
        <time>2021-10-10T12:34:50Z</time>
      </trkpt>
      <trkpt lat="46.65073" lon="5.60626">
        <ele>460.5</ele>
        <time>2021-10-10T12:34:54Z</time>
      </trkpt>
      <trkpt lat="46.65078" lon="5.60624">
        <ele>461.1</ele>
        <time>2021-10-10T12:34:58Z</time>
      </trkpt>
      <trkpt lat="46.65082" lon="5.60619">
        <ele>461.5</ele>
        <time>2021-10-10T12:35:03Z</time>
      </trkpt>
      <trkpt lat="46.65087" lon="5.60617">
        <ele>461.8</ele>
        <time>2021-10-10T12:35:07Z</time>
      </trkpt>
      <trkpt lat="46.65091" lon="5.60621">
        <ele>461.7</ele>
        <time>2021-10-10T12:35:19Z</time>
      </trkpt>
      <trkpt lat="46.65327" lon="5.60747">
        <ele>443.6</ele>
        <time>2021-10-10T12:39:09Z</time>
      </trkpt>
      <trkpt lat="46.65331" lon="5.6075">
        <ele>451.6</ele>
        <time>2021-10-10T12:39:19Z</time>
      </trkpt>
      <trkpt lat="46.65336" lon="5.60752">
        <ele>453</ele>
        <time>2021-10-10T12:39:26Z</time>
      </trkpt>
      <trkpt lat="46.65331" lon="5.60753">
        <ele>453.3</ele>
        <time>2021-10-10T12:39:33Z</time>
      </trkpt>
      <trkpt lat="46.65329" lon="5.6076">
        <ele>451.6</ele>
        <time>2021-10-10T12:39:40Z</time>
      </trkpt>
      <trkpt lat="46.6533" lon="5.60767">
        <ele>449.9</ele>
        <time>2021-10-10T12:39:45Z</time>
      </trkpt>
      <trkpt lat="46.65328" lon="5.60774">
        <ele>449.5</ele>
        <time>2021-10-10T12:39:49Z</time>
      </trkpt>
      <trkpt lat="46.65322" lon="5.6078">
        <ele>449.5</ele>
        <time>2021-10-10T12:39:52Z</time>
      </trkpt>
      <trkpt lat="46.65321" lon="5.60788">
        <ele>450</ele>
        <time>2021-10-10T12:39:56Z</time>
      </trkpt>
      <trkpt lat="46.65323" lon="5.60794">
        <ele>451.1</ele>
        <time>2021-10-10T12:40:02Z</time>
      </trkpt>
      <trkpt lat="46.65326" lon="5.608">
        <ele>451.4</ele>
        <time>2021-10-10T12:40:07Z</time>
      </trkpt>
      <trkpt lat="46.6533" lon="5.60804">
        <ele>451.5</ele>
        <time>2021-10-10T12:40:11Z</time>
      </trkpt>
      <trkpt lat="46.65333" lon="5.60809">
        <ele>451.3</ele>
        <time>2021-10-10T12:40:16Z</time>
      </trkpt>
      <trkpt lat="46.65336" lon="5.60815">
        <ele>451.2</ele>
        <time>2021-10-10T12:40:22Z</time>
      </trkpt>
      <trkpt lat="46.6534" lon="5.6082">
        <ele>451.4</ele>
        <time>2021-10-10T12:40:26Z</time>
      </trkpt>
      <trkpt lat="46.65343" lon="5.60826">
        <ele>451.4</ele>
        <time>2021-10-10T12:40:30Z</time>
      </trkpt>
      <trkpt lat="46.65347" lon="5.60831">
        <ele>451.2</ele>
        <time>2021-10-10T12:40:34Z</time>
      </trkpt>
      <trkpt lat="46.65351" lon="5.60835">
        <ele>451.1</ele>
        <time>2021-10-10T12:40:38Z</time>
      </trkpt>
      <trkpt lat="46.65353" lon="5.60841">
        <ele>451.2</ele>
        <time>2021-10-10T12:40:42Z</time>
      </trkpt>
      <trkpt lat="46.65355" lon="5.60847">
        <ele>451.2</ele>
        <time>2021-10-10T12:40:46Z</time>
      </trkpt>
      <trkpt lat="46.65358" lon="5.60854">
        <ele>450.9</ele>
        <time>2021-10-10T12:40:51Z</time>
      </trkpt>
      <trkpt lat="46.65361" lon="5.6086">
        <ele>450.7</ele>
        <time>2021-10-10T12:40:55Z</time>
      </trkpt>
      <trkpt lat="46.65363" lon="5.60867">
        <ele>450.1</ele>
        <time>2021-10-10T12:41:00Z</time>
      </trkpt>
      <trkpt lat="46.65366" lon="5.60873">
        <ele>449.8</ele>
        <time>2021-10-10T12:41:04Z</time>
      </trkpt>
      <trkpt lat="46.65368" lon="5.60879">
        <ele>449.7</ele>
        <time>2021-10-10T12:41:09Z</time>
      </trkpt>
      <trkpt lat="46.65368" lon="5.60886">
        <ele>449.7</ele>
        <time>2021-10-10T12:41:15Z</time>
      </trkpt>
      <trkpt lat="46.65368" lon="5.60893">
        <ele>449</ele>
        <time>2021-10-10T12:41:20Z</time>
      </trkpt>
      <trkpt lat="46.65369" lon="5.60902">
        <ele>447.9</ele>
        <time>2021-10-10T12:41:24Z</time>
      </trkpt>
      <trkpt lat="46.65372" lon="5.60907">
        <ele>446.9</ele>
        <time>2021-10-10T12:41:28Z</time>
      </trkpt>
      <trkpt lat="46.65375" lon="5.60913">
        <ele>445.6</ele>
        <time>2021-10-10T12:41:33Z</time>
      </trkpt>
      <trkpt lat="46.65379" lon="5.60919">
        <ele>444.3</ele>
        <time>2021-10-10T12:41:38Z</time>
      </trkpt>
      <trkpt lat="46.65381" lon="5.60926">
        <ele>443.6</ele>
        <time>2021-10-10T12:41:43Z</time>
      </trkpt>
      <trkpt lat="46.65383" lon="5.60933">
        <ele>443.2</ele>
        <time>2021-10-10T12:41:47Z</time>
      </trkpt>
      <trkpt lat="46.65382" lon="5.60941">
        <ele>443.2</ele>
        <time>2021-10-10T12:41:52Z</time>
      </trkpt>
      <trkpt lat="46.65383" lon="5.60948">
        <ele>442.9</ele>
        <time>2021-10-10T12:42:00Z</time>
      </trkpt>
      <trkpt lat="46.65387" lon="5.60954">
        <ele>442.6</ele>
        <time>2021-10-10T12:42:05Z</time>
      </trkpt>
      <trkpt lat="46.65389" lon="5.6096">
        <ele>442.4</ele>
        <time>2021-10-10T12:42:09Z</time>
      </trkpt>
      <trkpt lat="46.65392" lon="5.60966">
        <ele>442.1</ele>
        <time>2021-10-10T12:42:13Z</time>
      </trkpt>
      <trkpt lat="46.65395" lon="5.6097">
        <ele>442.2</ele>
        <time>2021-10-10T12:42:17Z</time>
      </trkpt>
      <trkpt lat="46.65399" lon="5.60975">
        <ele>442.4</ele>
        <time>2021-10-10T12:42:21Z</time>
      </trkpt>
      <trkpt lat="46.65402" lon="5.60981">
        <ele>442.2</ele>
        <time>2021-10-10T12:42:25Z</time>
      </trkpt>
      <trkpt lat="46.65404" lon="5.60988">
        <ele>441.7</ele>
        <time>2021-10-10T12:42:29Z</time>
      </trkpt>
      <trkpt lat="46.65406" lon="5.60994">
        <ele>441.3</ele>
        <time>2021-10-10T12:42:33Z</time>
      </trkpt>
      <trkpt lat="46.65406" lon="5.61002">
        <ele>441.2</ele>
        <time>2021-10-10T12:42:37Z</time>
      </trkpt>
      <trkpt lat="46.65406" lon="5.6101">
        <ele>441.3</ele>
        <time>2021-10-10T12:42:41Z</time>
      </trkpt>
      <trkpt lat="46.65409" lon="5.61017">
        <ele>441.8</ele>
        <time>2021-10-10T12:42:45Z</time>
      </trkpt>
      <trkpt lat="46.6541" lon="5.61024">
        <ele>441.9</ele>
        <time>2021-10-10T12:42:50Z</time>
      </trkpt>
      <trkpt lat="46.65411" lon="5.61031">
        <ele>441.5</ele>
        <time>2021-10-10T12:42:55Z</time>
      </trkpt>
      <trkpt lat="46.65413" lon="5.61037">
        <ele>441.4</ele>
        <time>2021-10-10T12:42:59Z</time>
      </trkpt>
      <trkpt lat="46.65415" lon="5.61044">
        <ele>441.4</ele>
        <time>2021-10-10T12:43:03Z</time>
      </trkpt>
      <trkpt lat="46.65417" lon="5.61052">
        <ele>441.5</ele>
        <time>2021-10-10T12:43:07Z</time>
      </trkpt>
      <trkpt lat="46.6542" lon="5.61058">
        <ele>441.5</ele>
        <time>2021-10-10T12:43:12Z</time>
      </trkpt>
      <trkpt lat="46.65422" lon="5.61064">
        <ele>441.1</ele>
        <time>2021-10-10T12:43:17Z</time>
      </trkpt>
      <trkpt lat="46.65423" lon="5.61071">
        <ele>440.6</ele>
        <time>2021-10-10T12:43:22Z</time>
      </trkpt>
      <trkpt lat="46.65425" lon="5.61077">
        <ele>440.1</ele>
        <time>2021-10-10T12:43:26Z</time>
      </trkpt>
      <trkpt lat="46.65427" lon="5.61084">
        <ele>439.5</ele>
        <time>2021-10-10T12:43:31Z</time>
      </trkpt>
      <trkpt lat="46.65425" lon="5.61091">
        <ele>439.2</ele>
        <time>2021-10-10T12:43:35Z</time>
      </trkpt>
      <trkpt lat="46.65426" lon="5.61098">
        <ele>439</ele>
        <time>2021-10-10T12:43:40Z</time>
      </trkpt>
      <trkpt lat="46.65428" lon="5.61105">
        <ele>438.7</ele>
        <time>2021-10-10T12:43:45Z</time>
      </trkpt>
      <trkpt lat="46.65429" lon="5.61113">
        <ele>438.1</ele>
        <time>2021-10-10T12:43:50Z</time>
      </trkpt>
      <trkpt lat="46.65431" lon="5.61118">
        <ele>437.4</ele>
        <time>2021-10-10T12:43:55Z</time>
      </trkpt>
      <trkpt lat="46.6543" lon="5.61125">
        <ele>436.5</ele>
        <time>2021-10-10T12:44:00Z</time>
      </trkpt>
      <trkpt lat="46.65428" lon="5.61132">
        <ele>435.6</ele>
        <time>2021-10-10T12:44:04Z</time>
      </trkpt>
      <trkpt lat="46.65431" lon="5.61139">
        <ele>434.8</ele>
        <time>2021-10-10T12:44:08Z</time>
      </trkpt>
      <trkpt lat="46.65434" lon="5.61144">
        <ele>434.1</ele>
        <time>2021-10-10T12:44:12Z</time>
      </trkpt>
      <trkpt lat="46.65439" lon="5.61148">
        <ele>433.5</ele>
        <time>2021-10-10T12:44:16Z</time>
      </trkpt>
      <trkpt lat="46.65441" lon="5.61154">
        <ele>432.9</ele>
        <time>2021-10-10T12:44:21Z</time>
      </trkpt>
      <trkpt lat="46.65441" lon="5.61162">
        <ele>432.8</ele>
        <time>2021-10-10T12:44:25Z</time>
      </trkpt>
      <trkpt lat="46.65443" lon="5.61168">
        <ele>432.9</ele>
        <time>2021-10-10T12:44:29Z</time>
      </trkpt>
      <trkpt lat="46.65446" lon="5.61174">
        <ele>433.4</ele>
        <time>2021-10-10T12:44:33Z</time>
      </trkpt>
      <trkpt lat="46.65448" lon="5.61182">
        <ele>434.6</ele>
        <time>2021-10-10T12:44:38Z</time>
      </trkpt>
      <trkpt lat="46.6545" lon="5.61188">
        <ele>435.6</ele>
        <time>2021-10-10T12:44:43Z</time>
      </trkpt>
      <trkpt lat="46.65452" lon="5.61194">
        <ele>436.9</ele>
        <time>2021-10-10T12:44:49Z</time>
      </trkpt>
      <trkpt lat="46.65457" lon="5.61199">
        <ele>437.4</ele>
        <time>2021-10-10T12:44:53Z</time>
      </trkpt>
      <trkpt lat="46.65456" lon="5.61207">
        <ele>437.8</ele>
        <time>2021-10-10T12:44:58Z</time>
      </trkpt>
      <trkpt lat="46.65457" lon="5.61213">
        <ele>437.8</ele>
        <time>2021-10-10T12:45:02Z</time>
      </trkpt>
      <trkpt lat="46.6546" lon="5.61219">
        <ele>437.7</ele>
        <time>2021-10-10T12:45:06Z</time>
      </trkpt>
      <trkpt lat="46.65463" lon="5.61224">
        <ele>437.6</ele>
        <time>2021-10-10T12:45:10Z</time>
      </trkpt>
      <trkpt lat="46.65465" lon="5.61231">
        <ele>437.6</ele>
        <time>2021-10-10T12:45:14Z</time>
      </trkpt>
      <trkpt lat="46.65468" lon="5.61236">
        <ele>437.5</ele>
        <time>2021-10-10T12:45:18Z</time>
      </trkpt>
      <trkpt lat="46.6547" lon="5.61243">
        <ele>437.4</ele>
        <time>2021-10-10T12:45:22Z</time>
      </trkpt>
      <trkpt lat="46.65474" lon="5.61247">
        <ele>437.1</ele>
        <time>2021-10-10T12:45:26Z</time>
      </trkpt>
      <trkpt lat="46.65479" lon="5.61248">
        <ele>436.7</ele>
        <time>2021-10-10T12:45:32Z</time>
      </trkpt>
      <trkpt lat="46.65483" lon="5.61253">
        <ele>435.9</ele>
        <time>2021-10-10T12:45:41Z</time>
      </trkpt>
      <trkpt lat="46.65486" lon="5.61259">
        <ele>435.4</ele>
        <time>2021-10-10T12:45:46Z</time>
      </trkpt>
      <trkpt lat="46.65488" lon="5.61266">
        <ele>434.6</ele>
        <time>2021-10-10T12:45:51Z</time>
      </trkpt>
      <trkpt lat="46.65489" lon="5.61274">
        <ele>433.5</ele>
        <time>2021-10-10T12:45:56Z</time>
      </trkpt>
      <trkpt lat="46.65491" lon="5.6128">
        <ele>432.9</ele>
        <time>2021-10-10T12:46:02Z</time>
      </trkpt>
      <trkpt lat="46.65495" lon="5.61284">
        <ele>432.6</ele>
        <time>2021-10-10T12:46:07Z</time>
      </trkpt>
      <trkpt lat="46.65499" lon="5.61288">
        <ele>431.9</ele>
        <time>2021-10-10T12:46:12Z</time>
      </trkpt>
      <trkpt lat="46.65503" lon="5.61292">
        <ele>431</ele>
        <time>2021-10-10T12:46:17Z</time>
      </trkpt>
      <trkpt lat="46.65507" lon="5.61296">
        <ele>430.3</ele>
        <time>2021-10-10T12:46:22Z</time>
      </trkpt>
      <trkpt lat="46.65511" lon="5.61301">
        <ele>430.1</ele>
        <time>2021-10-10T12:46:27Z</time>
      </trkpt>
      <trkpt lat="46.65514" lon="5.61306">
        <ele>430.7</ele>
        <time>2021-10-10T12:46:34Z</time>
      </trkpt>
      <trkpt lat="46.65515" lon="5.61313">
        <ele>432.1</ele>
        <time>2021-10-10T12:46:40Z</time>
      </trkpt>
      <trkpt lat="46.65514" lon="5.61319">
        <ele>433.3</ele>
        <time>2021-10-10T12:46:45Z</time>
      </trkpt>
      <trkpt lat="46.65514" lon="5.61326">
        <ele>434.5</ele>
        <time>2021-10-10T12:46:55Z</time>
      </trkpt>
      <trkpt lat="46.6552" lon="5.61328">
        <ele>435</ele>
        <time>2021-10-10T12:47:05Z</time>
      </trkpt>
      <trkpt lat="46.65524" lon="5.61332">
        <ele>435.6</ele>
        <time>2021-10-10T12:47:09Z</time>
      </trkpt>
      <trkpt lat="46.65526" lon="5.61338">
        <ele>436.1</ele>
        <time>2021-10-10T12:47:13Z</time>
      </trkpt>
      <trkpt lat="46.65531" lon="5.61341">
        <ele>436.5</ele>
        <time>2021-10-10T12:47:17Z</time>
      </trkpt>
      <trkpt lat="46.66273" lon="5.61261">
        <ele>412.3</ele>
        <time>2021-10-10T12:59:55Z</time>
      </trkpt>
      <trkpt lat="46.66276" lon="5.61255">
        <ele>415.3</ele>
        <time>2021-10-10T13:00:02Z</time>
      </trkpt>
      <trkpt lat="46.6628" lon="5.61252">
        <ele>418.1</ele>
        <time>2021-10-10T13:00:08Z</time>
      </trkpt>
      <trkpt lat="46.66283" lon="5.61246">
        <ele>423.6</ele>
        <time>2021-10-10T13:00:16Z</time>
      </trkpt>
      <trkpt lat="46.66283" lon="5.6124">
        <ele>432.5</ele>
        <time>2021-10-10T13:00:51Z</time>
      </trkpt>
      <trkpt lat="46.66281" lon="5.61234">
        <ele>433.5</ele>
        <time>2021-10-10T13:00:57Z</time>
      </trkpt>
      <trkpt lat="46.66279" lon="5.61228">
        <ele>433.5</ele>
        <time>2021-10-10T13:01:03Z</time>
      </trkpt>
      <trkpt lat="46.66276" lon="5.61223">
        <ele>433.1</ele>
        <time>2021-10-10T13:01:09Z</time>
      </trkpt>
      <trkpt lat="46.66273" lon="5.61228">
        <ele>431.8</ele>
        <time>2021-10-10T13:01:39Z</time>
      </trkpt>
      <trkpt lat="46.66269" lon="5.61232">
        <ele>431.6</ele>
        <time>2021-10-10T13:01:42Z</time>
      </trkpt>
      <trkpt lat="46.66265" lon="5.61234">
        <ele>431.3</ele>
        <time>2021-10-10T13:01:48Z</time>
      </trkpt>
      <trkpt lat="46.6626" lon="5.61234">
        <ele>430.7</ele>
        <time>2021-10-10T13:01:55Z</time>
      </trkpt>
      <trkpt lat="46.6626" lon="5.61241">
        <ele>428.2</ele>
        <time>2021-10-10T13:02:08Z</time>
      </trkpt>
      <trkpt lat="46.66255" lon="5.61235">
        <ele>428.4</ele>
        <time>2021-10-10T13:02:24Z</time>
      </trkpt>
      <trkpt lat="46.66253" lon="5.61229">
        <ele>428.8</ele>
        <time>2021-10-10T13:02:29Z</time>
      </trkpt>
      <trkpt lat="46.66254" lon="5.61221">
        <ele>429.5</ele>
        <time>2021-10-10T13:02:33Z</time>
      </trkpt>
      <trkpt lat="46.66258" lon="5.61217">
        <ele>432.7</ele>
        <time>2021-10-10T13:02:51Z</time>
      </trkpt>
      <trkpt lat="46.66263" lon="5.61218">
        <ele>432.4</ele>
        <time>2021-10-10T13:02:56Z</time>
      </trkpt>
      <trkpt lat="46.66268" lon="5.6122">
        <ele>431.4</ele>
        <time>2021-10-10T13:03:04Z</time>
      </trkpt>
      <trkpt lat="46.66272" lon="5.61223">
        <ele>430.1</ele>
        <time>2021-10-10T13:03:09Z</time>
      </trkpt>
      <trkpt lat="46.66276" lon="5.61227">
        <ele>429.3</ele>
        <time>2021-10-10T13:03:14Z</time>
      </trkpt>
      <trkpt lat="46.6628" lon="5.61231">
        <ele>429.3</ele>
        <time>2021-10-10T13:03:20Z</time>
      </trkpt>
      <trkpt lat="46.66286" lon="5.61231">
        <ele>429.2</ele>
        <time>2021-10-10T13:03:26Z</time>
      </trkpt>
      <trkpt lat="46.6629" lon="5.61226">
        <ele>429.2</ele>
        <time>2021-10-10T13:03:29Z</time>
      </trkpt>
      <trkpt lat="46.66293" lon="5.61221">
        <ele>429.2</ele>
        <time>2021-10-10T13:03:34Z</time>
      </trkpt>
      <trkpt lat="46.66296" lon="5.61214">
        <ele>429.4</ele>
        <time>2021-10-10T13:03:39Z</time>
      </trkpt>
      <trkpt lat="46.66298" lon="5.61207">
        <ele>429.8</ele>
        <time>2021-10-10T13:03:45Z</time>
      </trkpt>
      <trkpt lat="46.66299" lon="5.612">
        <ele>429.5</ele>
        <time>2021-10-10T13:03:50Z</time>
      </trkpt>
      <trkpt lat="46.663" lon="5.61192">
        <ele>429.4</ele>
        <time>2021-10-10T13:03:55Z</time>
      </trkpt>
      <trkpt lat="46.66302" lon="5.61186">
        <ele>428.9</ele>
        <time>2021-10-10T13:03:59Z</time>
      </trkpt>
      <trkpt lat="46.66305" lon="5.6118">
        <ele>427.7</ele>
        <time>2021-10-10T13:04:04Z</time>
      </trkpt>
      <trkpt lat="46.66307" lon="5.61173">
        <ele>426.7</ele>
        <time>2021-10-10T13:04:09Z</time>
      </trkpt>
      <trkpt lat="46.66311" lon="5.61169">
        <ele>425.7</ele>
        <time>2021-10-10T13:04:15Z</time>
      </trkpt>
      <trkpt lat="46.66313" lon="5.61161">
        <ele>425</ele>
        <time>2021-10-10T13:04:19Z</time>
      </trkpt>
      <trkpt lat="46.66314" lon="5.61154">
        <ele>424.5</ele>
        <time>2021-10-10T13:04:22Z</time>
      </trkpt>
      <trkpt lat="46.66314" lon="5.61148">
        <ele>424.6</ele>
        <time>2021-10-10T13:04:25Z</time>
      </trkpt>
      <trkpt lat="46.66316" lon="5.6114">
        <ele>424.8</ele>
        <time>2021-10-10T13:04:29Z</time>
      </trkpt>
      <trkpt lat="46.66318" lon="5.61133">
        <ele>425</ele>
        <time>2021-10-10T13:04:35Z</time>
      </trkpt>
      <trkpt lat="46.6632" lon="5.61127">
        <ele>425</ele>
        <time>2021-10-10T13:04:39Z</time>
      </trkpt>
      <trkpt lat="46.66322" lon="5.61121">
        <ele>424.7</ele>
        <time>2021-10-10T13:04:43Z</time>
      </trkpt>
      <trkpt lat="46.66323" lon="5.61113">
        <ele>424.2</ele>
        <time>2021-10-10T13:04:49Z</time>
      </trkpt>
      <trkpt lat="46.66324" lon="5.61106">
        <ele>423.3</ele>
        <time>2021-10-10T13:04:53Z</time>
      </trkpt>
      <trkpt lat="46.66326" lon="5.61099">
        <ele>421.6</ele>
        <time>2021-10-10T13:04:59Z</time>
      </trkpt>
      <trkpt lat="46.66328" lon="5.61093">
        <ele>420.2</ele>
        <time>2021-10-10T13:05:04Z</time>
      </trkpt>
      <trkpt lat="46.66329" lon="5.61086">
        <ele>418.5</ele>
        <time>2021-10-10T13:05:11Z</time>
      </trkpt>
      <trkpt lat="46.6633" lon="5.61079">
        <ele>417.2</ele>
        <time>2021-10-10T13:05:17Z</time>
      </trkpt>
      <trkpt lat="46.66332" lon="5.61072">
        <ele>416</ele>
        <time>2021-10-10T13:05:23Z</time>
      </trkpt>
      <trkpt lat="46.66332" lon="5.61065">
        <ele>415.3</ele>
        <time>2021-10-10T13:05:27Z</time>
      </trkpt>
      <trkpt lat="46.66331" lon="5.61058">
        <ele>414.9</ele>
        <time>2021-10-10T13:05:31Z</time>
      </trkpt>
      <trkpt lat="46.66331" lon="5.6105">
        <ele>414.7</ele>
        <time>2021-10-10T13:05:36Z</time>
      </trkpt>
      <trkpt lat="46.66331" lon="5.61042">
        <ele>414.9</ele>
        <time>2021-10-10T13:05:40Z</time>
      </trkpt>
      <trkpt lat="46.66331" lon="5.61036">
        <ele>415.2</ele>
        <time>2021-10-10T13:05:43Z</time>
      </trkpt>
      <trkpt lat="46.66332" lon="5.61028">
        <ele>415.6</ele>
        <time>2021-10-10T13:05:47Z</time>
      </trkpt>
      <trkpt lat="46.66334" lon="5.61022">
        <ele>415.5</ele>
        <time>2021-10-10T13:05:51Z</time>
      </trkpt>
      <trkpt lat="46.66335" lon="5.61014">
        <ele>415.4</ele>
        <time>2021-10-10T13:05:55Z</time>
      </trkpt>
      <trkpt lat="46.66334" lon="5.61006">
        <ele>415</ele>
        <time>2021-10-10T13:05:59Z</time>
      </trkpt>
      <trkpt lat="46.66333" lon="5.60998">
        <ele>414.4</ele>
        <time>2021-10-10T13:06:03Z</time>
      </trkpt>
      <trkpt lat="46.66332" lon="5.60991">
        <ele>413.7</ele>
        <time>2021-10-10T13:06:07Z</time>
      </trkpt>
      <trkpt lat="46.66332" lon="5.60983">
        <ele>413</ele>
        <time>2021-10-10T13:06:12Z</time>
      </trkpt>
      <trkpt lat="46.66331" lon="5.60976">
        <ele>412.8</ele>
        <time>2021-10-10T13:06:17Z</time>
      </trkpt>
      <trkpt lat="46.66331" lon="5.60968">
        <ele>413</ele>
        <time>2021-10-10T13:06:22Z</time>
      </trkpt>
      <trkpt lat="46.6633" lon="5.60962">
        <ele>413.8</ele>
        <time>2021-10-10T13:06:27Z</time>
      </trkpt>
      <trkpt lat="46.66328" lon="5.60956">
        <ele>414.9</ele>
        <time>2021-10-10T13:06:31Z</time>
      </trkpt>
      <trkpt lat="46.66324" lon="5.60949">
        <ele>416.5</ele>
        <time>2021-10-10T13:06:34Z</time>
      </trkpt>
      <trkpt lat="46.66322" lon="5.60943">
        <ele>418.9</ele>
        <time>2021-10-10T13:06:37Z</time>
      </trkpt>
      <trkpt lat="46.6632" lon="5.60936">
        <ele>421.6</ele>
        <time>2021-10-10T13:06:41Z</time>
      </trkpt>
      <trkpt lat="46.66319" lon="5.6093">
        <ele>424.5</ele>
        <time>2021-10-10T13:06:46Z</time>
      </trkpt>
      <trkpt lat="46.66318" lon="5.60922">
        <ele>426.4</ele>
        <time>2021-10-10T13:06:51Z</time>
      </trkpt>
      <trkpt lat="46.66315" lon="5.60916">
        <ele>427.3</ele>
        <time>2021-10-10T13:06:56Z</time>
      </trkpt>
      <trkpt lat="46.66314" lon="5.60908">
        <ele>427.8</ele>
        <time>2021-10-10T13:07:00Z</time>
      </trkpt>
      <trkpt lat="46.66313" lon="5.60901">
        <ele>428</ele>
        <time>2021-10-10T13:07:03Z</time>
      </trkpt>
      <trkpt lat="46.66313" lon="5.60892">
        <ele>428.3</ele>
        <time>2021-10-10T13:07:07Z</time>
      </trkpt>
      <trkpt lat="46.66311" lon="5.60886">
        <ele>428.5</ele>
        <time>2021-10-10T13:07:11Z</time>
      </trkpt>
      <trkpt lat="46.66309" lon="5.60879">
        <ele>428.4</ele>
        <time>2021-10-10T13:07:16Z</time>
      </trkpt>
      <trkpt lat="46.66305" lon="5.60874">
        <ele>427.7</ele>
        <time>2021-10-10T13:07:22Z</time>
      </trkpt>
      <trkpt lat="46.66303" lon="5.60867">
        <ele>427.5</ele>
        <time>2021-10-10T13:07:27Z</time>
      </trkpt>
      <trkpt lat="46.66301" lon="5.6086">
        <ele>427.9</ele>
        <time>2021-10-10T13:07:32Z</time>
      </trkpt>
      <trkpt lat="46.66299" lon="5.60854">
        <ele>428.5</ele>
        <time>2021-10-10T13:07:36Z</time>
      </trkpt>
      <trkpt lat="46.66298" lon="5.60846">
        <ele>428.9</ele>
        <time>2021-10-10T13:07:40Z</time>
      </trkpt>
      <trkpt lat="46.66295" lon="5.6084">
        <ele>429.2</ele>
        <time>2021-10-10T13:07:46Z</time>
      </trkpt>
      <trkpt lat="46.66291" lon="5.60835">
        <ele>429.2</ele>
        <time>2021-10-10T13:07:51Z</time>
      </trkpt>
      <trkpt lat="46.6629" lon="5.60828">
        <ele>428.8</ele>
        <time>2021-10-10T13:07:55Z</time>
      </trkpt>
      <trkpt lat="46.66288" lon="5.60821">
        <ele>428.2</ele>
        <time>2021-10-10T13:08:00Z</time>
      </trkpt>
      <trkpt lat="46.66285" lon="5.60816">
        <ele>428.1</ele>
        <time>2021-10-10T13:08:06Z</time>
      </trkpt>
      <trkpt lat="46.66282" lon="5.6081">
        <ele>428</ele>
        <time>2021-10-10T13:08:11Z</time>
      </trkpt>
      <trkpt lat="46.66281" lon="5.60803">
        <ele>427.3</ele>
        <time>2021-10-10T13:08:15Z</time>
      </trkpt>
      <trkpt lat="46.66278" lon="5.60798">
        <ele>426.5</ele>
        <time>2021-10-10T13:08:19Z</time>
      </trkpt>
      <trkpt lat="46.66275" lon="5.60793">
        <ele>424.2</ele>
        <time>2021-10-10T13:08:24Z</time>
      </trkpt>
      <trkpt lat="46.66272" lon="5.60787">
        <ele>422.7</ele>
        <time>2021-10-10T13:08:28Z</time>
      </trkpt>
      <trkpt lat="46.6627" lon="5.60781">
        <ele>421.3</ele>
        <time>2021-10-10T13:08:31Z</time>
      </trkpt>
      <trkpt lat="46.66266" lon="5.60776">
        <ele>420.2</ele>
        <time>2021-10-10T13:08:35Z</time>
      </trkpt>
      <trkpt lat="46.66263" lon="5.60771">
        <ele>419.4</ele>
        <time>2021-10-10T13:08:39Z</time>
      </trkpt>
      <trkpt lat="46.66259" lon="5.60766">
        <ele>418.7</ele>
        <time>2021-10-10T13:08:43Z</time>
      </trkpt>
      <trkpt lat="46.66254" lon="5.60763">
        <ele>418.4</ele>
        <time>2021-10-10T13:08:47Z</time>
      </trkpt>
      <trkpt lat="46.6625" lon="5.60758">
        <ele>418.7</ele>
        <time>2021-10-10T13:08:51Z</time>
      </trkpt>
      <trkpt lat="46.66246" lon="5.60755">
        <ele>419.2</ele>
        <time>2021-10-10T13:08:56Z</time>
      </trkpt>
      <trkpt lat="46.66242" lon="5.6075">
        <ele>419.7</ele>
        <time>2021-10-10T13:09:02Z</time>
      </trkpt>
      <trkpt lat="46.66238" lon="5.60747">
        <ele>423</ele>
        <time>2021-10-10T13:09:05Z</time>
      </trkpt>
      <trkpt lat="46.66233" lon="5.60742">
        <ele>426.5</ele>
        <time>2021-10-10T13:09:09Z</time>
      </trkpt>
      <trkpt lat="46.6623" lon="5.60736">
        <ele>429.2</ele>
        <time>2021-10-10T13:09:14Z</time>
      </trkpt>
      <trkpt lat="46.66226" lon="5.60731">
        <ele>430.7</ele>
        <time>2021-10-10T13:09:19Z</time>
      </trkpt>
      <trkpt lat="46.66222" lon="5.60727">
        <ele>431.3</ele>
        <time>2021-10-10T13:09:24Z</time>
      </trkpt>
      <trkpt lat="46.66216" lon="5.60726">
        <ele>431.3</ele>
        <time>2021-10-10T13:09:28Z</time>
      </trkpt>
      <trkpt lat="46.66211" lon="5.60722">
        <ele>430.9</ele>
        <time>2021-10-10T13:09:32Z</time>
      </trkpt>
      <trkpt lat="46.66207" lon="5.60718">
        <ele>430.2</ele>
        <time>2021-10-10T13:09:37Z</time>
      </trkpt>
      <trkpt lat="46.66203" lon="5.60716">
        <ele>429.6</ele>
        <time>2021-10-10T13:09:40Z</time>
      </trkpt>
      <trkpt lat="46.66198" lon="5.60713">
        <ele>428.8</ele>
        <time>2021-10-10T13:09:45Z</time>
      </trkpt>
      <trkpt lat="46.66195" lon="5.60708">
        <ele>427.6</ele>
        <time>2021-10-10T13:09:50Z</time>
      </trkpt>
      <trkpt lat="46.6619" lon="5.60703">
        <ele>426.1</ele>
        <time>2021-10-10T13:09:55Z</time>
      </trkpt>
      <trkpt lat="46.66187" lon="5.60698">
        <ele>424.9</ele>
        <time>2021-10-10T13:10:00Z</time>
      </trkpt>
      <trkpt lat="46.66183" lon="5.60693">
        <ele>423.8</ele>
        <time>2021-10-10T13:10:05Z</time>
      </trkpt>
      <trkpt lat="46.66179" lon="5.60689">
        <ele>423.4</ele>
        <time>2021-10-10T13:10:11Z</time>
      </trkpt>
      <trkpt lat="46.66175" lon="5.60685">
        <ele>423.1</ele>
        <time>2021-10-10T13:10:16Z</time>
      </trkpt>
      <trkpt lat="46.66171" lon="5.60681">
        <ele>422.6</ele>
        <time>2021-10-10T13:10:20Z</time>
      </trkpt>
      <trkpt lat="46.66168" lon="5.60676">
        <ele>422.1</ele>
        <time>2021-10-10T13:10:24Z</time>
      </trkpt>
      <trkpt lat="46.66165" lon="5.6067">
        <ele>420.3</ele>
        <time>2021-10-10T13:10:30Z</time>
      </trkpt>
      <trkpt lat="46.6616" lon="5.60666">
        <ele>418.2</ele>
        <time>2021-10-10T13:10:36Z</time>
      </trkpt>
      <trkpt lat="46.66156" lon="5.60664">
        <ele>417</ele>
        <time>2021-10-10T13:10:40Z</time>
      </trkpt>
      <trkpt lat="46.66152" lon="5.60661">
        <ele>415.1</ele>
        <time>2021-10-10T13:10:44Z</time>
      </trkpt>
      <trkpt lat="46.66147" lon="5.60659">
        <ele>413.5</ele>
        <time>2021-10-10T13:10:48Z</time>
      </trkpt>
      <trkpt lat="46.66143" lon="5.60658">
        <ele>412.1</ele>
        <time>2021-10-10T13:10:51Z</time>
      </trkpt>
      <trkpt lat="46.66138" lon="5.60658">
        <ele>410.6</ele>
        <time>2021-10-10T13:10:54Z</time>
      </trkpt>
      <trkpt lat="46.66133" lon="5.60657">
        <ele>409.5</ele>
        <time>2021-10-10T13:10:57Z</time>
      </trkpt>
      <trkpt lat="46.66129" lon="5.60655">
        <ele>408.4</ele>
        <time>2021-10-10T13:11:00Z</time>
      </trkpt>
      <trkpt lat="46.66125" lon="5.6065">
        <ele>407.2</ele>
        <time>2021-10-10T13:11:04Z</time>
      </trkpt>
      <trkpt lat="46.66121" lon="5.60646">
        <ele>406.4</ele>
        <time>2021-10-10T13:11:08Z</time>
      </trkpt>
      <trkpt lat="46.66117" lon="5.60641">
        <ele>405.9</ele>
        <time>2021-10-10T13:11:14Z</time>
      </trkpt>
      <trkpt lat="46.66114" lon="5.60636">
        <ele>405.6</ele>
        <time>2021-10-10T13:11:19Z</time>
      </trkpt>
      <trkpt lat="46.66111" lon="5.60632">
        <ele>405</ele>
        <time>2021-10-10T13:11:25Z</time>
      </trkpt>
      <trkpt lat="46.66105" lon="5.60629">
        <ele>404.6</ele>
        <time>2021-10-10T13:11:30Z</time>
      </trkpt>
      <trkpt lat="46.661" lon="5.60627">
        <ele>404.7</ele>
        <time>2021-10-10T13:11:34Z</time>
      </trkpt>
      <trkpt lat="46.66095" lon="5.60627">
        <ele>405</ele>
        <time>2021-10-10T13:11:37Z</time>
      </trkpt>
      <trkpt lat="46.66089" lon="5.60626">
        <ele>404.7</ele>
        <time>2021-10-10T13:11:41Z</time>
      </trkpt>
      <trkpt lat="46.66085" lon="5.60621">
        <ele>404</ele>
        <time>2021-10-10T13:11:46Z</time>
      </trkpt>
      <trkpt lat="46.66081" lon="5.60615">
        <ele>403.8</ele>
        <time>2021-10-10T13:11:51Z</time>
      </trkpt>
      <trkpt lat="46.66077" lon="5.60611">
        <ele>403.4</ele>
        <time>2021-10-10T13:11:55Z</time>
      </trkpt>
      <trkpt lat="46.66073" lon="5.60608">
        <ele>402.6</ele>
        <time>2021-10-10T13:12:00Z</time>
      </trkpt>
      <trkpt lat="46.66069" lon="5.60606">
        <ele>402.4</ele>
        <time>2021-10-10T13:12:04Z</time>
      </trkpt>
      <trkpt lat="46.66065" lon="5.60602">
        <ele>402.8</ele>
        <time>2021-10-10T13:12:08Z</time>
      </trkpt>
      <trkpt lat="46.6606" lon="5.60599">
        <ele>403.4</ele>
        <time>2021-10-10T13:12:12Z</time>
      </trkpt>
      <trkpt lat="46.66054" lon="5.60598">
        <ele>404.6</ele>
        <time>2021-10-10T13:12:16Z</time>
      </trkpt>
      <trkpt lat="46.6605" lon="5.60598">
        <ele>405.6</ele>
        <time>2021-10-10T13:12:19Z</time>
      </trkpt>
      <trkpt lat="46.66044" lon="5.60599">
        <ele>406.7</ele>
        <time>2021-10-10T13:12:24Z</time>
      </trkpt>
      <trkpt lat="46.6604" lon="5.60596">
        <ele>408.2</ele>
        <time>2021-10-10T13:12:30Z</time>
      </trkpt>
      <trkpt lat="46.66035" lon="5.60592">
        <ele>408.9</ele>
        <time>2021-10-10T13:12:35Z</time>
      </trkpt>
      <trkpt lat="46.66031" lon="5.60589">
        <ele>409.5</ele>
        <time>2021-10-10T13:12:39Z</time>
      </trkpt>
      <trkpt lat="46.66026" lon="5.60588">
        <ele>410.1</ele>
        <time>2021-10-10T13:12:42Z</time>
      </trkpt>
      <trkpt lat="46.66022" lon="5.60586">
        <ele>410.7</ele>
        <time>2021-10-10T13:12:45Z</time>
      </trkpt>
      <trkpt lat="46.66017" lon="5.60584">
        <ele>411.4</ele>
        <time>2021-10-10T13:12:48Z</time>
      </trkpt>
      <trkpt lat="46.66012" lon="5.60579">
        <ele>412.3</ele>
        <time>2021-10-10T13:12:52Z</time>
      </trkpt>
      <trkpt lat="46.66008" lon="5.60576">
        <ele>413.4</ele>
        <time>2021-10-10T13:12:57Z</time>
      </trkpt>
      <trkpt lat="46.66004" lon="5.60571">
        <ele>414.2</ele>
        <time>2021-10-10T13:13:02Z</time>
      </trkpt>
      <trkpt lat="46.66" lon="5.60567">
        <ele>414.9</ele>
        <time>2021-10-10T13:13:06Z</time>
      </trkpt>
      <trkpt lat="46.65996" lon="5.60564">
        <ele>415</ele>
        <time>2021-10-10T13:13:10Z</time>
      </trkpt>
      <trkpt lat="46.6599" lon="5.60562">
        <ele>414.7</ele>
        <time>2021-10-10T13:13:15Z</time>
      </trkpt>
      <trkpt lat="46.65984" lon="5.60559">
        <ele>414.2</ele>
        <time>2021-10-10T13:13:19Z</time>
      </trkpt>
      <trkpt lat="46.6598" lon="5.60557">
        <ele>413.7</ele>
        <time>2021-10-10T13:13:23Z</time>
      </trkpt>
      <trkpt lat="46.65976" lon="5.60554">
        <ele>413.3</ele>
        <time>2021-10-10T13:13:27Z</time>
      </trkpt>
      <trkpt lat="46.65972" lon="5.60551">
        <ele>413.4</ele>
        <time>2021-10-10T13:13:31Z</time>
      </trkpt>
      <trkpt lat="46.65968" lon="5.60548">
        <ele>413.5</ele>
        <time>2021-10-10T13:13:35Z</time>
      </trkpt>
      <trkpt lat="46.65963" lon="5.60546">
        <ele>413.8</ele>
        <time>2021-10-10T13:13:39Z</time>
      </trkpt>
      <trkpt lat="46.65959" lon="5.60542">
        <ele>413.8</ele>
        <time>2021-10-10T13:13:44Z</time>
      </trkpt>
      <trkpt lat="46.65954" lon="5.60539">
        <ele>412.1</ele>
        <time>2021-10-10T13:13:51Z</time>
      </trkpt>
      <trkpt lat="46.65952" lon="5.60533">
        <ele>409.6</ele>
        <time>2021-10-10T13:13:57Z</time>
      </trkpt>
      <trkpt lat="46.65948" lon="5.60527">
        <ele>407</ele>
        <time>2021-10-10T13:14:08Z</time>
      </trkpt>
      <trkpt lat="46.65945" lon="5.60523">
        <ele>405.8</ele>
        <time>2021-10-10T13:14:14Z</time>
      </trkpt>
      <trkpt lat="46.6594" lon="5.6052">
        <ele>404.3</ele>
        <time>2021-10-10T13:14:21Z</time>
      </trkpt>
      <trkpt lat="46.65936" lon="5.60516">
        <ele>404.2</ele>
        <time>2021-10-10T13:14:25Z</time>
      </trkpt>
      <trkpt lat="46.65932" lon="5.60511">
        <ele>404.4</ele>
        <time>2021-10-10T13:14:29Z</time>
      </trkpt>
      <trkpt lat="46.65927" lon="5.60509">
        <ele>405</ele>
        <time>2021-10-10T13:14:33Z</time>
      </trkpt>
      <trkpt lat="46.65922" lon="5.60507">
        <ele>405.7</ele>
        <time>2021-10-10T13:14:37Z</time>
      </trkpt>
      <trkpt lat="46.65918" lon="5.60504">
        <ele>406.6</ele>
        <time>2021-10-10T13:14:41Z</time>
      </trkpt>
      <trkpt lat="46.65914" lon="5.60499">
        <ele>407.8</ele>
        <time>2021-10-10T13:14:46Z</time>
      </trkpt>
      <trkpt lat="46.6591" lon="5.60494">
        <ele>408.5</ele>
        <time>2021-10-10T13:14:50Z</time>
      </trkpt>
      <trkpt lat="46.65906" lon="5.6049">
        <ele>409.2</ele>
        <time>2021-10-10T13:14:54Z</time>
      </trkpt>
      <trkpt lat="46.65903" lon="5.60486">
        <ele>409.6</ele>
        <time>2021-10-10T13:14:58Z</time>
      </trkpt>
      <trkpt lat="46.65899" lon="5.60481">
        <ele>409.9</ele>
        <time>2021-10-10T13:15:02Z</time>
      </trkpt>
      <trkpt lat="46.65896" lon="5.60475">
        <ele>410.2</ele>
        <time>2021-10-10T13:15:07Z</time>
      </trkpt>
      <trkpt lat="46.65892" lon="5.60469">
        <ele>410.9</ele>
        <time>2021-10-10T13:15:12Z</time>
      </trkpt>
      <trkpt lat="46.65888" lon="5.60465">
        <ele>411.6</ele>
        <time>2021-10-10T13:15:17Z</time>
      </trkpt>
      <trkpt lat="46.65883" lon="5.60461">
        <ele>412.1</ele>
        <time>2021-10-10T13:15:22Z</time>
      </trkpt>
      <trkpt lat="46.65879" lon="5.60457">
        <ele>412.3</ele>
        <time>2021-10-10T13:15:26Z</time>
      </trkpt>
      <trkpt lat="46.65876" lon="5.60452">
        <ele>412.3</ele>
        <time>2021-10-10T13:15:30Z</time>
      </trkpt>
      <trkpt lat="46.65872" lon="5.60448">
        <ele>411.7</ele>
        <time>2021-10-10T13:15:34Z</time>
      </trkpt>
      <trkpt lat="46.65868" lon="5.60445">
        <ele>409.9</ele>
        <time>2021-10-10T13:15:40Z</time>
      </trkpt>
      <trkpt lat="46.65863" lon="5.60442">
        <ele>405.9</ele>
        <time>2021-10-10T13:15:59Z</time>
      </trkpt>
      <trkpt lat="46.65858" lon="5.60439">
        <ele>404.8</ele>
        <time>2021-10-10T13:16:05Z</time>
      </trkpt>
      <trkpt lat="46.65853" lon="5.60435">
        <ele>404.2</ele>
        <time>2021-10-10T13:16:09Z</time>
      </trkpt>
      <trkpt lat="46.6585" lon="5.6043">
        <ele>399.3</ele>
        <time>2021-10-10T13:16:29Z</time>
      </trkpt>
      <trkpt lat="46.65847" lon="5.60424">
        <ele>399.3</ele>
        <time>2021-10-10T13:16:33Z</time>
      </trkpt>
      <trkpt lat="46.65843" lon="5.60418">
        <ele>399.9</ele>
        <time>2021-10-10T13:16:38Z</time>
      </trkpt>
      <trkpt lat="46.65839" lon="5.60414">
        <ele>400.6</ele>
        <time>2021-10-10T13:16:45Z</time>
      </trkpt>
      <trkpt lat="46.65837" lon="5.60408">
        <ele>400.5</ele>
        <time>2021-10-10T13:16:49Z</time>
      </trkpt>
      <trkpt lat="46.65835" lon="5.60402">
        <ele>400</ele>
        <time>2021-10-10T13:16:53Z</time>
      </trkpt>
      <trkpt lat="46.65833" lon="5.60396">
        <ele>399.5</ele>
        <time>2021-10-10T13:16:58Z</time>
      </trkpt>
      <trkpt lat="46.6583" lon="5.60391">
        <ele>399.9</ele>
        <time>2021-10-10T13:17:03Z</time>
      </trkpt>
      <trkpt lat="46.65827" lon="5.60385">
        <ele>400.1</ele>
        <time>2021-10-10T13:17:08Z</time>
      </trkpt>
      <trkpt lat="46.65825" lon="5.60378">
        <ele>400.1</ele>
        <time>2021-10-10T13:17:14Z</time>
      </trkpt>
      <trkpt lat="46.65823" lon="5.60372">
        <ele>401.3</ele>
        <time>2021-10-10T13:17:25Z</time>
      </trkpt>
      <trkpt lat="46.65822" lon="5.60366">
        <ele>401.9</ele>
        <time>2021-10-10T13:17:31Z</time>
      </trkpt>
      <trkpt lat="46.65822" lon="5.60359">
        <ele>401.8</ele>
        <time>2021-10-10T13:17:36Z</time>
      </trkpt>
      <trkpt lat="46.65822" lon="5.60352">
        <ele>401.9</ele>
        <time>2021-10-10T13:17:41Z</time>
      </trkpt>
      <trkpt lat="46.65821" lon="5.60345">
        <ele>402.1</ele>
        <time>2021-10-10T13:17:45Z</time>
      </trkpt>
      <trkpt lat="46.6582" lon="5.60339">
        <ele>402.5</ele>
        <time>2021-10-10T13:17:50Z</time>
      </trkpt>
      <trkpt lat="46.6582" lon="5.60331">
        <ele>402.5</ele>
        <time>2021-10-10T13:17:55Z</time>
      </trkpt>
      <trkpt lat="46.65819" lon="5.60324">
        <ele>402.2</ele>
        <time>2021-10-10T13:18:00Z</time>
      </trkpt>
      <trkpt lat="46.65819" lon="5.60318">
        <ele>402.1</ele>
        <time>2021-10-10T13:18:09Z</time>
      </trkpt>
      <trkpt lat="46.65821" lon="5.60312">
        <ele>402.2</ele>
        <time>2021-10-10T13:18:15Z</time>
      </trkpt>
      <trkpt lat="46.65819" lon="5.60304">
        <ele>402.3</ele>
        <time>2021-10-10T13:18:20Z</time>
      </trkpt>
      <trkpt lat="46.65818" lon="5.60296">
        <ele>402.7</ele>
        <time>2021-10-10T13:18:24Z</time>
      </trkpt>
      <trkpt lat="46.65817" lon="5.6029">
        <ele>403</ele>
        <time>2021-10-10T13:18:27Z</time>
      </trkpt>
      <trkpt lat="46.65816" lon="5.60282">
        <ele>403</ele>
        <time>2021-10-10T13:18:31Z</time>
      </trkpt>
      <trkpt lat="46.65815" lon="5.60275">
        <ele>403.2</ele>
        <time>2021-10-10T13:18:35Z</time>
      </trkpt>
      <trkpt lat="46.65816" lon="5.60268">
        <ele>403.7</ele>
        <time>2021-10-10T13:18:40Z</time>
      </trkpt>
      <trkpt lat="46.65817" lon="5.60262">
        <ele>403.4</ele>
        <time>2021-10-10T13:18:44Z</time>
      </trkpt>
      <trkpt lat="46.65818" lon="5.60255">
        <ele>402.5</ele>
        <time>2021-10-10T13:18:49Z</time>
      </trkpt>
      <trkpt lat="46.65822" lon="5.60252">
        <ele>401.4</ele>
        <time>2021-10-10T13:18:57Z</time>
      </trkpt>
      <trkpt lat="46.65825" lon="5.60257">
        <ele>401</ele>
        <time>2021-10-10T13:19:03Z</time>
      </trkpt>
      <trkpt lat="46.65824" lon="5.60265">
        <ele>405.5</ele>
        <time>2021-10-10T13:19:45Z</time>
      </trkpt>
      <trkpt lat="46.65827" lon="5.60259">
        <ele>410.1</ele>
        <time>2021-10-10T13:20:10Z</time>
      </trkpt>
      <trkpt lat="46.65826" lon="5.60252">
        <ele>409.5</ele>
        <time>2021-10-10T13:20:15Z</time>
      </trkpt>
      <trkpt lat="46.65825" lon="5.60244">
        <ele>408.7</ele>
        <time>2021-10-10T13:20:20Z</time>
      </trkpt>
      <trkpt lat="46.65825" lon="5.60237">
        <ele>408</ele>
        <time>2021-10-10T13:20:24Z</time>
      </trkpt>
      <trkpt lat="46.65824" lon="5.60229">
        <ele>407.3</ele>
        <time>2021-10-10T13:20:28Z</time>
      </trkpt>
      <trkpt lat="46.65824" lon="5.60222">
        <ele>406.8</ele>
        <time>2021-10-10T13:20:31Z</time>
      </trkpt>
      <trkpt lat="46.65825" lon="5.60215">
        <ele>405.8</ele>
        <time>2021-10-10T13:20:35Z</time>
      </trkpt>
      <trkpt lat="46.65827" lon="5.60207">
        <ele>404.5</ele>
        <time>2021-10-10T13:20:40Z</time>
      </trkpt>
      <trkpt lat="46.65828" lon="5.60199">
        <ele>403.6</ele>
        <time>2021-10-10T13:20:45Z</time>
      </trkpt>
      <trkpt lat="46.65827" lon="5.60192">
        <ele>403.7</ele>
        <time>2021-10-10T13:20:50Z</time>
      </trkpt>
      <trkpt lat="46.65828" lon="5.60185">
        <ele>404.1</ele>
        <time>2021-10-10T13:20:55Z</time>
      </trkpt>
      <trkpt lat="46.65829" lon="5.60178">
        <ele>404.4</ele>
        <time>2021-10-10T13:21:00Z</time>
      </trkpt>
      <trkpt lat="46.65831" lon="5.6017">
        <ele>404.4</ele>
        <time>2021-10-10T13:21:04Z</time>
      </trkpt>
      <trkpt lat="46.65833" lon="5.60163">
        <ele>403.8</ele>
        <time>2021-10-10T13:21:09Z</time>
      </trkpt>
      <trkpt lat="46.65835" lon="5.60156">
        <ele>403.8</ele>
        <time>2021-10-10T13:21:15Z</time>
      </trkpt>
      <trkpt lat="46.65835" lon="5.60148">
        <ele>403.6</ele>
        <time>2021-10-10T13:21:19Z</time>
      </trkpt>
      <trkpt lat="46.65837" lon="5.60143">
        <ele>403.2</ele>
        <time>2021-10-10T13:21:23Z</time>
      </trkpt>
      <trkpt lat="46.65839" lon="5.60136">
        <ele>402.4</ele>
        <time>2021-10-10T13:21:28Z</time>
      </trkpt>
      <trkpt lat="46.65839" lon="5.60128">
        <ele>401.9</ele>
        <time>2021-10-10T13:21:32Z</time>
      </trkpt>
      <trkpt lat="46.65842" lon="5.60122">
        <ele>401.8</ele>
        <time>2021-10-10T13:21:37Z</time>
      </trkpt>
      <trkpt lat="46.65843" lon="5.60115">
        <ele>402.1</ele>
        <time>2021-10-10T13:21:42Z</time>
      </trkpt>
      <trkpt lat="46.65844" lon="5.60107">
        <ele>402.3</ele>
        <time>2021-10-10T13:21:47Z</time>
      </trkpt>
      <trkpt lat="46.65846" lon="5.601">
        <ele>402.4</ele>
        <time>2021-10-10T13:21:52Z</time>
      </trkpt>
      <trkpt lat="46.6585" lon="5.60095">
        <ele>402.4</ele>
        <time>2021-10-10T13:21:56Z</time>
      </trkpt>
      <trkpt lat="46.65852" lon="5.60089">
        <ele>402.4</ele>
        <time>2021-10-10T13:22:00Z</time>
      </trkpt>
      <trkpt lat="46.65854" lon="5.60081">
        <ele>402.5</ele>
        <time>2021-10-10T13:22:05Z</time>
      </trkpt>
      <trkpt lat="46.65855" lon="5.60075">
        <ele>402.8</ele>
        <time>2021-10-10T13:22:09Z</time>
      </trkpt>
      <trkpt lat="46.65859" lon="5.60069">
        <ele>403</ele>
        <time>2021-10-10T13:22:13Z</time>
      </trkpt>
      <trkpt lat="46.6586" lon="5.60063">
        <ele>404.2</ele>
        <time>2021-10-10T13:22:20Z</time>
      </trkpt>
      <trkpt lat="46.65862" lon="5.60057">
        <ele>404.5</ele>
        <time>2021-10-10T13:22:24Z</time>
      </trkpt>
      <trkpt lat="46.65866" lon="5.60052">
        <ele>404.9</ele>
        <time>2021-10-10T13:22:28Z</time>
      </trkpt>
      <trkpt lat="46.65869" lon="5.60047">
        <ele>405.5</ele>
        <time>2021-10-10T13:22:32Z</time>
      </trkpt>
      <trkpt lat="46.65872" lon="5.60042">
        <ele>406.2</ele>
        <time>2021-10-10T13:22:37Z</time>
      </trkpt>
      <trkpt lat="46.65875" lon="5.60036">
        <ele>406.1</ele>
        <time>2021-10-10T13:22:41Z</time>
      </trkpt>
      <trkpt lat="46.65877" lon="5.60029">
        <ele>405.5</ele>
        <time>2021-10-10T13:22:45Z</time>
      </trkpt>
      <trkpt lat="46.65881" lon="5.60025">
        <ele>404.9</ele>
        <time>2021-10-10T13:22:49Z</time>
      </trkpt>
      <trkpt lat="46.65885" lon="5.6002">
        <ele>403.9</ele>
        <time>2021-10-10T13:22:55Z</time>
      </trkpt>
      <trkpt lat="46.65888" lon="5.60015">
        <ele>403.2</ele>
        <time>2021-10-10T13:22:59Z</time>
      </trkpt>
      <trkpt lat="46.6589" lon="5.60008">
        <ele>403.1</ele>
        <time>2021-10-10T13:23:02Z</time>
      </trkpt>
      <trkpt lat="46.65893" lon="5.60001">
        <ele>403.6</ele>
        <time>2021-10-10T13:23:06Z</time>
      </trkpt>
      <trkpt lat="46.65896" lon="5.59996">
        <ele>404.3</ele>
        <time>2021-10-10T13:23:10Z</time>
      </trkpt>
      <trkpt lat="46.65898" lon="5.5999">
        <ele>405.6</ele>
        <time>2021-10-10T13:23:14Z</time>
      </trkpt>
      <trkpt lat="46.65902" lon="5.59985">
        <ele>407.2</ele>
        <time>2021-10-10T13:23:19Z</time>
      </trkpt>
      <trkpt lat="46.65906" lon="5.5998">
        <ele>408.3</ele>
        <time>2021-10-10T13:23:24Z</time>
      </trkpt>
      <trkpt lat="46.6591" lon="5.59975">
        <ele>408.9</ele>
        <time>2021-10-10T13:23:28Z</time>
      </trkpt>
      <trkpt lat="46.65914" lon="5.59972">
        <ele>408.8</ele>
        <time>2021-10-10T13:23:32Z</time>
      </trkpt>
      <trkpt lat="46.65918" lon="5.59967">
        <ele>408.5</ele>
        <time>2021-10-10T13:23:37Z</time>
      </trkpt>
      <trkpt lat="46.65921" lon="5.59962">
        <ele>408.4</ele>
        <time>2021-10-10T13:23:41Z</time>
      </trkpt>
      <trkpt lat="46.65926" lon="5.59959">
        <ele>408.7</ele>
        <time>2021-10-10T13:23:46Z</time>
      </trkpt>
      <trkpt lat="46.65931" lon="5.59958">
        <ele>408.2</ele>
        <time>2021-10-10T13:23:50Z</time>
      </trkpt>
      <trkpt lat="46.65936" lon="5.59954">
        <ele>407.4</ele>
        <time>2021-10-10T13:23:55Z</time>
      </trkpt>
      <trkpt lat="46.65941" lon="5.59951">
        <ele>406.3</ele>
        <time>2021-10-10T13:24:00Z</time>
      </trkpt>
      <trkpt lat="46.65946" lon="5.59948">
        <ele>405.6</ele>
        <time>2021-10-10T13:24:05Z</time>
      </trkpt>
      <trkpt lat="46.6595" lon="5.59945">
        <ele>405.3</ele>
        <time>2021-10-10T13:24:09Z</time>
      </trkpt>
      <trkpt lat="46.65954" lon="5.59941">
        <ele>405.1</ele>
        <time>2021-10-10T13:24:14Z</time>
      </trkpt>
      <trkpt lat="46.65957" lon="5.59936">
        <ele>405.1</ele>
        <time>2021-10-10T13:24:19Z</time>
      </trkpt>
      <trkpt lat="46.65961" lon="5.59932">
        <ele>405.5</ele>
        <time>2021-10-10T13:24:24Z</time>
      </trkpt>
      <trkpt lat="46.65964" lon="5.59928">
        <ele>406</ele>
        <time>2021-10-10T13:24:28Z</time>
      </trkpt>
      <trkpt lat="46.6597" lon="5.59926">
        <ele>406.2</ele>
        <time>2021-10-10T13:24:32Z</time>
      </trkpt>
      <trkpt lat="46.65976" lon="5.59926">
        <ele>406.4</ele>
        <time>2021-10-10T13:24:36Z</time>
      </trkpt>
      <trkpt lat="46.65981" lon="5.59926">
        <ele>406.3</ele>
        <time>2021-10-10T13:24:39Z</time>
      </trkpt>
      <trkpt lat="46.65985" lon="5.59923">
        <ele>406.2</ele>
        <time>2021-10-10T13:24:44Z</time>
      </trkpt>
      <trkpt lat="46.65989" lon="5.5992">
        <ele>405.7</ele>
        <time>2021-10-10T13:24:48Z</time>
      </trkpt>
      <trkpt lat="46.65992" lon="5.59915">
        <ele>405.1</ele>
        <time>2021-10-10T13:24:53Z</time>
      </trkpt>
      <trkpt lat="46.65996" lon="5.5991">
        <ele>404.5</ele>
        <time>2021-10-10T13:25:01Z</time>
      </trkpt>
      <trkpt lat="46.66" lon="5.59908">
        <ele>404</ele>
        <time>2021-10-10T13:25:04Z</time>
      </trkpt>
      <trkpt lat="46.66004" lon="5.59907">
        <ele>403.6</ele>
        <time>2021-10-10T13:25:07Z</time>
      </trkpt>
      <trkpt lat="46.66009" lon="5.59904">
        <ele>403.2</ele>
        <time>2021-10-10T13:25:11Z</time>
      </trkpt>
      <trkpt lat="46.66014" lon="5.59901">
        <ele>402.8</ele>
        <time>2021-10-10T13:25:15Z</time>
      </trkpt>
      <trkpt lat="46.66018" lon="5.59899">
        <ele>402.1</ele>
        <time>2021-10-10T13:25:20Z</time>
      </trkpt>
      <trkpt lat="46.66022" lon="5.59896">
        <ele>401.3</ele>
        <time>2021-10-10T13:25:24Z</time>
      </trkpt>
      <trkpt lat="46.66027" lon="5.59891">
        <ele>400.9</ele>
        <time>2021-10-10T13:25:28Z</time>
      </trkpt>
      <trkpt lat="46.66031" lon="5.59887">
        <ele>400.7</ele>
        <time>2021-10-10T13:25:31Z</time>
      </trkpt>
      <trkpt lat="46.66036" lon="5.59884">
        <ele>400.6</ele>
        <time>2021-10-10T13:25:36Z</time>
      </trkpt>
      <trkpt lat="46.6604" lon="5.59881">
        <ele>400.4</ele>
        <time>2021-10-10T13:25:41Z</time>
      </trkpt>
      <trkpt lat="46.66045" lon="5.59878">
        <ele>399.7</ele>
        <time>2021-10-10T13:25:46Z</time>
      </trkpt>
      <trkpt lat="46.66051" lon="5.59878">
        <ele>398.2</ele>
        <time>2021-10-10T13:25:51Z</time>
      </trkpt>
      <trkpt lat="46.66055" lon="5.59878">
        <ele>397.1</ele>
        <time>2021-10-10T13:25:55Z</time>
      </trkpt>
      <trkpt lat="46.6606" lon="5.59877">
        <ele>395.7</ele>
        <time>2021-10-10T13:25:59Z</time>
      </trkpt>
      <trkpt lat="46.66065" lon="5.59874">
        <ele>394.4</ele>
        <time>2021-10-10T13:26:03Z</time>
      </trkpt>
      <trkpt lat="46.66069" lon="5.59869">
        <ele>393.6</ele>
        <time>2021-10-10T13:26:08Z</time>
      </trkpt>
      <trkpt lat="46.66075" lon="5.59868">
        <ele>393.5</ele>
        <time>2021-10-10T13:26:13Z</time>
      </trkpt>
      <trkpt lat="46.6608" lon="5.59866">
        <ele>394</ele>
        <time>2021-10-10T13:26:17Z</time>
      </trkpt>
      <trkpt lat="46.66085" lon="5.59863">
        <ele>394.6</ele>
        <time>2021-10-10T13:26:21Z</time>
      </trkpt>
      <trkpt lat="46.66089" lon="5.59862">
        <ele>395</ele>
        <time>2021-10-10T13:26:27Z</time>
      </trkpt>
      <trkpt lat="46.66094" lon="5.59857">
        <ele>395</ele>
        <time>2021-10-10T13:26:34Z</time>
      </trkpt>
      <trkpt lat="46.66097" lon="5.59852">
        <ele>394.8</ele>
        <time>2021-10-10T13:26:39Z</time>
      </trkpt>
      <trkpt lat="46.66102" lon="5.59853">
        <ele>394</ele>
        <time>2021-10-10T13:27:01Z</time>
      </trkpt>
      <trkpt lat="46.66107" lon="5.59855">
        <ele>393.7</ele>
        <time>2021-10-10T13:27:06Z</time>
      </trkpt>
      <trkpt lat="46.66113" lon="5.59855">
        <ele>393.3</ele>
        <time>2021-10-10T13:27:10Z</time>
      </trkpt>
      <trkpt lat="46.66118" lon="5.59853">
        <ele>392.9</ele>
        <time>2021-10-10T13:27:14Z</time>
      </trkpt>
      <trkpt lat="46.66123" lon="5.59852">
        <ele>392.7</ele>
        <time>2021-10-10T13:27:19Z</time>
      </trkpt>
      <trkpt lat="46.66129" lon="5.59852">
        <ele>392.4</ele>
        <time>2021-10-10T13:27:24Z</time>
      </trkpt>
      <trkpt lat="46.66133" lon="5.5985">
        <ele>391.6</ele>
        <time>2021-10-10T13:27:29Z</time>
      </trkpt>
      <trkpt lat="46.66138" lon="5.59848">
        <ele>391.4</ele>
        <time>2021-10-10T13:27:33Z</time>
      </trkpt>
      <trkpt lat="46.66143" lon="5.59848">
        <ele>390.8</ele>
        <time>2021-10-10T13:27:39Z</time>
      </trkpt>
      <trkpt lat="46.66148" lon="5.59846">
        <ele>389.9</ele>
        <time>2021-10-10T13:27:45Z</time>
      </trkpt>
      <trkpt lat="46.66152" lon="5.59845">
        <ele>389.5</ele>
        <time>2021-10-10T13:27:49Z</time>
      </trkpt>
      <trkpt lat="46.66158" lon="5.59845">
        <ele>388.9</ele>
        <time>2021-10-10T13:27:54Z</time>
      </trkpt>
      <trkpt lat="46.66162" lon="5.59848">
        <ele>388.5</ele>
        <time>2021-10-10T13:27:58Z</time>
      </trkpt>
      <trkpt lat="46.66168" lon="5.5985">
        <ele>388.1</ele>
        <time>2021-10-10T13:28:02Z</time>
      </trkpt>
      <trkpt lat="46.66173" lon="5.5985">
        <ele>387.1</ele>
        <time>2021-10-10T13:28:06Z</time>
      </trkpt>
      <trkpt lat="46.66178" lon="5.59852">
        <ele>386</ele>
        <time>2021-10-10T13:28:11Z</time>
      </trkpt>
      <trkpt lat="46.66182" lon="5.59852">
        <ele>385.5</ele>
        <time>2021-10-10T13:28:16Z</time>
      </trkpt>
      <trkpt lat="46.66187" lon="5.5985">
        <ele>385.2</ele>
        <time>2021-10-10T13:28:21Z</time>
      </trkpt>
      <trkpt lat="46.66192" lon="5.59846">
        <ele>385.1</ele>
        <time>2021-10-10T13:28:26Z</time>
      </trkpt>
      <trkpt lat="46.66197" lon="5.59844">
        <ele>385.1</ele>
        <time>2021-10-10T13:28:31Z</time>
      </trkpt>
      <trkpt lat="46.66201" lon="5.5984">
        <ele>385.5</ele>
        <time>2021-10-10T13:28:36Z</time>
      </trkpt>
      <trkpt lat="46.66204" lon="5.59835">
        <ele>386.2</ele>
        <time>2021-10-10T13:28:43Z</time>
      </trkpt>
      <trkpt lat="46.66209" lon="5.59834">
        <ele>386.6</ele>
        <time>2021-10-10T13:29:07Z</time>
      </trkpt>
      <trkpt lat="46.66213" lon="5.59836">
        <ele>387</ele>
        <time>2021-10-10T13:29:11Z</time>
      </trkpt>
      <trkpt lat="46.66219" lon="5.59836">
        <ele>387.6</ele>
        <time>2021-10-10T13:29:16Z</time>
      </trkpt>
      <trkpt lat="46.66223" lon="5.59833">
        <ele>388.4</ele>
        <time>2021-10-10T13:29:20Z</time>
      </trkpt>
      <trkpt lat="46.66228" lon="5.5983">
        <ele>389.1</ele>
        <time>2021-10-10T13:29:24Z</time>
      </trkpt>
      <trkpt lat="46.66232" lon="5.59826">
        <ele>389.6</ele>
        <time>2021-10-10T13:29:28Z</time>
      </trkpt>
      <trkpt lat="46.66236" lon="5.59825">
        <ele>390</ele>
        <time>2021-10-10T13:29:33Z</time>
      </trkpt>
      <trkpt lat="46.66241" lon="5.59827">
        <ele>390.1</ele>
        <time>2021-10-10T13:29:38Z</time>
      </trkpt>
      <trkpt lat="46.66246" lon="5.59826">
        <ele>390.1</ele>
        <time>2021-10-10T13:29:42Z</time>
      </trkpt>
      <trkpt lat="46.66251" lon="5.59822">
        <ele>390</ele>
        <time>2021-10-10T13:29:47Z</time>
      </trkpt>
      <trkpt lat="46.66256" lon="5.5982">
        <ele>389.9</ele>
        <time>2021-10-10T13:29:52Z</time>
      </trkpt>
      <trkpt lat="46.6626" lon="5.59818">
        <ele>390.3</ele>
        <time>2021-10-10T13:29:56Z</time>
      </trkpt>
      <trkpt lat="46.66264" lon="5.59816">
        <ele>389.5</ele>
        <time>2021-10-10T13:30:03Z</time>
      </trkpt>
      <trkpt lat="46.66269" lon="5.59817">
        <ele>389.3</ele>
        <time>2021-10-10T13:30:09Z</time>
      </trkpt>
      <trkpt lat="46.66275" lon="5.59817">
        <ele>389.2</ele>
        <time>2021-10-10T13:30:14Z</time>
      </trkpt>
      <trkpt lat="46.6628" lon="5.59817">
        <ele>389.1</ele>
        <time>2021-10-10T13:30:19Z</time>
      </trkpt>
      <trkpt lat="46.66285" lon="5.59815">
        <ele>388.7</ele>
        <time>2021-10-10T13:30:24Z</time>
      </trkpt>
      <trkpt lat="46.66289" lon="5.59811">
        <ele>388.4</ele>
        <time>2021-10-10T13:30:29Z</time>
      </trkpt>
      <trkpt lat="46.66293" lon="5.59807">
        <ele>388.6</ele>
        <time>2021-10-10T13:30:33Z</time>
      </trkpt>
      <trkpt lat="46.66298" lon="5.59807">
        <ele>388.7</ele>
        <time>2021-10-10T13:30:38Z</time>
      </trkpt>
      <trkpt lat="46.66303" lon="5.59804">
        <ele>388.7</ele>
        <time>2021-10-10T13:30:43Z</time>
      </trkpt>
      <trkpt lat="46.66308" lon="5.59803">
        <ele>388.4</ele>
        <time>2021-10-10T13:30:47Z</time>
      </trkpt>
      <trkpt lat="46.66313" lon="5.59801">
        <ele>388.1</ele>
        <time>2021-10-10T13:30:52Z</time>
      </trkpt>
      <trkpt lat="46.66318" lon="5.59798">
        <ele>387.9</ele>
        <time>2021-10-10T13:30:57Z</time>
      </trkpt>
      <trkpt lat="46.66322" lon="5.59794">
        <ele>387.7</ele>
        <time>2021-10-10T13:31:02Z</time>
      </trkpt>
      <trkpt lat="46.66327" lon="5.59791">
        <ele>387.5</ele>
        <time>2021-10-10T13:31:06Z</time>
      </trkpt>
      <trkpt lat="46.66331" lon="5.59788">
        <ele>387.4</ele>
        <time>2021-10-10T13:31:10Z</time>
      </trkpt>
      <trkpt lat="46.66336" lon="5.59786">
        <ele>387.7</ele>
        <time>2021-10-10T13:31:15Z</time>
      </trkpt>
      <trkpt lat="46.6634" lon="5.59784">
        <ele>388.2</ele>
        <time>2021-10-10T13:31:19Z</time>
      </trkpt>
      <trkpt lat="46.66345" lon="5.59785">
        <ele>388.1</ele>
        <time>2021-10-10T13:31:41Z</time>
      </trkpt>
      <trkpt lat="46.6635" lon="5.59786">
        <ele>388.3</ele>
        <time>2021-10-10T13:31:48Z</time>
      </trkpt>
      <trkpt lat="46.66354" lon="5.59785">
        <ele>388.4</ele>
        <time>2021-10-10T13:31:53Z</time>
      </trkpt>
      <trkpt lat="46.66359" lon="5.59781">
        <ele>388.9</ele>
        <time>2021-10-10T13:31:58Z</time>
      </trkpt>
      <trkpt lat="46.66364" lon="5.59776">
        <ele>389.2</ele>
        <time>2021-10-10T13:32:02Z</time>
      </trkpt>
      <trkpt lat="46.66367" lon="5.59771">
        <ele>389.8</ele>
        <time>2021-10-10T13:32:06Z</time>
      </trkpt>
      <trkpt lat="46.6637" lon="5.59765">
        <ele>390.4</ele>
        <time>2021-10-10T13:32:10Z</time>
      </trkpt>
      <trkpt lat="46.66375" lon="5.59761">
        <ele>390.6</ele>
        <time>2021-10-10T13:32:14Z</time>
      </trkpt>
      <trkpt lat="46.6638" lon="5.59759">
        <ele>390.7</ele>
        <time>2021-10-10T13:32:18Z</time>
      </trkpt>
      <trkpt lat="46.66384" lon="5.59756">
        <ele>391.2</ele>
        <time>2021-10-10T13:32:24Z</time>
      </trkpt>
      <trkpt lat="46.66389" lon="5.59756">
        <ele>391.2</ele>
        <time>2021-10-10T13:32:29Z</time>
      </trkpt>
      <trkpt lat="46.66394" lon="5.59752">
        <ele>390.5</ele>
        <time>2021-10-10T13:32:34Z</time>
      </trkpt>
      <trkpt lat="46.66397" lon="5.59746">
        <ele>389.7</ele>
        <time>2021-10-10T13:32:38Z</time>
      </trkpt>
      <trkpt lat="46.66399" lon="5.5974">
        <ele>389.3</ele>
        <time>2021-10-10T13:32:42Z</time>
      </trkpt>
      <trkpt lat="46.66403" lon="5.59735">
        <ele>388.9</ele>
        <time>2021-10-10T13:32:47Z</time>
      </trkpt>
      <trkpt lat="46.66408" lon="5.59731">
        <ele>388.8</ele>
        <time>2021-10-10T13:32:52Z</time>
      </trkpt>
      <trkpt lat="46.66411" lon="5.59727">
        <ele>388.8</ele>
        <time>2021-10-10T13:32:56Z</time>
      </trkpt>
      <trkpt lat="46.66415" lon="5.59723">
        <ele>388.5</ele>
        <time>2021-10-10T13:33:00Z</time>
      </trkpt>
      <trkpt lat="46.6642" lon="5.59719">
        <ele>388.1</ele>
        <time>2021-10-10T13:33:05Z</time>
      </trkpt>
      <trkpt lat="46.66424" lon="5.59714">
        <ele>387.5</ele>
        <time>2021-10-10T13:33:09Z</time>
      </trkpt>
      <trkpt lat="46.66427" lon="5.59708">
        <ele>386.6</ele>
        <time>2021-10-10T13:33:13Z</time>
      </trkpt>
      <trkpt lat="46.66431" lon="5.59703">
        <ele>385.9</ele>
        <time>2021-10-10T13:33:18Z</time>
      </trkpt>
      <trkpt lat="46.66434" lon="5.59698">
        <ele>385.7</ele>
        <time>2021-10-10T13:33:22Z</time>
      </trkpt>
      <trkpt lat="46.66438" lon="5.59693">
        <ele>385.9</ele>
        <time>2021-10-10T13:33:26Z</time>
      </trkpt>
      <trkpt lat="46.66442" lon="5.5969">
        <ele>385.9</ele>
        <time>2021-10-10T13:33:30Z</time>
      </trkpt>
      <trkpt lat="46.66446" lon="5.59686">
        <ele>385.9</ele>
        <time>2021-10-10T13:33:34Z</time>
      </trkpt>
      <trkpt lat="46.66449" lon="5.59681">
        <ele>385.7</ele>
        <time>2021-10-10T13:33:38Z</time>
      </trkpt>
      <trkpt lat="46.66452" lon="5.59676">
        <ele>385.5</ele>
        <time>2021-10-10T13:33:42Z</time>
      </trkpt>
      <trkpt lat="46.66456" lon="5.59671">
        <ele>385.2</ele>
        <time>2021-10-10T13:33:46Z</time>
      </trkpt>
      <trkpt lat="46.66459" lon="5.59666">
        <ele>384.2</ele>
        <time>2021-10-10T13:33:51Z</time>
      </trkpt>
      <trkpt lat="46.66463" lon="5.59661">
        <ele>383.2</ele>
        <time>2021-10-10T13:33:57Z</time>
      </trkpt>
      <trkpt lat="46.66466" lon="5.59656">
        <ele>383.1</ele>
        <time>2021-10-10T13:34:02Z</time>
      </trkpt>
      <trkpt lat="46.66469" lon="5.5965">
        <ele>383.4</ele>
        <time>2021-10-10T13:34:07Z</time>
      </trkpt>
      <trkpt lat="46.66472" lon="5.59644">
        <ele>383.9</ele>
        <time>2021-10-10T13:34:11Z</time>
      </trkpt>
      <trkpt lat="46.66473" lon="5.59636">
        <ele>384.6</ele>
        <time>2021-10-10T13:34:15Z</time>
      </trkpt>
      <trkpt lat="46.66476" lon="5.59629">
        <ele>385.1</ele>
        <time>2021-10-10T13:34:20Z</time>
      </trkpt>
      <trkpt lat="46.66479" lon="5.59623">
        <ele>385.1</ele>
        <time>2021-10-10T13:34:25Z</time>
      </trkpt>
      <trkpt lat="46.66483" lon="5.59619">
        <ele>385.2</ele>
        <time>2021-10-10T13:34:29Z</time>
      </trkpt>
      <trkpt lat="46.66486" lon="5.59613">
        <ele>384.9</ele>
        <time>2021-10-10T13:34:34Z</time>
      </trkpt>
      <trkpt lat="46.66488" lon="5.59607">
        <ele>384.2</ele>
        <time>2021-10-10T13:34:38Z</time>
      </trkpt>
      <trkpt lat="46.66491" lon="5.596">
        <ele>383.8</ele>
        <time>2021-10-10T13:34:42Z</time>
      </trkpt>
      <trkpt lat="46.66493" lon="5.59592">
        <ele>383.3</ele>
        <time>2021-10-10T13:34:46Z</time>
      </trkpt>
      <trkpt lat="46.66494" lon="5.59584">
        <ele>382.9</ele>
        <time>2021-10-10T13:34:50Z</time>
      </trkpt>
      <trkpt lat="46.66496" lon="5.59577">
        <ele>383.2</ele>
        <time>2021-10-10T13:34:54Z</time>
      </trkpt>
      <trkpt lat="46.66498" lon="5.59571">
        <ele>383.6</ele>
        <time>2021-10-10T13:34:58Z</time>
      </trkpt>
      <trkpt lat="46.66501" lon="5.59565">
        <ele>383.8</ele>
        <time>2021-10-10T13:35:03Z</time>
      </trkpt>
      <trkpt lat="46.66504" lon="5.59559">
        <ele>383.8</ele>
        <time>2021-10-10T13:35:08Z</time>
      </trkpt>
      <trkpt lat="46.66506" lon="5.59552">
        <ele>383.8</ele>
        <time>2021-10-10T13:35:13Z</time>
      </trkpt>
      <trkpt lat="46.66507" lon="5.59545">
        <ele>383.8</ele>
        <time>2021-10-10T13:35:18Z</time>
      </trkpt>
      <trkpt lat="46.66508" lon="5.59538">
        <ele>383.5</ele>
        <time>2021-10-10T13:35:23Z</time>
      </trkpt>
      <trkpt lat="46.6651" lon="5.59531">
        <ele>383.1</ele>
        <time>2021-10-10T13:35:28Z</time>
      </trkpt>
      <trkpt lat="46.66511" lon="5.59525">
        <ele>383.1</ele>
        <time>2021-10-10T13:35:32Z</time>
      </trkpt>
      <trkpt lat="46.66513" lon="5.59518">
        <ele>382.8</ele>
        <time>2021-10-10T13:35:37Z</time>
      </trkpt>
      <trkpt lat="46.66514" lon="5.59512">
        <ele>382.6</ele>
        <time>2021-10-10T13:35:41Z</time>
      </trkpt>
      <trkpt lat="46.66515" lon="5.59503">
        <ele>382.6</ele>
        <time>2021-10-10T13:35:45Z</time>
      </trkpt>
      <trkpt lat="46.66515" lon="5.59497">
        <ele>382.8</ele>
        <time>2021-10-10T13:35:48Z</time>
      </trkpt>
      <trkpt lat="46.66516" lon="5.59489">
        <ele>383.2</ele>
        <time>2021-10-10T13:35:52Z</time>
      </trkpt>
      <trkpt lat="46.66516" lon="5.59481">
        <ele>383.4</ele>
        <time>2021-10-10T13:35:56Z</time>
      </trkpt>
      <trkpt lat="46.66517" lon="5.59475">
        <ele>383.2</ele>
        <time>2021-10-10T13:36:00Z</time>
      </trkpt>
      <trkpt lat="46.66517" lon="5.59468">
        <ele>383.3</ele>
        <time>2021-10-10T13:36:04Z</time>
      </trkpt>
      <trkpt lat="46.66518" lon="5.59461">
        <ele>383.5</ele>
        <time>2021-10-10T13:36:08Z</time>
      </trkpt>
      <trkpt lat="46.66519" lon="5.59454">
        <ele>384.1</ele>
        <time>2021-10-10T13:36:12Z</time>
      </trkpt>
      <trkpt lat="46.6652" lon="5.59447">
        <ele>385</ele>
        <time>2021-10-10T13:36:16Z</time>
      </trkpt>
      <trkpt lat="46.6652" lon="5.59439">
        <ele>385.9</ele>
        <time>2021-10-10T13:36:21Z</time>
      </trkpt>
      <trkpt lat="46.66521" lon="5.59431">
        <ele>386.6</ele>
        <time>2021-10-10T13:36:25Z</time>
      </trkpt>
      <trkpt lat="46.66521" lon="5.59423">
        <ele>387.5</ele>
        <time>2021-10-10T13:36:29Z</time>
      </trkpt>
      <trkpt lat="46.66521" lon="5.59416">
        <ele>388.6</ele>
        <time>2021-10-10T13:36:34Z</time>
      </trkpt>
      <trkpt lat="46.66525" lon="5.59411">
        <ele>389.4</ele>
        <time>2021-10-10T13:36:40Z</time>
      </trkpt>
      <trkpt lat="46.66525" lon="5.59403">
        <ele>389.7</ele>
        <time>2021-10-10T13:36:45Z</time>
      </trkpt>
      <trkpt lat="46.66525" lon="5.59396">
        <ele>390</ele>
        <time>2021-10-10T13:36:49Z</time>
      </trkpt>
      <trkpt lat="46.66527" lon="5.59389">
        <ele>390.5</ele>
        <time>2021-10-10T13:36:54Z</time>
      </trkpt>
      <trkpt lat="46.66527" lon="5.59382">
        <ele>390.7</ele>
        <time>2021-10-10T13:36:58Z</time>
      </trkpt>
      <trkpt lat="46.66527" lon="5.59374">
        <ele>391</ele>
        <time>2021-10-10T13:37:03Z</time>
      </trkpt>
      <trkpt lat="46.66528" lon="5.59367">
        <ele>390.5</ele>
        <time>2021-10-10T13:37:08Z</time>
      </trkpt>
      <trkpt lat="46.66527" lon="5.5936">
        <ele>390.1</ele>
        <time>2021-10-10T13:37:13Z</time>
      </trkpt>
      <trkpt lat="46.66527" lon="5.59353">
        <ele>390.3</ele>
        <time>2021-10-10T13:37:17Z</time>
      </trkpt>
      <trkpt lat="46.66527" lon="5.59346">
        <ele>389.9</ele>
        <time>2021-10-10T13:37:22Z</time>
      </trkpt>
      <trkpt lat="46.6653" lon="5.59341">
        <ele>389.3</ele>
        <time>2021-10-10T13:37:29Z</time>
      </trkpt>
      <trkpt lat="46.66532" lon="5.59335">
        <ele>389.4</ele>
        <time>2021-10-10T13:37:34Z</time>
      </trkpt>
      <trkpt lat="46.66533" lon="5.59327">
        <ele>389.5</ele>
        <time>2021-10-10T13:37:39Z</time>
      </trkpt>
      <trkpt lat="46.66533" lon="5.59319">
        <ele>389.3</ele>
        <time>2021-10-10T13:37:44Z</time>
      </trkpt>
      <trkpt lat="46.66534" lon="5.59313">
        <ele>388.5</ele>
        <time>2021-10-10T13:37:49Z</time>
      </trkpt>
      <trkpt lat="46.66535" lon="5.59305">
        <ele>387.9</ele>
        <time>2021-10-10T13:37:53Z</time>
      </trkpt>
      <trkpt lat="46.66536" lon="5.59298">
        <ele>387.5</ele>
        <time>2021-10-10T13:37:57Z</time>
      </trkpt>
      <trkpt lat="46.66536" lon="5.5929">
        <ele>386.1</ele>
        <time>2021-10-10T13:38:02Z</time>
      </trkpt>
      <trkpt lat="46.66537" lon="5.59283">
        <ele>385.2</ele>
        <time>2021-10-10T13:38:07Z</time>
      </trkpt>
      <trkpt lat="46.66538" lon="5.59276">
        <ele>384.8</ele>
        <time>2021-10-10T13:38:12Z</time>
      </trkpt>
      <trkpt lat="46.66538" lon="5.59269">
        <ele>384.3</ele>
        <time>2021-10-10T13:38:16Z</time>
      </trkpt>
      <trkpt lat="46.6654" lon="5.59262">
        <ele>383.9</ele>
        <time>2021-10-10T13:38:20Z</time>
      </trkpt>
      <trkpt lat="46.66541" lon="5.59254">
        <ele>383.3</ele>
        <time>2021-10-10T13:38:25Z</time>
      </trkpt>
      <trkpt lat="46.66543" lon="5.59248">
        <ele>382.9</ele>
        <time>2021-10-10T13:38:30Z</time>
      </trkpt>
      <trkpt lat="46.66545" lon="5.5924">
        <ele>382.7</ele>
        <time>2021-10-10T13:38:35Z</time>
      </trkpt>
      <trkpt lat="46.66546" lon="5.59232">
        <ele>382.2</ele>
        <time>2021-10-10T13:38:39Z</time>
      </trkpt>
      <trkpt lat="46.66546" lon="5.59224">
        <ele>380.7</ele>
        <time>2021-10-10T13:38:45Z</time>
      </trkpt>
      <trkpt lat="46.66545" lon="5.59217">
        <ele>380.2</ele>
        <time>2021-10-10T13:38:49Z</time>
      </trkpt>
      <trkpt lat="46.66543" lon="5.5921">
        <ele>380.1</ele>
        <time>2021-10-10T13:38:53Z</time>
      </trkpt>
      <trkpt lat="46.6654" lon="5.59205">
        <ele>381.7</ele>
        <time>2021-10-10T13:39:03Z</time>
      </trkpt>
      <trkpt lat="46.66544" lon="5.592">
        <ele>381.9</ele>
        <time>2021-10-10T13:40:02Z</time>
      </trkpt>
      <trkpt lat="46.66548" lon="5.59197">
        <ele>381.6</ele>
        <time>2021-10-10T13:40:05Z</time>
      </trkpt>
      <trkpt lat="46.66552" lon="5.59193">
        <ele>381.1</ele>
        <time>2021-10-10T13:40:09Z</time>
      </trkpt>
      <trkpt lat="46.66553" lon="5.59186">
        <ele>380.8</ele>
        <time>2021-10-10T13:40:14Z</time>
      </trkpt>
      <trkpt lat="46.66555" lon="5.5918">
        <ele>380.4</ele>
        <time>2021-10-10T13:40:20Z</time>
      </trkpt>
      <trkpt lat="46.66558" lon="5.59174">
        <ele>379.5</ele>
        <time>2021-10-10T13:40:26Z</time>
      </trkpt>
      <trkpt lat="46.66559" lon="5.59167">
        <ele>378.2</ele>
        <time>2021-10-10T13:40:30Z</time>
      </trkpt>
      <trkpt lat="46.6656" lon="5.59159">
        <ele>375.9</ele>
        <time>2021-10-10T13:40:35Z</time>
      </trkpt>
      <trkpt lat="46.66561" lon="5.59152">
        <ele>374.2</ele>
        <time>2021-10-10T13:40:39Z</time>
      </trkpt>
      <trkpt lat="46.66561" lon="5.59145">
        <ele>372.5</ele>
        <time>2021-10-10T13:40:43Z</time>
      </trkpt>
      <trkpt lat="46.66564" lon="5.59139">
        <ele>371.4</ele>
        <time>2021-10-10T13:40:48Z</time>
      </trkpt>
      <trkpt lat="46.66568" lon="5.59135">
        <ele>370.9</ele>
        <time>2021-10-10T13:40:52Z</time>
      </trkpt>
      <trkpt lat="46.6657" lon="5.59129">
        <ele>370</ele>
        <time>2021-10-10T13:40:56Z</time>
      </trkpt>
      <trkpt lat="46.66573" lon="5.59122">
        <ele>368.9</ele>
        <time>2021-10-10T13:41:01Z</time>
      </trkpt>
      <trkpt lat="46.66575" lon="5.59116">
        <ele>368.9</ele>
        <time>2021-10-10T13:41:05Z</time>
      </trkpt>
      <trkpt lat="46.66577" lon="5.5911">
        <ele>368.6</ele>
        <time>2021-10-10T13:41:09Z</time>
      </trkpt>
      <trkpt lat="46.66578" lon="5.59102">
        <ele>367.9</ele>
        <time>2021-10-10T13:41:14Z</time>
      </trkpt>
      <trkpt lat="46.6658" lon="5.59096">
        <ele>367.6</ele>
        <time>2021-10-10T13:41:18Z</time>
      </trkpt>
      <trkpt lat="46.66584" lon="5.59091">
        <ele>367.4</ele>
        <time>2021-10-10T13:41:23Z</time>
      </trkpt>
      <trkpt lat="46.66587" lon="5.59086">
        <ele>367.1</ele>
        <time>2021-10-10T13:41:27Z</time>
      </trkpt>
      <trkpt lat="46.6659" lon="5.5908">
        <ele>367.2</ele>
        <time>2021-10-10T13:41:31Z</time>
      </trkpt>
      <trkpt lat="46.66593" lon="5.59075">
        <ele>367.8</ele>
        <time>2021-10-10T13:41:37Z</time>
      </trkpt>
      <trkpt lat="46.66597" lon="5.5907">
        <ele>368.1</ele>
        <time>2021-10-10T13:41:42Z</time>
      </trkpt>
      <trkpt lat="46.666" lon="5.59065">
        <ele>368.1</ele>
        <time>2021-10-10T13:41:46Z</time>
      </trkpt>
      <trkpt lat="46.66603" lon="5.59058">
        <ele>368</ele>
        <time>2021-10-10T13:41:50Z</time>
      </trkpt>
      <trkpt lat="46.66604" lon="5.59052">
        <ele>367.8</ele>
        <time>2021-10-10T13:41:53Z</time>
      </trkpt>
      <trkpt lat="46.66606" lon="5.59046">
        <ele>367.8</ele>
        <time>2021-10-10T13:41:56Z</time>
      </trkpt>
      <trkpt lat="46.66609" lon="5.59039">
        <ele>368.3</ele>
        <time>2021-10-10T13:42:00Z</time>
      </trkpt>
      <trkpt lat="46.66612" lon="5.59034">
        <ele>369.2</ele>
        <time>2021-10-10T13:42:04Z</time>
      </trkpt>
      <trkpt lat="46.66615" lon="5.59028">
        <ele>370.1</ele>
        <time>2021-10-10T13:42:09Z</time>
      </trkpt>
      <trkpt lat="46.66618" lon="5.59022">
        <ele>371.5</ele>
        <time>2021-10-10T13:42:15Z</time>
      </trkpt>
      <trkpt lat="46.66621" lon="5.59017">
        <ele>372.5</ele>
        <time>2021-10-10T13:42:19Z</time>
      </trkpt>
      <trkpt lat="46.66624" lon="5.59011">
        <ele>373.1</ele>
        <time>2021-10-10T13:42:23Z</time>
      </trkpt>
      <trkpt lat="46.66628" lon="5.59007">
        <ele>373.4</ele>
        <time>2021-10-10T13:42:27Z</time>
      </trkpt>
      <trkpt lat="46.66632" lon="5.59002">
        <ele>373.3</ele>
        <time>2021-10-10T13:42:32Z</time>
      </trkpt>
      <trkpt lat="46.66635" lon="5.58998">
        <ele>372.6</ele>
        <time>2021-10-10T13:42:36Z</time>
      </trkpt>
      <trkpt lat="46.6664" lon="5.58995">
        <ele>371.2</ele>
        <time>2021-10-10T13:42:41Z</time>
      </trkpt>
      <trkpt lat="46.66644" lon="5.58991">
        <ele>370</ele>
        <time>2021-10-10T13:42:46Z</time>
      </trkpt>
      <trkpt lat="46.66648" lon="5.58987">
        <ele>368.7</ele>
        <time>2021-10-10T13:42:51Z</time>
      </trkpt>
      <trkpt lat="46.66651" lon="5.58982">
        <ele>367.7</ele>
        <time>2021-10-10T13:42:55Z</time>
      </trkpt>
      <trkpt lat="46.66655" lon="5.58978">
        <ele>366.5</ele>
        <time>2021-10-10T13:43:00Z</time>
      </trkpt>
      <trkpt lat="46.66658" lon="5.58973">
        <ele>366</ele>
        <time>2021-10-10T13:43:05Z</time>
      </trkpt>
      <trkpt lat="46.66663" lon="5.58972">
        <ele>365.9</ele>
        <time>2021-10-10T13:43:09Z</time>
      </trkpt>
      <trkpt lat="46.66668" lon="5.5897">
        <ele>366</ele>
        <time>2021-10-10T13:43:13Z</time>
      </trkpt>
      <trkpt lat="46.66673" lon="5.58964">
        <ele>366.1</ele>
        <time>2021-10-10T13:43:18Z</time>
      </trkpt>
      <trkpt lat="46.66676" lon="5.58959">
        <ele>366.1</ele>
        <time>2021-10-10T13:43:22Z</time>
      </trkpt>
      <trkpt lat="46.66681" lon="5.58955">
        <ele>366.2</ele>
        <time>2021-10-10T13:43:25Z</time>
      </trkpt>
      <trkpt lat="46.66685" lon="5.5895">
        <ele>366.3</ele>
        <time>2021-10-10T13:43:29Z</time>
      </trkpt>
      <trkpt lat="46.66688" lon="5.58944">
        <ele>366.3</ele>
        <time>2021-10-10T13:43:34Z</time>
      </trkpt>
      <trkpt lat="46.66693" lon="5.5894">
        <ele>366.4</ele>
        <time>2021-10-10T13:43:39Z</time>
      </trkpt>
      <trkpt lat="46.66697" lon="5.58943">
        <ele>372.5</ele>
        <time>2021-10-10T13:44:25Z</time>
      </trkpt>
      <trkpt lat="46.66702" lon="5.58943">
        <ele>372.6</ele>
        <time>2021-10-10T13:44:30Z</time>
      </trkpt>
      <trkpt lat="46.66707" lon="5.58942">
        <ele>372.1</ele>
        <time>2021-10-10T13:44:40Z</time>
      </trkpt>
      <trkpt lat="46.66711" lon="5.58938">
        <ele>371.7</ele>
        <time>2021-10-10T13:44:48Z</time>
      </trkpt>
      <trkpt lat="46.66715" lon="5.58934">
        <ele>372.1</ele>
        <time>2021-10-10T13:44:54Z</time>
      </trkpt>
      <trkpt lat="46.6672" lon="5.58932">
        <ele>372.2</ele>
        <time>2021-10-10T13:44:58Z</time>
      </trkpt>
      <trkpt lat="46.66725" lon="5.5893">
        <ele>372</ele>
        <time>2021-10-10T13:45:02Z</time>
      </trkpt>
      <trkpt lat="46.6673" lon="5.58928">
        <ele>370.6</ele>
        <time>2021-10-10T13:45:08Z</time>
      </trkpt>
      <trkpt lat="46.66734" lon="5.5893">
        <ele>369.1</ele>
        <time>2021-10-10T13:45:14Z</time>
      </trkpt>
      <trkpt lat="46.66739" lon="5.58932">
        <ele>368.4</ele>
        <time>2021-10-10T13:45:18Z</time>
      </trkpt>
      <trkpt lat="46.66743" lon="5.58932">
        <ele>367.8</ele>
        <time>2021-10-10T13:45:22Z</time>
      </trkpt>
      <trkpt lat="46.66748" lon="5.58932">
        <ele>367.4</ele>
        <time>2021-10-10T13:45:28Z</time>
      </trkpt>
      <trkpt lat="46.66753" lon="5.58932">
        <ele>367.5</ele>
        <time>2021-10-10T13:45:33Z</time>
      </trkpt>
      <trkpt lat="46.66757" lon="5.58931">
        <ele>367.3</ele>
        <time>2021-10-10T13:45:36Z</time>
      </trkpt>
      <trkpt lat="46.66762" lon="5.5893">
        <ele>366.5</ele>
        <time>2021-10-10T13:45:40Z</time>
      </trkpt>
      <trkpt lat="46.66767" lon="5.5893">
        <ele>365.4</ele>
        <time>2021-10-10T13:45:45Z</time>
      </trkpt>
      <trkpt lat="46.66773" lon="5.5893">
        <ele>364.2</ele>
        <time>2021-10-10T13:45:50Z</time>
      </trkpt>
      <trkpt lat="46.66777" lon="5.58929">
        <ele>363.6</ele>
        <time>2021-10-10T13:45:54Z</time>
      </trkpt>
      <trkpt lat="46.66782" lon="5.58927">
        <ele>363.5</ele>
        <time>2021-10-10T13:45:58Z</time>
      </trkpt>
      <trkpt lat="46.66787" lon="5.58924">
        <ele>363.3</ele>
        <time>2021-10-10T13:46:02Z</time>
      </trkpt>
      <trkpt lat="46.66791" lon="5.5892">
        <ele>363</ele>
        <time>2021-10-10T13:46:08Z</time>
      </trkpt>
      <trkpt lat="46.66793" lon="5.58913">
        <ele>362.8</ele>
        <time>2021-10-10T13:46:13Z</time>
      </trkpt>
      <trkpt lat="46.66795" lon="5.58906">
        <ele>362.8</ele>
        <time>2021-10-10T13:46:18Z</time>
      </trkpt>
      <trkpt lat="46.66798" lon="5.589">
        <ele>362.7</ele>
        <time>2021-10-10T13:46:24Z</time>
      </trkpt>
      <trkpt lat="46.66802" lon="5.58895">
        <ele>362</ele>
        <time>2021-10-10T13:46:29Z</time>
      </trkpt>
      <trkpt lat="46.66805" lon="5.5889">
        <ele>361.2</ele>
        <time>2021-10-10T13:46:35Z</time>
      </trkpt>
      <trkpt lat="46.66808" lon="5.58884">
        <ele>360.6</ele>
        <time>2021-10-10T13:46:40Z</time>
      </trkpt>
      <trkpt lat="46.66809" lon="5.58877">
        <ele>359.5</ele>
        <time>2021-10-10T13:46:45Z</time>
      </trkpt>
      <trkpt lat="46.66811" lon="5.5887">
        <ele>358.9</ele>
        <time>2021-10-10T13:46:50Z</time>
      </trkpt>
      <trkpt lat="46.66813" lon="5.58864">
        <ele>358.5</ele>
        <time>2021-10-10T13:46:56Z</time>
      </trkpt>
      <trkpt lat="46.66817" lon="5.5886">
        <ele>358.3</ele>
        <time>2021-10-10T13:47:00Z</time>
      </trkpt>
      <trkpt lat="46.66821" lon="5.58855">
        <ele>357.9</ele>
        <time>2021-10-10T13:47:04Z</time>
      </trkpt>
      <trkpt lat="46.66824" lon="5.5885">
        <ele>356.9</ele>
        <time>2021-10-10T13:47:10Z</time>
      </trkpt>
      <trkpt lat="46.66829" lon="5.58847">
        <ele>354.9</ele>
        <time>2021-10-10T13:47:17Z</time>
      </trkpt>
      <trkpt lat="46.66833" lon="5.58843">
        <ele>354.1</ele>
        <time>2021-10-10T13:47:21Z</time>
      </trkpt>
      <trkpt lat="46.66836" lon="5.58838">
        <ele>353.6</ele>
        <time>2021-10-10T13:47:25Z</time>
      </trkpt>
      <trkpt lat="46.66839" lon="5.58832">
        <ele>353.3</ele>
        <time>2021-10-10T13:47:30Z</time>
      </trkpt>
      <trkpt lat="46.66843" lon="5.58828">
        <ele>353.4</ele>
        <time>2021-10-10T13:47:36Z</time>
      </trkpt>
      <trkpt lat="46.66845" lon="5.58821">
        <ele>353.5</ele>
        <time>2021-10-10T13:47:41Z</time>
      </trkpt>
      <trkpt lat="46.66847" lon="5.58814">
        <ele>352.8</ele>
        <time>2021-10-10T13:47:45Z</time>
      </trkpt>
      <trkpt lat="46.66851" lon="5.58811">
        <ele>351</ele>
        <time>2021-10-10T13:47:51Z</time>
      </trkpt>
      <trkpt lat="46.66856" lon="5.5881">
        <ele>350.1</ele>
        <time>2021-10-10T13:47:56Z</time>
      </trkpt>
      <trkpt lat="46.6686" lon="5.58806">
        <ele>348.9</ele>
        <time>2021-10-10T13:48:03Z</time>
      </trkpt>
      <trkpt lat="46.66865" lon="5.58804">
        <ele>348.3</ele>
        <time>2021-10-10T13:48:10Z</time>
      </trkpt>
      <trkpt lat="46.66869" lon="5.58808">
        <ele>348.7</ele>
        <time>2021-10-10T13:48:15Z</time>
      </trkpt>
      <trkpt lat="46.66872" lon="5.58814">
        <ele>349.7</ele>
        <time>2021-10-10T13:48:21Z</time>
      </trkpt>
      <trkpt lat="46.66876" lon="5.58817">
        <ele>350.3</ele>
        <time>2021-10-10T13:51:04Z</time>
      </trkpt>
    </trkseg>
  </trk>
</gpx>